<?xml version='1.0' encoding='UTF-8'?><gpx version="1.1" creator="JPX - https://github.com/jenetics/jpx" xmlns="http://www.topografix.com/GPX/1/1"><trk><trkseg><trkpt lat="43.707287" lon="11.9372184"><ele>1127.0</ele><time>2026-04-11T13:28:10.288Z</time></trkpt><trkpt lat="43.7073501" lon="11.9371963"><ele>1127.0</ele><time>2026-04-11T13:29:56.288Z</time></trkpt><trkpt lat="43.7074594" lon="11.9371164"><ele>1127.0</ele><time>2026-04-11T13:29:59.288Z</time></trkpt><trkpt lat="43.7075343" lon="11.9370564"><ele>1127.0</ele><time>2026-04-11T13:30:01.288Z</time></trkpt><trkpt lat="43.7076021" lon="11.9370483"><ele>1127.0</ele><time>2026-04-11T13:30:03.288Z</time></trkpt><trkpt lat="43.7076496" lon="11.9371558"><ele>1127.0</ele><time>2026-04-11T13:30:05.288Z</time></trkpt><trkpt lat="43.7076742" lon="11.9372695"><ele>1127.0</ele><time>2026-04-11T13:30:06.288Z</time></trkpt><trkpt lat="43.707706" lon="11.9373653"><ele>1127.0</ele><time>2026-04-11T13:30:07.288Z</time></trkpt><trkpt lat="43.707745" lon="11.9374573"><ele>1127.0</ele><time>2026-04-11T13:30:08.288Z</time></trkpt><trkpt lat="43.7077947" lon="11.9375518"><ele>1127.0</ele><time>2026-04-11T13:30:09.288Z</time></trkpt><trkpt lat="43.7078512" lon="11.9376573"><ele>1127.0</ele><time>2026-04-11T13:30:10.289Z</time></trkpt><trkpt lat="43.7079185" lon="11.9377695"><ele>1127.0</ele><time>2026-04-11T13:30:11.289Z</time></trkpt><trkpt lat="43.7079863" lon="11.9378859"><ele>1129.2</ele><time>2026-04-11T13:30:12.289Z</time></trkpt><trkpt lat="43.7080417" lon="11.9380014"><ele>1131.4</ele><time>2026-04-11T13:30:13.288Z</time></trkpt><trkpt lat="43.7081006" lon="11.9381174"><ele>1133.6</ele><time>2026-04-11T13:30:14.288Z</time></trkpt><trkpt lat="43.7081655" lon="11.9382127"><ele>1135.8</ele><time>2026-04-11T13:30:15.288Z</time></trkpt><trkpt lat="43.7082335" lon="11.9383033"><ele>1138.0</ele><time>2026-04-11T13:30:16.288Z</time></trkpt><trkpt lat="43.7082936" lon="11.9383819"><ele>1135.1666666666665</ele><time>2026-04-11T13:30:17.287Z</time></trkpt><trkpt lat="43.7083539" lon="11.9384528"><ele>1132.3333333333333</ele><time>2026-04-11T13:30:18.289Z</time></trkpt><trkpt lat="43.7083975" lon="11.9385242"><ele>1129.5</ele><time>2026-04-11T13:30:19.288Z</time></trkpt><trkpt lat="43.7084128" lon="11.9386603"><ele>1126.6666666666667</ele><time>2026-04-11T13:30:21.288Z</time></trkpt><trkpt lat="43.7083207" lon="11.9387384"><ele>1123.8333333333335</ele><time>2026-04-11T13:30:23.289Z</time></trkpt><trkpt lat="43.7082585" lon="11.9386783"><ele>1121.0</ele><time>2026-04-11T13:30:24.288Z</time></trkpt><trkpt lat="43.7082122" lon="11.938589"><ele>1121.0</ele><time>2026-04-11T13:30:25.288Z</time></trkpt><trkpt lat="43.7081607" lon="11.9384791"><ele>1121.0</ele><time>2026-04-11T13:30:26.288Z</time></trkpt><trkpt lat="43.7081059" lon="11.9383475"><ele>1121.0</ele><time>2026-04-11T13:30:27.29Z</time></trkpt><trkpt lat="43.7080554" lon="11.9382137"><ele>1121.0</ele><time>2026-04-11T13:30:28.289Z</time></trkpt><trkpt lat="43.7079913" lon="11.9380914"><ele>1121.0</ele><time>2026-04-11T13:30:29.287Z</time></trkpt><trkpt lat="43.7079231" lon="11.9379801"><ele>1119.6</ele><time>2026-04-11T13:30:30.288Z</time></trkpt><trkpt lat="43.7078398" lon="11.937879"><ele>1118.1999999999998</ele><time>2026-04-11T13:30:31.288Z</time></trkpt><trkpt lat="43.7077453" lon="11.9378068"><ele>1116.8000000000002</ele><time>2026-04-11T13:30:32.287Z</time></trkpt><trkpt lat="43.7076343" lon="11.9377826"><ele>1115.4</ele><time>2026-04-11T13:30:33.289Z</time></trkpt><trkpt lat="43.7075267" lon="11.9378011"><ele>1114.0</ele><time>2026-04-11T13:30:34.287Z</time></trkpt><trkpt lat="43.7074193" lon="11.9378643"><ele>1114.0</ele><time>2026-04-11T13:30:35.288Z</time></trkpt><trkpt lat="43.707306" lon="11.9379588"><ele>1114.0</ele><time>2026-04-11T13:30:36.288Z</time></trkpt><trkpt lat="43.7071902" lon="11.9380648"><ele>1114.0</ele><time>2026-04-11T13:30:37.288Z</time></trkpt><trkpt lat="43.7070713" lon="11.9381711"><ele>1114.0</ele><time>2026-04-11T13:30:38.288Z</time></trkpt><trkpt lat="43.7069464" lon="11.9382696"><ele>1112.75</ele><time>2026-04-11T13:30:39.287Z</time></trkpt><trkpt lat="43.7068233" lon="11.9383278"><ele>1111.5</ele><time>2026-04-11T13:30:40.289Z</time></trkpt><trkpt lat="43.7067089" lon="11.9383633"><ele>1110.25</ele><time>2026-04-11T13:30:41.288Z</time></trkpt><trkpt lat="43.706577" lon="11.9383062"><ele>1109.0</ele><time>2026-04-11T13:30:42.289Z</time></trkpt><trkpt lat="43.706451" lon="11.9382459"><ele>1109.0</ele><time>2026-04-11T13:30:43.289Z</time></trkpt><trkpt lat="43.7063308" lon="11.9381793"><ele>1109.0</ele><time>2026-04-11T13:30:44.287Z</time></trkpt><trkpt lat="43.7062434" lon="11.9380752"><ele>1109.0</ele><time>2026-04-11T13:30:45.288Z</time></trkpt><trkpt lat="43.706164" lon="11.9379637"><ele>1109.0</ele><time>2026-04-11T13:30:46.287Z</time></trkpt><trkpt lat="43.7061186" lon="11.9378337"><ele>1109.0</ele><time>2026-04-11T13:30:47.288Z</time></trkpt><trkpt lat="43.7060902" lon="11.9377064"><ele>1109.0</ele><time>2026-04-11T13:30:48.288Z</time></trkpt><trkpt lat="43.7060666" lon="11.9376073"><ele>1109.0</ele><time>2026-04-11T13:30:49.289Z</time></trkpt><trkpt lat="43.7060121" lon="11.9375345"><ele>1109.0</ele><time>2026-04-11T13:30:50.288Z</time></trkpt><trkpt lat="43.7059293" lon="11.9375266"><ele>1109.0</ele><time>2026-04-11T13:30:51.289Z</time></trkpt><trkpt lat="43.7058661" lon="11.937518"><ele>1109.0</ele><time>2026-04-11T13:30:52.288Z</time></trkpt><trkpt lat="43.7058261" lon="11.9376069"><ele>1105.6000000000001</ele><time>2026-04-11T13:30:53.289Z</time></trkpt><trkpt lat="43.7057835" lon="11.9377183"><ele>1102.2</ele><time>2026-04-11T13:30:54.288Z</time></trkpt><trkpt lat="43.7057873" lon="11.9378397"><ele>1098.8000000000002</ele><time>2026-04-11T13:30:55.288Z</time></trkpt><trkpt lat="43.7058299" lon="11.9379805"><ele>1095.4</ele><time>2026-04-11T13:30:56.287Z</time></trkpt><trkpt lat="43.705884" lon="11.9381243"><ele>1092.0</ele><time>2026-04-11T13:30:57.287Z</time></trkpt><trkpt lat="43.7059497" lon="11.9382597"><ele>1092.0</ele><time>2026-04-11T13:30:58.289Z</time></trkpt><trkpt lat="43.706026" lon="11.9383846"><ele>1092.0</ele><time>2026-04-11T13:30:59.288Z</time></trkpt><trkpt lat="43.7061172" lon="11.9384905"><ele>1092.0</ele><time>2026-04-11T13:31:00.288Z</time></trkpt><trkpt lat="43.7062039" lon="11.938573"><ele>1092.0</ele><time>2026-04-11T13:31:01.288Z</time></trkpt><trkpt lat="43.7062807" lon="11.938629"><ele>1092.0</ele><time>2026-04-11T13:31:02.288Z</time></trkpt><trkpt lat="43.7063281" lon="11.9387052"><ele>1091.6666666666667</ele><time>2026-04-11T13:31:03.288Z</time></trkpt><trkpt lat="43.7063379" lon="11.9387952"><ele>1091.3333333333333</ele><time>2026-04-11T13:31:04.289Z</time></trkpt><trkpt lat="43.7063064" lon="11.9388725"><ele>1091.0</ele><time>2026-04-11T13:31:05.287Z</time></trkpt><trkpt lat="43.7062475" lon="11.9389111"><ele>1090.6666666666665</ele><time>2026-04-11T13:31:06.288Z</time></trkpt><trkpt lat="43.706174" lon="11.9388749"><ele>1090.3333333333333</ele><time>2026-04-11T13:31:07.289Z</time></trkpt><trkpt lat="43.7060938" lon="11.9387778"><ele>1090.0</ele><time>2026-04-11T13:31:08.288Z</time></trkpt><trkpt lat="43.7060091" lon="11.938646"><ele>1090.6666666666665</ele><time>2026-04-11T13:31:09.287Z</time></trkpt><trkpt lat="43.7059114" lon="11.9385223"><ele>1091.3333333333333</ele><time>2026-04-11T13:31:10.288Z</time></trkpt><trkpt lat="43.7057847" lon="11.9383985"><ele>1092.0</ele><time>2026-04-11T13:31:11.288Z</time></trkpt><trkpt lat="43.7056457" lon="11.9382771"><ele>1092.0</ele><time>2026-04-11T13:31:12.288Z</time></trkpt><trkpt lat="43.7055011" lon="11.9381792"><ele>1092.0</ele><time>2026-04-11T13:31:13.288Z</time></trkpt><trkpt lat="43.7053628" lon="11.9380973"><ele>1092.0</ele><time>2026-04-11T13:31:14.288Z</time></trkpt><trkpt lat="43.705229" lon="11.938017"><ele>1088.2</ele><time>2026-04-11T13:31:15.289Z</time></trkpt><trkpt lat="43.7051196" lon="11.9379464"><ele>1084.4</ele><time>2026-04-11T13:31:16.289Z</time></trkpt><trkpt lat="43.705045" lon="11.9378735"><ele>1080.6</ele><time>2026-04-11T13:31:17.288Z</time></trkpt><trkpt lat="43.7050097" lon="11.9377785"><ele>1076.8</ele><time>2026-04-11T13:31:18.288Z</time></trkpt><trkpt lat="43.70502" lon="11.9376574"><ele>1073.0</ele><time>2026-04-11T13:31:19.288Z</time></trkpt><trkpt lat="43.7050812" lon="11.9375569"><ele>1074.0</ele><time>2026-04-11T13:31:20.288Z</time></trkpt><trkpt lat="43.7051521" lon="11.9374708"><ele>1075.0</ele><time>2026-04-11T13:31:21.288Z</time></trkpt><trkpt lat="43.7052501" lon="11.9374146"><ele>1076.0</ele><time>2026-04-11T13:31:22.288Z</time></trkpt><trkpt lat="43.7053217" lon="11.9373489"><ele>1077.0</ele><time>2026-04-11T13:31:23.288Z</time></trkpt><trkpt lat="43.7053804" lon="11.9372783"><ele>1078.0</ele><time>2026-04-11T13:31:24.287Z</time></trkpt><trkpt lat="43.7054402" lon="11.937139"><ele>1078.0</ele><time>2026-04-11T13:31:26.288Z</time></trkpt><trkpt lat="43.7052963" lon="11.9370215"><ele>1078.0</ele><time>2026-04-11T13:31:27.289Z</time></trkpt><trkpt lat="43.7051798" lon="11.936975"><ele>1078.0</ele><time>2026-04-11T13:31:28.287Z</time></trkpt><trkpt lat="43.7050345" lon="11.9369165"><ele>1078.0</ele><time>2026-04-11T13:31:29.288Z</time></trkpt><trkpt lat="43.7048761" lon="11.9368637"><ele>1078.0</ele><time>2026-04-11T13:31:30.288Z</time></trkpt><trkpt lat="43.7047061" lon="11.9368058"><ele>1078.0</ele><time>2026-04-11T13:31:31.289Z</time></trkpt><trkpt lat="43.7045383" lon="11.936746"><ele>1078.0</ele><time>2026-04-11T13:31:32.288Z</time></trkpt><trkpt lat="43.7043806" lon="11.9366831"><ele>1073.3333333333333</ele><time>2026-04-11T13:31:33.288Z</time></trkpt><trkpt lat="43.7042235" lon="11.9366174"><ele>1068.6666666666667</ele><time>2026-04-11T13:31:34.288Z</time></trkpt><trkpt lat="43.7040789" lon="11.9365438"><ele>1064.0</ele><time>2026-04-11T13:31:35.288Z</time></trkpt><trkpt lat="43.7039532" lon="11.936466"><ele>1064.0</ele><time>2026-04-11T13:31:36.288Z</time></trkpt><trkpt lat="43.7038308" lon="11.9363793"><ele>1064.0</ele><time>2026-04-11T13:31:37.288Z</time></trkpt><trkpt lat="43.703743" lon="11.9362531"><ele>1064.0</ele><time>2026-04-11T13:31:38.287Z</time></trkpt><trkpt lat="43.703679" lon="11.9360977"><ele>1064.0</ele><time>2026-04-11T13:31:39.288Z</time></trkpt><trkpt lat="43.7036362" lon="11.9359448"><ele>1064.0</ele><time>2026-04-11T13:31:40.288Z</time></trkpt><trkpt lat="43.7035983" lon="11.9357962"><ele>1064.0</ele><time>2026-04-11T13:31:41.288Z</time></trkpt><trkpt lat="43.7035447" lon="11.93573"><ele>1064.0</ele><time>2026-04-11T13:31:42.288Z</time></trkpt><trkpt lat="43.7034772" lon="11.9357022"><ele>1064.0</ele><time>2026-04-11T13:31:43.288Z</time></trkpt><trkpt lat="43.7034106" lon="11.9357431"><ele>1064.0</ele><time>2026-04-11T13:31:44.287Z</time></trkpt><trkpt lat="43.7033693" lon="11.935832"><ele>1064.0</ele><time>2026-04-11T13:31:45.288Z</time></trkpt><trkpt lat="43.7033688" lon="11.9359447"><ele>1064.0</ele><time>2026-04-11T13:31:46.289Z</time></trkpt><trkpt lat="43.7034109" lon="11.9360755"><ele>1064.0</ele><time>2026-04-11T13:31:47.287Z</time></trkpt><trkpt lat="43.7034792" lon="11.9362182"><ele>1064.0</ele><time>2026-04-11T13:31:48.289Z</time></trkpt><trkpt lat="43.7035604" lon="11.9363643"><ele>1064.0</ele><time>2026-04-11T13:31:49.288Z</time></trkpt><trkpt lat="43.703667" lon="11.936527"><ele>1064.0</ele><time>2026-04-11T13:31:50.287Z</time></trkpt><trkpt lat="43.7037819" lon="11.9366683"><ele>1064.0</ele><time>2026-04-11T13:31:51.288Z</time></trkpt><trkpt lat="43.7038991" lon="11.9367903"><ele>1064.0</ele><time>2026-04-11T13:31:52.288Z</time></trkpt><trkpt lat="43.7040074" lon="11.9368947"><ele>1064.0</ele><time>2026-04-11T13:31:53.287Z</time></trkpt><trkpt lat="43.7040976" lon="11.9369777"><ele>1063.3333333333335</ele><time>2026-04-11T13:31:54.288Z</time></trkpt><trkpt lat="43.7041599" lon="11.9370601"><ele>1062.6666666666667</ele><time>2026-04-11T13:31:55.288Z</time></trkpt><trkpt lat="43.7041906" lon="11.9371689"><ele>1062.0</ele><time>2026-04-11T13:31:56.288Z</time></trkpt><trkpt lat="43.7041806" lon="11.9372731"><ele>1061.3333333333333</ele><time>2026-04-11T13:31:57.288Z</time></trkpt><trkpt lat="43.7041263" lon="11.9373504"><ele>1060.6666666666665</ele><time>2026-04-11T13:31:58.287Z</time></trkpt><trkpt lat="43.7040317" lon="11.9373976"><ele>1060.0</ele><time>2026-04-11T13:31:59.288Z</time></trkpt><trkpt lat="43.7038924" lon="11.9373935"><ele>1060.0</ele><time>2026-04-11T13:32:00.289Z</time></trkpt><trkpt lat="43.7037281" lon="11.9373757"><ele>1060.0</ele><time>2026-04-11T13:32:01.288Z</time></trkpt><trkpt lat="43.7035472" lon="11.9373529"><ele>1060.0</ele><time>2026-04-11T13:32:02.288Z</time></trkpt><trkpt lat="43.703357" lon="11.9373281"><ele>1057.0</ele><time>2026-04-11T13:32:03.289Z</time></trkpt><trkpt lat="43.7031684" lon="11.9372941"><ele>1054.0</ele><time>2026-04-11T13:32:04.288Z</time></trkpt><trkpt lat="43.7029849" lon="11.9372452"><ele>1051.0</ele><time>2026-04-11T13:32:05.288Z</time></trkpt><trkpt lat="43.7028022" lon="11.9371792"><ele>1048.0</ele><time>2026-04-11T13:32:06.288Z</time></trkpt><trkpt lat="43.7026424" lon="11.9370892"><ele>1045.0</ele><time>2026-04-11T13:32:07.287Z</time></trkpt><trkpt lat="43.7024785" lon="11.9370006"><ele>1042.0</ele><time>2026-04-11T13:32:08.288Z</time></trkpt><trkpt lat="43.7023343" lon="11.93691"><ele>1042.0</ele><time>2026-04-11T13:32:09.288Z</time></trkpt><trkpt lat="43.7022016" lon="11.9368321"><ele>1042.0</ele><time>2026-04-11T13:32:10.288Z</time></trkpt><trkpt lat="43.7020739" lon="11.9367518"><ele>1042.0</ele><time>2026-04-11T13:32:11.287Z</time></trkpt><trkpt lat="43.7019561" lon="11.9366939"><ele>1042.0</ele><time>2026-04-11T13:32:12.288Z</time></trkpt><trkpt lat="43.7018536" lon="11.9366761"><ele>1041.2</ele><time>2026-04-11T13:32:13.288Z</time></trkpt><trkpt lat="43.701766" lon="11.9366994"><ele>1040.4</ele><time>2026-04-11T13:32:14.288Z</time></trkpt><trkpt lat="43.7016881" lon="11.9367628"><ele>1039.6</ele><time>2026-04-11T13:32:15.287Z</time></trkpt><trkpt lat="43.7016278" lon="11.9368567"><ele>1038.8</ele><time>2026-04-11T13:32:16.288Z</time></trkpt><trkpt lat="43.7016147" lon="11.9369859"><ele>1038.0</ele><time>2026-04-11T13:32:17.288Z</time></trkpt><trkpt lat="43.7016153" lon="11.9371135"><ele>1036.75</ele><time>2026-04-11T13:32:18.288Z</time></trkpt><trkpt lat="43.7016743" lon="11.9372605"><ele>1035.5</ele><time>2026-04-11T13:32:19.288Z</time></trkpt><trkpt lat="43.7017691" lon="11.9374074"><ele>1034.25</ele><time>2026-04-11T13:32:20.288Z</time></trkpt><trkpt lat="43.7018692" lon="11.9375471"><ele>1033.0</ele><time>2026-04-11T13:32:21.288Z</time></trkpt><trkpt lat="43.701989" lon="11.9376995"><ele>1032.0</ele><time>2026-04-11T13:32:22.289Z</time></trkpt><trkpt lat="43.7021198" lon="11.9378438"><ele>1031.0</ele><time>2026-04-11T13:32:23.287Z</time></trkpt><trkpt lat="43.7022788" lon="11.9380057"><ele>1030.0</ele><time>2026-04-11T13:32:24.288Z</time></trkpt><trkpt lat="43.7024467" lon="11.9381465"><ele>1030.0</ele><time>2026-04-11T13:32:25.288Z</time></trkpt><trkpt lat="43.7026076" lon="11.9382816"><ele>1030.0</ele><time>2026-04-11T13:32:26.288Z</time></trkpt><trkpt lat="43.7027497" lon="11.9383969"><ele>1030.0</ele><time>2026-04-11T13:32:27.288Z</time></trkpt><trkpt lat="43.7028883" lon="11.9384983"><ele>1028.6</ele><time>2026-04-11T13:32:28.288Z</time></trkpt><trkpt lat="43.7030149" lon="11.9385724"><ele>1027.2</ele><time>2026-04-11T13:32:29.288Z</time></trkpt><trkpt lat="43.7031276" lon="11.938623"><ele>1025.8</ele><time>2026-04-11T13:32:30.289Z</time></trkpt><trkpt lat="43.7032314" lon="11.9386642"><ele>1024.4</ele><time>2026-04-11T13:32:31.288Z</time></trkpt><trkpt lat="43.703315" lon="11.9386887"><ele>1023.0</ele><time>2026-04-11T13:32:32.288Z</time></trkpt><trkpt lat="43.7033711" lon="11.9387362"><ele>1023.0</ele><time>2026-04-11T13:32:33.288Z</time></trkpt><trkpt lat="43.7033778" lon="11.9388965"><ele>1023.0</ele><time>2026-04-11T13:32:35.287Z</time></trkpt><trkpt lat="43.7032581" lon="11.9389327"><ele>1023.0</ele><time>2026-04-11T13:32:37.288Z</time></trkpt><trkpt lat="43.7031796" lon="11.9388609"><ele>1023.0</ele><time>2026-04-11T13:32:38.288Z</time></trkpt><trkpt lat="43.7030751" lon="11.938777"><ele>1023.0</ele><time>2026-04-11T13:32:39.289Z</time></trkpt><trkpt lat="43.7029414" lon="11.9386919"><ele>1023.0</ele><time>2026-04-11T13:32:40.288Z</time></trkpt><trkpt lat="43.7027864" lon="11.9386104"><ele>1023.0</ele><time>2026-04-11T13:32:41.287Z</time></trkpt><trkpt lat="43.7026045" lon="11.9385234"><ele>1025.3333333333333</ele><time>2026-04-11T13:32:42.287Z</time></trkpt><trkpt lat="43.702412" lon="11.9384429"><ele>1027.6666666666665</ele><time>2026-04-11T13:32:43.288Z</time></trkpt><trkpt lat="43.702216" lon="11.9383493"><ele>1030.0</ele><time>2026-04-11T13:32:44.288Z</time></trkpt><trkpt lat="43.7020133" lon="11.9382543"><ele>1026.6666666666665</ele><time>2026-04-11T13:32:45.288Z</time></trkpt><trkpt lat="43.7018081" lon="11.938158"><ele>1023.3333333333333</ele><time>2026-04-11T13:32:46.288Z</time></trkpt><trkpt lat="43.7016064" lon="11.9380702"><ele>1020.0</ele><time>2026-04-11T13:32:47.287Z</time></trkpt><trkpt lat="43.7014206" lon="11.9379864"><ele>1020.0</ele><time>2026-04-11T13:32:48.288Z</time></trkpt><trkpt lat="43.7012459" lon="11.937907"><ele>1020.0</ele><time>2026-04-11T13:32:49.289Z</time></trkpt><trkpt lat="43.7010797" lon="11.9378344"><ele>1020.0</ele><time>2026-04-11T13:32:50.288Z</time></trkpt><trkpt lat="43.7009172" lon="11.9377831"><ele>1016.0</ele><time>2026-04-11T13:32:51.287Z</time></trkpt><trkpt lat="43.7007546" lon="11.9377425"><ele>1012.0</ele><time>2026-04-11T13:32:52.288Z</time></trkpt><trkpt lat="43.7005896" lon="11.9377203"><ele>1008.0</ele><time>2026-04-11T13:32:53.288Z</time></trkpt><trkpt lat="43.7004309" lon="11.9377058"><ele>1008.0</ele><time>2026-04-11T13:32:54.288Z</time></trkpt><trkpt lat="43.700273" lon="11.9376833"><ele>1008.0</ele><time>2026-04-11T13:32:55.288Z</time></trkpt><trkpt lat="43.7001306" lon="11.9376491"><ele>1008.0</ele><time>2026-04-11T13:32:56.288Z</time></trkpt><trkpt lat="43.6999916" lon="11.9375927"><ele>1008.0</ele><time>2026-04-11T13:32:57.288Z</time></trkpt><trkpt lat="43.6998654" lon="11.937522"><ele>1008.4</ele><time>2026-04-11T13:32:58.288Z</time></trkpt><trkpt lat="43.6997629" lon="11.9374511"><ele>1008.8</ele><time>2026-04-11T13:32:59.288Z</time></trkpt><trkpt lat="43.6996606" lon="11.9373889"><ele>1009.2</ele><time>2026-04-11T13:33:00.288Z</time></trkpt><trkpt lat="43.6995678" lon="11.9373457"><ele>1009.6</ele><time>2026-04-11T13:33:01.288Z</time></trkpt><trkpt lat="43.6994859" lon="11.9373212"><ele>1010.0</ele><time>2026-04-11T13:33:02.288Z</time></trkpt><trkpt lat="43.6994106" lon="11.9373384"><ele>1007.8333333333334</ele><time>2026-04-11T13:33:03.288Z</time></trkpt><trkpt lat="43.6993509" lon="11.9374075"><ele>1005.6666666666667</ele><time>2026-04-11T13:33:04.288Z</time></trkpt><trkpt lat="43.6993281" lon="11.9375114"><ele>1003.5</ele><time>2026-04-11T13:33:05.289Z</time></trkpt><trkpt lat="43.6993501" lon="11.93762"><ele>1001.3333333333333</ele><time>2026-04-11T13:33:06.288Z</time></trkpt><trkpt lat="43.6994081" lon="11.9377112"><ele>999.1666666666666</ele><time>2026-04-11T13:33:07.287Z</time></trkpt><trkpt lat="43.6994938" lon="11.9377706"><ele>997.0</ele><time>2026-04-11T13:33:08.288Z</time></trkpt><trkpt lat="43.6995952" lon="11.9378272"><ele>997.0</ele><time>2026-04-11T13:33:09.287Z</time></trkpt><trkpt lat="43.6996974" lon="11.9378915"><ele>997.0</ele><time>2026-04-11T13:33:10.289Z</time></trkpt><trkpt lat="43.699802" lon="11.9379551"><ele>997.0</ele><time>2026-04-11T13:33:11.288Z</time></trkpt><trkpt lat="43.6999103" lon="11.9380227"><ele>997.0</ele><time>2026-04-11T13:33:12.288Z</time></trkpt><trkpt lat="43.7000197" lon="11.9380934"><ele>997.0</ele><time>2026-04-11T13:33:13.287Z</time></trkpt><trkpt lat="43.7001348" lon="11.9381666"><ele>997.0</ele><time>2026-04-11T13:33:14.288Z</time></trkpt><trkpt lat="43.7002507" lon="11.9382421"><ele>997.0</ele><time>2026-04-11T13:33:15.287Z</time></trkpt><trkpt lat="43.7003731" lon="11.9383133"><ele>997.0</ele><time>2026-04-11T13:33:16.288Z</time></trkpt><trkpt lat="43.7004909" lon="11.9383844"><ele>995.0</ele><time>2026-04-11T13:33:17.288Z</time></trkpt><trkpt lat="43.7006077" lon="11.938448"><ele>993.0</ele><time>2026-04-11T13:33:18.287Z</time></trkpt><trkpt lat="43.7007268" lon="11.9385108"><ele>991.0</ele><time>2026-04-11T13:33:19.287Z</time></trkpt><trkpt lat="43.7008569" lon="11.9385732"><ele>989.0</ele><time>2026-04-11T13:33:20.287Z</time></trkpt><trkpt lat="43.7009484" lon="11.9386364"><ele>989.0000000000001</ele><time>2026-04-11T13:33:21.288Z</time></trkpt><trkpt lat="43.7010395" lon="11.9386945"><ele>989.0</ele><time>2026-04-11T13:33:22.288Z</time></trkpt><trkpt lat="43.7010963" lon="11.9387758"><ele>989.0</ele><time>2026-04-11T13:33:23.288Z</time></trkpt><trkpt lat="43.7011496" lon="11.9388612"><ele>989.0</ele><time>2026-04-11T13:33:24.288Z</time></trkpt><trkpt lat="43.7011457" lon="11.9389632"><ele>989.0000000000001</ele><time>2026-04-11T13:33:25.288Z</time></trkpt><trkpt lat="43.7011177" lon="11.9390521"><ele>989.0</ele><time>2026-04-11T13:33:26.287Z</time></trkpt><trkpt lat="43.7010423" lon="11.9391152"><ele>989.0</ele><time>2026-04-11T13:33:27.289Z</time></trkpt><trkpt lat="43.700952" lon="11.9391563"><ele>989.0</ele><time>2026-04-11T13:33:28.288Z</time></trkpt><trkpt lat="43.7008318" lon="11.9391715"><ele>989.0</ele><time>2026-04-11T13:33:29.287Z</time></trkpt><trkpt lat="43.7007124" lon="11.939194"><ele>989.0</ele><time>2026-04-11T13:33:30.288Z</time></trkpt><trkpt lat="43.7005857" lon="11.9391952"><ele>989.0</ele><time>2026-04-11T13:33:31.287Z</time></trkpt><trkpt lat="43.7004514" lon="11.9392057"><ele>989.0</ele><time>2026-04-11T13:33:32.288Z</time></trkpt><trkpt lat="43.7003072" lon="11.939219"><ele>989.0</ele><time>2026-04-11T13:33:33.288Z</time></trkpt><trkpt lat="43.7001628" lon="11.9392249"><ele>989.0</ele><time>2026-04-11T13:33:34.288Z</time></trkpt><trkpt lat="43.7000179" lon="11.9392032"><ele>987.25</ele><time>2026-04-11T13:33:35.288Z</time></trkpt><trkpt lat="43.6998909" lon="11.9391396"><ele>985.5</ele><time>2026-04-11T13:33:36.287Z</time></trkpt><trkpt lat="43.699764" lon="11.9390605"><ele>983.75</ele><time>2026-04-11T13:33:37.289Z</time></trkpt><trkpt lat="43.6996504" lon="11.9389475"><ele>982.0</ele><time>2026-04-11T13:33:38.287Z</time></trkpt><trkpt lat="43.6995481" lon="11.9388426"><ele>982.0</ele><time>2026-04-11T13:33:39.288Z</time></trkpt><trkpt lat="43.6994463" lon="11.9387551"><ele>982.0</ele><time>2026-04-11T13:33:40.289Z</time></trkpt><trkpt lat="43.699353" lon="11.9386818"><ele>982.0</ele><time>2026-04-11T13:33:41.288Z</time></trkpt><trkpt lat="43.6992663" lon="11.9386243"><ele>982.0</ele><time>2026-04-11T13:33:42.288Z</time></trkpt><trkpt lat="43.6991906" lon="11.9385841"><ele>982.0</ele><time>2026-04-11T13:33:43.288Z</time></trkpt><trkpt lat="43.6991216" lon="11.9385594"><ele>979.0</ele><time>2026-04-11T13:33:44.288Z</time></trkpt><trkpt lat="43.6990255" lon="11.9385792"><ele>976.0</ele><time>2026-04-11T13:33:46.287Z</time></trkpt><trkpt lat="43.6989919" lon="11.9386563"><ele>973.0</ele><time>2026-04-11T13:33:48.288Z</time></trkpt><trkpt lat="43.6990629" lon="11.9387632"><ele>970.0</ele><time>2026-04-11T13:33:50.288Z</time></trkpt><trkpt lat="43.6991363" lon="11.9388331"><ele>967.0</ele><time>2026-04-11T13:33:51.287Z</time></trkpt><trkpt lat="43.6992247" lon="11.9389161"><ele>967.0</ele><time>2026-04-11T13:33:52.288Z</time></trkpt><trkpt lat="43.6993303" lon="11.9390083"><ele>967.0</ele><time>2026-04-11T13:33:53.288Z</time></trkpt><trkpt lat="43.6994514" lon="11.9391141"><ele>967.0</ele><time>2026-04-11T13:33:54.286Z</time></trkpt><trkpt lat="43.6995839" lon="11.9392148"><ele>967.0</ele><time>2026-04-11T13:33:55.287Z</time></trkpt><trkpt lat="43.6997246" lon="11.9393143"><ele>963.3333333333333</ele><time>2026-04-11T13:33:56.288Z</time></trkpt><trkpt lat="43.6998718" lon="11.9394036"><ele>959.6666666666667</ele><time>2026-04-11T13:33:57.288Z</time></trkpt><trkpt lat="43.7000203" lon="11.9394926"><ele>956.0</ele><time>2026-04-11T13:33:58.289Z</time></trkpt><trkpt lat="43.700172" lon="11.939591"><ele>957.6666666666667</ele><time>2026-04-11T13:33:59.288Z</time></trkpt><trkpt lat="43.7003317" lon="11.939676"><ele>959.3333333333333</ele><time>2026-04-11T13:34:00.287Z</time></trkpt><trkpt lat="43.7004761" lon="11.9397609"><ele>961.0</ele><time>2026-04-11T13:34:01.288Z</time></trkpt><trkpt lat="43.7006266" lon="11.9398313"><ele>961.0</ele><time>2026-04-11T13:34:02.288Z</time></trkpt><trkpt lat="43.7007876" lon="11.9398524"><ele>961.0</ele><time>2026-04-11T13:34:03.287Z</time></trkpt><trkpt lat="43.7009548" lon="11.939883"><ele>961.0</ele><time>2026-04-11T13:34:04.288Z</time></trkpt><trkpt lat="43.7011286" lon="11.939889"><ele>962.6666666666666</ele><time>2026-04-11T13:34:05.289Z</time></trkpt><trkpt lat="43.7012961" lon="11.9399195"><ele>964.3333333333333</ele><time>2026-04-11T13:34:06.288Z</time></trkpt><trkpt lat="43.7014553" lon="11.9399466"><ele>966.0</ele><time>2026-04-11T13:34:07.288Z</time></trkpt><trkpt lat="43.7016036" lon="11.9399928"><ele>965.3333333333333</ele><time>2026-04-11T13:34:08.288Z</time></trkpt><trkpt lat="43.7017353" lon="11.940076"><ele>964.6666666666666</ele><time>2026-04-11T13:34:09.288Z</time></trkpt><trkpt lat="43.7018431" lon="11.9402132"><ele>964.0</ele><time>2026-04-11T13:34:10.287Z</time></trkpt><trkpt lat="43.7019376" lon="11.9404094"><ele>964.0</ele><time>2026-04-11T13:34:11.287Z</time></trkpt><trkpt lat="43.7019954" lon="11.9406235"><ele>964.0</ele><time>2026-04-11T13:34:12.288Z</time></trkpt><trkpt lat="43.7020793" lon="11.9408719"><ele>964.0</ele><time>2026-04-11T13:34:13.288Z</time></trkpt><trkpt lat="43.7021758" lon="11.9411419"><ele>963.0</ele><time>2026-04-11T13:34:14.288Z</time></trkpt><trkpt lat="43.7022664" lon="11.9414076"><ele>962.0</ele><time>2026-04-11T13:34:15.288Z</time></trkpt><trkpt lat="43.7023521" lon="11.9416737"><ele>961.0</ele><time>2026-04-11T13:34:16.288Z</time></trkpt><trkpt lat="43.7024365" lon="11.9419202"><ele>956.6666666666666</ele><time>2026-04-11T13:34:17.288Z</time></trkpt><trkpt lat="43.7025227" lon="11.9421376"><ele>952.3333333333333</ele><time>2026-04-11T13:34:18.288Z</time></trkpt><trkpt lat="43.7026165" lon="11.9423116"><ele>948.0</ele><time>2026-04-11T13:34:19.288Z</time></trkpt><trkpt lat="43.7027348" lon="11.9424566"><ele>949.0</ele><time>2026-04-11T13:34:20.287Z</time></trkpt><trkpt lat="43.7028784" lon="11.9425509"><ele>950.0</ele><time>2026-04-11T13:34:21.288Z</time></trkpt><trkpt lat="43.7030414" lon="11.9426096"><ele>951.0</ele><time>2026-04-11T13:34:22.287Z</time></trkpt><trkpt lat="43.7031966" lon="11.9426816"><ele>951.0</ele><time>2026-04-11T13:34:23.287Z</time></trkpt><trkpt lat="43.7033344" lon="11.9427902"><ele>951.0</ele><time>2026-04-11T13:34:24.288Z</time></trkpt><trkpt lat="43.703453" lon="11.9429333"><ele>951.0</ele><time>2026-04-11T13:34:25.287Z</time></trkpt><trkpt lat="43.7035443" lon="11.9431063"><ele>954.3333333333333</ele><time>2026-04-11T13:34:26.288Z</time></trkpt><trkpt lat="43.7035955" lon="11.9433047"><ele>957.6666666666666</ele><time>2026-04-11T13:34:27.288Z</time></trkpt><trkpt lat="43.7036137" lon="11.9435255"><ele>961.0</ele><time>2026-04-11T13:34:28.288Z</time></trkpt><trkpt lat="43.703595" lon="11.9437607"><ele>959.6666666666666</ele><time>2026-04-11T13:34:29.288Z</time></trkpt><trkpt lat="43.7035436" lon="11.9439964"><ele>958.3333333333333</ele><time>2026-04-11T13:34:30.288Z</time></trkpt><trkpt lat="43.7034595" lon="11.9442356"><ele>957.0</ele><time>2026-04-11T13:34:31.288Z</time></trkpt><trkpt lat="43.7033562" lon="11.9444727"><ele>957.0</ele><time>2026-04-11T13:34:32.288Z</time></trkpt><trkpt lat="43.7032578" lon="11.9447049"><ele>957.0</ele><time>2026-04-11T13:34:33.288Z</time></trkpt><trkpt lat="43.703168" lon="11.9449215"><ele>957.0</ele><time>2026-04-11T13:34:34.289Z</time></trkpt><trkpt lat="43.7031249" lon="11.9451019"><ele>957.3333333333333</ele><time>2026-04-11T13:34:35.288Z</time></trkpt><trkpt lat="43.7030942" lon="11.9453126"><ele>957.6666666666666</ele><time>2026-04-11T13:34:36.288Z</time></trkpt><trkpt lat="43.7031052" lon="11.9455216"><ele>958.0</ele><time>2026-04-11T13:34:37.288Z</time></trkpt><trkpt lat="43.7031404" lon="11.9457522"><ele>958.6666666666666</ele><time>2026-04-11T13:34:38.288Z</time></trkpt><trkpt lat="43.703199" lon="11.9459963"><ele>959.3333333333333</ele><time>2026-04-11T13:34:39.288Z</time></trkpt><trkpt lat="43.703274" lon="11.9462694"><ele>960.0</ele><time>2026-04-11T13:34:40.288Z</time></trkpt><trkpt lat="43.703348" lon="11.9465685"><ele>962.0</ele><time>2026-04-11T13:34:41.289Z</time></trkpt><trkpt lat="43.7034246" lon="11.9468836"><ele>964.0</ele><time>2026-04-11T13:34:42.289Z</time></trkpt><trkpt lat="43.7035032" lon="11.9472234"><ele>972.0</ele><time>2026-04-11T13:34:43.288Z</time></trkpt><trkpt lat="43.7035942" lon="11.9475804"><ele>980.0</ele><time>2026-04-11T13:34:44.287Z</time></trkpt><trkpt lat="43.7036738" lon="11.9479198"><ele>980.0</ele><time>2026-04-11T13:34:45.288Z</time></trkpt><trkpt lat="43.7037491" lon="11.9482303"><ele>980.0</ele><time>2026-04-11T13:34:46.288Z</time></trkpt><trkpt lat="43.7038196" lon="11.948519"><ele>979.6666666666667</ele><time>2026-04-11T13:34:47.288Z</time></trkpt><trkpt lat="43.7038832" lon="11.948783"><ele>979.3333333333333</ele><time>2026-04-11T13:34:48.289Z</time></trkpt><trkpt lat="43.7039439" lon="11.9490208"><ele>979.0</ele><time>2026-04-11T13:34:49.288Z</time></trkpt><trkpt lat="43.7040022" lon="11.9492368"><ele>979.0</ele><time>2026-04-11T13:34:50.288Z</time></trkpt><trkpt lat="43.7040442" lon="11.9494383"><ele>979.0</ele><time>2026-04-11T13:34:51.288Z</time></trkpt><trkpt lat="43.7040558" lon="11.9496363"><ele>979.0</ele><time>2026-04-11T13:34:52.288Z</time></trkpt><trkpt lat="43.7040388" lon="11.9498406"><ele>979.0</ele><time>2026-04-11T13:34:53.288Z</time></trkpt><trkpt lat="43.7039707" lon="11.9500347"><ele>981.0</ele><time>2026-04-11T13:34:54.288Z</time></trkpt><trkpt lat="43.7038639" lon="11.9501971"><ele>983.0</ele><time>2026-04-11T13:34:55.288Z</time></trkpt><trkpt lat="43.7037207" lon="11.9503274"><ele>985.0</ele><time>2026-04-11T13:34:56.288Z</time></trkpt><trkpt lat="43.703544" lon="11.9504296"><ele>985.0</ele><time>2026-04-11T13:34:57.288Z</time></trkpt><trkpt lat="43.70336" lon="11.9505384"><ele>985.0</ele><time>2026-04-11T13:34:58.288Z</time></trkpt><trkpt lat="43.7031889" lon="11.9506529"><ele>985.0</ele><time>2026-04-11T13:34:59.288Z</time></trkpt><trkpt lat="43.7030278" lon="11.950769"><ele>984.0</ele><time>2026-04-11T13:35:00.288Z</time></trkpt><trkpt lat="43.7028744" lon="11.9509024"><ele>983.0</ele><time>2026-04-11T13:35:01.288Z</time></trkpt><trkpt lat="43.7027324" lon="11.9510799"><ele>982.0</ele><time>2026-04-11T13:35:02.286Z</time></trkpt><trkpt lat="43.702592" lon="11.9513109"><ele>982.0</ele><time>2026-04-11T13:35:03.288Z</time></trkpt><trkpt lat="43.7024451" lon="11.951555"><ele>982.0</ele><time>2026-04-11T13:35:04.288Z</time></trkpt><trkpt lat="43.7022969" lon="11.9517916"><ele>986.0</ele><time>2026-04-11T13:35:05.287Z</time></trkpt><trkpt lat="43.7021594" lon="11.9520007"><ele>990.0</ele><time>2026-04-11T13:35:06.288Z</time></trkpt><trkpt lat="43.7020463" lon="11.9521851"><ele>994.0</ele><time>2026-04-11T13:35:07.287Z</time></trkpt><trkpt lat="43.7019545" lon="11.9523469"><ele>993.0</ele><time>2026-04-11T13:35:08.288Z</time></trkpt><trkpt lat="43.7019202" lon="11.9525417"><ele>992.0</ele><time>2026-04-11T13:35:09.288Z</time></trkpt><trkpt lat="43.7019136" lon="11.9527538"><ele>991.0</ele><time>2026-04-11T13:35:10.288Z</time></trkpt><trkpt lat="43.7019448" lon="11.9529588"><ele>991.0</ele><time>2026-04-11T13:35:11.288Z</time></trkpt><trkpt lat="43.7020189" lon="11.9531426"><ele>991.0</ele><time>2026-04-11T13:35:12.288Z</time></trkpt><trkpt lat="43.7021355" lon="11.9533015"><ele>991.0</ele><time>2026-04-11T13:35:13.287Z</time></trkpt><trkpt lat="43.7022661" lon="11.9534519"><ele>989.6666666666666</ele><time>2026-04-11T13:35:14.288Z</time></trkpt><trkpt lat="43.7024" lon="11.953597"><ele>988.3333333333333</ele><time>2026-04-11T13:35:15.287Z</time></trkpt><trkpt lat="43.7025181" lon="11.9537759"><ele>987.0</ele><time>2026-04-11T13:35:16.288Z</time></trkpt><trkpt lat="43.7026092" lon="11.9539779"><ele>989.0</ele><time>2026-04-11T13:35:17.288Z</time></trkpt><trkpt lat="43.702673" lon="11.9542072"><ele>991.0</ele><time>2026-04-11T13:35:18.287Z</time></trkpt><trkpt lat="43.7027094" lon="11.9544661"><ele>993.0</ele><time>2026-04-11T13:35:19.287Z</time></trkpt><trkpt lat="43.7027237" lon="11.9547333"><ele>993.0</ele><time>2026-04-11T13:35:20.288Z</time></trkpt><trkpt lat="43.7027054" lon="11.9549899"><ele>993.0</ele><time>2026-04-11T13:35:21.289Z</time></trkpt><trkpt lat="43.7026486" lon="11.9552543"><ele>993.0</ele><time>2026-04-11T13:35:22.288Z</time></trkpt><trkpt lat="43.7025484" lon="11.955499"><ele>995.0</ele><time>2026-04-11T13:35:23.287Z</time></trkpt><trkpt lat="43.7024217" lon="11.9557495"><ele>997.0</ele><time>2026-04-11T13:35:24.286Z</time></trkpt><trkpt lat="43.7022863" lon="11.9559954"><ele>999.0</ele><time>2026-04-11T13:35:25.289Z</time></trkpt><trkpt lat="43.702144" lon="11.9562445"><ele>1002.6666666666667</ele><time>2026-04-11T13:35:26.287Z</time></trkpt><trkpt lat="43.7020034" lon="11.9564951"><ele>1006.3333333333334</ele><time>2026-04-11T13:35:27.287Z</time></trkpt><trkpt lat="43.7018717" lon="11.956728"><ele>1010.0</ele><time>2026-04-11T13:35:28.288Z</time></trkpt><trkpt lat="43.7017447" lon="11.9569479"><ele>1010.0</ele><time>2026-04-11T13:35:29.287Z</time></trkpt><trkpt lat="43.7016311" lon="11.9571514"><ele>1010.0</ele><time>2026-04-11T13:35:30.288Z</time></trkpt><trkpt lat="43.7015231" lon="11.9573331"><ele>1010.0</ele><time>2026-04-11T13:35:31.286Z</time></trkpt><trkpt lat="43.7014184" lon="11.9574363"><ele>1010.0</ele><time>2026-04-11T13:35:32.289Z</time></trkpt><trkpt lat="43.7012916" lon="11.9575168"><ele>1010.0</ele><time>2026-04-11T13:35:33.287Z</time></trkpt><trkpt lat="43.7011457" lon="11.9575141"><ele>1010.0</ele><time>2026-04-11T13:35:34.288Z</time></trkpt><trkpt lat="43.7009854" lon="11.9574386"><ele>1010.3333333333334</ele><time>2026-04-11T13:35:35.288Z</time></trkpt><trkpt lat="43.70082" lon="11.9573152"><ele>1010.6666666666667</ele><time>2026-04-11T13:35:36.287Z</time></trkpt><trkpt lat="43.7006406" lon="11.9571338"><ele>1011.0</ele><time>2026-04-11T13:35:37.287Z</time></trkpt><trkpt lat="43.7004504" lon="11.9569575"><ele>1011.0</ele><time>2026-04-11T13:35:38.288Z</time></trkpt><trkpt lat="43.7002551" lon="11.9567734"><ele>1011.0</ele><time>2026-04-11T13:35:39.288Z</time></trkpt><trkpt lat="43.7000785" lon="11.956602"><ele>1013.6666666666667</ele><time>2026-04-11T13:35:40.287Z</time></trkpt><trkpt lat="43.6999074" lon="11.9564444"><ele>1016.3333333333334</ele><time>2026-04-11T13:35:41.288Z</time></trkpt><trkpt lat="43.6997644" lon="11.9563083"><ele>1019.0</ele><time>2026-04-11T13:35:42.289Z</time></trkpt><trkpt lat="43.6996224" lon="11.9561858"><ele>1019.0</ele><time>2026-04-11T13:35:43.288Z</time></trkpt><trkpt lat="43.6994816" lon="11.9561071"><ele>1019.0</ele><time>2026-04-11T13:35:44.287Z</time></trkpt><trkpt lat="43.6993257" lon="11.956077"><ele>1019.0</ele><time>2026-04-11T13:35:45.288Z</time></trkpt><trkpt lat="43.6991758" lon="11.9560985"><ele>1020.5</ele><time>2026-04-11T13:35:46.287Z</time></trkpt><trkpt lat="43.699038" lon="11.9561784"><ele>1022.0</ele><time>2026-04-11T13:35:47.288Z</time></trkpt><trkpt lat="43.6989176" lon="11.9562997"><ele>1023.5</ele><time>2026-04-11T13:35:48.287Z</time></trkpt><trkpt lat="43.6988166" lon="11.9564549"><ele>1025.0</ele><time>2026-04-11T13:35:49.288Z</time></trkpt><trkpt lat="43.6987435" lon="11.9566414"><ele>1026.3333333333335</ele><time>2026-04-11T13:35:50.287Z</time></trkpt><trkpt lat="43.6987115" lon="11.9568516"><ele>1027.6666666666667</ele><time>2026-04-11T13:35:51.288Z</time></trkpt><trkpt lat="43.6987251" lon="11.9570769"><ele>1029.0</ele><time>2026-04-11T13:35:52.287Z</time></trkpt><trkpt lat="43.6987869" lon="11.9573196"><ele>1029.6666666666667</ele><time>2026-04-11T13:35:53.288Z</time></trkpt><trkpt lat="43.6988952" lon="11.9575621"><ele>1030.3333333333335</ele><time>2026-04-11T13:35:54.288Z</time></trkpt><trkpt lat="43.6990348" lon="11.95782"><ele>1031.0</ele><time>2026-04-11T13:35:55.287Z</time></trkpt><trkpt lat="43.6991898" lon="11.958083"><ele>1031.0</ele><time>2026-04-11T13:35:56.287Z</time></trkpt><trkpt lat="43.6993552" lon="11.9583639"><ele>1031.0</ele><time>2026-04-11T13:35:57.287Z</time></trkpt><trkpt lat="43.6995228" lon="11.9586677"><ele>1034.5</ele><time>2026-04-11T13:35:58.288Z</time></trkpt><trkpt lat="43.6996964" lon="11.9589836"><ele>1038.0</ele><time>2026-04-11T13:35:59.288Z</time></trkpt><trkpt lat="43.6998655" lon="11.9593164"><ele>1039.5</ele><time>2026-04-11T13:36:00.288Z</time></trkpt><trkpt lat="43.7000492" lon="11.9596423"><ele>1041.0</ele><time>2026-04-11T13:36:01.287Z</time></trkpt><trkpt lat="43.7002335" lon="11.9599766"><ele>1044.0</ele><time>2026-04-11T13:36:02.287Z</time></trkpt><trkpt lat="43.7004066" lon="11.9602885"><ele>1047.0</ele><time>2026-04-11T13:36:03.288Z</time></trkpt><trkpt lat="43.7005678" lon="11.9605728"><ele>1047.0</ele><time>2026-04-11T13:36:04.288Z</time></trkpt><trkpt lat="43.7007141" lon="11.9608379"><ele>1047.0</ele><time>2026-04-11T13:36:05.287Z</time></trkpt><trkpt lat="43.7008495" lon="11.9610834"><ele>1049.0</ele><time>2026-04-11T13:36:06.288Z</time></trkpt><trkpt lat="43.7009679" lon="11.9613066"><ele>1051.0</ele><time>2026-04-11T13:36:07.288Z</time></trkpt><trkpt lat="43.7010793" lon="11.9615102"><ele>1053.0</ele><time>2026-04-11T13:36:08.287Z</time></trkpt><trkpt lat="43.701187" lon="11.9616896"><ele>1048.6666666666667</ele><time>2026-04-11T13:36:09.289Z</time></trkpt><trkpt lat="43.7013103" lon="11.9618308"><ele>1044.3333333333335</ele><time>2026-04-11T13:36:10.288Z</time></trkpt><trkpt lat="43.7014515" lon="11.9619487"><ele>1040.0</ele><time>2026-04-11T13:36:11.289Z</time></trkpt><trkpt lat="43.7016127" lon="11.9620409"><ele>1040.0</ele><time>2026-04-11T13:36:12.287Z</time></trkpt><trkpt lat="43.7017836" lon="11.9620853"><ele>1040.0</ele><time>2026-04-11T13:36:13.287Z</time></trkpt><trkpt lat="43.7019619" lon="11.9620981"><ele>1040.0</ele><time>2026-04-11T13:36:14.286Z</time></trkpt><trkpt lat="43.7021585" lon="11.9620585"><ele>1036.5</ele><time>2026-04-11T13:36:15.287Z</time></trkpt><trkpt lat="43.7023688" lon="11.9619887"><ele>1033.0</ele><time>2026-04-11T13:36:16.288Z</time></trkpt><trkpt lat="43.7026095" lon="11.9618925"><ele>1024.5</ele><time>2026-04-11T13:36:17.288Z</time></trkpt><trkpt lat="43.702863" lon="11.9617992"><ele>1016.0</ele><time>2026-04-11T13:36:18.288Z</time></trkpt><trkpt lat="43.7031135" lon="11.961699"><ele>1023.0</ele><time>2026-04-11T13:36:19.288Z</time></trkpt><trkpt lat="43.7033498" lon="11.9616148"><ele>1030.0</ele><time>2026-04-11T13:36:20.288Z</time></trkpt><trkpt lat="43.7035849" lon="11.9615218"><ele>1030.0</ele><time>2026-04-11T13:36:21.287Z</time></trkpt><trkpt lat="43.7038112" lon="11.9614479"><ele>1030.0</ele><time>2026-04-11T13:36:22.287Z</time></trkpt><trkpt lat="43.7040369" lon="11.9613638"><ele>1030.0</ele><time>2026-04-11T13:36:23.287Z</time></trkpt><trkpt lat="43.7042465" lon="11.961287"><ele>1030.0</ele><time>2026-04-11T13:36:24.288Z</time></trkpt><trkpt lat="43.7044469" lon="11.9612146"><ele>1030.0</ele><time>2026-04-11T13:36:25.286Z</time></trkpt><trkpt lat="43.7046472" lon="11.9611475"><ele>1026.3333333333333</ele><time>2026-04-11T13:36:26.287Z</time></trkpt><trkpt lat="43.70484" lon="11.9611285"><ele>1022.6666666666667</ele><time>2026-04-11T13:36:27.287Z</time></trkpt><trkpt lat="43.7050319" lon="11.9611532"><ele>1019.0</ele><time>2026-04-11T13:36:28.287Z</time></trkpt><trkpt lat="43.7052308" lon="11.9612343"><ele>1019.0</ele><time>2026-04-11T13:36:29.287Z</time></trkpt><trkpt lat="43.7054259" lon="11.9613384"><ele>1019.0</ele><time>2026-04-11T13:36:30.288Z</time></trkpt><trkpt lat="43.7056076" lon="11.9614496"><ele>1019.0</ele><time>2026-04-11T13:36:31.286Z</time></trkpt><trkpt lat="43.7057868" lon="11.9615552"><ele>1019.0</ele><time>2026-04-11T13:36:32.289Z</time></trkpt><trkpt lat="43.7059614" lon="11.9616396"><ele>1019.0</ele><time>2026-04-11T13:36:33.288Z</time></trkpt><trkpt lat="43.7060956" lon="11.9617575"><ele>1019.0</ele><time>2026-04-11T13:36:34.288Z</time></trkpt><trkpt lat="43.7062058" lon="11.9619135"><ele>1024.3333333333335</ele><time>2026-04-11T13:36:35.287Z</time></trkpt><trkpt lat="43.7062917" lon="11.9621084"><ele>1029.6666666666667</ele><time>2026-04-11T13:36:36.288Z</time></trkpt><trkpt lat="43.7063485" lon="11.9623315"><ele>1035.0</ele><time>2026-04-11T13:36:37.289Z</time></trkpt><trkpt lat="43.7063702" lon="11.9625785"><ele>1036.3333333333333</ele><time>2026-04-11T13:36:38.287Z</time></trkpt><trkpt lat="43.7063462" lon="11.9628449"><ele>1037.6666666666665</ele><time>2026-04-11T13:36:39.288Z</time></trkpt><trkpt lat="43.7062828" lon="11.9631308"><ele>1039.0</ele><time>2026-04-11T13:36:40.288Z</time></trkpt><trkpt lat="43.7061875" lon="11.963446"><ele>1040.5</ele><time>2026-04-11T13:36:41.288Z</time></trkpt><trkpt lat="43.7060794" lon="11.9637889"><ele>1042.0</ele><time>2026-04-11T13:36:42.288Z</time></trkpt><trkpt lat="43.7059712" lon="11.9641466"><ele>1024.5</ele><time>2026-04-11T13:36:43.288Z</time></trkpt><trkpt lat="43.7058599" lon="11.9645249"><ele>1007.0</ele><time>2026-04-11T13:36:44.288Z</time></trkpt><trkpt lat="43.7057452" lon="11.9649207"><ele>1007.5</ele><time>2026-04-11T13:36:45.288Z</time></trkpt><trkpt lat="43.7056373" lon="11.9653103"><ele>1008.0</ele><time>2026-04-11T13:36:46.288Z</time></trkpt><trkpt lat="43.7055311" lon="11.9656802"><ele>1007.0</ele><time>2026-04-11T13:36:47.287Z</time></trkpt><trkpt lat="43.7054322" lon="11.9660248"><ele>1006.0</ele><time>2026-04-11T13:36:48.288Z</time></trkpt><trkpt lat="43.7053431" lon="11.9663376"><ele>1006.0</ele><time>2026-04-11T13:36:49.288Z</time></trkpt><trkpt lat="43.7052574" lon="11.9666381"><ele>1006.0</ele><time>2026-04-11T13:36:50.287Z</time></trkpt><trkpt lat="43.7051992" lon="11.9669032"><ele>1006.0</ele><time>2026-04-11T13:36:51.288Z</time></trkpt><trkpt lat="43.7051607" lon="11.9671717"><ele>999.0</ele><time>2026-04-11T13:36:52.288Z</time></trkpt><trkpt lat="43.7051442" lon="11.9674482"><ele>992.0</ele><time>2026-04-11T13:36:53.288Z</time></trkpt><trkpt lat="43.7051446" lon="11.9677308"><ele>985.0</ele><time>2026-04-11T13:36:54.289Z</time></trkpt><trkpt lat="43.7051576" lon="11.9679961"><ele>984.6666666666666</ele><time>2026-04-11T13:36:55.288Z</time></trkpt><trkpt lat="43.7051784" lon="11.9682493"><ele>984.3333333333333</ele><time>2026-04-11T13:36:56.288Z</time></trkpt><trkpt lat="43.7051817" lon="11.9684949"><ele>984.0</ele><time>2026-04-11T13:36:57.288Z</time></trkpt><trkpt lat="43.7051546" lon="11.9687337"><ele>984.0</ele><time>2026-04-11T13:36:58.288Z</time></trkpt><trkpt lat="43.7050933" lon="11.9689585"><ele>984.0</ele><time>2026-04-11T13:36:59.287Z</time></trkpt><trkpt lat="43.7049905" lon="11.9691765"><ele>984.0</ele><time>2026-04-11T13:37:00.288Z</time></trkpt><trkpt lat="43.7048463" lon="11.9693777"><ele>984.6666666666667</ele><time>2026-04-11T13:37:01.287Z</time></trkpt><trkpt lat="43.704681" lon="11.9695727"><ele>985.3333333333334</ele><time>2026-04-11T13:37:02.289Z</time></trkpt><trkpt lat="43.7045092" lon="11.9697537"><ele>986.0</ele><time>2026-04-11T13:37:03.289Z</time></trkpt><trkpt lat="43.7043474" lon="11.9699255"><ele>982.6666666666667</ele><time>2026-04-11T13:37:04.289Z</time></trkpt><trkpt lat="43.7042051" lon="11.9700849"><ele>979.3333333333333</ele><time>2026-04-11T13:37:05.288Z</time></trkpt><trkpt lat="43.7040738" lon="11.9702309"><ele>976.0</ele><time>2026-04-11T13:37:06.288Z</time></trkpt><trkpt lat="43.70395" lon="11.9703706"><ele>976.0</ele><time>2026-04-11T13:37:07.287Z</time></trkpt><trkpt lat="43.703832" lon="11.9705054"><ele>976.0</ele><time>2026-04-11T13:37:08.287Z</time></trkpt><trkpt lat="43.7037173" lon="11.9706356"><ele>976.0</ele><time>2026-04-11T13:37:09.287Z</time></trkpt><trkpt lat="43.7036107" lon="11.9707651"><ele>976.0</ele><time>2026-04-11T13:37:10.288Z</time></trkpt><trkpt lat="43.7035138" lon="11.9709056"><ele>971.0</ele><time>2026-04-11T13:37:11.288Z</time></trkpt><trkpt lat="43.7034336" lon="11.9710781"><ele>966.0</ele><time>2026-04-11T13:37:12.288Z</time></trkpt><trkpt lat="43.7033647" lon="11.9713015"><ele>961.0</ele><time>2026-04-11T13:37:13.288Z</time></trkpt><trkpt lat="43.7032954" lon="11.9715598"><ele>964.0</ele><time>2026-04-11T13:37:14.288Z</time></trkpt><trkpt lat="43.7032059" lon="11.971858"><ele>967.0</ele><time>2026-04-11T13:37:15.288Z</time></trkpt><trkpt lat="43.7031029" lon="11.9721808"><ele>967.5</ele><time>2026-04-11T13:37:16.287Z</time></trkpt><trkpt lat="43.7030005" lon="11.9725264"><ele>968.0</ele><time>2026-04-11T13:37:17.287Z</time></trkpt><trkpt lat="43.702897" lon="11.9728931"><ele>968.0</ele><time>2026-04-11T13:37:18.287Z</time></trkpt><trkpt lat="43.7027933" lon="11.9732592"><ele>968.0</ele><time>2026-04-11T13:37:19.287Z</time></trkpt><trkpt lat="43.7026923" lon="11.9736071"><ele>956.0</ele><time>2026-04-11T13:37:20.288Z</time></trkpt><trkpt lat="43.7025985" lon="11.9739406"><ele>944.0</ele><time>2026-04-11T13:37:21.288Z</time></trkpt><trkpt lat="43.7025189" lon="11.9742355"><ele>944.0</ele><time>2026-04-11T13:37:22.288Z</time></trkpt><trkpt lat="43.7024358" lon="11.9745339"><ele>944.0</ele><time>2026-04-11T13:37:23.287Z</time></trkpt><trkpt lat="43.7023552" lon="11.9748179"><ele>943.3333333333334</ele><time>2026-04-11T13:37:24.288Z</time></trkpt><trkpt lat="43.7022815" lon="11.9750671"><ele>942.6666666666667</ele><time>2026-04-11T13:37:25.287Z</time></trkpt><trkpt lat="43.7022219" lon="11.9752831"><ele>942.0</ele><time>2026-04-11T13:37:26.288Z</time></trkpt><trkpt lat="43.7021739" lon="11.9754793"><ele>942.0</ele><time>2026-04-11T13:37:27.288Z</time></trkpt><trkpt lat="43.7021411" lon="11.9756813"><ele>942.0</ele><time>2026-04-11T13:37:28.287Z</time></trkpt><trkpt lat="43.7021749" lon="11.9758697"><ele>942.0</ele><time>2026-04-11T13:37:29.287Z</time></trkpt><trkpt lat="43.7022417" lon="11.9760739"><ele>937.6666666666667</ele><time>2026-04-11T13:37:30.287Z</time></trkpt><trkpt lat="43.7023687" lon="11.9762549"><ele>933.3333333333334</ele><time>2026-04-11T13:37:31.287Z</time></trkpt><trkpt lat="43.702543" lon="11.97642"><ele>929.0</ele><time>2026-04-11T13:37:32.288Z</time></trkpt><trkpt lat="43.7027308" lon="11.9765955"><ele>925.0</ele><time>2026-04-11T13:37:33.289Z</time></trkpt><trkpt lat="43.7029207" lon="11.9767796"><ele>921.0</ele><time>2026-04-11T13:37:34.287Z</time></trkpt><trkpt lat="43.7031021" lon="11.9769551"><ele>921.0</ele><time>2026-04-11T13:37:35.288Z</time></trkpt><trkpt lat="43.7032709" lon="11.9771155"><ele>921.0</ele><time>2026-04-11T13:37:36.288Z</time></trkpt><trkpt lat="43.7034353" lon="11.9772755"><ele>921.0</ele><time>2026-04-11T13:37:37.288Z</time></trkpt><trkpt lat="43.7035611" lon="11.9774656"><ele>922.0</ele><time>2026-04-11T13:37:38.288Z</time></trkpt><trkpt lat="43.7036815" lon="11.9776879"><ele>923.0</ele><time>2026-04-11T13:37:39.287Z</time></trkpt><trkpt lat="43.7037869" lon="11.9779578"><ele>924.0</ele><time>2026-04-11T13:37:40.288Z</time></trkpt><trkpt lat="43.7038808" lon="11.9782234"><ele>920.3333333333333</ele><time>2026-04-11T13:37:41.286Z</time></trkpt><trkpt lat="43.7039625" lon="11.9784758"><ele>916.6666666666666</ele><time>2026-04-11T13:37:42.286Z</time></trkpt><trkpt lat="43.7040387" lon="11.978696"><ele>913.0</ele><time>2026-04-11T13:37:43.287Z</time></trkpt><trkpt lat="43.7041035" lon="11.9788846"><ele>913.0</ele><time>2026-04-11T13:37:44.287Z</time></trkpt><trkpt lat="43.7041388" lon="11.9790407"><ele>913.0</ele><time>2026-04-11T13:37:45.288Z</time></trkpt><trkpt lat="43.7041472" lon="11.9791904"><ele>913.0</ele><time>2026-04-11T13:37:46.288Z</time></trkpt><trkpt lat="43.7041053" lon="11.9793149"><ele>913.0</ele><time>2026-04-11T13:37:47.288Z</time></trkpt><trkpt lat="43.704024" lon="11.9794108"><ele>913.0</ele><time>2026-04-11T13:37:48.288Z</time></trkpt><trkpt lat="43.7039139" lon="11.9794288"><ele>909.0</ele><time>2026-04-11T13:37:49.288Z</time></trkpt><trkpt lat="43.7037937" lon="11.9793795"><ele>905.0</ele><time>2026-04-11T13:37:50.286Z</time></trkpt><trkpt lat="43.7036783" lon="11.9792841"><ele>901.0</ele><time>2026-04-11T13:37:51.287Z</time></trkpt><trkpt lat="43.703551" lon="11.9790527"><ele>901.0</ele><time>2026-04-11T13:37:52.288Z</time></trkpt><trkpt lat="43.7034245" lon="11.9788221"><ele>901.0</ele><time>2026-04-11T13:37:53.289Z</time></trkpt><trkpt lat="43.7032855" lon="11.9785765"><ele>901.0</ele><time>2026-04-11T13:37:54.288Z</time></trkpt><trkpt lat="43.7031524" lon="11.9783441"><ele>902.3333333333333</ele><time>2026-04-11T13:37:55.288Z</time></trkpt><trkpt lat="43.7030201" lon="11.9781426"><ele>903.6666666666667</ele><time>2026-04-11T13:37:56.287Z</time></trkpt><trkpt lat="43.7028655" lon="11.9779713"><ele>905.0</ele><time>2026-04-11T13:37:57.286Z</time></trkpt><trkpt lat="43.7026748" lon="11.9778308"><ele>897.5</ele><time>2026-04-11T13:37:58.288Z</time></trkpt><trkpt lat="43.7024497" lon="11.9777135"><ele>890.0</ele><time>2026-04-11T13:37:59.288Z</time></trkpt><trkpt lat="43.702205" lon="11.9776199"><ele>890.0</ele><time>2026-04-11T13:38:00.287Z</time></trkpt><trkpt lat="43.7019625" lon="11.9775406"><ele>890.0</ele><time>2026-04-11T13:38:01.286Z</time></trkpt><trkpt lat="43.7017302" lon="11.9774548"><ele>891.6666666666667</ele><time>2026-04-11T13:38:02.287Z</time></trkpt><trkpt lat="43.7015053" lon="11.977371"><ele>893.3333333333333</ele><time>2026-04-11T13:38:03.288Z</time></trkpt><trkpt lat="43.7013138" lon="11.9772919"><ele>895.0</ele><time>2026-04-11T13:38:04.287Z</time></trkpt><trkpt lat="43.7011356" lon="11.9772243"><ele>892.75</ele><time>2026-04-11T13:38:05.287Z</time></trkpt><trkpt lat="43.7009875" lon="11.9771667"><ele>890.5</ele><time>2026-04-11T13:38:06.287Z</time></trkpt><trkpt lat="43.7008547" lon="11.9771212"><ele>888.25</ele><time>2026-04-11T13:38:07.287Z</time></trkpt><trkpt lat="43.7007394" lon="11.9771125"><ele>886.0</ele><time>2026-04-11T13:38:08.289Z</time></trkpt><trkpt lat="43.700632" lon="11.9771432"><ele>886.0</ele><time>2026-04-11T13:38:09.287Z</time></trkpt><trkpt lat="43.7005374" lon="11.9772275"><ele>886.0</ele><time>2026-04-11T13:38:10.288Z</time></trkpt><trkpt lat="43.7004664" lon="11.9773567"><ele>886.0</ele><time>2026-04-11T13:38:11.288Z</time></trkpt><trkpt lat="43.7004305" lon="11.977503"><ele>886.0</ele><time>2026-04-11T13:38:12.287Z</time></trkpt><trkpt lat="43.7004308" lon="11.9776613"><ele>883.5</ele><time>2026-04-11T13:38:13.287Z</time></trkpt><trkpt lat="43.7004703" lon="11.977822"><ele>881.0</ele><time>2026-04-11T13:38:14.288Z</time></trkpt><trkpt lat="43.7005574" lon="11.9779608"><ele>878.5</ele><time>2026-04-11T13:38:15.288Z</time></trkpt><trkpt lat="43.7006797" lon="11.9780622"><ele>876.0</ele><time>2026-04-11T13:38:16.287Z</time></trkpt><trkpt lat="43.7008283" lon="11.9781225"><ele>876.0</ele><time>2026-04-11T13:38:17.288Z</time></trkpt><trkpt lat="43.7009883" lon="11.9781544"><ele>876.0</ele><time>2026-04-11T13:38:18.286Z</time></trkpt><trkpt lat="43.7011469" lon="11.9781813"><ele>876.0</ele><time>2026-04-11T13:38:19.288Z</time></trkpt><trkpt lat="43.7013004" lon="11.9782107"><ele>876.5</ele><time>2026-04-11T13:38:20.288Z</time></trkpt><trkpt lat="43.7014403" lon="11.9782626"><ele>877.0</ele><time>2026-04-11T13:38:21.289Z</time></trkpt><trkpt lat="43.7015595" lon="11.9783361"><ele>877.5</ele><time>2026-04-11T13:38:22.287Z</time></trkpt><trkpt lat="43.7016607" lon="11.9784466"><ele>878.0</ele><time>2026-04-11T13:38:23.288Z</time></trkpt><trkpt lat="43.7017492" lon="11.9785892"><ele>877.3333333333334</ele><time>2026-04-11T13:38:24.289Z</time></trkpt><trkpt lat="43.7018181" lon="11.9787696"><ele>876.6666666666667</ele><time>2026-04-11T13:38:25.288Z</time></trkpt><trkpt lat="43.7018766" lon="11.9789847"><ele>876.0</ele><time>2026-04-11T13:38:26.288Z</time></trkpt><trkpt lat="43.70193" lon="11.9792217"><ele>876.0</ele><time>2026-04-11T13:38:27.287Z</time></trkpt><trkpt lat="43.7019812" lon="11.9795547"><ele>876.0</ele><time>2026-04-11T13:38:28.288Z</time></trkpt><trkpt lat="43.7020257" lon="11.9798743"><ele>872.6666666666667</ele><time>2026-04-11T13:38:29.289Z</time></trkpt><trkpt lat="43.7020681" lon="11.9801693"><ele>869.3333333333334</ele><time>2026-04-11T13:38:30.287Z</time></trkpt><trkpt lat="43.7021081" lon="11.9804228"><ele>866.0</ele><time>2026-04-11T13:38:31.288Z</time></trkpt><trkpt lat="43.7021485" lon="11.9806463"><ele>866.0</ele><time>2026-04-11T13:38:32.287Z</time></trkpt><trkpt lat="43.702201" lon="11.9808331"><ele>866.0</ele><time>2026-04-11T13:38:33.288Z</time></trkpt><trkpt lat="43.7022881" lon="11.9809815"><ele>866.0</ele><time>2026-04-11T13:38:34.287Z</time></trkpt><trkpt lat="43.7024031" lon="11.9810998"><ele>866.0</ele><time>2026-04-11T13:38:35.287Z</time></trkpt><trkpt lat="43.7025523" lon="11.9811655"><ele>858.3333333333334</ele><time>2026-04-11T13:38:36.288Z</time></trkpt><trkpt lat="43.7027184" lon="11.9811632"><ele>850.6666666666667</ele><time>2026-04-11T13:38:37.287Z</time></trkpt><trkpt lat="43.7029104" lon="11.9811098"><ele>843.0</ele><time>2026-04-11T13:38:38.288Z</time></trkpt><trkpt lat="43.7031077" lon="11.9810245"><ele>847.0</ele><time>2026-04-11T13:38:39.288Z</time></trkpt><trkpt lat="43.7033016" lon="11.9809406"><ele>851.0</ele><time>2026-04-11T13:38:40.289Z</time></trkpt><trkpt lat="43.7035048" lon="11.9808636"><ele>855.0</ele><time>2026-04-11T13:38:41.288Z</time></trkpt><trkpt lat="43.7037213" lon="11.9808181"><ele>855.0</ele><time>2026-04-11T13:38:42.287Z</time></trkpt><trkpt lat="43.7039642" lon="11.9807953"><ele>855.0</ele><time>2026-04-11T13:38:43.288Z</time></trkpt><trkpt lat="43.7042291" lon="11.9808015"><ele>854.5</ele><time>2026-04-11T13:38:44.288Z</time></trkpt><trkpt lat="43.704507" lon="11.9808009"><ele>854.0</ele><time>2026-04-11T13:38:45.287Z</time></trkpt><trkpt lat="43.7047797" lon="11.9808181"><ele>854.0</ele><time>2026-04-11T13:38:46.287Z</time></trkpt><trkpt lat="43.7050513" lon="11.9808265"><ele>854.0</ele><time>2026-04-11T13:38:47.288Z</time></trkpt><trkpt lat="43.7053058" lon="11.9808361"><ele>852.0</ele><time>2026-04-11T13:38:48.288Z</time></trkpt><trkpt lat="43.705537" lon="11.9808479"><ele>850.0</ele><time>2026-04-11T13:38:49.288Z</time></trkpt><trkpt lat="43.705733" lon="11.9808537"><ele>848.0</ele><time>2026-04-11T13:38:50.287Z</time></trkpt><trkpt lat="43.7059106" lon="11.9808636"><ele>846.5</ele><time>2026-04-11T13:38:51.288Z</time></trkpt><trkpt lat="43.7060562" lon="11.9808749"><ele>845.0</ele><time>2026-04-11T13:38:52.287Z</time></trkpt><trkpt lat="43.7061735" lon="11.9809072"><ele>843.5</ele><time>2026-04-11T13:38:53.288Z</time></trkpt><trkpt lat="43.7062679" lon="11.980985"><ele>842.0</ele><time>2026-04-11T13:38:54.287Z</time></trkpt><trkpt lat="43.7063462" lon="11.9811124"><ele>842.0</ele><time>2026-04-11T13:38:55.287Z</time></trkpt><trkpt lat="43.7064196" lon="11.9812758"><ele>842.0</ele><time>2026-04-11T13:38:56.288Z</time></trkpt><trkpt lat="43.7064893" lon="11.9814319"><ele>842.0</ele><time>2026-04-11T13:38:57.289Z</time></trkpt><trkpt lat="43.7065322" lon="11.9815827"><ele>842.0</ele><time>2026-04-11T13:38:58.287Z</time></trkpt><trkpt lat="43.7065374" lon="11.981742"><ele>844.0</ele><time>2026-04-11T13:38:59.287Z</time></trkpt><trkpt lat="43.7064983" lon="11.9818875"><ele>846.0</ele><time>2026-04-11T13:39:00.287Z</time></trkpt><trkpt lat="43.7064052" lon="11.9820151"><ele>848.0</ele><time>2026-04-11T13:39:01.288Z</time></trkpt><trkpt lat="43.7062276" lon="11.9821429"><ele>850.0</ele><time>2026-04-11T13:39:02.289Z</time></trkpt><trkpt lat="43.7060498" lon="11.9822459"><ele>850.0</ele><time>2026-04-11T13:39:03.287Z</time></trkpt><trkpt lat="43.7058312" lon="11.9823216"><ele>850.0</ele><time>2026-04-11T13:39:04.287Z</time></trkpt><trkpt lat="43.7055966" lon="11.9823505"><ele>850.0</ele><time>2026-04-11T13:39:05.287Z</time></trkpt><trkpt lat="43.7053567" lon="11.98234"><ele>850.0</ele><time>2026-04-11T13:39:06.288Z</time></trkpt><trkpt lat="43.7051198" lon="11.9823146"><ele>847.0</ele><time>2026-04-11T13:39:07.288Z</time></trkpt><trkpt lat="43.7049006" lon="11.9822939"><ele>844.0</ele><time>2026-04-11T13:39:08.289Z</time></trkpt><trkpt lat="43.7046939" lon="11.9822945"><ele>841.0</ele><time>2026-04-11T13:39:09.288Z</time></trkpt><trkpt lat="43.7045132" lon="11.9823437"><ele>838.0</ele><time>2026-04-11T13:39:10.288Z</time></trkpt><trkpt lat="43.7043146" lon="11.9824503"><ele>835.0</ele><time>2026-04-11T13:39:11.288Z</time></trkpt><trkpt lat="43.7041221" lon="11.9825988"><ele>832.0</ele><time>2026-04-11T13:39:12.288Z</time></trkpt><trkpt lat="43.7039113" lon="11.9827707"><ele>833.5</ele><time>2026-04-11T13:39:13.287Z</time></trkpt><trkpt lat="43.7037025" lon="11.9829322"><ele>835.0</ele><time>2026-04-11T13:39:14.287Z</time></trkpt><trkpt lat="43.7034982" lon="11.9830897"><ele>835.0</ele><time>2026-04-11T13:39:15.287Z</time></trkpt><trkpt lat="43.7032963" lon="11.9832395"><ele>835.0</ele><time>2026-04-11T13:39:16.287Z</time></trkpt><trkpt lat="43.703118" lon="11.9834248"><ele>841.5</ele><time>2026-04-11T13:39:17.287Z</time></trkpt><trkpt lat="43.70295" lon="11.9836311"><ele>848.0</ele><time>2026-04-11T13:39:18.289Z</time></trkpt><trkpt lat="43.7027895" lon="11.9838851"><ele>843.5</ele><time>2026-04-11T13:39:19.288Z</time></trkpt><trkpt lat="43.7026325" lon="11.9841735"><ele>839.0</ele><time>2026-04-11T13:39:20.289Z</time></trkpt><trkpt lat="43.7024719" lon="11.9844795"><ele>839.0</ele><time>2026-04-11T13:39:21.287Z</time></trkpt><trkpt lat="43.7023099" lon="11.9847824"><ele>839.0</ele><time>2026-04-11T13:39:22.287Z</time></trkpt><trkpt lat="43.7021591" lon="11.9850662"><ele>837.5</ele><time>2026-04-11T13:39:23.289Z</time></trkpt><trkpt lat="43.7020133" lon="11.9853297"><ele>836.0</ele><time>2026-04-11T13:39:24.287Z</time></trkpt><trkpt lat="43.7018799" lon="11.9855707"><ele>836.0</ele><time>2026-04-11T13:39:25.287Z</time></trkpt><trkpt lat="43.7017481" lon="11.9857932"><ele>836.0</ele><time>2026-04-11T13:39:26.288Z</time></trkpt><trkpt lat="43.7015999" lon="11.9859774"><ele>836.0</ele><time>2026-04-11T13:39:27.287Z</time></trkpt><trkpt lat="43.701414" lon="11.9861331"><ele>839.5</ele><time>2026-04-11T13:39:28.287Z</time></trkpt><trkpt lat="43.7012072" lon="11.9862731"><ele>843.0</ele><time>2026-04-11T13:39:29.287Z</time></trkpt><trkpt lat="43.700985" lon="11.9863908"><ele>843.0</ele><time>2026-04-11T13:39:30.289Z</time></trkpt><trkpt lat="43.7007647" lon="11.9864903"><ele>843.0</ele><time>2026-04-11T13:39:31.289Z</time></trkpt><trkpt lat="43.7005582" lon="11.986581"><ele>843.0</ele><time>2026-04-11T13:39:32.288Z</time></trkpt><trkpt lat="43.7003595" lon="11.9866425"><ele>839.3333333333333</ele><time>2026-04-11T13:39:33.287Z</time></trkpt><trkpt lat="43.7001552" lon="11.9866863"><ele>835.6666666666666</ele><time>2026-04-11T13:39:34.287Z</time></trkpt><trkpt lat="43.6999229" lon="11.9866746"><ele>832.0</ele><time>2026-04-11T13:39:35.287Z</time></trkpt><trkpt lat="43.6996767" lon="11.9866389"><ele>832.0</ele><time>2026-04-11T13:39:36.288Z</time></trkpt><trkpt lat="43.6994033" lon="11.9865911"><ele>832.0</ele><time>2026-04-11T13:39:37.287Z</time></trkpt><trkpt lat="43.699122" lon="11.9865432"><ele>832.0</ele><time>2026-04-11T13:39:38.288Z</time></trkpt><trkpt lat="43.6988224" lon="11.9864849"><ele>832.0</ele><time>2026-04-11T13:39:39.287Z</time></trkpt><trkpt lat="43.698519" lon="11.986433"><ele>838.0</ele><time>2026-04-11T13:39:40.288Z</time></trkpt><trkpt lat="43.6982345" lon="11.9863855"><ele>844.0</ele><time>2026-04-11T13:39:41.287Z</time></trkpt><trkpt lat="43.6979724" lon="11.986343"><ele>844.0</ele><time>2026-04-11T13:39:42.287Z</time></trkpt><trkpt lat="43.6977237" lon="11.986303"><ele>844.0</ele><time>2026-04-11T13:39:43.286Z</time></trkpt><trkpt lat="43.6975005" lon="11.9862619"><ele>844.0</ele><time>2026-04-11T13:39:44.286Z</time></trkpt><trkpt lat="43.6973081" lon="11.9862319"><ele>844.0</ele><time>2026-04-11T13:39:45.286Z</time></trkpt><trkpt lat="43.6971336" lon="11.9862273"><ele>844.0</ele><time>2026-04-11T13:39:46.287Z</time></trkpt><trkpt lat="43.6969665" lon="11.9862742"><ele>841.3333333333333</ele><time>2026-04-11T13:39:47.287Z</time></trkpt><trkpt lat="43.6968036" lon="11.9863686"><ele>838.6666666666667</ele><time>2026-04-11T13:39:48.288Z</time></trkpt><trkpt lat="43.6966194" lon="11.9864952"><ele>836.0</ele><time>2026-04-11T13:39:49.287Z</time></trkpt><trkpt lat="43.696445" lon="11.9866267"><ele>833.6666666666667</ele><time>2026-04-11T13:39:50.287Z</time></trkpt><trkpt lat="43.6962794" lon="11.9867437"><ele>831.3333333333333</ele><time>2026-04-11T13:39:51.287Z</time></trkpt><trkpt lat="43.69613" lon="11.9868642"><ele>829.0</ele><time>2026-04-11T13:39:52.287Z</time></trkpt><trkpt lat="43.6960055" lon="11.9870085"><ele>829.0</ele><time>2026-04-11T13:39:53.288Z</time></trkpt><trkpt lat="43.6959004" lon="11.9872053"><ele>829.0</ele><time>2026-04-11T13:39:54.287Z</time></trkpt><trkpt lat="43.6957995" lon="11.9874466"><ele>829.0</ele><time>2026-04-11T13:39:55.287Z</time></trkpt><trkpt lat="43.6956982" lon="11.9877187"><ele>827.5</ele><time>2026-04-11T13:39:56.287Z</time></trkpt><trkpt lat="43.6955912" lon="11.9880107"><ele>826.0</ele><time>2026-04-11T13:39:57.288Z</time></trkpt><trkpt lat="43.6954759" lon="11.9883304"><ele>820.0</ele><time>2026-04-11T13:39:58.288Z</time></trkpt><trkpt lat="43.6953766" lon="11.9886163"><ele>814.0</ele><time>2026-04-11T13:39:59.288Z</time></trkpt><trkpt lat="43.695273" lon="11.9888856"><ele>812.6666666666666</ele><time>2026-04-11T13:40:00.287Z</time></trkpt><trkpt lat="43.695172" lon="11.9891466"><ele>811.3333333333333</ele><time>2026-04-11T13:40:01.288Z</time></trkpt><trkpt lat="43.6950624" lon="11.9893825"><ele>810.0</ele><time>2026-04-11T13:40:02.288Z</time></trkpt><trkpt lat="43.6949379" lon="11.9895854"><ele>810.0</ele><time>2026-04-11T13:40:03.287Z</time></trkpt><trkpt lat="43.6947967" lon="11.9897507"><ele>810.0</ele><time>2026-04-11T13:40:04.287Z</time></trkpt><trkpt lat="43.6946324" lon="11.989887"><ele>810.0</ele><time>2026-04-11T13:40:05.288Z</time></trkpt><trkpt lat="43.6944463" lon="11.9899915"><ele>805.0</ele><time>2026-04-11T13:40:06.286Z</time></trkpt><trkpt lat="43.6942556" lon="11.9900829"><ele>800.0</ele><time>2026-04-11T13:40:07.286Z</time></trkpt><trkpt lat="43.6940422" lon="11.9901274"><ele>795.0</ele><time>2026-04-11T13:40:08.287Z</time></trkpt><trkpt lat="43.6938366" lon="11.9901592"><ele>795.0</ele><time>2026-04-11T13:40:09.287Z</time></trkpt><trkpt lat="43.6936129" lon="11.9902065"><ele>795.0</ele><time>2026-04-11T13:40:10.286Z</time></trkpt><trkpt lat="43.693405" lon="11.9902539"><ele>795.0</ele><time>2026-04-11T13:40:11.286Z</time></trkpt><trkpt lat="43.6932076" lon="11.9902859"><ele>795.6666666666667</ele><time>2026-04-11T13:40:12.288Z</time></trkpt><trkpt lat="43.6930236" lon="11.9903338"><ele>796.3333333333334</ele><time>2026-04-11T13:40:13.288Z</time></trkpt><trkpt lat="43.6928506" lon="11.9903604"><ele>797.0</ele><time>2026-04-11T13:40:14.287Z</time></trkpt><trkpt lat="43.6926897" lon="11.9903478"><ele>797.0</ele><time>2026-04-11T13:40:15.287Z</time></trkpt><trkpt lat="43.6925313" lon="11.9902996"><ele>797.0</ele><time>2026-04-11T13:40:16.287Z</time></trkpt><trkpt lat="43.6923638" lon="11.9902152"><ele>797.0</ele><time>2026-04-11T13:40:17.288Z</time></trkpt><trkpt lat="43.6921789" lon="11.99013"><ele>797.0</ele><time>2026-04-11T13:40:18.288Z</time></trkpt><trkpt lat="43.6919911" lon="11.9900737"><ele>797.0</ele><time>2026-04-11T13:40:19.287Z</time></trkpt><trkpt lat="43.6918083" lon="11.9900818"><ele>797.0</ele><time>2026-04-11T13:40:20.286Z</time></trkpt><trkpt lat="43.6916233" lon="11.9901449"><ele>797.3333333333334</ele><time>2026-04-11T13:40:21.286Z</time></trkpt><trkpt lat="43.6914284" lon="11.9902743"><ele>797.6666666666667</ele><time>2026-04-11T13:40:22.287Z</time></trkpt><trkpt lat="43.6912307" lon="11.9904375"><ele>798.0</ele><time>2026-04-11T13:40:23.288Z</time></trkpt><trkpt lat="43.6910174" lon="11.990624"><ele>798.0</ele><time>2026-04-11T13:40:24.288Z</time></trkpt><trkpt lat="43.6907864" lon="11.9908192"><ele>798.0</ele><time>2026-04-11T13:40:25.287Z</time></trkpt><trkpt lat="43.6905377" lon="11.9910247"><ele>796.5</ele><time>2026-04-11T13:40:26.288Z</time></trkpt><trkpt lat="43.6902896" lon="11.9912254"><ele>795.0</ele><time>2026-04-11T13:40:27.287Z</time></trkpt><trkpt lat="43.6900275" lon="11.9914382"><ele>795.0</ele><time>2026-04-11T13:40:28.287Z</time></trkpt><trkpt lat="43.6897783" lon="11.9916421"><ele>795.0</ele><time>2026-04-11T13:40:29.288Z</time></trkpt><trkpt lat="43.6895525" lon="11.9918217"><ele>792.0</ele><time>2026-04-11T13:40:30.287Z</time></trkpt><trkpt lat="43.6893618" lon="11.991978"><ele>789.0</ele><time>2026-04-11T13:40:31.287Z</time></trkpt><trkpt lat="43.6891913" lon="11.9921237"><ele>786.0</ele><time>2026-04-11T13:40:32.287Z</time></trkpt><trkpt lat="43.6890386" lon="11.9922473"><ele>786.0</ele><time>2026-04-11T13:40:33.288Z</time></trkpt><trkpt lat="43.6888931" lon="11.992343"><ele>786.0</ele><time>2026-04-11T13:40:34.288Z</time></trkpt><trkpt lat="43.6887461" lon="11.9923967"><ele>786.0</ele><time>2026-04-11T13:40:35.287Z</time></trkpt><trkpt lat="43.6885824" lon="11.9923888"><ele>787.3333333333333</ele><time>2026-04-11T13:40:36.287Z</time></trkpt><trkpt lat="43.6883978" lon="11.9923198"><ele>788.6666666666666</ele><time>2026-04-11T13:40:37.287Z</time></trkpt><trkpt lat="43.6882125" lon="11.9922007"><ele>790.0</ele><time>2026-04-11T13:40:38.286Z</time></trkpt><trkpt lat="43.6880018" lon="11.9920378"><ele>790.0</ele><time>2026-04-11T13:40:39.288Z</time></trkpt><trkpt lat="43.6877843" lon="11.9918738"><ele>790.0</ele><time>2026-04-11T13:40:40.288Z</time></trkpt><trkpt lat="43.6875702" lon="11.991716"><ele>789.6666666666666</ele><time>2026-04-11T13:40:41.288Z</time></trkpt><trkpt lat="43.6873596" lon="11.9915698"><ele>789.3333333333333</ele><time>2026-04-11T13:40:42.287Z</time></trkpt><trkpt lat="43.6871806" lon="11.9914475"><ele>789.0</ele><time>2026-04-11T13:40:43.288Z</time></trkpt><trkpt lat="43.6870215" lon="11.9913539"><ele>787.0</ele><time>2026-04-11T13:40:44.288Z</time></trkpt><trkpt lat="43.6868628" lon="11.9913062"><ele>785.0</ele><time>2026-04-11T13:40:45.287Z</time></trkpt><trkpt lat="43.6866811" lon="11.9913306"><ele>783.0</ele><time>2026-04-11T13:40:46.288Z</time></trkpt><trkpt lat="43.6864848" lon="11.9914226"><ele>783.0</ele><time>2026-04-11T13:40:47.288Z</time></trkpt><trkpt lat="43.6862673" lon="11.9915589"><ele>783.0</ele><time>2026-04-11T13:40:48.287Z</time></trkpt><trkpt lat="43.6860385" lon="11.9917136"><ele>776.0</ele><time>2026-04-11T13:40:49.286Z</time></trkpt><trkpt lat="43.6857909" lon="11.9918786"><ele>769.0</ele><time>2026-04-11T13:40:50.287Z</time></trkpt><trkpt lat="43.6855367" lon="11.9920455"><ele>769.0</ele><time>2026-04-11T13:40:51.288Z</time></trkpt><trkpt lat="43.6852899" lon="11.9922068"><ele>769.0</ele><time>2026-04-11T13:40:52.288Z</time></trkpt><trkpt lat="43.6850574" lon="11.9923595"><ele>772.5</ele><time>2026-04-11T13:40:53.286Z</time></trkpt><trkpt lat="43.684835" lon="11.9925026"><ele>776.0</ele><time>2026-04-11T13:40:54.287Z</time></trkpt><trkpt lat="43.6846301" lon="11.9926351"><ele>773.0</ele><time>2026-04-11T13:40:55.287Z</time></trkpt><trkpt lat="43.6844336" lon="11.9927553"><ele>770.0</ele><time>2026-04-11T13:40:56.288Z</time></trkpt><trkpt lat="43.6842213" lon="11.9928437"><ele>767.0</ele><time>2026-04-11T13:40:57.288Z</time></trkpt><trkpt lat="43.6839862" lon="11.9929193"><ele>767.0</ele><time>2026-04-11T13:40:58.287Z</time></trkpt><trkpt lat="43.6837365" lon="11.9929932"><ele>767.0</ele><time>2026-04-11T13:40:59.287Z</time></trkpt><trkpt lat="43.6834727" lon="11.9930706"><ele>765.5</ele><time>2026-04-11T13:41:00.287Z</time></trkpt><trkpt lat="43.6831917" lon="11.9931471"><ele>764.0</ele><time>2026-04-11T13:41:01.286Z</time></trkpt><trkpt lat="43.6828885" lon="11.9932285"><ele>766.0</ele><time>2026-04-11T13:41:02.288Z</time></trkpt><trkpt lat="43.6825853" lon="11.9933145"><ele>768.0</ele><time>2026-04-11T13:41:03.288Z</time></trkpt><trkpt lat="43.6823106" lon="11.993388"><ele>760.0</ele><time>2026-04-11T13:41:04.288Z</time></trkpt><trkpt lat="43.6820474" lon="11.9934602"><ele>752.0</ele><time>2026-04-11T13:41:05.288Z</time></trkpt><trkpt lat="43.6818044" lon="11.9935314"><ele>752.0</ele><time>2026-04-11T13:41:06.29Z</time></trkpt><trkpt lat="43.6815916" lon="11.9935866"><ele>752.0</ele><time>2026-04-11T13:41:07.291Z</time></trkpt><trkpt lat="43.6813955" lon="11.993649"><ele>752.0</ele><time>2026-04-11T13:41:08.286Z</time></trkpt><trkpt lat="43.6812237" lon="11.9937254"><ele>751.0</ele><time>2026-04-11T13:41:09.287Z</time></trkpt><trkpt lat="43.6810783" lon="11.9938268"><ele>750.0</ele><time>2026-04-11T13:41:10.289Z</time></trkpt><trkpt lat="43.6809565" lon="11.993985"><ele>749.0</ele><time>2026-04-11T13:41:11.287Z</time></trkpt><trkpt lat="43.6808614" lon="11.9941875"><ele>749.0</ele><time>2026-04-11T13:41:12.287Z</time></trkpt><trkpt lat="43.6807888" lon="11.9944249"><ele>749.0</ele><time>2026-04-11T13:41:13.287Z</time></trkpt><trkpt lat="43.6807226" lon="11.9946414"><ele>749.0</ele><time>2026-04-11T13:41:14.299Z</time></trkpt><trkpt lat="43.6806425" lon="11.9948496"><ele>750.0</ele><time>2026-04-11T13:41:15.288Z</time></trkpt><trkpt lat="43.6805349" lon="11.9950475"><ele>751.0</ele><time>2026-04-11T13:41:16.287Z</time></trkpt><trkpt lat="43.6803951" lon="11.9952557"><ele>752.0</ele><time>2026-04-11T13:41:17.291Z</time></trkpt><trkpt lat="43.6802286" lon="11.9954851"><ele>752.0</ele><time>2026-04-11T13:41:18.287Z</time></trkpt><trkpt lat="43.6800521" lon="11.9957244"><ele>752.0</ele><time>2026-04-11T13:41:19.286Z</time></trkpt><trkpt lat="43.6798534" lon="11.9959864"><ele>743.5</ele><time>2026-04-11T13:41:20.291Z</time></trkpt><trkpt lat="43.6796421" lon="11.9962608"><ele>735.0</ele><time>2026-04-11T13:41:21.291Z</time></trkpt><trkpt lat="43.6794363" lon="11.9965302"><ele>735.5</ele><time>2026-04-11T13:41:22.291Z</time></trkpt><trkpt lat="43.6792419" lon="11.9967856"><ele>736.0</ele><time>2026-04-11T13:41:23.29Z</time></trkpt><trkpt lat="43.6790585" lon="11.9970253"><ele>736.0</ele><time>2026-04-11T13:41:24.287Z</time></trkpt><trkpt lat="43.6788955" lon="11.9972487"><ele>736.0</ele><time>2026-04-11T13:41:25.287Z</time></trkpt><trkpt lat="43.6787589" lon="11.997432"><ele>736.0</ele><time>2026-04-11T13:41:26.288Z</time></trkpt><trkpt lat="43.6786365" lon="11.9975802"><ele>733.0</ele><time>2026-04-11T13:41:27.286Z</time></trkpt><trkpt lat="43.6785072" lon="11.9976809"><ele>730.0</ele><time>2026-04-11T13:41:28.287Z</time></trkpt><trkpt lat="43.6783725" lon="11.9977117"><ele>727.0</ele><time>2026-04-11T13:41:29.287Z</time></trkpt><trkpt lat="43.6782301" lon="11.9976792"><ele>724.0</ele><time>2026-04-11T13:41:30.287Z</time></trkpt><trkpt lat="43.6780814" lon="11.9976422"><ele>724.0</ele><time>2026-04-11T13:41:31.287Z</time></trkpt><trkpt lat="43.6779259" lon="11.9976451"><ele>724.0</ele><time>2026-04-11T13:41:32.287Z</time></trkpt><trkpt lat="43.6777722" lon="11.9977211"><ele>724.0</ele><time>2026-04-11T13:41:33.287Z</time></trkpt><trkpt lat="43.6776381" lon="11.9978611"><ele>720.6666666666667</ele><time>2026-04-11T13:41:34.288Z</time></trkpt><trkpt lat="43.6775249" lon="11.9980841"><ele>717.3333333333334</ele><time>2026-04-11T13:41:35.287Z</time></trkpt><trkpt lat="43.6774422" lon="11.9983386"><ele>714.0</ele><time>2026-04-11T13:41:36.287Z</time></trkpt><trkpt lat="43.677363" lon="11.9985844"><ele>714.0</ele><time>2026-04-11T13:41:37.289Z</time></trkpt><trkpt lat="43.6772797" lon="11.9988019"><ele>714.0</ele><time>2026-04-11T13:41:38.286Z</time></trkpt><trkpt lat="43.6771669" lon="11.9990245"><ele>714.0</ele><time>2026-04-11T13:41:39.288Z</time></trkpt><trkpt lat="43.6770328" lon="11.9992316"><ele>713.0</ele><time>2026-04-11T13:41:40.289Z</time></trkpt><trkpt lat="43.6768856" lon="11.9994009"><ele>712.0</ele><time>2026-04-11T13:41:41.287Z</time></trkpt><trkpt lat="43.6767198" lon="11.9995312"><ele>711.0</ele><time>2026-04-11T13:41:42.288Z</time></trkpt><trkpt lat="43.6765335" lon="11.9996087"><ele>711.0</ele><time>2026-04-11T13:41:43.288Z</time></trkpt><trkpt lat="43.6763495" lon="11.9996561"><ele>711.0</ele><time>2026-04-11T13:41:44.287Z</time></trkpt><trkpt lat="43.676171" lon="11.9997108"><ele>711.0</ele><time>2026-04-11T13:41:45.287Z</time></trkpt><trkpt lat="43.6760056" lon="11.9998071"><ele>715.0</ele><time>2026-04-11T13:41:46.288Z</time></trkpt><trkpt lat="43.6758453" lon="11.9999728"><ele>719.0</ele><time>2026-04-11T13:41:47.287Z</time></trkpt><trkpt lat="43.6756979" lon="12.0001579"><ele>723.0</ele><time>2026-04-11T13:41:48.292Z</time></trkpt><trkpt lat="43.6755682" lon="12.0003486"><ele>723.0</ele><time>2026-04-11T13:41:49.288Z</time></trkpt><trkpt lat="43.675466" lon="12.0005225"><ele>723.0</ele><time>2026-04-11T13:41:50.288Z</time></trkpt><trkpt lat="43.6753712" lon="12.0007349"><ele>723.0</ele><time>2026-04-11T13:41:51.287Z</time></trkpt><trkpt lat="43.675293" lon="12.000961"><ele>727.0</ele><time>2026-04-11T13:41:52.29Z</time></trkpt><trkpt lat="43.6752403" lon="12.0011851"><ele>731.0</ele><time>2026-04-11T13:41:53.29Z</time></trkpt><trkpt lat="43.675194" lon="12.0013908"><ele>735.0</ele><time>2026-04-11T13:41:54.289Z</time></trkpt><trkpt lat="43.6751718" lon="12.0015938"><ele>733.0</ele><time>2026-04-11T13:41:55.289Z</time></trkpt><trkpt lat="43.6751776" lon="12.0017921"><ele>731.0</ele><time>2026-04-11T13:41:56.288Z</time></trkpt><trkpt lat="43.6752132" lon="12.0019717"><ele>729.0</ele><time>2026-04-11T13:41:57.29Z</time></trkpt><trkpt lat="43.6752602" lon="12.0021416"><ele>727.0</ele><time>2026-04-11T13:41:58.287Z</time></trkpt><trkpt lat="43.675305" lon="12.002314"><ele>722.6</ele><time>2026-04-11T13:41:59.287Z</time></trkpt><trkpt lat="43.6753292" lon="12.0024675"><ele>718.2</ele><time>2026-04-11T13:42:00.287Z</time></trkpt><trkpt lat="43.6753604" lon="12.0026144"><ele>713.8</ele><time>2026-04-11T13:42:01.289Z</time></trkpt><trkpt lat="43.675397" lon="12.0027577"><ele>709.4</ele><time>2026-04-11T13:42:02.29Z</time></trkpt><trkpt lat="43.6754229" lon="12.0028993"><ele>705.0</ele><time>2026-04-11T13:42:03.287Z</time></trkpt><trkpt lat="43.6754353" lon="12.0030342"><ele>704.8</ele><time>2026-04-11T13:42:04.287Z</time></trkpt><trkpt lat="43.6754215" lon="12.0031637"><ele>704.6</ele><time>2026-04-11T13:42:05.288Z</time></trkpt><trkpt lat="43.6753939" lon="12.0032902"><ele>704.4000000000001</ele><time>2026-04-11T13:42:06.289Z</time></trkpt><trkpt lat="43.6753348" lon="12.0034267"><ele>704.2</ele><time>2026-04-11T13:42:07.286Z</time></trkpt><trkpt lat="43.6752582" lon="12.0035557"><ele>704.0</ele><time>2026-04-11T13:42:08.287Z</time></trkpt><trkpt lat="43.6751701" lon="12.0036656"><ele>706.0</ele><time>2026-04-11T13:42:09.288Z</time></trkpt><trkpt lat="43.6750791" lon="12.0037621"><ele>708.0</ele><time>2026-04-11T13:42:10.286Z</time></trkpt><trkpt lat="43.6750084" lon="12.0038577"><ele>710.0</ele><time>2026-04-11T13:42:11.287Z</time></trkpt><trkpt lat="43.6749383" lon="12.0039321"><ele>712.0</ele><time>2026-04-11T13:42:12.287Z</time></trkpt><trkpt lat="43.674862" lon="12.0039613"><ele>714.0</ele><time>2026-04-11T13:42:13.289Z</time></trkpt><trkpt lat="43.6747877" lon="12.0039618"><ele>714.0</ele><time>2026-04-11T13:42:14.294Z</time></trkpt><trkpt lat="43.6747029" lon="12.003926"><ele>714.0</ele><time>2026-04-11T13:42:15.292Z</time></trkpt><trkpt lat="43.6746128" lon="12.0038489"><ele>714.0</ele><time>2026-04-11T13:42:16.287Z</time></trkpt><trkpt lat="43.6745158" lon="12.0037403"><ele>714.0</ele><time>2026-04-11T13:42:17.288Z</time></trkpt><trkpt lat="43.6744238" lon="12.0035474"><ele>715.3333333333334</ele><time>2026-04-11T13:42:18.287Z</time></trkpt><trkpt lat="43.6743226" lon="12.0033491"><ele>716.6666666666667</ele><time>2026-04-11T13:42:19.288Z</time></trkpt><trkpt lat="43.6742048" lon="12.0031404"><ele>718.0</ele><time>2026-04-11T13:42:20.288Z</time></trkpt><trkpt lat="43.6740867" lon="12.0029506"><ele>718.0</ele><time>2026-04-11T13:42:21.288Z</time></trkpt><trkpt lat="43.6739418" lon="12.0027995"><ele>718.0</ele><time>2026-04-11T13:42:22.287Z</time></trkpt><trkpt lat="43.6737577" lon="12.0026831"><ele>718.0</ele><time>2026-04-11T13:42:23.287Z</time></trkpt><trkpt lat="43.6735685" lon="12.0025952"><ele>719.6666666666667</ele><time>2026-04-11T13:42:24.288Z</time></trkpt><trkpt lat="43.673401" lon="12.0025284"><ele>721.3333333333334</ele><time>2026-04-11T13:42:25.287Z</time></trkpt><trkpt lat="43.6732472" lon="12.0024747"><ele>723.0</ele><time>2026-04-11T13:42:26.286Z</time></trkpt><trkpt lat="43.6731311" lon="12.0024269"><ele>723.0</ele><time>2026-04-11T13:42:27.287Z</time></trkpt><trkpt lat="43.6730204" lon="12.0023849"><ele>723.0</ele><time>2026-04-11T13:42:28.286Z</time></trkpt><trkpt lat="43.6729199" lon="12.0023485"><ele>723.0</ele><time>2026-04-11T13:42:29.287Z</time></trkpt><trkpt lat="43.6728249" lon="12.002323"><ele>723.0</ele><time>2026-04-11T13:42:30.286Z</time></trkpt><trkpt lat="43.6727292" lon="12.0023318"><ele>723.0</ele><time>2026-04-11T13:42:31.288Z</time></trkpt><trkpt lat="43.6726314" lon="12.0023875"><ele>715.3333333333334</ele><time>2026-04-11T13:42:32.288Z</time></trkpt><trkpt lat="43.6725319" lon="12.0025073"><ele>707.6666666666667</ele><time>2026-04-11T13:42:33.287Z</time></trkpt><trkpt lat="43.6724497" lon="12.0026888"><ele>700.0</ele><time>2026-04-11T13:42:34.286Z</time></trkpt><trkpt lat="43.6723624" lon="12.0029171"><ele>700.0</ele><time>2026-04-11T13:42:35.287Z</time></trkpt><trkpt lat="43.6722637" lon="12.0031857"><ele>700.0</ele><time>2026-04-11T13:42:36.287Z</time></trkpt><trkpt lat="43.6721617" lon="12.0034602"><ele>700.0</ele><time>2026-04-11T13:42:37.288Z</time></trkpt><trkpt lat="43.6720627" lon="12.0037142"><ele>703.0</ele><time>2026-04-11T13:42:38.287Z</time></trkpt><trkpt lat="43.671967" lon="12.0039405"><ele>706.0</ele><time>2026-04-11T13:42:39.287Z</time></trkpt><trkpt lat="43.6718434" lon="12.0041469"><ele>709.0</ele><time>2026-04-11T13:42:40.286Z</time></trkpt><trkpt lat="43.6717057" lon="12.0043244"><ele>701.6666666666667</ele><time>2026-04-11T13:42:41.287Z</time></trkpt><trkpt lat="43.671577" lon="12.0045085"><ele>694.3333333333334</ele><time>2026-04-11T13:42:42.287Z</time></trkpt><trkpt lat="43.6714771" lon="12.0047366"><ele>687.0</ele><time>2026-04-11T13:42:43.288Z</time></trkpt><trkpt lat="43.6714004" lon="12.0050004"><ele>681.0</ele><time>2026-04-11T13:42:44.288Z</time></trkpt><trkpt lat="43.6713471" lon="12.0052781"><ele>675.0</ele><time>2026-04-11T13:42:45.288Z</time></trkpt><trkpt lat="43.6712896" lon="12.0055284"><ele>669.0</ele><time>2026-04-11T13:42:46.287Z</time></trkpt><trkpt lat="43.6712098" lon="12.0057778"><ele>673.6666666666666</ele><time>2026-04-11T13:42:47.288Z</time></trkpt><trkpt lat="43.6710972" lon="12.0060119"><ele>678.3333333333333</ele><time>2026-04-11T13:42:48.289Z</time></trkpt><trkpt lat="43.6709638" lon="12.0062426"><ele>683.0</ele><time>2026-04-11T13:42:49.287Z</time></trkpt><trkpt lat="43.6708242" lon="12.0064534"><ele>683.0</ele><time>2026-04-11T13:42:50.287Z</time></trkpt><trkpt lat="43.6707196" lon="12.0066444"><ele>683.0</ele><time>2026-04-11T13:42:51.287Z</time></trkpt><trkpt lat="43.6706486" lon="12.0068214"><ele>683.0</ele><time>2026-04-11T13:42:52.289Z</time></trkpt><trkpt lat="43.6706194" lon="12.0070099"><ele>678.0</ele><time>2026-04-11T13:42:53.287Z</time></trkpt><trkpt lat="43.6706249" lon="12.0072625"><ele>673.0</ele><time>2026-04-11T13:42:54.288Z</time></trkpt><trkpt lat="43.6706506" lon="12.0075294"><ele>668.0</ele><time>2026-04-11T13:42:55.286Z</time></trkpt><trkpt lat="43.6706902" lon="12.0078279"><ele>666.3333333333333</ele><time>2026-04-11T13:42:56.288Z</time></trkpt><trkpt lat="43.6707364" lon="12.0081198"><ele>664.6666666666666</ele><time>2026-04-11T13:42:57.286Z</time></trkpt><trkpt lat="43.6708106" lon="12.0084147"><ele>663.0</ele><time>2026-04-11T13:42:58.287Z</time></trkpt><trkpt lat="43.6709184" lon="12.0087141"><ele>663.0</ele><time>2026-04-11T13:42:59.287Z</time></trkpt><trkpt lat="43.6710399" lon="12.0090013"><ele>663.0</ele><time>2026-04-11T13:43:00.289Z</time></trkpt><trkpt lat="43.6711643" lon="12.0092766"><ele>654.0</ele><time>2026-04-11T13:43:01.286Z</time></trkpt><trkpt lat="43.6712702" lon="12.0095221"><ele>645.0</ele><time>2026-04-11T13:43:02.287Z</time></trkpt><trkpt lat="43.6713573" lon="12.009733"><ele>636.0</ele><time>2026-04-11T13:43:03.288Z</time></trkpt><trkpt lat="43.6714169" lon="12.0099149"><ele>636.75</ele><time>2026-04-11T13:43:04.287Z</time></trkpt><trkpt lat="43.6714348" lon="12.0100972"><ele>637.5</ele><time>2026-04-11T13:43:05.289Z</time></trkpt><trkpt lat="43.6714004" lon="12.0102737"><ele>638.25</ele><time>2026-04-11T13:43:06.286Z</time></trkpt><trkpt lat="43.6713083" lon="12.0104365"><ele>639.0</ele><time>2026-04-11T13:43:07.288Z</time></trkpt><trkpt lat="43.6711786" lon="12.0105821"><ele>643.3333333333334</ele><time>2026-04-11T13:43:08.286Z</time></trkpt><trkpt lat="43.6710464" lon="12.0107228"><ele>647.6666666666667</ele><time>2026-04-11T13:43:09.288Z</time></trkpt><trkpt lat="43.6709409" lon="12.0109036"><ele>652.0</ele><time>2026-04-11T13:43:10.287Z</time></trkpt><trkpt lat="43.6708677" lon="12.0111562"><ele>652.0</ele><time>2026-04-11T13:43:11.287Z</time></trkpt><trkpt lat="43.6708231" lon="12.0114013"><ele>652.0</ele><time>2026-04-11T13:43:12.288Z</time></trkpt><trkpt lat="43.6707858" lon="12.0116321"><ele>652.0</ele><time>2026-04-11T13:43:13.288Z</time></trkpt><trkpt lat="43.6707483" lon="12.0118473"><ele>648.25</ele><time>2026-04-11T13:43:14.287Z</time></trkpt><trkpt lat="43.6707005" lon="12.01205"><ele>644.5</ele><time>2026-04-11T13:43:15.287Z</time></trkpt><trkpt lat="43.6706139" lon="12.0122126"><ele>640.75</ele><time>2026-04-11T13:43:16.288Z</time></trkpt><trkpt lat="43.6705042" lon="12.0123449"><ele>637.0</ele><time>2026-04-11T13:43:17.288Z</time></trkpt><trkpt lat="43.6703658" lon="12.0124445"><ele>635.6666666666667</ele><time>2026-04-11T13:43:18.286Z</time></trkpt><trkpt lat="43.6702269" lon="12.012513"><ele>634.3333333333334</ele><time>2026-04-11T13:43:19.286Z</time></trkpt><trkpt lat="43.6700599" lon="12.0124555"><ele>633.0</ele><time>2026-04-11T13:43:20.289Z</time></trkpt><trkpt lat="43.6698909" lon="12.0123927"><ele>637.3333333333334</ele><time>2026-04-11T13:43:21.288Z</time></trkpt><trkpt lat="43.6697113" lon="12.0122984"><ele>641.6666666666667</ele><time>2026-04-11T13:43:22.288Z</time></trkpt><trkpt lat="43.6695415" lon="12.0122201"><ele>646.0</ele><time>2026-04-11T13:43:23.286Z</time></trkpt><trkpt lat="43.6693898" lon="12.0121736"><ele>646.6666666666667</ele><time>2026-04-11T13:43:24.287Z</time></trkpt><trkpt lat="43.669249" lon="12.0121826"><ele>647.3333333333334</ele><time>2026-04-11T13:43:25.287Z</time></trkpt><trkpt lat="43.6690872" lon="12.0122459"><ele>648.0</ele><time>2026-04-11T13:43:26.288Z</time></trkpt><trkpt lat="43.6689048" lon="12.0123468"><ele>648.0</ele><time>2026-04-11T13:43:27.287Z</time></trkpt><trkpt lat="43.6687105" lon="12.0124663"><ele>648.0</ele><time>2026-04-11T13:43:28.287Z</time></trkpt><trkpt lat="43.6685272" lon="12.0125721"><ele>648.0</ele><time>2026-04-11T13:43:29.287Z</time></trkpt><trkpt lat="43.6683533" lon="12.0126799"><ele>642.6666666666666</ele><time>2026-04-11T13:43:30.287Z</time></trkpt><trkpt lat="43.6681881" lon="12.0127843"><ele>637.3333333333333</ele><time>2026-04-11T13:43:31.287Z</time></trkpt><trkpt lat="43.6680442" lon="12.0128884"><ele>632.0</ele><time>2026-04-11T13:43:32.287Z</time></trkpt><trkpt lat="43.6679234" lon="12.013005"><ele>632.0</ele><time>2026-04-11T13:43:33.287Z</time></trkpt><trkpt lat="43.6678283" lon="12.013138"><ele>632.0</ele><time>2026-04-11T13:43:34.287Z</time></trkpt><trkpt lat="43.6677798" lon="12.0132875"><ele>632.0</ele><time>2026-04-11T13:43:35.286Z</time></trkpt><trkpt lat="43.6677642" lon="12.0134429"><ele>632.0</ele><time>2026-04-11T13:43:36.287Z</time></trkpt><trkpt lat="43.6677804" lon="12.0135924"><ele>627.5</ele><time>2026-04-11T13:43:37.289Z</time></trkpt><trkpt lat="43.6678367" lon="12.0137301"><ele>623.0</ele><time>2026-04-11T13:43:38.286Z</time></trkpt><trkpt lat="43.6679336" lon="12.0138377"><ele>618.5</ele><time>2026-04-11T13:43:39.287Z</time></trkpt><trkpt lat="43.6680437" lon="12.0139291"><ele>614.0</ele><time>2026-04-11T13:43:40.288Z</time></trkpt><trkpt lat="43.6682237" lon="12.0139976"><ele>614.0</ele><time>2026-04-11T13:43:41.286Z</time></trkpt><trkpt lat="43.6683903" lon="12.014057"><ele>614.0</ele><time>2026-04-11T13:43:42.288Z</time></trkpt><trkpt lat="43.6685345" lon="12.014112"><ele>614.0</ele><time>2026-04-11T13:43:43.288Z</time></trkpt><trkpt lat="43.6686617" lon="12.0141589"><ele>608.75</ele><time>2026-04-11T13:43:44.289Z</time></trkpt><trkpt lat="43.6687615" lon="12.0142282"><ele>603.5</ele><time>2026-04-11T13:43:45.287Z</time></trkpt><trkpt lat="43.6688463" lon="12.014341"><ele>598.25</ele><time>2026-04-11T13:43:46.289Z</time></trkpt><trkpt lat="43.6689099" lon="12.0144842"><ele>593.0</ele><time>2026-04-11T13:43:47.286Z</time></trkpt><trkpt lat="43.668938" lon="12.0146507"><ele>593.0</ele><time>2026-04-11T13:43:48.287Z</time></trkpt><trkpt lat="43.6689306" lon="12.0148174"><ele>593.0</ele><time>2026-04-11T13:43:49.288Z</time></trkpt><trkpt lat="43.6688833" lon="12.014979"><ele>593.0</ele><time>2026-04-11T13:43:50.288Z</time></trkpt><trkpt lat="43.6688068" lon="12.0151359"><ele>593.0</ele><time>2026-04-11T13:43:51.287Z</time></trkpt><trkpt lat="43.6686862" lon="12.0152716"><ele>596.3333333333333</ele><time>2026-04-11T13:43:52.289Z</time></trkpt><trkpt lat="43.668527" lon="12.0153864"><ele>599.6666666666666</ele><time>2026-04-11T13:43:53.287Z</time></trkpt><trkpt lat="43.6683334" lon="12.0154595"><ele>603.0</ele><time>2026-04-11T13:43:54.287Z</time></trkpt><trkpt lat="43.6681394" lon="12.0155082"><ele>603.0</ele><time>2026-04-11T13:43:55.287Z</time></trkpt><trkpt lat="43.6679637" lon="12.0155607"><ele>603.0</ele><time>2026-04-11T13:43:56.288Z</time></trkpt><trkpt lat="43.6678036" lon="12.0156406"><ele>603.0</ele><time>2026-04-11T13:43:57.287Z</time></trkpt><trkpt lat="43.6676696" lon="12.0157744"><ele>602.3333333333334</ele><time>2026-04-11T13:43:58.286Z</time></trkpt><trkpt lat="43.6675503" lon="12.0159448"><ele>601.6666666666667</ele><time>2026-04-11T13:43:59.288Z</time></trkpt><trkpt lat="43.6674456" lon="12.016142"><ele>601.0</ele><time>2026-04-11T13:44:00.287Z</time></trkpt><trkpt lat="43.6673727" lon="12.0163838"><ele>597.6666666666667</ele><time>2026-04-11T13:44:01.288Z</time></trkpt><trkpt lat="43.6673278" lon="12.0166577"><ele>594.3333333333334</ele><time>2026-04-11T13:44:02.288Z</time></trkpt><trkpt lat="43.6672961" lon="12.0169166"><ele>591.0</ele><time>2026-04-11T13:44:03.288Z</time></trkpt><trkpt lat="43.6672739" lon="12.0171385"><ele>591.0</ele><time>2026-04-11T13:44:04.288Z</time></trkpt><trkpt lat="43.6672687" lon="12.0173546"><ele>591.0</ele><time>2026-04-11T13:44:05.287Z</time></trkpt><trkpt lat="43.6672995" lon="12.0175772"><ele>591.0</ele><time>2026-04-11T13:44:06.288Z</time></trkpt><trkpt lat="43.6673669" lon="12.0177978"><ele>590.6666666666666</ele><time>2026-04-11T13:44:07.287Z</time></trkpt><trkpt lat="43.6674447" lon="12.0180024"><ele>590.3333333333333</ele><time>2026-04-11T13:44:08.287Z</time></trkpt><trkpt lat="43.6675078" lon="12.0182007"><ele>590.0</ele><time>2026-04-11T13:44:09.287Z</time></trkpt><trkpt lat="43.6675581" lon="12.0184186"><ele>589.0</ele><time>2026-04-11T13:44:10.288Z</time></trkpt><trkpt lat="43.6675738" lon="12.0186524"><ele>588.0</ele><time>2026-04-11T13:44:11.288Z</time></trkpt><trkpt lat="43.6675717" lon="12.0188829"><ele>587.0</ele><time>2026-04-11T13:44:12.287Z</time></trkpt><trkpt lat="43.6675617" lon="12.0191023"><ele>585.75</ele><time>2026-04-11T13:44:13.286Z</time></trkpt><trkpt lat="43.6675503" lon="12.0192894"><ele>584.5</ele><time>2026-04-11T13:44:14.288Z</time></trkpt><trkpt lat="43.6675298" lon="12.0194455"><ele>583.25</ele><time>2026-04-11T13:44:15.287Z</time></trkpt><trkpt lat="43.6674822" lon="12.0195803"><ele>582.0</ele><time>2026-04-11T13:44:16.288Z</time></trkpt><trkpt lat="43.6673938" lon="12.0196722"><ele>582.0</ele><time>2026-04-11T13:44:17.287Z</time></trkpt><trkpt lat="43.6672685" lon="12.0197371"><ele>582.0</ele><time>2026-04-11T13:44:18.288Z</time></trkpt><trkpt lat="43.6671499" lon="12.0197888"><ele>582.0</ele><time>2026-04-11T13:44:19.287Z</time></trkpt><trkpt lat="43.6670543" lon="12.0198819"><ele>582.0</ele><time>2026-04-11T13:44:20.287Z</time></trkpt><trkpt lat="43.6669908" lon="12.0200042"><ele>578.25</ele><time>2026-04-11T13:44:21.288Z</time></trkpt><trkpt lat="43.6669599" lon="12.020149"><ele>574.5</ele><time>2026-04-11T13:44:22.286Z</time></trkpt><trkpt lat="43.6669689" lon="12.0202981"><ele>570.75</ele><time>2026-04-11T13:44:23.287Z</time></trkpt><trkpt lat="43.6670202" lon="12.0204404"><ele>567.0</ele><time>2026-04-11T13:44:24.287Z</time></trkpt><trkpt lat="43.6671079" lon="12.0205605"><ele>567.0</ele><time>2026-04-11T13:44:25.288Z</time></trkpt><trkpt lat="43.6672287" lon="12.0206666"><ele>567.0</ele><time>2026-04-11T13:44:26.288Z</time></trkpt><trkpt lat="43.667363" lon="12.0207785"><ele>567.0</ele><time>2026-04-11T13:44:27.289Z</time></trkpt><trkpt lat="43.6674733" lon="12.0208726"><ele>567.0</ele><time>2026-04-11T13:44:28.288Z</time></trkpt><trkpt lat="43.6675625" lon="12.0209583"><ele>567.0</ele><time>2026-04-11T13:44:29.287Z</time></trkpt><trkpt lat="43.6676289" lon="12.0210603"><ele>567.0</ele><time>2026-04-11T13:44:30.288Z</time></trkpt><trkpt lat="43.6676645" lon="12.021205"><ele>567.0</ele><time>2026-04-11T13:44:31.287Z</time></trkpt><trkpt lat="43.6676658" lon="12.0214128"><ele>567.0</ele><time>2026-04-11T13:44:32.287Z</time></trkpt><trkpt lat="43.6676517" lon="12.0216648"><ele>567.0</ele><time>2026-04-11T13:44:33.287Z</time></trkpt><trkpt lat="43.667632" lon="12.0219319"><ele>567.0</ele><time>2026-04-11T13:44:34.289Z</time></trkpt><trkpt lat="43.6676186" lon="12.0221797"><ele>567.0</ele><time>2026-04-11T13:44:35.287Z</time></trkpt><trkpt lat="43.6676177" lon="12.0223662"><ele>567.0</ele><time>2026-04-11T13:44:36.287Z</time></trkpt><trkpt lat="43.6676402" lon="12.0225324"><ele>567.0</ele><time>2026-04-11T13:44:37.287Z</time></trkpt><trkpt lat="43.6677095" lon="12.0226645"><ele>567.0</ele><time>2026-04-11T13:44:38.287Z</time></trkpt><trkpt lat="43.6678282" lon="12.0227604"><ele>567.0</ele><time>2026-04-11T13:44:39.286Z</time></trkpt><trkpt lat="43.6679835" lon="12.0228192"><ele>562.75</ele><time>2026-04-11T13:44:40.287Z</time></trkpt><trkpt lat="43.6681364" lon="12.0228517"><ele>558.5</ele><time>2026-04-11T13:44:41.287Z</time></trkpt><trkpt lat="43.6682764" lon="12.0228716"><ele>554.25</ele><time>2026-04-11T13:44:42.287Z</time></trkpt><trkpt lat="43.6683972" lon="12.0228849"><ele>550.0</ele><time>2026-04-11T13:44:43.288Z</time></trkpt><trkpt lat="43.6684884" lon="12.0229082"><ele>550.0</ele><time>2026-04-11T13:44:44.286Z</time></trkpt><trkpt lat="43.6685516" lon="12.0229628"><ele>550.0</ele><time>2026-04-11T13:44:45.287Z</time></trkpt><trkpt lat="43.6685686" lon="12.0230528"><ele>550.0</ele><time>2026-04-11T13:44:46.288Z</time></trkpt><trkpt lat="43.6685362" lon="12.0231545"><ele>550.0</ele><time>2026-04-11T13:44:47.286Z</time></trkpt><trkpt lat="43.6684396" lon="12.0232118"><ele>550.0</ele><time>2026-04-11T13:44:48.288Z</time></trkpt><trkpt lat="43.6683024" lon="12.0232328"><ele>550.0</ele><time>2026-04-11T13:44:49.289Z</time></trkpt><trkpt lat="43.6681787" lon="12.0232657"><ele>550.0</ele><time>2026-04-11T13:44:50.288Z</time></trkpt><trkpt lat="43.6680813" lon="12.0233242"><ele>550.0</ele><time>2026-04-11T13:44:51.287Z</time></trkpt><trkpt lat="43.6680052" lon="12.0234085"><ele>550.0</ele><time>2026-04-11T13:44:52.288Z</time></trkpt><trkpt lat="43.6679822" lon="12.0235126"><ele>550.0</ele><time>2026-04-11T13:44:53.289Z</time></trkpt><trkpt lat="43.668018" lon="12.023618"><ele>550.6666666666667</ele><time>2026-04-11T13:44:54.286Z</time></trkpt><trkpt lat="43.6681088" lon="12.0237124"><ele>551.3333333333334</ele><time>2026-04-11T13:44:55.287Z</time></trkpt><trkpt lat="43.6682146" lon="12.0238234"><ele>552.0</ele><time>2026-04-11T13:44:56.286Z</time></trkpt><trkpt lat="43.6684019" lon="12.0239614"><ele>552.0</ele><time>2026-04-11T13:44:57.287Z</time></trkpt><trkpt lat="43.6685713" lon="12.024094"><ele>552.0</ele><time>2026-04-11T13:44:58.288Z</time></trkpt><trkpt lat="43.6687388" lon="12.024239"><ele>552.0</ele><time>2026-04-11T13:44:59.288Z</time></trkpt><trkpt lat="43.6688833" lon="12.0244035"><ele>547.3333333333334</ele><time>2026-04-11T13:45:00.287Z</time></trkpt><trkpt lat="43.6690129" lon="12.0245876"><ele>542.6666666666667</ele><time>2026-04-11T13:45:01.287Z</time></trkpt><trkpt lat="43.669108" lon="12.0248084"><ele>538.0</ele><time>2026-04-11T13:45:02.286Z</time></trkpt><trkpt lat="43.6692013" lon="12.025038"><ele>538.0</ele><time>2026-04-11T13:45:03.288Z</time></trkpt><trkpt lat="43.6692808" lon="12.0252798"><ele>538.0</ele><time>2026-04-11T13:45:04.288Z</time></trkpt><trkpt lat="43.6693566" lon="12.0254999"><ele>538.0</ele><time>2026-04-11T13:45:05.287Z</time></trkpt><trkpt lat="43.6694555" lon="12.0257197"><ele>530.6666666666667</ele><time>2026-04-11T13:45:06.289Z</time></trkpt><trkpt lat="43.6695729" lon="12.0259187"><ele>523.3333333333334</ele><time>2026-04-11T13:45:07.287Z</time></trkpt><trkpt lat="43.6697037" lon="12.0260956"><ele>516.0</ele><time>2026-04-11T13:45:08.287Z</time></trkpt><trkpt lat="43.6698288" lon="12.0262658"><ele>516.0</ele><time>2026-04-11T13:45:09.286Z</time></trkpt><trkpt lat="43.6699396" lon="12.0264077"><ele>516.0</ele><time>2026-04-11T13:45:10.287Z</time></trkpt><trkpt lat="43.6700554" lon="12.0265095"><ele>516.0</ele><time>2026-04-11T13:45:11.286Z</time></trkpt><trkpt lat="43.6701935" lon="12.0265554"><ele>516.0</ele><time>2026-04-11T13:45:12.287Z</time></trkpt><trkpt lat="43.670306" lon="12.0265553"><ele>514.5</ele><time>2026-04-11T13:45:13.288Z</time></trkpt><trkpt lat="43.6704153" lon="12.0265673"><ele>513.0</ele><time>2026-04-11T13:45:14.287Z</time></trkpt><trkpt lat="43.6704767" lon="12.0266052"><ele>511.5</ele><time>2026-04-11T13:45:15.288Z</time></trkpt><trkpt lat="43.6705235" lon="12.0266728"><ele>510.0</ele><time>2026-04-11T13:45:16.286Z</time></trkpt><trkpt lat="43.6705218" lon="12.0267722"><ele>508.5</ele><time>2026-04-11T13:45:17.287Z</time></trkpt><trkpt lat="43.6704601" lon="12.0268917"><ele>507.0</ele><time>2026-04-11T13:45:18.287Z</time></trkpt><trkpt lat="43.6703431" lon="12.027031"><ele>509.0</ele><time>2026-04-11T13:45:19.287Z</time></trkpt><trkpt lat="43.6701959" lon="12.0271868"><ele>511.0</ele><time>2026-04-11T13:45:20.287Z</time></trkpt><trkpt lat="43.6700356" lon="12.0273507"><ele>513.0</ele><time>2026-04-11T13:45:21.287Z</time></trkpt><trkpt lat="43.6698805" lon="12.0275234"><ele>513.0</ele><time>2026-04-11T13:45:22.286Z</time></trkpt><trkpt lat="43.6697636" lon="12.0276718"><ele>513.0</ele><time>2026-04-11T13:45:23.287Z</time></trkpt><trkpt lat="43.6696796" lon="12.0278351"><ele>513.0</ele><time>2026-04-11T13:45:24.287Z</time></trkpt><trkpt lat="43.6696489" lon="12.028046"><ele>513.0</ele><time>2026-04-11T13:45:25.288Z</time></trkpt><trkpt lat="43.669647" lon="12.0283085"><ele>513.0</ele><time>2026-04-11T13:45:26.287Z</time></trkpt><trkpt lat="43.6696411" lon="12.0286165"><ele>513.0</ele><time>2026-04-11T13:45:27.287Z</time></trkpt><trkpt lat="43.6696384" lon="12.0289097"><ele>508.66666666666663</ele><time>2026-04-11T13:45:28.287Z</time></trkpt><trkpt lat="43.6696313" lon="12.0291876"><ele>504.3333333333333</ele><time>2026-04-11T13:45:29.287Z</time></trkpt><trkpt lat="43.6696227" lon="12.0294547"><ele>500.0</ele><time>2026-04-11T13:45:30.287Z</time></trkpt><trkpt lat="43.6696165" lon="12.0296627"><ele>500.0</ele><time>2026-04-11T13:45:31.287Z</time></trkpt><trkpt lat="43.6696094" lon="12.0298648"><ele>500.0</ele><time>2026-04-11T13:45:32.286Z</time></trkpt><trkpt lat="43.6696095" lon="12.0300034"><ele>500.0</ele><time>2026-04-11T13:45:33.287Z</time></trkpt><trkpt lat="43.6696264" lon="12.0301172"><ele>500.0</ele><time>2026-04-11T13:45:34.289Z</time></trkpt><trkpt lat="43.6696762" lon="12.0301889"><ele>500.0</ele><time>2026-04-11T13:45:35.287Z</time></trkpt><trkpt lat="43.6697456" lon="12.0302244"><ele>500.0</ele><time>2026-04-11T13:45:36.289Z</time></trkpt><trkpt lat="43.6698249" lon="12.0301941"><ele>500.0</ele><time>2026-04-11T13:45:37.288Z</time></trkpt><trkpt lat="43.6699022" lon="12.03006"><ele>500.0</ele><time>2026-04-11T13:45:38.287Z</time></trkpt><trkpt lat="43.6699638" lon="12.0298967"><ele>500.0</ele><time>2026-04-11T13:45:39.288Z</time></trkpt><trkpt lat="43.6700295" lon="12.0296966"><ele>500.0</ele><time>2026-04-11T13:45:40.286Z</time></trkpt><trkpt lat="43.670093" lon="12.0294986"><ele>500.0</ele><time>2026-04-11T13:45:41.287Z</time></trkpt><trkpt lat="43.6701542" lon="12.0293268"><ele>500.0</ele><time>2026-04-11T13:45:42.288Z</time></trkpt><trkpt lat="43.6702229" lon="12.0292009"><ele>500.0</ele><time>2026-04-11T13:45:43.287Z</time></trkpt><trkpt lat="43.6703103" lon="12.029116"><ele>498.25</ele><time>2026-04-11T13:45:44.287Z</time></trkpt><trkpt lat="43.6704216" lon="12.0290853"><ele>496.5</ele><time>2026-04-11T13:45:45.288Z</time></trkpt><trkpt lat="43.67054" lon="12.0291175"><ele>494.75</ele><time>2026-04-11T13:45:46.287Z</time></trkpt><trkpt lat="43.6706763" lon="12.0292236"><ele>493.0</ele><time>2026-04-11T13:45:47.287Z</time></trkpt><trkpt lat="43.6708318" lon="12.0293623"><ele>491.6666666666667</ele><time>2026-04-11T13:45:48.288Z</time></trkpt><trkpt lat="43.6709919" lon="12.0294996"><ele>490.33333333333337</ele><time>2026-04-11T13:45:49.287Z</time></trkpt><trkpt lat="43.6711403" lon="12.0296386"><ele>489.0</ele><time>2026-04-11T13:45:50.289Z</time></trkpt><trkpt lat="43.6712665" lon="12.0297617"><ele>489.0</ele><time>2026-04-11T13:45:51.289Z</time></trkpt><trkpt lat="43.6713644" lon="12.0298929"><ele>489.0</ele><time>2026-04-11T13:45:52.288Z</time></trkpt><trkpt lat="43.6714264" lon="12.0300504"><ele>489.0</ele><time>2026-04-11T13:45:53.288Z</time></trkpt><trkpt lat="43.6714416" lon="12.0302201"><ele>489.0</ele><time>2026-04-11T13:45:54.289Z</time></trkpt><trkpt lat="43.6713956" lon="12.0304235"><ele>486.33333333333337</ele><time>2026-04-11T13:45:55.287Z</time></trkpt><trkpt lat="43.6712986" lon="12.0306328"><ele>483.6666666666667</ele><time>2026-04-11T13:45:56.287Z</time></trkpt><trkpt lat="43.6711731" lon="12.0308672"><ele>481.0</ele><time>2026-04-11T13:45:57.287Z</time></trkpt><trkpt lat="43.6710384" lon="12.0311127"><ele>481.0</ele><time>2026-04-11T13:45:58.288Z</time></trkpt><trkpt lat="43.6709126" lon="12.0313434"><ele>481.0</ele><time>2026-04-11T13:45:59.286Z</time></trkpt><trkpt lat="43.6708024" lon="12.0315433"><ele>481.0</ele><time>2026-04-11T13:46:00.286Z</time></trkpt><trkpt lat="43.6707102" lon="12.0317192"><ele>479.0</ele><time>2026-04-11T13:46:01.288Z</time></trkpt><trkpt lat="43.6706392" lon="12.0318778"><ele>477.0</ele><time>2026-04-11T13:46:02.287Z</time></trkpt><trkpt lat="43.6705991" lon="12.032045"><ele>475.0</ele><time>2026-04-11T13:46:03.287Z</time></trkpt><trkpt lat="43.6706073" lon="12.0322013"><ele>473.0</ele><time>2026-04-11T13:46:04.287Z</time></trkpt><trkpt lat="43.670665" lon="12.0323703"><ele>472.66666666666663</ele><time>2026-04-11T13:46:05.287Z</time></trkpt><trkpt lat="43.6707611" lon="12.0325378"><ele>472.33333333333337</ele><time>2026-04-11T13:46:06.286Z</time></trkpt><trkpt lat="43.6708644" lon="12.0327023"><ele>472.0</ele><time>2026-04-11T13:46:07.288Z</time></trkpt><trkpt lat="43.6709476" lon="12.0328841"><ele>472.0</ele><time>2026-04-11T13:46:08.288Z</time></trkpt><trkpt lat="43.6710057" lon="12.0330832"><ele>472.0</ele><time>2026-04-11T13:46:09.287Z</time></trkpt><trkpt lat="43.6710367" lon="12.0333062"><ele>472.0</ele><time>2026-04-11T13:46:10.286Z</time></trkpt><trkpt lat="43.6710511" lon="12.0335283"><ele>472.33333333333337</ele><time>2026-04-11T13:46:11.287Z</time></trkpt><trkpt lat="43.6710463" lon="12.0337387"><ele>472.66666666666663</ele><time>2026-04-11T13:46:12.287Z</time></trkpt><trkpt lat="43.6710089" lon="12.0339504"><ele>473.0</ele><time>2026-04-11T13:46:13.287Z</time></trkpt><trkpt lat="43.6709352" lon="12.0341714"><ele>470.0</ele><time>2026-04-11T13:46:14.286Z</time></trkpt><trkpt lat="43.6708307" lon="12.0344073"><ele>467.0</ele><time>2026-04-11T13:46:15.288Z</time></trkpt><trkpt lat="43.6707132" lon="12.0346388"><ele>464.0</ele><time>2026-04-11T13:46:16.288Z</time></trkpt><trkpt lat="43.6705908" lon="12.0348634"><ele>460.66666666666663</ele><time>2026-04-11T13:46:17.287Z</time></trkpt><trkpt lat="43.6704728" lon="12.0350788"><ele>457.33333333333337</ele><time>2026-04-11T13:46:18.287Z</time></trkpt><trkpt lat="43.6703726" lon="12.0352698"><ele>454.0</ele><time>2026-04-11T13:46:19.288Z</time></trkpt><trkpt lat="43.6703069" lon="12.0354397"><ele>451.6666666666667</ele><time>2026-04-11T13:46:20.287Z</time></trkpt><trkpt lat="43.6702684" lon="12.0356193"><ele>449.33333333333337</ele><time>2026-04-11T13:46:21.288Z</time></trkpt><trkpt lat="43.67028" lon="12.0358261"><ele>447.0</ele><time>2026-04-11T13:46:22.288Z</time></trkpt><trkpt lat="43.670328" lon="12.0360476"><ele>447.0</ele><time>2026-04-11T13:46:23.287Z</time></trkpt><trkpt lat="43.6703853" lon="12.0362804"><ele>447.0</ele><time>2026-04-11T13:46:24.287Z</time></trkpt><trkpt lat="43.6704374" lon="12.036494"><ele>447.0</ele><time>2026-04-11T13:46:25.287Z</time></trkpt><trkpt lat="43.6704785" lon="12.0366885"><ele>445.75</ele><time>2026-04-11T13:46:26.287Z</time></trkpt><trkpt lat="43.6704936" lon="12.0368815"><ele>444.5</ele><time>2026-04-11T13:46:27.288Z</time></trkpt><trkpt lat="43.6704826" lon="12.0370761"><ele>443.25</ele><time>2026-04-11T13:46:28.287Z</time></trkpt><trkpt lat="43.6704257" lon="12.0372427"><ele>442.0</ele><time>2026-04-11T13:46:29.287Z</time></trkpt><trkpt lat="43.670353" lon="12.037422"><ele>444.5</ele><time>2026-04-11T13:46:30.287Z</time></trkpt><trkpt lat="43.670269" lon="12.0375964"><ele>447.0</ele><time>2026-04-11T13:46:31.287Z</time></trkpt><trkpt lat="43.6701894" lon="12.037771"><ele>449.5</ele><time>2026-04-11T13:46:32.288Z</time></trkpt><trkpt lat="43.6701136" lon="12.0379411"><ele>452.0</ele><time>2026-04-11T13:46:33.288Z</time></trkpt><trkpt lat="43.6700395" lon="12.0380915"><ele>452.0</ele><time>2026-04-11T13:46:34.287Z</time></trkpt><trkpt lat="43.6699813" lon="12.038226"><ele>452.0</ele><time>2026-04-11T13:46:35.287Z</time></trkpt><trkpt lat="43.6699572" lon="12.0383351"><ele>452.0</ele><time>2026-04-11T13:46:36.286Z</time></trkpt><trkpt lat="43.6699644" lon="12.0385002"><ele>452.0</ele><time>2026-04-11T13:46:37.289Z</time></trkpt><trkpt lat="43.6700004" lon="12.0387121"><ele>447.66666666666663</ele><time>2026-04-11T13:46:38.288Z</time></trkpt><trkpt lat="43.6700616" lon="12.0389367"><ele>443.33333333333337</ele><time>2026-04-11T13:46:39.288Z</time></trkpt><trkpt lat="43.6701234" lon="12.0391411"><ele>439.0</ele><time>2026-04-11T13:46:40.288Z</time></trkpt><trkpt lat="43.6701778" lon="12.0393296"><ele>438.79999999999995</ele><time>2026-04-11T13:46:41.288Z</time></trkpt><trkpt lat="43.6702242" lon="12.0394933"><ele>438.59999999999997</ele><time>2026-04-11T13:46:42.288Z</time></trkpt><trkpt lat="43.6702572" lon="12.0396267"><ele>438.4</ele><time>2026-04-11T13:46:43.288Z</time></trkpt><trkpt lat="43.67028" lon="12.0397283"><ele>438.2</ele><time>2026-04-11T13:46:44.288Z</time></trkpt><trkpt lat="43.6703112" lon="12.0398445"><ele>438.0</ele><time>2026-04-11T13:46:46.287Z</time></trkpt><trkpt lat="43.6703689" lon="12.0399215"><ele>437.5</ele><time>2026-04-11T13:47:16.287Z</time></trkpt><trkpt lat="43.6704947" lon="12.0398826"><ele>437.0</ele><time>2026-04-11T13:47:18.288Z</time></trkpt><trkpt lat="43.6705962" lon="12.0398092"><ele>436.5</ele><time>2026-04-11T13:47:19.287Z</time></trkpt><trkpt lat="43.6707321" lon="12.039713"><ele>436.0</ele><time>2026-04-11T13:47:20.288Z</time></trkpt><trkpt lat="43.670888" lon="12.039613"><ele>436.0</ele><time>2026-04-11T13:47:21.287Z</time></trkpt><trkpt lat="43.6710391" lon="12.0395265"><ele>436.0</ele><time>2026-04-11T13:47:22.287Z</time></trkpt><trkpt lat="43.6711857" lon="12.0394581"><ele>436.0</ele><time>2026-04-11T13:47:23.287Z</time></trkpt><trkpt lat="43.6713271" lon="12.0394112"><ele>435.75</ele><time>2026-04-11T13:47:24.288Z</time></trkpt><trkpt lat="43.6714609" lon="12.0393836"><ele>435.5</ele><time>2026-04-11T13:47:25.288Z</time></trkpt><trkpt lat="43.6715791" lon="12.0393706"><ele>435.25</ele><time>2026-04-11T13:47:26.288Z</time></trkpt><trkpt lat="43.671687" lon="12.0393623"><ele>435.0</ele><time>2026-04-11T13:47:27.287Z</time></trkpt><trkpt lat="43.6717982" lon="12.0393536"><ele>435.0</ele><time>2026-04-11T13:47:28.287Z</time></trkpt><trkpt lat="43.6719072" lon="12.0393523"><ele>435.0</ele><time>2026-04-11T13:47:29.287Z</time></trkpt><trkpt lat="43.6720168" lon="12.039348"><ele>435.0</ele><time>2026-04-11T13:47:30.288Z</time></trkpt><trkpt lat="43.6721215" lon="12.0393584"><ele>435.0</ele><time>2026-04-11T13:47:31.287Z</time></trkpt><trkpt lat="43.6722325" lon="12.0393535"><ele>435.0</ele><time>2026-04-11T13:47:32.287Z</time></trkpt><trkpt lat="43.6723427" lon="12.0393476"><ele>435.2</ele><time>2026-04-11T13:47:33.287Z</time></trkpt><trkpt lat="43.6724495" lon="12.0393484"><ele>435.4</ele><time>2026-04-11T13:47:34.287Z</time></trkpt><trkpt lat="43.6725598" lon="12.0393445"><ele>435.6</ele><time>2026-04-11T13:47:35.287Z</time></trkpt><trkpt lat="43.6726701" lon="12.039348"><ele>435.8</ele><time>2026-04-11T13:47:36.287Z</time></trkpt><trkpt lat="43.6727815" lon="12.0393392"><ele>436.0</ele><time>2026-04-11T13:47:37.287Z</time></trkpt><trkpt lat="43.6728888" lon="12.0393432"><ele>436.5</ele><time>2026-04-11T13:47:38.286Z</time></trkpt><trkpt lat="43.6730023" lon="12.0393371"><ele>437.0</ele><time>2026-04-11T13:47:39.288Z</time></trkpt><trkpt lat="43.6731163" lon="12.0393278"><ele>437.5</ele><time>2026-04-11T13:47:40.288Z</time></trkpt><trkpt lat="43.6732266" lon="12.0393241"><ele>438.0</ele><time>2026-04-11T13:47:41.287Z</time></trkpt><trkpt lat="43.6733472" lon="12.039315"><ele>438.0</ele><time>2026-04-11T13:47:42.288Z</time></trkpt><trkpt lat="43.673473" lon="12.0393198"><ele>438.0</ele><time>2026-04-11T13:47:43.288Z</time></trkpt><trkpt lat="43.6735903" lon="12.0393243"><ele>438.0</ele><time>2026-04-11T13:47:44.286Z</time></trkpt><trkpt lat="43.6737087" lon="12.0393279"><ele>438.0</ele><time>2026-04-11T13:47:45.287Z</time></trkpt><trkpt lat="43.6738312" lon="12.0393258"><ele>438.25</ele><time>2026-04-11T13:47:46.288Z</time></trkpt><trkpt lat="43.6739507" lon="12.0393222"><ele>438.5</ele><time>2026-04-11T13:47:47.287Z</time></trkpt><trkpt lat="43.6740753" lon="12.0393118"><ele>438.75</ele><time>2026-04-11T13:47:48.286Z</time></trkpt><trkpt lat="43.6742108" lon="12.0392814"><ele>439.0</ele><time>2026-04-11T13:47:49.288Z</time></trkpt><trkpt lat="43.6743451" lon="12.0392397"><ele>439.0</ele><time>2026-04-11T13:47:50.287Z</time></trkpt><trkpt lat="43.6744829" lon="12.0391792"><ele>439.0</ele><time>2026-04-11T13:47:51.286Z</time></trkpt><trkpt lat="43.6746188" lon="12.0391104"><ele>439.0</ele><time>2026-04-11T13:47:52.288Z</time></trkpt><trkpt lat="43.674756" lon="12.0390406"><ele>439.0</ele><time>2026-04-11T13:47:53.287Z</time></trkpt><trkpt lat="43.6748869" lon="12.0389688"><ele>439.0</ele><time>2026-04-11T13:47:54.287Z</time></trkpt><trkpt lat="43.6750251" lon="12.0388953"><ele>439.0</ele><time>2026-04-11T13:47:55.287Z</time></trkpt><trkpt lat="43.6751648" lon="12.0388249"><ele>439.0</ele><time>2026-04-11T13:47:56.286Z</time></trkpt><trkpt lat="43.6752994" lon="12.0387549"><ele>439.0</ele><time>2026-04-11T13:47:57.288Z</time></trkpt><trkpt lat="43.675431" lon="12.0386852"><ele>438.75</ele><time>2026-04-11T13:47:58.286Z</time></trkpt><trkpt lat="43.6755656" lon="12.0386138"><ele>438.5</ele><time>2026-04-11T13:47:59.287Z</time></trkpt><trkpt lat="43.6756942" lon="12.0385457"><ele>438.25</ele><time>2026-04-11T13:48:00.286Z</time></trkpt><trkpt lat="43.6758278" lon="12.0384695"><ele>438.0</ele><time>2026-04-11T13:48:01.288Z</time></trkpt><trkpt lat="43.6759551" lon="12.0383993"><ele>438.0</ele><time>2026-04-11T13:48:02.287Z</time></trkpt><trkpt lat="43.6760881" lon="12.0383294"><ele>438.0</ele><time>2026-04-11T13:48:03.287Z</time></trkpt><trkpt lat="43.6762165" lon="12.0382613"><ele>438.0</ele><time>2026-04-11T13:48:04.287Z</time></trkpt><trkpt lat="43.6763264" lon="12.0382157"><ele>438.0</ele><time>2026-04-11T13:48:05.288Z</time></trkpt><trkpt lat="43.6764457" lon="12.0381566"><ele>438.75</ele><time>2026-04-11T13:48:06.287Z</time></trkpt><trkpt lat="43.6765703" lon="12.0380918"><ele>439.5</ele><time>2026-04-11T13:48:07.287Z</time></trkpt><trkpt lat="43.6766856" lon="12.0380305"><ele>440.25</ele><time>2026-04-11T13:48:08.288Z</time></trkpt><trkpt lat="43.6768096" lon="12.0379661"><ele>441.0</ele><time>2026-04-11T13:48:09.288Z</time></trkpt><trkpt lat="43.6769323" lon="12.0378968"><ele>441.75</ele><time>2026-04-11T13:48:10.287Z</time></trkpt><trkpt lat="43.6770629" lon="12.0378227"><ele>442.5</ele><time>2026-04-11T13:48:11.287Z</time></trkpt><trkpt lat="43.6771874" lon="12.0377632"><ele>443.25</ele><time>2026-04-11T13:48:12.286Z</time></trkpt><trkpt lat="43.6773114" lon="12.0376983"><ele>444.0</ele><time>2026-04-11T13:48:13.288Z</time></trkpt><trkpt lat="43.6774423" lon="12.0376278"><ele>444.0</ele><time>2026-04-11T13:48:14.288Z</time></trkpt><trkpt lat="43.6775717" lon="12.0375584"><ele>444.0</ele><time>2026-04-11T13:48:15.287Z</time></trkpt><trkpt lat="43.6777032" lon="12.0374899"><ele>444.0</ele><time>2026-04-11T13:48:16.287Z</time></trkpt><trkpt lat="43.6778352" lon="12.0374174"><ele>444.0</ele><time>2026-04-11T13:48:17.287Z</time></trkpt><trkpt lat="43.6779691" lon="12.0373427"><ele>446.0</ele><time>2026-04-11T13:48:18.288Z</time></trkpt><trkpt lat="43.6781017" lon="12.0372756"><ele>448.0</ele><time>2026-04-11T13:48:19.287Z</time></trkpt><trkpt lat="43.6782346" lon="12.0372023"><ele>450.0</ele><time>2026-04-11T13:48:20.286Z</time></trkpt><trkpt lat="43.6783717" lon="12.037135"><ele>452.0</ele><time>2026-04-11T13:48:21.287Z</time></trkpt><trkpt lat="43.6785124" lon="12.0370649"><ele>451.75</ele><time>2026-04-11T13:48:22.287Z</time></trkpt><trkpt lat="43.6786492" lon="12.0370013"><ele>451.5</ele><time>2026-04-11T13:48:23.286Z</time></trkpt><trkpt lat="43.6787881" lon="12.0369371"><ele>451.25</ele><time>2026-04-11T13:48:24.287Z</time></trkpt><trkpt lat="43.6789249" lon="12.036873"><ele>451.0</ele><time>2026-04-11T13:48:25.287Z</time></trkpt><trkpt lat="43.6790541" lon="12.036814"><ele>451.0</ele><time>2026-04-11T13:48:26.287Z</time></trkpt><trkpt lat="43.6791856" lon="12.0367594"><ele>451.0</ele><time>2026-04-11T13:48:27.287Z</time></trkpt><trkpt lat="43.6793202" lon="12.0367056"><ele>451.0</ele><time>2026-04-11T13:48:28.289Z</time></trkpt><trkpt lat="43.6794544" lon="12.036651"><ele>451.0</ele><time>2026-04-11T13:48:29.289Z</time></trkpt><trkpt lat="43.679923" lon="12.0364763"><ele>451.6666666666667</ele><time>2026-04-11T13:48:32.288Z</time></trkpt><trkpt lat="43.6800963" lon="12.0364594"><ele>452.33333333333337</ele><time>2026-04-11T13:48:33.287Z</time></trkpt><trkpt lat="43.6802871" lon="12.0364411"><ele>453.0</ele><time>2026-04-11T13:48:34.287Z</time></trkpt><trkpt lat="43.6804613" lon="12.0364337"><ele>453.0</ele><time>2026-04-11T13:48:35.288Z</time></trkpt><trkpt lat="43.680603" lon="12.0364439"><ele>453.0</ele><time>2026-04-11T13:48:36.286Z</time></trkpt><trkpt lat="43.6807511" lon="12.0364426"><ele>453.0</ele><time>2026-04-11T13:48:37.287Z</time></trkpt><trkpt lat="43.6808824" lon="12.0364376"><ele>453.0</ele><time>2026-04-11T13:48:38.287Z</time></trkpt><trkpt lat="43.6810227" lon="12.0364281"><ele>452.66666666666663</ele><time>2026-04-11T13:48:39.286Z</time></trkpt><trkpt lat="43.6811698" lon="12.0364101"><ele>452.3333333333333</ele><time>2026-04-11T13:48:40.287Z</time></trkpt><trkpt lat="43.6813284" lon="12.036383"><ele>452.0</ele><time>2026-04-11T13:48:41.287Z</time></trkpt><trkpt lat="43.6814984" lon="12.0363529"><ele>452.0</ele><time>2026-04-11T13:48:42.288Z</time></trkpt><trkpt lat="43.681655" lon="12.0363199"><ele>452.0</ele><time>2026-04-11T13:48:43.287Z</time></trkpt><trkpt lat="43.681791" lon="12.0362888"><ele>452.0</ele><time>2026-04-11T13:48:44.286Z</time></trkpt><trkpt lat="43.6819074" lon="12.036268"><ele>452.0</ele><time>2026-04-11T13:48:45.287Z</time></trkpt><trkpt lat="43.682018" lon="12.0362512"><ele>451.8333333333333</ele><time>2026-04-11T13:48:46.288Z</time></trkpt><trkpt lat="43.6820965" lon="12.0362665"><ele>451.66666666666663</ele><time>2026-04-11T13:48:47.287Z</time></trkpt><trkpt lat="43.6821801" lon="12.0362834"><ele>451.5</ele><time>2026-04-11T13:48:48.288Z</time></trkpt><trkpt lat="43.6822509" lon="12.0363329"><ele>451.33333333333337</ele><time>2026-04-11T13:48:49.287Z</time></trkpt><trkpt lat="43.682307" lon="12.0364219"><ele>451.1666666666667</ele><time>2026-04-11T13:48:50.286Z</time></trkpt><trkpt lat="43.6823395" lon="12.0365308"><ele>451.0</ele><time>2026-04-11T13:48:51.289Z</time></trkpt><trkpt lat="43.6823536" lon="12.0366648"><ele>451.0</ele><time>2026-04-11T13:48:52.287Z</time></trkpt><trkpt lat="43.6823367" lon="12.0367963"><ele>451.0</ele><time>2026-04-11T13:48:53.289Z</time></trkpt><trkpt lat="43.6823006" lon="12.0369165"><ele>451.0</ele><time>2026-04-11T13:48:54.286Z</time></trkpt><trkpt lat="43.6822503" lon="12.0370389"><ele>451.0</ele><time>2026-04-11T13:48:55.288Z</time></trkpt><trkpt lat="43.6821932" lon="12.0371771"><ele>451.0</ele><time>2026-04-11T13:48:56.287Z</time></trkpt><trkpt lat="43.6821264" lon="12.0373192"><ele>451.0</ele><time>2026-04-11T13:48:57.287Z</time></trkpt><trkpt lat="43.6820567" lon="12.0374504"><ele>451.0</ele><time>2026-04-11T13:48:58.288Z</time></trkpt><trkpt lat="43.6819856" lon="12.0375665"><ele>451.0</ele><time>2026-04-11T13:48:59.287Z</time></trkpt><trkpt lat="43.6818953" lon="12.0376377"><ele>451.0</ele><time>2026-04-11T13:49:00.287Z</time></trkpt><trkpt lat="43.6817706" lon="12.0376908"><ele>450.0</ele><time>2026-04-11T13:49:01.287Z</time></trkpt><trkpt lat="43.681627" lon="12.037689"><ele>449.0</ele><time>2026-04-11T13:49:02.288Z</time></trkpt><trkpt lat="43.6814827" lon="12.0376729"><ele>448.0</ele><time>2026-04-11T13:49:03.287Z</time></trkpt><trkpt lat="43.6813436" lon="12.0376433"><ele>447.0</ele><time>2026-04-11T13:49:04.288Z</time></trkpt><trkpt lat="43.6812335" lon="12.0376183"><ele>447.0</ele><time>2026-04-11T13:49:05.289Z</time></trkpt><trkpt lat="43.6811335" lon="12.0375845"><ele>447.0</ele><time>2026-04-11T13:49:06.289Z</time></trkpt><trkpt lat="43.6810498" lon="12.0375153"><ele>447.0</ele><time>2026-04-11T13:49:07.287Z</time></trkpt><trkpt lat="43.6810012" lon="12.0374184"><ele>447.0</ele><time>2026-04-11T13:49:08.287Z</time></trkpt><trkpt lat="43.6809777" lon="12.0373177"><ele>447.0</ele><time>2026-04-11T13:49:09.286Z</time></trkpt><trkpt lat="43.6809997" lon="12.0372207"><ele>447.0</ele><time>2026-04-11T13:49:10.287Z</time></trkpt><trkpt lat="43.681061" lon="12.0371297"><ele>447.20000000000005</ele><time>2026-04-11T13:49:11.287Z</time></trkpt><trkpt lat="43.6811528" lon="12.0370857"><ele>447.40000000000003</ele><time>2026-04-11T13:49:12.287Z</time></trkpt><trkpt lat="43.6812367" lon="12.0370908"><ele>447.59999999999997</ele><time>2026-04-11T13:49:13.288Z</time></trkpt><trkpt lat="43.6813456" lon="12.0371314"><ele>447.79999999999995</ele><time>2026-04-11T13:49:14.286Z</time></trkpt><trkpt lat="43.6814718" lon="12.0371736"><ele>448.0</ele><time>2026-04-11T13:49:15.288Z</time></trkpt><trkpt lat="43.681615" lon="12.0372281"><ele>448.0</ele><time>2026-04-11T13:49:16.288Z</time></trkpt><trkpt lat="43.6817879" lon="12.0372864"><ele>448.0</ele><time>2026-04-11T13:49:17.286Z</time></trkpt><trkpt lat="43.6819816" lon="12.0373537"><ele>448.0</ele><time>2026-04-11T13:49:18.288Z</time></trkpt><trkpt lat="43.6821806" lon="12.037418"><ele>448.0</ele><time>2026-04-11T13:49:19.287Z</time></trkpt><trkpt lat="43.6823806" lon="12.037501"><ele>448.0</ele><time>2026-04-11T13:49:20.288Z</time></trkpt><trkpt lat="43.6825877" lon="12.0375963"><ele>448.0</ele><time>2026-04-11T13:49:21.286Z</time></trkpt><trkpt lat="43.6827973" lon="12.0376794"><ele>448.0</ele><time>2026-04-11T13:49:22.287Z</time></trkpt><trkpt lat="43.6830061" lon="12.0377767"><ele>448.0</ele><time>2026-04-11T13:49:23.287Z</time></trkpt><trkpt lat="43.6832148" lon="12.0378762"><ele>448.0</ele><time>2026-04-11T13:49:24.286Z</time></trkpt><trkpt lat="43.6834269" lon="12.037971"><ele>447.0</ele><time>2026-04-11T13:49:25.287Z</time></trkpt><trkpt lat="43.6836398" lon="12.0380566"><ele>446.0</ele><time>2026-04-11T13:49:26.287Z</time></trkpt><trkpt lat="43.6838455" lon="12.0381417"><ele>445.0</ele><time>2026-04-11T13:49:27.286Z</time></trkpt><trkpt lat="43.684046" lon="12.0382145"><ele>446.6666666666667</ele><time>2026-04-11T13:49:28.288Z</time></trkpt><trkpt lat="43.6842518" lon="12.0383044"><ele>448.33333333333337</ele><time>2026-04-11T13:49:29.287Z</time></trkpt><trkpt lat="43.6844514" lon="12.0383722"><ele>450.0</ele><time>2026-04-11T13:49:30.288Z</time></trkpt><trkpt lat="43.6846501" lon="12.0384515"><ele>451.0</ele><time>2026-04-11T13:49:31.287Z</time></trkpt><trkpt lat="43.6848534" lon="12.0385359"><ele>452.0</ele><time>2026-04-11T13:49:32.287Z</time></trkpt><trkpt lat="43.6850622" lon="12.0386213"><ele>453.0</ele><time>2026-04-11T13:49:33.287Z</time></trkpt><trkpt lat="43.6852708" lon="12.0386889"><ele>453.33333333333337</ele><time>2026-04-11T13:49:34.287Z</time></trkpt><trkpt lat="43.6854866" lon="12.0387437"><ele>453.6666666666667</ele><time>2026-04-11T13:49:35.287Z</time></trkpt><trkpt lat="43.6857093" lon="12.0387858"><ele>454.0</ele><time>2026-04-11T13:49:36.287Z</time></trkpt><trkpt lat="43.6859308" lon="12.0388143"><ele>454.5</ele><time>2026-04-11T13:49:37.288Z</time></trkpt><trkpt lat="43.6861638" lon="12.0388178"><ele>455.0</ele><time>2026-04-11T13:49:38.286Z</time></trkpt><trkpt lat="43.686396" lon="12.0388116"><ele>455.0</ele><time>2026-04-11T13:49:39.288Z</time></trkpt><trkpt lat="43.6866305" lon="12.0387854"><ele>455.0</ele><time>2026-04-11T13:49:40.288Z</time></trkpt><trkpt lat="43.6868613" lon="12.0387474"><ele>459.5</ele><time>2026-04-11T13:49:41.286Z</time></trkpt><trkpt lat="43.687089" lon="12.038696"><ele>464.0</ele><time>2026-04-11T13:49:42.287Z</time></trkpt><trkpt lat="43.687313" lon="12.0386257"><ele>464.0</ele><time>2026-04-11T13:49:43.287Z</time></trkpt><trkpt lat="43.687531" lon="12.0385412"><ele>464.0</ele><time>2026-04-11T13:49:44.287Z</time></trkpt><trkpt lat="43.6877448" lon="12.0384366"><ele>465.0</ele><time>2026-04-11T13:49:45.288Z</time></trkpt><trkpt lat="43.6879558" lon="12.0383189"><ele>466.0</ele><time>2026-04-11T13:49:46.286Z</time></trkpt><trkpt lat="43.6881681" lon="12.0381997"><ele>464.0</ele><time>2026-04-11T13:49:47.287Z</time></trkpt><trkpt lat="43.6883775" lon="12.0380736"><ele>462.0</ele><time>2026-04-11T13:49:48.288Z</time></trkpt><trkpt lat="43.6897722" lon="12.0368393"><ele>462.0</ele><time>2026-04-11T13:49:55.288Z</time></trkpt><trkpt lat="43.6899929" lon="12.0366597"><ele>462.0</ele><time>2026-04-11T13:49:56.286Z</time></trkpt><trkpt lat="43.6902016" lon="12.03652"><ele>466.66666666666663</ele><time>2026-04-11T13:49:57.287Z</time></trkpt><trkpt lat="43.6904085" lon="12.0364005"><ele>471.3333333333333</ele><time>2026-04-11T13:49:58.287Z</time></trkpt><trkpt lat="43.6906182" lon="12.0362917"><ele>476.0</ele><time>2026-04-11T13:49:59.286Z</time></trkpt><trkpt lat="43.6908324" lon="12.0362053"><ele>476.0</ele><time>2026-04-11T13:50:00.288Z</time></trkpt><trkpt lat="43.6910459" lon="12.0361329"><ele>476.0</ele><time>2026-04-11T13:50:01.286Z</time></trkpt><trkpt lat="43.6912748" lon="12.0360714"><ele>476.66666666666663</ele><time>2026-04-11T13:50:02.287Z</time></trkpt><trkpt lat="43.6914682" lon="12.036024"><ele>477.33333333333337</ele><time>2026-04-11T13:50:03.288Z</time></trkpt><trkpt lat="43.6916773" lon="12.0359935"><ele>478.0</ele><time>2026-04-11T13:50:04.287Z</time></trkpt><trkpt lat="43.6918861" lon="12.0359809"><ele>480.6666666666667</ele><time>2026-04-11T13:50:05.287Z</time></trkpt><trkpt lat="43.6921034" lon="12.0359832"><ele>483.33333333333337</ele><time>2026-04-11T13:50:06.287Z</time></trkpt><trkpt lat="43.6923221" lon="12.035993"><ele>486.0</ele><time>2026-04-11T13:50:07.286Z</time></trkpt><trkpt lat="43.6925332" lon="12.0360293"><ele>486.0</ele><time>2026-04-11T13:50:08.287Z</time></trkpt><trkpt lat="43.6927439" lon="12.0360695"><ele>486.0</ele><time>2026-04-11T13:50:09.286Z</time></trkpt><trkpt lat="43.6929679" lon="12.0361289"><ele>486.0</ele><time>2026-04-11T13:50:10.287Z</time></trkpt><trkpt lat="43.6931831" lon="12.0361892"><ele>491.33333333333337</ele><time>2026-04-11T13:50:11.287Z</time></trkpt><trkpt lat="43.693392" lon="12.0362513"><ele>496.6666666666667</ele><time>2026-04-11T13:50:12.287Z</time></trkpt><trkpt lat="43.6935996" lon="12.0363061"><ele>502.0</ele><time>2026-04-11T13:50:13.287Z</time></trkpt><trkpt lat="43.6938019" lon="12.0363511"><ele>499.33333333333337</ele><time>2026-04-11T13:50:14.286Z</time></trkpt><trkpt lat="43.6940126" lon="12.0363885"><ele>496.66666666666663</ele><time>2026-04-11T13:50:15.286Z</time></trkpt><trkpt lat="43.694231" lon="12.0364094"><ele>494.0</ele><time>2026-04-11T13:50:16.287Z</time></trkpt><trkpt lat="43.6944418" lon="12.0364251"><ele>494.0</ele><time>2026-04-11T13:50:17.286Z</time></trkpt><trkpt lat="43.6946643" lon="12.0364272"><ele>494.0</ele><time>2026-04-11T13:50:18.288Z</time></trkpt><trkpt lat="43.6948829" lon="12.0364145"><ele>494.0</ele><time>2026-04-11T13:50:19.286Z</time></trkpt><trkpt lat="43.6951028" lon="12.0363876"><ele>491.3333333333333</ele><time>2026-04-11T13:50:20.287Z</time></trkpt><trkpt lat="43.6953207" lon="12.0363409"><ele>488.66666666666663</ele><time>2026-04-11T13:50:21.287Z</time></trkpt><trkpt lat="43.6955384" lon="12.0362748"><ele>486.0</ele><time>2026-04-11T13:50:22.287Z</time></trkpt><trkpt lat="43.6957541" lon="12.0362004"><ele>486.0</ele><time>2026-04-11T13:50:23.286Z</time></trkpt><trkpt lat="43.6959655" lon="12.0361113"><ele>486.0</ele><time>2026-04-11T13:50:24.287Z</time></trkpt><trkpt lat="43.6961801" lon="12.0360124"><ele>486.0</ele><time>2026-04-11T13:50:25.286Z</time></trkpt><trkpt lat="43.6963879" lon="12.0359121"><ele>485.33333333333337</ele><time>2026-04-11T13:50:26.288Z</time></trkpt><trkpt lat="43.6965964" lon="12.0358119"><ele>484.6666666666667</ele><time>2026-04-11T13:50:27.287Z</time></trkpt><trkpt lat="43.6967865" lon="12.0357239"><ele>484.0</ele><time>2026-04-11T13:50:28.287Z</time></trkpt><trkpt lat="43.6969713" lon="12.0356364"><ele>484.0</ele><time>2026-04-11T13:50:29.287Z</time></trkpt><trkpt lat="43.6971528" lon="12.035557"><ele>484.0</ele><time>2026-04-11T13:50:30.287Z</time></trkpt><trkpt lat="43.6973397" lon="12.035492"><ele>484.0</ele><time>2026-04-11T13:50:31.286Z</time></trkpt><trkpt lat="43.6975276" lon="12.0354371"><ele>484.0</ele><time>2026-04-11T13:50:32.287Z</time></trkpt><trkpt lat="43.6977217" lon="12.0353666"><ele>484.0</ele><time>2026-04-11T13:50:33.287Z</time></trkpt><trkpt lat="43.697926" lon="12.0352745"><ele>484.0</ele><time>2026-04-11T13:50:34.288Z</time></trkpt><trkpt lat="43.6981245" lon="12.035178"><ele>482.6666666666667</ele><time>2026-04-11T13:50:35.287Z</time></trkpt><trkpt lat="43.6983297" lon="12.035076"><ele>481.33333333333337</ele><time>2026-04-11T13:50:36.288Z</time></trkpt><trkpt lat="43.6985328" lon="12.0349769"><ele>480.0</ele><time>2026-04-11T13:50:37.286Z</time></trkpt><trkpt lat="43.6987389" lon="12.0348741"><ele>486.33333333333337</ele><time>2026-04-11T13:50:38.286Z</time></trkpt><trkpt lat="43.6989362" lon="12.0347716"><ele>492.6666666666667</ele><time>2026-04-11T13:50:39.288Z</time></trkpt><trkpt lat="43.69913" lon="12.0346786"><ele>499.0</ele><time>2026-04-11T13:50:40.287Z</time></trkpt><trkpt lat="43.6993207" lon="12.0345734"><ele>495.33333333333337</ele><time>2026-04-11T13:50:41.287Z</time></trkpt><trkpt lat="43.6995151" lon="12.0344533"><ele>491.66666666666663</ele><time>2026-04-11T13:50:42.287Z</time></trkpt><trkpt lat="43.6996972" lon="12.034335"><ele>488.0</ele><time>2026-04-11T13:50:43.287Z</time></trkpt><trkpt lat="43.699883" lon="12.0341931"><ele>489.3333333333333</ele><time>2026-04-11T13:50:44.287Z</time></trkpt><trkpt lat="43.70006" lon="12.0340373"><ele>490.66666666666663</ele><time>2026-04-11T13:50:45.287Z</time></trkpt><trkpt lat="43.7002383" lon="12.0338674"><ele>492.0</ele><time>2026-04-11T13:50:46.286Z</time></trkpt><trkpt lat="43.7004118" lon="12.0336844"><ele>492.66666666666663</ele><time>2026-04-11T13:50:47.286Z</time></trkpt><trkpt lat="43.7005833" lon="12.0334921"><ele>493.3333333333333</ele><time>2026-04-11T13:50:48.288Z</time></trkpt><trkpt lat="43.7007507" lon="12.0332865"><ele>494.0</ele><time>2026-04-11T13:50:49.286Z</time></trkpt><trkpt lat="43.7009179" lon="12.0330749"><ele>495.5</ele><time>2026-04-11T13:50:50.286Z</time></trkpt><trkpt lat="43.7010838" lon="12.0328607"><ele>497.0</ele><time>2026-04-11T13:50:51.287Z</time></trkpt><trkpt lat="43.7012472" lon="12.0326479"><ele>498.3333333333333</ele><time>2026-04-11T13:50:52.288Z</time></trkpt><trkpt lat="43.7014138" lon="12.0324374"><ele>499.66666666666663</ele><time>2026-04-11T13:50:53.286Z</time></trkpt><trkpt lat="43.7015733" lon="12.0322256"><ele>501.0</ele><time>2026-04-11T13:50:54.287Z</time></trkpt><trkpt lat="43.7017335" lon="12.0320164"><ele>501.0</ele><time>2026-04-11T13:50:55.286Z</time></trkpt><trkpt lat="43.7018945" lon="12.031801"><ele>501.0</ele><time>2026-04-11T13:50:56.287Z</time></trkpt><trkpt lat="43.7020654" lon="12.0315864"><ele>500.5</ele><time>2026-04-11T13:50:57.287Z</time></trkpt><trkpt lat="43.7022288" lon="12.0313738"><ele>500.0</ele><time>2026-04-11T13:50:58.287Z</time></trkpt><trkpt lat="43.702395" lon="12.0311548"><ele>500.0</ele><time>2026-04-11T13:50:59.287Z</time></trkpt><trkpt lat="43.7025669" lon="12.0309313"><ele>500.0</ele><time>2026-04-11T13:51:00.286Z</time></trkpt><trkpt lat="43.7027324" lon="12.0307115"><ele>499.66666666666663</ele><time>2026-04-11T13:51:01.287Z</time></trkpt><trkpt lat="43.7028949" lon="12.0304935"><ele>499.33333333333337</ele><time>2026-04-11T13:51:02.287Z</time></trkpt><trkpt lat="43.7030534" lon="12.0302785"><ele>499.0</ele><time>2026-04-11T13:51:03.287Z</time></trkpt><trkpt lat="43.7032135" lon="12.03007"><ele>498.33333333333337</ele><time>2026-04-11T13:51:04.287Z</time></trkpt><trkpt lat="43.7033849" lon="12.0298793"><ele>497.66666666666663</ele><time>2026-04-11T13:51:05.288Z</time></trkpt><trkpt lat="43.7035612" lon="12.0296997"><ele>497.0</ele><time>2026-04-11T13:51:06.287Z</time></trkpt><trkpt lat="43.7037483" lon="12.0295253"><ele>494.0</ele><time>2026-04-11T13:51:07.287Z</time></trkpt><trkpt lat="43.7039419" lon="12.0293645"><ele>491.0</ele><time>2026-04-11T13:51:08.287Z</time></trkpt><trkpt lat="43.7041388" lon="12.0292148"><ele>496.0</ele><time>2026-04-11T13:51:09.288Z</time></trkpt><trkpt lat="43.7043377" lon="12.0290769"><ele>501.0</ele><time>2026-04-11T13:51:10.286Z</time></trkpt><trkpt lat="43.7045433" lon="12.0289517"><ele>506.0</ele><time>2026-04-11T13:51:11.287Z</time></trkpt><trkpt lat="43.7047489" lon="12.0288446"><ele>506.0</ele><time>2026-04-11T13:51:12.287Z</time></trkpt><trkpt lat="43.7049578" lon="12.028745"><ele>506.0</ele><time>2026-04-11T13:51:13.287Z</time></trkpt><trkpt lat="43.7051699" lon="12.0286634"><ele>506.0</ele><time>2026-04-11T13:51:14.286Z</time></trkpt><trkpt lat="43.705383" lon="12.0285989"><ele>508.3333333333333</ele><time>2026-04-11T13:51:15.287Z</time></trkpt><trkpt lat="43.7055927" lon="12.0285451"><ele>510.66666666666663</ele><time>2026-04-11T13:51:16.287Z</time></trkpt><trkpt lat="43.705804" lon="12.0285092"><ele>513.0</ele><time>2026-04-11T13:51:17.287Z</time></trkpt><trkpt lat="43.7060143" lon="12.0284845"><ele>514.3333333333334</ele><time>2026-04-11T13:51:18.287Z</time></trkpt><trkpt lat="43.7062276" lon="12.028474"><ele>515.6666666666667</ele><time>2026-04-11T13:51:19.288Z</time></trkpt><trkpt lat="43.7064381" lon="12.0284783"><ele>517.0</ele><time>2026-04-11T13:51:20.287Z</time></trkpt><trkpt lat="43.7066503" lon="12.0284906"><ele>517.0</ele><time>2026-04-11T13:51:21.287Z</time></trkpt><trkpt lat="43.7068593" lon="12.0285089"><ele>517.0</ele><time>2026-04-11T13:51:22.287Z</time></trkpt><trkpt lat="43.7070671" lon="12.0285368"><ele>517.0</ele><time>2026-04-11T13:51:23.286Z</time></trkpt><trkpt lat="43.7072792" lon="12.0285571"><ele>516.6666666666667</ele><time>2026-04-11T13:51:24.287Z</time></trkpt><trkpt lat="43.7074907" lon="12.0285836"><ele>516.3333333333334</ele><time>2026-04-11T13:51:25.286Z</time></trkpt><trkpt lat="43.707707" lon="12.0286118"><ele>516.0</ele><time>2026-04-11T13:51:26.287Z</time></trkpt><trkpt lat="43.707923" lon="12.0286345"><ele>515.6666666666666</ele><time>2026-04-11T13:51:27.288Z</time></trkpt><trkpt lat="43.7081428" lon="12.0286557"><ele>515.3333333333333</ele><time>2026-04-11T13:51:28.287Z</time></trkpt><trkpt lat="43.7083616" lon="12.0286761"><ele>515.0</ele><time>2026-04-11T13:51:29.287Z</time></trkpt><trkpt lat="43.7085732" lon="12.0287067"><ele>514.0</ele><time>2026-04-11T13:51:30.288Z</time></trkpt><trkpt lat="43.708788" lon="12.028735"><ele>513.0</ele><time>2026-04-11T13:51:31.287Z</time></trkpt><trkpt lat="43.709008" lon="12.0287579"><ele>512.0</ele><time>2026-04-11T13:51:32.286Z</time></trkpt><trkpt lat="43.7092316" lon="12.0287772"><ele>508.5</ele><time>2026-04-11T13:51:33.287Z</time></trkpt><trkpt lat="43.709458" lon="12.0288094"><ele>505.0</ele><time>2026-04-11T13:51:34.287Z</time></trkpt><trkpt lat="43.7096814" lon="12.0288378"><ele>505.0</ele><time>2026-04-11T13:51:35.287Z</time></trkpt><trkpt lat="43.7099047" lon="12.0288792"><ele>505.0</ele><time>2026-04-11T13:51:36.287Z</time></trkpt><trkpt lat="43.7101347" lon="12.0289077"><ele>504.0</ele><time>2026-04-11T13:51:37.286Z</time></trkpt><trkpt lat="43.7103643" lon="12.0289379"><ele>503.0</ele><time>2026-04-11T13:51:38.288Z</time></trkpt><trkpt lat="43.7105857" lon="12.0289671"><ele>503.0</ele><time>2026-04-11T13:51:39.288Z</time></trkpt><trkpt lat="43.7108079" lon="12.0289982"><ele>503.0</ele><time>2026-04-11T13:51:40.287Z</time></trkpt><trkpt lat="43.71103" lon="12.0290194"><ele>503.0</ele><time>2026-04-11T13:51:41.287Z</time></trkpt><trkpt lat="43.7112552" lon="12.029038"><ele>503.0</ele><time>2026-04-11T13:51:42.288Z</time></trkpt><trkpt lat="43.7114723" lon="12.0290696"><ele>503.0</ele><time>2026-04-11T13:51:43.287Z</time></trkpt><trkpt lat="43.7116977" lon="12.0291028"><ele>503.0</ele><time>2026-04-11T13:51:44.287Z</time></trkpt><trkpt lat="43.7119194" lon="12.0291316"><ele>504.66666666666663</ele><time>2026-04-11T13:51:45.287Z</time></trkpt><trkpt lat="43.7121377" lon="12.0291592"><ele>506.33333333333337</ele><time>2026-04-11T13:51:46.287Z</time></trkpt><trkpt lat="43.7123589" lon="12.0291892"><ele>508.0</ele><time>2026-04-11T13:51:47.288Z</time></trkpt><trkpt lat="43.7125779" lon="12.0292226"><ele>508.0</ele><time>2026-04-11T13:51:48.286Z</time></trkpt><trkpt lat="43.7128033" lon="12.0292504"><ele>508.0</ele><time>2026-04-11T13:51:49.287Z</time></trkpt><trkpt lat="43.7130298" lon="12.0292774"><ele>508.0</ele><time>2026-04-11T13:51:50.285Z</time></trkpt><trkpt lat="43.7132607" lon="12.0292971"><ele>508.0</ele><time>2026-04-11T13:51:51.287Z</time></trkpt><trkpt lat="43.7134955" lon="12.0293317"><ele>508.0</ele><time>2026-04-11T13:51:52.286Z</time></trkpt><trkpt lat="43.7137313" lon="12.0293616"><ele>508.0</ele><time>2026-04-11T13:51:53.287Z</time></trkpt><trkpt lat="43.713966" lon="12.029393"><ele>508.0</ele><time>2026-04-11T13:51:54.288Z</time></trkpt><trkpt lat="43.7141963" lon="12.0294211"><ele>508.0</ele><time>2026-04-11T13:51:55.287Z</time></trkpt><trkpt lat="43.714432" lon="12.0294501"><ele>508.0</ele><time>2026-04-11T13:51:56.287Z</time></trkpt><trkpt lat="43.7146657" lon="12.0294738"><ele>508.0</ele><time>2026-04-11T13:51:57.287Z</time></trkpt><trkpt lat="43.7148979" lon="12.0295009"><ele>508.0</ele><time>2026-04-11T13:51:58.288Z</time></trkpt><trkpt lat="43.7151289" lon="12.029527"><ele>508.0</ele><time>2026-04-11T13:51:59.286Z</time></trkpt><trkpt lat="43.7153569" lon="12.029562"><ele>510.0</ele><time>2026-04-11T13:52:00.287Z</time></trkpt><trkpt lat="43.7155873" lon="12.0295943"><ele>512.0</ele><time>2026-04-11T13:52:01.287Z</time></trkpt><trkpt lat="43.715822" lon="12.0296388"><ele>512.0</ele><time>2026-04-11T13:52:02.286Z</time></trkpt><trkpt lat="43.7160528" lon="12.0296843"><ele>512.0</ele><time>2026-04-11T13:52:03.287Z</time></trkpt><trkpt lat="43.7162814" lon="12.0297363"><ele>516.0</ele><time>2026-04-11T13:52:04.287Z</time></trkpt><trkpt lat="43.716515" lon="12.0297851"><ele>520.0</ele><time>2026-04-11T13:52:05.287Z</time></trkpt><trkpt lat="43.7167481" lon="12.0298387"><ele>522.5</ele><time>2026-04-11T13:52:06.287Z</time></trkpt><trkpt lat="43.716983" lon="12.0298872"><ele>525.0</ele><time>2026-04-11T13:52:07.287Z</time></trkpt><trkpt lat="43.7172148" lon="12.0299375"><ele>520.5</ele><time>2026-04-11T13:52:08.288Z</time></trkpt><trkpt lat="43.7174479" lon="12.0299864"><ele>516.0</ele><time>2026-04-11T13:52:09.287Z</time></trkpt><trkpt lat="43.7176807" lon="12.0300394"><ele>514.5</ele><time>2026-04-11T13:52:10.287Z</time></trkpt><trkpt lat="43.7179088" lon="12.0300912"><ele>513.0</ele><time>2026-04-11T13:52:11.287Z</time></trkpt><trkpt lat="43.7181387" lon="12.0301428"><ele>513.0</ele><time>2026-04-11T13:52:12.287Z</time></trkpt><trkpt lat="43.7183639" lon="12.0301956"><ele>513.0</ele><time>2026-04-11T13:52:13.287Z</time></trkpt><trkpt lat="43.7185854" lon="12.0302413"><ele>514.0</ele><time>2026-04-11T13:52:14.287Z</time></trkpt><trkpt lat="43.7188056" lon="12.0302833"><ele>515.0</ele><time>2026-04-11T13:52:15.287Z</time></trkpt><trkpt lat="43.7190306" lon="12.0303323"><ele>515.0</ele><time>2026-04-11T13:52:16.286Z</time></trkpt><trkpt lat="43.7192455" lon="12.0303787"><ele>515.0</ele><time>2026-04-11T13:52:17.287Z</time></trkpt><trkpt lat="43.7194654" lon="12.0304251"><ele>515.0</ele><time>2026-04-11T13:52:18.287Z</time></trkpt><trkpt lat="43.7196906" lon="12.0304694"><ele>517.5</ele><time>2026-04-11T13:52:19.287Z</time></trkpt><trkpt lat="43.7199191" lon="12.0305126"><ele>520.0</ele><time>2026-04-11T13:52:20.287Z</time></trkpt><trkpt lat="43.7201551" lon="12.030565"><ele>521.5</ele><time>2026-04-11T13:52:21.288Z</time></trkpt><trkpt lat="43.7203959" lon="12.0306028"><ele>523.0</ele><time>2026-04-11T13:52:22.287Z</time></trkpt><trkpt lat="43.7206304" lon="12.0306444"><ele>523.0</ele><time>2026-04-11T13:52:23.287Z</time></trkpt><trkpt lat="43.7208678" lon="12.0306961"><ele>523.0</ele><time>2026-04-11T13:52:24.287Z</time></trkpt><trkpt lat="43.7211098" lon="12.0307421"><ele>522.5</ele><time>2026-04-11T13:52:25.286Z</time></trkpt><trkpt lat="43.7213462" lon="12.0307951"><ele>522.0</ele><time>2026-04-11T13:52:26.286Z</time></trkpt><trkpt lat="43.7215912" lon="12.0308505"><ele>522.0</ele><time>2026-04-11T13:52:27.288Z</time></trkpt><trkpt lat="43.7218387" lon="12.0309048"><ele>522.0</ele><time>2026-04-11T13:52:28.287Z</time></trkpt><trkpt lat="43.7220984" lon="12.0309623"><ele>523.0</ele><time>2026-04-11T13:52:29.287Z</time></trkpt><trkpt lat="43.722363" lon="12.0310151"><ele>524.0</ele><time>2026-04-11T13:52:30.287Z</time></trkpt><trkpt lat="43.7226397" lon="12.031067"><ele>525.5</ele><time>2026-04-11T13:52:31.287Z</time></trkpt><trkpt lat="43.7229175" lon="12.0311092"><ele>527.0</ele><time>2026-04-11T13:52:32.287Z</time></trkpt><trkpt lat="43.7231926" lon="12.0311444"><ele>527.0</ele><time>2026-04-11T13:52:33.287Z</time></trkpt><trkpt lat="43.723462" lon="12.0311772"><ele>527.0</ele><time>2026-04-11T13:52:34.286Z</time></trkpt><trkpt lat="43.7237278" lon="12.0311954"><ele>529.0</ele><time>2026-04-11T13:52:35.287Z</time></trkpt><trkpt lat="43.7239962" lon="12.0311902"><ele>531.0</ele><time>2026-04-11T13:52:36.287Z</time></trkpt><trkpt lat="43.7242724" lon="12.0311619"><ele>533.0</ele><time>2026-04-11T13:52:37.288Z</time></trkpt><trkpt lat="43.7245525" lon="12.0311124"><ele>535.0</ele><time>2026-04-11T13:52:38.288Z</time></trkpt><trkpt lat="43.7248353" lon="12.0310438"><ele>535.0</ele><time>2026-04-11T13:52:39.288Z</time></trkpt><trkpt lat="43.7251201" lon="12.0309611"><ele>535.0</ele><time>2026-04-11T13:52:40.287Z</time></trkpt><trkpt lat="43.7254032" lon="12.0308586"><ele>535.5</ele><time>2026-04-11T13:52:41.287Z</time></trkpt><trkpt lat="43.7256845" lon="12.0307284"><ele>536.0</ele><time>2026-04-11T13:52:42.288Z</time></trkpt><trkpt lat="43.7259551" lon="12.0305803"><ele>541.5</ele><time>2026-04-11T13:52:43.286Z</time></trkpt><trkpt lat="43.7262204" lon="12.0304241"><ele>547.0</ele><time>2026-04-11T13:52:44.287Z</time></trkpt><trkpt lat="43.7264655" lon="12.0302546"><ele>547.0</ele><time>2026-04-11T13:52:45.287Z</time></trkpt><trkpt lat="43.7266976" lon="12.0300802"><ele>547.0</ele><time>2026-04-11T13:52:46.286Z</time></trkpt><trkpt lat="43.7269173" lon="12.0299117"><ele>546.3333333333334</ele><time>2026-04-11T13:52:47.287Z</time></trkpt><trkpt lat="43.7271209" lon="12.0297485"><ele>545.6666666666666</ele><time>2026-04-11T13:52:48.287Z</time></trkpt><trkpt lat="43.7273015" lon="12.0296016"><ele>545.0</ele><time>2026-04-11T13:52:49.287Z</time></trkpt><trkpt lat="43.7274731" lon="12.0294652"><ele>545.0</ele><time>2026-04-11T13:52:50.287Z</time></trkpt><trkpt lat="43.7276341" lon="12.0293366"><ele>545.0</ele><time>2026-04-11T13:52:51.287Z</time></trkpt><trkpt lat="43.7277861" lon="12.0292082"><ele>545.0</ele><time>2026-04-11T13:52:52.287Z</time></trkpt><trkpt lat="43.7279395" lon="12.0290838"><ele>544.0</ele><time>2026-04-11T13:52:53.287Z</time></trkpt><trkpt lat="43.7280914" lon="12.0289612"><ele>543.0</ele><time>2026-04-11T13:52:54.287Z</time></trkpt><trkpt lat="43.728242" lon="12.0288387"><ele>542.0</ele><time>2026-04-11T13:52:55.287Z</time></trkpt><trkpt lat="43.7283951" lon="12.0287169"><ele>542.0</ele><time>2026-04-11T13:52:56.287Z</time></trkpt><trkpt lat="43.7285456" lon="12.0285927"><ele>542.0</ele><time>2026-04-11T13:52:57.286Z</time></trkpt><trkpt lat="43.7286933" lon="12.0284742"><ele>542.0</ele><time>2026-04-11T13:52:58.286Z</time></trkpt><trkpt lat="43.7288347" lon="12.028364"><ele>543.0</ele><time>2026-04-11T13:52:59.287Z</time></trkpt><trkpt lat="43.7289653" lon="12.0282622"><ele>544.0</ele><time>2026-04-11T13:53:00.287Z</time></trkpt><trkpt lat="43.7290865" lon="12.0281657"><ele>545.0</ele><time>2026-04-11T13:53:01.285Z</time></trkpt><trkpt lat="43.7292101" lon="12.0280696"><ele>546.0</ele><time>2026-04-11T13:53:02.286Z</time></trkpt><trkpt lat="43.7293299" lon="12.0279726"><ele>550.3333333333334</ele><time>2026-04-11T13:53:03.285Z</time></trkpt><trkpt lat="43.7294605" lon="12.0278685"><ele>554.6666666666667</ele><time>2026-04-11T13:53:04.287Z</time></trkpt><trkpt lat="43.7295993" lon="12.0277552"><ele>559.0</ele><time>2026-04-11T13:53:05.287Z</time></trkpt><trkpt lat="43.7297522" lon="12.0276514"><ele>559.0</ele><time>2026-04-11T13:53:06.286Z</time></trkpt><trkpt lat="43.7299195" lon="12.0275406"><ele>559.0</ele><time>2026-04-11T13:53:07.287Z</time></trkpt><trkpt lat="43.7300889" lon="12.0274425"><ele>559.0</ele><time>2026-04-11T13:53:08.287Z</time></trkpt><trkpt lat="43.7302591" lon="12.027348"><ele>559.0</ele><time>2026-04-11T13:53:09.288Z</time></trkpt><trkpt lat="43.7304347" lon="12.0272681"><ele>559.0</ele><time>2026-04-11T13:53:10.286Z</time></trkpt><trkpt lat="43.7306185" lon="12.0271927"><ele>559.0</ele><time>2026-04-11T13:53:11.287Z</time></trkpt><trkpt lat="43.7308015" lon="12.0271248"><ele>559.0</ele><time>2026-04-11T13:53:12.287Z</time></trkpt><trkpt lat="43.7309837" lon="12.0270597"><ele>559.0</ele><time>2026-04-11T13:53:13.287Z</time></trkpt><trkpt lat="43.7311609" lon="12.0269999"><ele>559.0</ele><time>2026-04-11T13:53:14.287Z</time></trkpt><trkpt lat="43.7313373" lon="12.0269514"><ele>558.6666666666667</ele><time>2026-04-11T13:53:15.286Z</time></trkpt><trkpt lat="43.7315069" lon="12.0269201"><ele>558.3333333333334</ele><time>2026-04-11T13:53:16.287Z</time></trkpt><trkpt lat="43.731679" lon="12.0268908"><ele>558.0</ele><time>2026-04-11T13:53:17.286Z</time></trkpt><trkpt lat="43.7318486" lon="12.0268717"><ele>553.3333333333334</ele><time>2026-04-11T13:53:18.287Z</time></trkpt><trkpt lat="43.7320181" lon="12.0268564"><ele>548.6666666666667</ele><time>2026-04-11T13:53:19.286Z</time></trkpt><trkpt lat="43.7321875" lon="12.0268469"><ele>544.0</ele><time>2026-04-11T13:53:20.286Z</time></trkpt><trkpt lat="43.7323547" lon="12.0268452"><ele>544.0</ele><time>2026-04-11T13:53:21.287Z</time></trkpt><trkpt lat="43.7325234" lon="12.0268441"><ele>544.0</ele><time>2026-04-11T13:53:22.286Z</time></trkpt><trkpt lat="43.7327014" lon="12.0268533"><ele>544.0</ele><time>2026-04-11T13:53:23.287Z</time></trkpt><trkpt lat="43.7328863" lon="12.026871"><ele>543.6666666666667</ele><time>2026-04-11T13:53:24.287Z</time></trkpt><trkpt lat="43.7330763" lon="12.0268996"><ele>543.3333333333334</ele><time>2026-04-11T13:53:25.287Z</time></trkpt><trkpt lat="43.7332722" lon="12.0269207"><ele>543.0</ele><time>2026-04-11T13:53:26.288Z</time></trkpt><trkpt lat="43.7334617" lon="12.0269677"><ele>543.3333333333334</ele><time>2026-04-11T13:53:27.288Z</time></trkpt><trkpt lat="43.7336455" lon="12.0270225"><ele>543.6666666666667</ele><time>2026-04-11T13:53:28.287Z</time></trkpt><trkpt lat="43.7338229" lon="12.027079"><ele>544.0</ele><time>2026-04-11T13:53:29.286Z</time></trkpt><trkpt lat="43.7339984" lon="12.0271461"><ele>544.0</ele><time>2026-04-11T13:53:30.287Z</time></trkpt><trkpt lat="43.7341657" lon="12.0272142"><ele>544.0</ele><time>2026-04-11T13:53:31.287Z</time></trkpt><trkpt lat="43.7343234" lon="12.0272926"><ele>544.0</ele><time>2026-04-11T13:53:32.286Z</time></trkpt><trkpt lat="43.7344656" lon="12.0273674"><ele>544.0</ele><time>2026-04-11T13:53:33.287Z</time></trkpt><trkpt lat="43.7346049" lon="12.0274434"><ele>544.0</ele><time>2026-04-11T13:53:34.288Z</time></trkpt><trkpt lat="43.7347405" lon="12.0275226"><ele>544.0</ele><time>2026-04-11T13:53:35.287Z</time></trkpt><trkpt lat="43.7348754" lon="12.0275866"><ele>544.0</ele><time>2026-04-11T13:53:36.287Z</time></trkpt><trkpt lat="43.7349802" lon="12.0276542"><ele>545.5</ele><time>2026-04-11T13:53:37.286Z</time></trkpt><trkpt lat="43.7350865" lon="12.0277272"><ele>547.0</ele><time>2026-04-11T13:53:38.287Z</time></trkpt><trkpt lat="43.7352085" lon="12.0277912"><ele>548.5</ele><time>2026-04-11T13:53:39.286Z</time></trkpt><trkpt lat="43.7353223" lon="12.0278575"><ele>550.0</ele><time>2026-04-11T13:53:40.287Z</time></trkpt><trkpt lat="43.7354382" lon="12.0279319"><ele>555.5</ele><time>2026-04-11T13:53:41.287Z</time></trkpt><trkpt lat="43.7355574" lon="12.0280042"><ele>561.0</ele><time>2026-04-11T13:53:42.287Z</time></trkpt><trkpt lat="43.7356731" lon="12.0280788"><ele>566.5</ele><time>2026-04-11T13:53:43.287Z</time></trkpt><trkpt lat="43.7357872" lon="12.0281391"><ele>572.0</ele><time>2026-04-11T13:53:44.287Z</time></trkpt><trkpt lat="43.7359043" lon="12.02819"><ele>572.0</ele><time>2026-04-11T13:53:45.287Z</time></trkpt><trkpt lat="43.7360182" lon="12.0282445"><ele>572.0</ele><time>2026-04-11T13:53:46.287Z</time></trkpt><trkpt lat="43.7361267" lon="12.0283086"><ele>572.0</ele><time>2026-04-11T13:53:47.288Z</time></trkpt><trkpt lat="43.7362392" lon="12.028377"><ele>572.0</ele><time>2026-04-11T13:53:48.286Z</time></trkpt><trkpt lat="43.7363517" lon="12.0284437"><ele>573.25</ele><time>2026-04-11T13:53:49.287Z</time></trkpt><trkpt lat="43.7364669" lon="12.0285146"><ele>574.5</ele><time>2026-04-11T13:53:50.287Z</time></trkpt><trkpt lat="43.7365869" lon="12.0285855"><ele>575.75</ele><time>2026-04-11T13:53:51.287Z</time></trkpt><trkpt lat="43.7367066" lon="12.028652"><ele>577.0</ele><time>2026-04-11T13:53:52.287Z</time></trkpt><trkpt lat="43.7368305" lon="12.0287289"><ele>573.0</ele><time>2026-04-11T13:53:53.286Z</time></trkpt><trkpt lat="43.7369538" lon="12.0288006"><ele>569.0</ele><time>2026-04-11T13:53:54.288Z</time></trkpt><trkpt lat="43.7370783" lon="12.028878"><ele>565.0</ele><time>2026-04-11T13:53:55.288Z</time></trkpt><trkpt lat="43.7372025" lon="12.0289486"><ele>561.0</ele><time>2026-04-11T13:53:56.287Z</time></trkpt><trkpt lat="43.7373283" lon="12.0290292"><ele>561.0</ele><time>2026-04-11T13:53:57.287Z</time></trkpt><trkpt lat="43.7374551" lon="12.0291097"><ele>561.0</ele><time>2026-04-11T13:53:58.287Z</time></trkpt><trkpt lat="43.7375868" lon="12.0291884"><ele>561.0</ele><time>2026-04-11T13:53:59.286Z</time></trkpt><trkpt lat="43.7377208" lon="12.0292684"><ele>561.0</ele><time>2026-04-11T13:54:00.288Z</time></trkpt><trkpt lat="43.7378522" lon="12.0293532"><ele>566.6666666666666</ele><time>2026-04-11T13:54:01.286Z</time></trkpt><trkpt lat="43.7379908" lon="12.0294349"><ele>572.3333333333333</ele><time>2026-04-11T13:54:02.285Z</time></trkpt><trkpt lat="43.7381324" lon="12.0295241"><ele>578.0</ele><time>2026-04-11T13:54:03.287Z</time></trkpt><trkpt lat="43.7382743" lon="12.0296113"><ele>578.0</ele><time>2026-04-11T13:54:04.288Z</time></trkpt><trkpt lat="43.7384141" lon="12.0296946"><ele>578.0</ele><time>2026-04-11T13:54:05.288Z</time></trkpt><trkpt lat="43.7385532" lon="12.0297778"><ele>578.0</ele><time>2026-04-11T13:54:06.287Z</time></trkpt><trkpt lat="43.7386926" lon="12.0298627"><ele>584.6666666666666</ele><time>2026-04-11T13:54:07.287Z</time></trkpt><trkpt lat="43.7388269" lon="12.029955"><ele>591.3333333333334</ele><time>2026-04-11T13:54:08.287Z</time></trkpt><trkpt lat="43.738966" lon="12.0300374"><ele>598.0</ele><time>2026-04-11T13:54:09.287Z</time></trkpt><trkpt lat="43.7391082" lon="12.03011"><ele>598.0</ele><time>2026-04-11T13:54:10.287Z</time></trkpt><trkpt lat="43.7392551" lon="12.0301982"><ele>598.0</ele><time>2026-04-11T13:54:11.287Z</time></trkpt><trkpt lat="43.7393962" lon="12.0302859"><ele>598.0</ele><time>2026-04-11T13:54:12.287Z</time></trkpt><trkpt lat="43.7395447" lon="12.0303762"><ele>604.6666666666667</ele><time>2026-04-11T13:54:13.287Z</time></trkpt><trkpt lat="43.7396965" lon="12.0304662"><ele>611.3333333333334</ele><time>2026-04-11T13:54:14.286Z</time></trkpt><trkpt lat="43.7398457" lon="12.0305547"><ele>618.0</ele><time>2026-04-11T13:54:15.285Z</time></trkpt><trkpt lat="43.7399948" lon="12.0306358"><ele>618.0</ele><time>2026-04-11T13:54:16.286Z</time></trkpt><trkpt lat="43.740152" lon="12.0307143"><ele>618.0</ele><time>2026-04-11T13:54:17.287Z</time></trkpt><trkpt lat="43.7403076" lon="12.0307906"><ele>618.0</ele><time>2026-04-11T13:54:18.287Z</time></trkpt><trkpt lat="43.7404629" lon="12.0308659"><ele>616.6666666666666</ele><time>2026-04-11T13:54:19.287Z</time></trkpt><trkpt lat="43.7406228" lon="12.030941"><ele>615.3333333333333</ele><time>2026-04-11T13:54:20.287Z</time></trkpt><trkpt lat="43.7407887" lon="12.0310025"><ele>614.0</ele><time>2026-04-11T13:54:21.286Z</time></trkpt><trkpt lat="43.7409486" lon="12.031068"><ele>621.3333333333333</ele><time>2026-04-11T13:54:22.287Z</time></trkpt><trkpt lat="43.7411075" lon="12.0311225"><ele>628.6666666666666</ele><time>2026-04-11T13:54:23.287Z</time></trkpt><trkpt lat="43.7412654" lon="12.0311776"><ele>636.0</ele><time>2026-04-11T13:54:24.286Z</time></trkpt><trkpt lat="43.7414213" lon="12.0312323"><ele>636.0</ele><time>2026-04-11T13:54:25.286Z</time></trkpt><trkpt lat="43.7415784" lon="12.0312829"><ele>636.0</ele><time>2026-04-11T13:54:26.288Z</time></trkpt><trkpt lat="43.7417319" lon="12.0313368"><ele>636.0</ele><time>2026-04-11T13:54:27.287Z</time></trkpt><trkpt lat="43.7418846" lon="12.0313883"><ele>635.3333333333334</ele><time>2026-04-11T13:54:28.287Z</time></trkpt><trkpt lat="43.7420339" lon="12.0314361"><ele>634.6666666666667</ele><time>2026-04-11T13:54:29.287Z</time></trkpt><trkpt lat="43.7421902" lon="12.031491"><ele>634.0</ele><time>2026-04-11T13:54:30.286Z</time></trkpt><trkpt lat="43.7423488" lon="12.031545"><ele>634.0</ele><time>2026-04-11T13:54:31.286Z</time></trkpt><trkpt lat="43.7425097" lon="12.0316007"><ele>634.0</ele><time>2026-04-11T13:54:32.287Z</time></trkpt><trkpt lat="43.7426728" lon="12.0316635"><ele>634.0</ele><time>2026-04-11T13:54:33.287Z</time></trkpt><trkpt lat="43.7428364" lon="12.0317217"><ele>615.0</ele><time>2026-04-11T13:54:34.287Z</time></trkpt><trkpt lat="43.7430007" lon="12.0317849"><ele>596.0</ele><time>2026-04-11T13:54:35.287Z</time></trkpt><trkpt lat="43.74316" lon="12.0318374"><ele>577.0</ele><time>2026-04-11T13:54:36.287Z</time></trkpt><trkpt lat="43.7433173" lon="12.0318888"><ele>577.0</ele><time>2026-04-11T13:54:37.288Z</time></trkpt><trkpt lat="43.7434732" lon="12.0319421"><ele>577.0</ele><time>2026-04-11T13:54:38.287Z</time></trkpt><trkpt lat="43.7436295" lon="12.0319947"><ele>577.0</ele><time>2026-04-11T13:54:39.287Z</time></trkpt><trkpt lat="43.743785" lon="12.0320461"><ele>578.6666666666667</ele><time>2026-04-11T13:54:40.286Z</time></trkpt><trkpt lat="43.7439413" lon="12.0321042"><ele>580.3333333333334</ele><time>2026-04-11T13:54:41.286Z</time></trkpt><trkpt lat="43.7440996" lon="12.0321653"><ele>582.0</ele><time>2026-04-11T13:54:42.288Z</time></trkpt><trkpt lat="43.7442589" lon="12.032222"><ele>583.3333333333334</ele><time>2026-04-11T13:54:43.288Z</time></trkpt><trkpt lat="43.7444282" lon="12.0322792"><ele>584.6666666666667</ele><time>2026-04-11T13:54:44.287Z</time></trkpt><trkpt lat="43.7446056" lon="12.0323353"><ele>586.0</ele><time>2026-04-11T13:54:45.287Z</time></trkpt><trkpt lat="43.7447802" lon="12.0323949"><ele>586.0</ele><time>2026-04-11T13:54:46.287Z</time></trkpt><trkpt lat="43.7449577" lon="12.0324536"><ele>586.0</ele><time>2026-04-11T13:54:47.286Z</time></trkpt><trkpt lat="43.7451369" lon="12.0325151"><ele>586.0</ele><time>2026-04-11T13:54:48.287Z</time></trkpt><trkpt lat="43.7453203" lon="12.032581"><ele>588.6666666666667</ele><time>2026-04-11T13:54:49.286Z</time></trkpt><trkpt lat="43.7455001" lon="12.0326465"><ele>591.3333333333334</ele><time>2026-04-11T13:54:50.286Z</time></trkpt><trkpt lat="43.7456793" lon="12.0327102"><ele>594.0</ele><time>2026-04-11T13:54:51.287Z</time></trkpt><trkpt lat="43.7458557" lon="12.0327704"><ele>594.0</ele><time>2026-04-11T13:54:52.287Z</time></trkpt><trkpt lat="43.7460359" lon="12.0328289"><ele>594.0</ele><time>2026-04-11T13:54:53.287Z</time></trkpt><trkpt lat="43.7462079" lon="12.0328938"><ele>594.0</ele><time>2026-04-11T13:54:54.286Z</time></trkpt><trkpt lat="43.7463817" lon="12.0329563"><ele>593.6666666666666</ele><time>2026-04-11T13:54:55.288Z</time></trkpt><trkpt lat="43.7465495" lon="12.0330236"><ele>593.3333333333333</ele><time>2026-04-11T13:54:56.287Z</time></trkpt><trkpt lat="43.7467202" lon="12.0330953"><ele>593.0</ele><time>2026-04-11T13:54:57.286Z</time></trkpt><trkpt lat="43.7468808" lon="12.0331641"><ele>592.6666666666666</ele><time>2026-04-11T13:54:58.287Z</time></trkpt><trkpt lat="43.7470415" lon="12.0332423"><ele>592.3333333333334</ele><time>2026-04-11T13:54:59.288Z</time></trkpt><trkpt lat="43.7472003" lon="12.033318"><ele>592.0</ele><time>2026-04-11T13:55:00.287Z</time></trkpt><trkpt lat="43.7473636" lon="12.0333901"><ele>595.3333333333334</ele><time>2026-04-11T13:55:01.287Z</time></trkpt><trkpt lat="43.7475207" lon="12.0334791"><ele>598.6666666666666</ele><time>2026-04-11T13:55:02.287Z</time></trkpt><trkpt lat="43.7476703" lon="12.0335725"><ele>602.0</ele><time>2026-04-11T13:55:03.287Z</time></trkpt><trkpt lat="43.7478247" lon="12.0336724"><ele>602.0</ele><time>2026-04-11T13:55:04.288Z</time></trkpt><trkpt lat="43.7479726" lon="12.0337835"><ele>602.0</ele><time>2026-04-11T13:55:05.287Z</time></trkpt><trkpt lat="43.7481255" lon="12.0338884"><ele>602.0</ele><time>2026-04-11T13:55:06.288Z</time></trkpt><trkpt lat="43.7482776" lon="12.0339929"><ele>602.0</ele><time>2026-04-11T13:55:07.287Z</time></trkpt><trkpt lat="43.74843" lon="12.0341013"><ele>602.0</ele><time>2026-04-11T13:55:08.287Z</time></trkpt><trkpt lat="43.7485819" lon="12.0342049"><ele>602.0</ele><time>2026-04-11T13:55:09.286Z</time></trkpt><trkpt lat="43.7487282" lon="12.0343075"><ele>601.3333333333333</ele><time>2026-04-11T13:55:10.287Z</time></trkpt><trkpt lat="43.748885" lon="12.0344202"><ele>600.6666666666666</ele><time>2026-04-11T13:55:11.286Z</time></trkpt><trkpt lat="43.7490374" lon="12.0345265"><ele>600.0</ele><time>2026-04-11T13:55:12.287Z</time></trkpt><trkpt lat="43.7491913" lon="12.0346319"><ele>600.0</ele><time>2026-04-11T13:55:13.287Z</time></trkpt><trkpt lat="43.7493513" lon="12.0347445"><ele>600.0</ele><time>2026-04-11T13:55:14.287Z</time></trkpt><trkpt lat="43.7495103" lon="12.0348564"><ele>600.0</ele><time>2026-04-11T13:55:15.285Z</time></trkpt><trkpt lat="43.7496717" lon="12.0349676"><ele>603.3333333333334</ele><time>2026-04-11T13:55:16.286Z</time></trkpt><trkpt lat="43.7498323" lon="12.035074"><ele>606.6666666666667</ele><time>2026-04-11T13:55:17.286Z</time></trkpt><trkpt lat="43.749997" lon="12.0351883"><ele>610.0</ele><time>2026-04-11T13:55:18.286Z</time></trkpt><trkpt lat="43.7501601" lon="12.0352892"><ele>609.6666666666667</ele><time>2026-04-11T13:55:19.287Z</time></trkpt><trkpt lat="43.7503254" lon="12.0353836"><ele>609.3333333333334</ele><time>2026-04-11T13:55:20.287Z</time></trkpt><trkpt lat="43.7504879" lon="12.0354773"><ele>609.0</ele><time>2026-04-11T13:55:21.288Z</time></trkpt><trkpt lat="43.7506567" lon="12.0355677"><ele>609.0</ele><time>2026-04-11T13:55:22.288Z</time></trkpt><trkpt lat="43.7508266" lon="12.0356631"><ele>609.0</ele><time>2026-04-11T13:55:23.287Z</time></trkpt><trkpt lat="43.751001" lon="12.0357636"><ele>609.0</ele><time>2026-04-11T13:55:24.287Z</time></trkpt><trkpt lat="43.751173" lon="12.0358623"><ele>610.3333333333334</ele><time>2026-04-11T13:55:25.286Z</time></trkpt><trkpt lat="43.751346" lon="12.0359559"><ele>611.6666666666667</ele><time>2026-04-11T13:55:26.286Z</time></trkpt><trkpt lat="43.7515203" lon="12.0360444"><ele>613.0</ele><time>2026-04-11T13:55:27.286Z</time></trkpt><trkpt lat="43.7516952" lon="12.0361308"><ele>613.0</ele><time>2026-04-11T13:55:28.286Z</time></trkpt><trkpt lat="43.7518712" lon="12.0362155"><ele>613.0</ele><time>2026-04-11T13:55:29.287Z</time></trkpt><trkpt lat="43.7520543" lon="12.0362965"><ele>613.0</ele><time>2026-04-11T13:55:30.287Z</time></trkpt><trkpt lat="43.75224" lon="12.0363807"><ele>611.6666666666667</ele><time>2026-04-11T13:55:31.287Z</time></trkpt><trkpt lat="43.7524282" lon="12.0364565"><ele>610.3333333333334</ele><time>2026-04-11T13:55:32.287Z</time></trkpt><trkpt lat="43.7526214" lon="12.036531"><ele>609.0</ele><time>2026-04-11T13:55:33.286Z</time></trkpt><trkpt lat="43.7528108" lon="12.0366024"><ele>614.0</ele><time>2026-04-11T13:55:34.287Z</time></trkpt><trkpt lat="43.7530022" lon="12.036663"><ele>619.0</ele><time>2026-04-11T13:55:35.287Z</time></trkpt><trkpt lat="43.7531919" lon="12.0367338"><ele>624.0</ele><time>2026-04-11T13:55:36.286Z</time></trkpt><trkpt lat="43.7533881" lon="12.0368067"><ele>626.3333333333334</ele><time>2026-04-11T13:55:37.287Z</time></trkpt><trkpt lat="43.7535836" lon="12.0368689"><ele>628.6666666666667</ele><time>2026-04-11T13:55:38.286Z</time></trkpt><trkpt lat="43.7537769" lon="12.0369271"><ele>631.0</ele><time>2026-04-11T13:55:39.285Z</time></trkpt><trkpt lat="43.7539658" lon="12.0369784"><ele>631.0</ele><time>2026-04-11T13:55:40.287Z</time></trkpt><trkpt lat="43.7541549" lon="12.037032"><ele>631.0</ele><time>2026-04-11T13:55:41.287Z</time></trkpt><trkpt lat="43.7543381" lon="12.0370809"><ele>631.0</ele><time>2026-04-11T13:55:42.287Z</time></trkpt><trkpt lat="43.7545198" lon="12.0371378"><ele>643.6666666666667</ele><time>2026-04-11T13:55:43.287Z</time></trkpt><trkpt lat="43.7546976" lon="12.0371833"><ele>656.3333333333334</ele><time>2026-04-11T13:55:44.286Z</time></trkpt><trkpt lat="43.7548762" lon="12.0372324"><ele>669.0</ele><time>2026-04-11T13:55:45.288Z</time></trkpt><trkpt lat="43.7550523" lon="12.0372798"><ele>681.3333333333334</ele><time>2026-04-11T13:55:46.287Z</time></trkpt><trkpt lat="43.7552287" lon="12.0373299"><ele>693.6666666666667</ele><time>2026-04-11T13:55:47.287Z</time></trkpt><trkpt lat="43.7554028" lon="12.0373702"><ele>706.0</ele><time>2026-04-11T13:55:48.287Z</time></trkpt><trkpt lat="43.7555802" lon="12.0374161"><ele>706.0</ele><time>2026-04-11T13:55:49.287Z</time></trkpt><trkpt lat="43.7557582" lon="12.0374603"><ele>706.0</ele><time>2026-04-11T13:55:50.287Z</time></trkpt><trkpt lat="43.7559373" lon="12.0375096"><ele>706.0</ele><time>2026-04-11T13:55:51.286Z</time></trkpt><trkpt lat="43.7561186" lon="12.0375614"><ele>691.6666666666667</ele><time>2026-04-11T13:55:52.287Z</time></trkpt><trkpt lat="43.7563026" lon="12.0376119"><ele>677.3333333333334</ele><time>2026-04-11T13:55:53.287Z</time></trkpt><trkpt lat="43.7564891" lon="12.0376629"><ele>663.0</ele><time>2026-04-11T13:55:54.288Z</time></trkpt><trkpt lat="43.7566762" lon="12.0377126"><ele>663.0</ele><time>2026-04-11T13:55:55.287Z</time></trkpt><trkpt lat="43.7568686" lon="12.0377653"><ele>663.0</ele><time>2026-04-11T13:55:56.287Z</time></trkpt><trkpt lat="43.7570671" lon="12.0378141"><ele>663.0</ele><time>2026-04-11T13:55:57.287Z</time></trkpt><trkpt lat="43.7572679" lon="12.037861"><ele>662.6666666666666</ele><time>2026-04-11T13:55:58.287Z</time></trkpt><trkpt lat="43.7574737" lon="12.0379136"><ele>662.3333333333333</ele><time>2026-04-11T13:55:59.286Z</time></trkpt><trkpt lat="43.7576804" lon="12.0379737"><ele>662.0</ele><time>2026-04-11T13:56:00.287Z</time></trkpt><trkpt lat="43.7578886" lon="12.0380216"><ele>670.0</ele><time>2026-04-11T13:56:01.286Z</time></trkpt><trkpt lat="43.7580971" lon="12.0380798"><ele>678.0</ele><time>2026-04-11T13:56:02.286Z</time></trkpt><trkpt lat="43.7583065" lon="12.0381383"><ele>686.0</ele><time>2026-04-11T13:56:03.287Z</time></trkpt><trkpt lat="43.7585197" lon="12.0381931"><ele>691.0</ele><time>2026-04-11T13:56:04.287Z</time></trkpt><trkpt lat="43.7587339" lon="12.0382542"><ele>696.0</ele><time>2026-04-11T13:56:05.287Z</time></trkpt><trkpt lat="43.7589474" lon="12.0383123"><ele>701.0</ele><time>2026-04-11T13:56:06.287Z</time></trkpt><trkpt lat="43.7591668" lon="12.0383679"><ele>702.0</ele><time>2026-04-11T13:56:07.286Z</time></trkpt><trkpt lat="43.7593782" lon="12.0384232"><ele>703.0</ele><time>2026-04-11T13:56:08.288Z</time></trkpt><trkpt lat="43.759588" lon="12.0384761"><ele>704.0</ele><time>2026-04-11T13:56:09.287Z</time></trkpt><trkpt lat="43.7597971" lon="12.0385173"><ele>704.0</ele><time>2026-04-11T13:56:10.287Z</time></trkpt><trkpt lat="43.7600107" lon="12.0385502"><ele>704.0</ele><time>2026-04-11T13:56:11.287Z</time></trkpt><trkpt lat="43.7602198" lon="12.0385709"><ele>704.0</ele><time>2026-04-11T13:56:12.286Z</time></trkpt><trkpt lat="43.7604327" lon="12.0385661"><ele>705.3333333333333</ele><time>2026-04-11T13:56:13.286Z</time></trkpt><trkpt lat="43.7606416" lon="12.038573"><ele>706.6666666666666</ele><time>2026-04-11T13:56:14.286Z</time></trkpt><trkpt lat="43.760848" lon="12.0385581"><ele>708.0</ele><time>2026-04-11T13:56:15.287Z</time></trkpt><trkpt lat="43.7610528" lon="12.038539"><ele>708.0</ele><time>2026-04-11T13:56:16.287Z</time></trkpt><trkpt lat="43.7612496" lon="12.0385019"><ele>708.0</ele><time>2026-04-11T13:56:17.286Z</time></trkpt><trkpt lat="43.7614381" lon="12.038453"><ele>708.0</ele><time>2026-04-11T13:56:18.287Z</time></trkpt><trkpt lat="43.7616242" lon="12.038388"><ele>708.0</ele><time>2026-04-11T13:56:19.287Z</time></trkpt><trkpt lat="43.7617786" lon="12.0383226"><ele>708.0</ele><time>2026-04-11T13:56:20.286Z</time></trkpt><trkpt lat="43.7619429" lon="12.0382491"><ele>708.0</ele><time>2026-04-11T13:56:21.287Z</time></trkpt><trkpt lat="43.7620874" lon="12.0381854"><ele>710.6666666666666</ele><time>2026-04-11T13:56:22.286Z</time></trkpt><trkpt lat="43.7622337" lon="12.0381256"><ele>713.3333333333333</ele><time>2026-04-11T13:56:23.287Z</time></trkpt><trkpt lat="43.7623811" lon="12.0380667"><ele>716.0</ele><time>2026-04-11T13:56:24.287Z</time></trkpt><trkpt lat="43.7625386" lon="12.0379806"><ele>716.0</ele><time>2026-04-11T13:56:25.288Z</time></trkpt><trkpt lat="43.762702" lon="12.0378812"><ele>716.0</ele><time>2026-04-11T13:56:26.286Z</time></trkpt><trkpt lat="43.7628679" lon="12.0377716"><ele>716.0</ele><time>2026-04-11T13:56:27.286Z</time></trkpt><trkpt lat="43.7630355" lon="12.0376571"><ele>716.0</ele><time>2026-04-11T13:56:28.293Z</time></trkpt><trkpt lat="43.7632051" lon="12.0375433"><ele>716.0</ele><time>2026-04-11T13:56:29.288Z</time></trkpt><trkpt lat="43.7633881" lon="12.037408"><ele>716.0</ele><time>2026-04-11T13:56:30.287Z</time></trkpt><trkpt lat="43.7635989" lon="12.0372565"><ele>718.5</ele><time>2026-04-11T13:56:31.287Z</time></trkpt><trkpt lat="43.76382" lon="12.0370864"><ele>721.0</ele><time>2026-04-11T13:56:32.287Z</time></trkpt><trkpt lat="43.7640341" lon="12.0369027"><ele>721.0</ele><time>2026-04-11T13:56:33.288Z</time></trkpt><trkpt lat="43.764246" lon="12.0367097"><ele>721.0</ele><time>2026-04-11T13:56:34.286Z</time></trkpt><trkpt lat="43.7644505" lon="12.0365159"><ele>722.5</ele><time>2026-04-11T13:56:35.288Z</time></trkpt><trkpt lat="43.764659" lon="12.0362902"><ele>724.0</ele><time>2026-04-11T13:56:36.287Z</time></trkpt><trkpt lat="43.7648672" lon="12.0360481"><ele>724.0</ele><time>2026-04-11T13:56:37.287Z</time></trkpt><trkpt lat="43.7650577" lon="12.0358174"><ele>724.0</ele><time>2026-04-11T13:56:38.286Z</time></trkpt><trkpt lat="43.765244" lon="12.0355652"><ele>721.5</ele><time>2026-04-11T13:56:39.287Z</time></trkpt><trkpt lat="43.765423" lon="12.0352978"><ele>719.0</ele><time>2026-04-11T13:56:40.288Z</time></trkpt><trkpt lat="43.7655984" lon="12.0350168"><ele>722.0</ele><time>2026-04-11T13:56:41.289Z</time></trkpt><trkpt lat="43.7657774" lon="12.0347331"><ele>725.0</ele><time>2026-04-11T13:56:42.287Z</time></trkpt><trkpt lat="43.7659543" lon="12.0344529"><ele>722.0</ele><time>2026-04-11T13:56:43.286Z</time></trkpt><trkpt lat="43.7661197" lon="12.034169"><ele>719.0</ele><time>2026-04-11T13:56:44.287Z</time></trkpt><trkpt lat="43.7662955" lon="12.0338927"><ele>719.0</ele><time>2026-04-11T13:56:45.288Z</time></trkpt><trkpt lat="43.7664629" lon="12.0336259"><ele>719.0</ele><time>2026-04-11T13:56:46.287Z</time></trkpt><trkpt lat="43.766636" lon="12.0333562"><ele>715.0</ele><time>2026-04-11T13:56:47.287Z</time></trkpt><trkpt lat="43.7667928" lon="12.0330906"><ele>711.0</ele><time>2026-04-11T13:56:48.287Z</time></trkpt><trkpt lat="43.7669566" lon="12.0328191"><ele>711.0</ele><time>2026-04-11T13:56:49.287Z</time></trkpt><trkpt lat="43.7671216" lon="12.032542"><ele>711.0</ele><time>2026-04-11T13:56:50.286Z</time></trkpt><trkpt lat="43.767288" lon="12.0322597"><ele>710.0</ele><time>2026-04-11T13:56:51.291Z</time></trkpt><trkpt lat="43.7674395" lon="12.0319762"><ele>709.0</ele><time>2026-04-11T13:56:52.287Z</time></trkpt><trkpt lat="43.7675977" lon="12.0316884"><ele>722.5</ele><time>2026-04-11T13:56:53.286Z</time></trkpt><trkpt lat="43.7677452" lon="12.0313866"><ele>736.0</ele><time>2026-04-11T13:56:54.286Z</time></trkpt><trkpt lat="43.767881" lon="12.0310695"><ele>742.0</ele><time>2026-04-11T13:56:55.288Z</time></trkpt><trkpt lat="43.7680034" lon="12.0307357"><ele>748.0</ele><time>2026-04-11T13:56:56.286Z</time></trkpt><trkpt lat="43.768112" lon="12.0303979"><ele>748.0</ele><time>2026-04-11T13:56:57.286Z</time></trkpt><trkpt lat="43.7682046" lon="12.0300443"><ele>748.0</ele><time>2026-04-11T13:56:58.287Z</time></trkpt><trkpt lat="43.768286" lon="12.029684"><ele>748.5</ele><time>2026-04-11T13:56:59.288Z</time></trkpt><trkpt lat="43.7683528" lon="12.0293198"><ele>749.0</ele><time>2026-04-11T13:57:00.287Z</time></trkpt><trkpt lat="43.7684049" lon="12.0289536"><ele>749.0</ele><time>2026-04-11T13:57:01.288Z</time></trkpt><trkpt lat="43.768445" lon="12.0285839"><ele>749.0</ele><time>2026-04-11T13:57:02.287Z</time></trkpt><trkpt lat="43.7684735" lon="12.0282169"><ele>749.0</ele><time>2026-04-11T13:57:03.286Z</time></trkpt><trkpt lat="43.7684963" lon="12.0278423"><ele>749.0</ele><time>2026-04-11T13:57:04.288Z</time></trkpt><trkpt lat="43.7685202" lon="12.0274743"><ele>766.5</ele><time>2026-04-11T13:57:05.293Z</time></trkpt><trkpt lat="43.768549" lon="12.0271109"><ele>784.0</ele><time>2026-04-11T13:57:06.286Z</time></trkpt><trkpt lat="43.7685853" lon="12.0267419"><ele>783.5</ele><time>2026-04-11T13:57:07.287Z</time></trkpt><trkpt lat="43.768633" lon="12.0263785"><ele>783.0</ele><time>2026-04-11T13:57:08.286Z</time></trkpt><trkpt lat="43.7686925" lon="12.0260198"><ele>777.0</ele><time>2026-04-11T13:57:09.286Z</time></trkpt><trkpt lat="43.7687687" lon="12.0256635"><ele>771.0</ele><time>2026-04-11T13:57:10.287Z</time></trkpt><trkpt lat="43.7688612" lon="12.0253163"><ele>764.5</ele><time>2026-04-11T13:57:11.287Z</time></trkpt><trkpt lat="43.7689708" lon="12.0249609"><ele>758.0</ele><time>2026-04-11T13:57:12.287Z</time></trkpt><trkpt lat="43.7690999" lon="12.0246184"><ele>758.0</ele><time>2026-04-11T13:57:13.286Z</time></trkpt><trkpt lat="43.7692425" lon="12.0242862"><ele>758.0</ele><time>2026-04-11T13:57:14.287Z</time></trkpt><trkpt lat="43.7694031" lon="12.0239703"><ele>761.5</ele><time>2026-04-11T13:57:15.286Z</time></trkpt><trkpt lat="43.7695672" lon="12.0236617"><ele>765.0</ele><time>2026-04-11T13:57:16.287Z</time></trkpt><trkpt lat="43.7697474" lon="12.0233786"><ele>763.5</ele><time>2026-04-11T13:57:17.287Z</time></trkpt><trkpt lat="43.7699317" lon="12.0231044"><ele>762.0</ele><time>2026-04-11T13:57:18.287Z</time></trkpt><trkpt lat="43.7701234" lon="12.0228478"><ele>767.5</ele><time>2026-04-11T13:57:19.286Z</time></trkpt><trkpt lat="43.7703487" lon="12.0226105"><ele>773.0</ele><time>2026-04-11T13:57:20.287Z</time></trkpt><trkpt lat="43.7705809" lon="12.0223722"><ele>773.0</ele><time>2026-04-11T13:57:21.286Z</time></trkpt><trkpt lat="43.7708334" lon="12.0221673"><ele>773.0</ele><time>2026-04-11T13:57:22.287Z</time></trkpt><trkpt lat="43.7710961" lon="12.0219853"><ele>778.5</ele><time>2026-04-11T13:57:23.286Z</time></trkpt><trkpt lat="43.7713697" lon="12.021822"><ele>784.0</ele><time>2026-04-11T13:57:24.288Z</time></trkpt><trkpt lat="43.7716492" lon="12.0216706"><ele>782.5</ele><time>2026-04-11T13:57:25.286Z</time></trkpt><trkpt lat="43.7719288" lon="12.0215158"><ele>781.0</ele><time>2026-04-11T13:57:26.286Z</time></trkpt><trkpt lat="43.7721993" lon="12.0213657"><ele>781.0</ele><time>2026-04-11T13:57:27.288Z</time></trkpt><trkpt lat="43.7724727" lon="12.0212198"><ele>781.0</ele><time>2026-04-11T13:57:28.288Z</time></trkpt><trkpt lat="43.7727444" lon="12.0210642"><ele>785.0</ele><time>2026-04-11T13:57:29.286Z</time></trkpt><trkpt lat="43.7730164" lon="12.0209103"><ele>789.0</ele><time>2026-04-11T13:57:30.287Z</time></trkpt><trkpt lat="43.7732827" lon="12.0207659"><ele>792.5</ele><time>2026-04-11T13:57:31.286Z</time></trkpt><trkpt lat="43.7735544" lon="12.0206036"><ele>796.0</ele><time>2026-04-11T13:57:32.286Z</time></trkpt><trkpt lat="43.7738284" lon="12.0204451"><ele>796.0</ele><time>2026-04-11T13:57:33.286Z</time></trkpt><trkpt lat="43.7741083" lon="12.0202875"><ele>796.0</ele><time>2026-04-11T13:57:34.288Z</time></trkpt><trkpt lat="43.774397" lon="12.020139"><ele>794.5</ele><time>2026-04-11T13:57:35.287Z</time></trkpt><trkpt lat="43.7746764" lon="12.0199945"><ele>793.0</ele><time>2026-04-11T13:57:36.287Z</time></trkpt><trkpt lat="43.7749518" lon="12.0198443"><ele>798.0</ele><time>2026-04-11T13:57:37.286Z</time></trkpt><trkpt lat="43.7752317" lon="12.0196962"><ele>803.0</ele><time>2026-04-11T13:57:38.287Z</time></trkpt><trkpt lat="43.7755005" lon="12.0195457"><ele>803.0</ele><time>2026-04-11T13:57:39.287Z</time></trkpt><trkpt lat="43.7757748" lon="12.0193927"><ele>803.0</ele><time>2026-04-11T13:57:40.287Z</time></trkpt><trkpt lat="43.776033" lon="12.0192619"><ele>811.5</ele><time>2026-04-11T13:57:41.287Z</time></trkpt><trkpt lat="43.7763068" lon="12.0191153"><ele>820.0</ele><time>2026-04-11T13:57:42.287Z</time></trkpt><trkpt lat="43.784022" lon="12.0147751"><ele>799.5</ele><time>2026-04-11T13:58:10.287Z</time></trkpt><trkpt lat="43.784287" lon="12.0145822"><ele>779.0</ele><time>2026-04-11T13:58:11.287Z</time></trkpt><trkpt lat="43.7845384" lon="12.0143947"><ele>777.5</ele><time>2026-04-11T13:58:12.287Z</time></trkpt><trkpt lat="43.7847926" lon="12.0142032"><ele>776.0</ele><time>2026-04-11T13:58:13.287Z</time></trkpt><trkpt lat="43.785041" lon="12.0140015"><ele>772.0</ele><time>2026-04-11T13:58:14.287Z</time></trkpt><trkpt lat="43.7852717" lon="12.0137836"><ele>768.0</ele><time>2026-04-11T13:58:15.287Z</time></trkpt><trkpt lat="43.7855014" lon="12.0135628"><ele>768.0</ele><time>2026-04-11T13:58:16.286Z</time></trkpt><trkpt lat="43.785721" lon="12.0133359"><ele>768.0</ele><time>2026-04-11T13:58:17.288Z</time></trkpt><trkpt lat="43.7859349" lon="12.0130951"><ele>771.0</ele><time>2026-04-11T13:58:18.288Z</time></trkpt><trkpt lat="43.7861454" lon="12.0128563"><ele>774.0</ele><time>2026-04-11T13:58:19.287Z</time></trkpt><trkpt lat="43.7863501" lon="12.0126072"><ele>784.5</ele><time>2026-04-11T13:58:20.286Z</time></trkpt><trkpt lat="43.7865479" lon="12.0123522"><ele>795.0</ele><time>2026-04-11T13:58:21.287Z</time></trkpt><trkpt lat="43.7877577" lon="12.010275"><ele>763.0</ele><time>2026-04-11T13:58:28.288Z</time></trkpt><trkpt lat="43.787932" lon="12.0098884"><ele>731.0</ele><time>2026-04-11T13:58:29.287Z</time></trkpt><trkpt lat="43.7880684" lon="12.0096151"><ele>731.0</ele><time>2026-04-11T13:58:30.287Z</time></trkpt><trkpt lat="43.7882132" lon="12.0093221"><ele>731.0</ele><time>2026-04-11T13:58:31.287Z</time></trkpt><trkpt lat="43.7883625" lon="12.0090269"><ele>730.5</ele><time>2026-04-11T13:58:32.287Z</time></trkpt><trkpt lat="43.7885127" lon="12.0087266"><ele>730.0</ele><time>2026-04-11T13:58:33.287Z</time></trkpt><trkpt lat="43.7886597" lon="12.0084302"><ele>728.5</ele><time>2026-04-11T13:58:34.287Z</time></trkpt><trkpt lat="43.7888026" lon="12.0081348"><ele>727.0</ele><time>2026-04-11T13:58:35.288Z</time></trkpt><trkpt lat="43.7889342" lon="12.0078429"><ele>727.0</ele><time>2026-04-11T13:58:36.287Z</time></trkpt><trkpt lat="43.7890721" lon="12.0075468"><ele>727.0</ele><time>2026-04-11T13:58:37.288Z</time></trkpt><trkpt lat="43.7892145" lon="12.0072566"><ele>736.5</ele><time>2026-04-11T13:58:38.287Z</time></trkpt><trkpt lat="43.7893538" lon="12.0069643"><ele>746.0</ele><time>2026-04-11T13:58:39.286Z</time></trkpt><trkpt lat="43.7894955" lon="12.0066748"><ele>742.5</ele><time>2026-04-11T13:58:40.287Z</time></trkpt><trkpt lat="43.7896347" lon="12.00638"><ele>739.0</ele><time>2026-04-11T13:58:41.287Z</time></trkpt><trkpt lat="43.789776" lon="12.0060855"><ele>733.0</ele><time>2026-04-11T13:58:42.286Z</time></trkpt><trkpt lat="43.7899215" lon="12.0057884"><ele>727.0</ele><time>2026-04-11T13:58:43.287Z</time></trkpt><trkpt lat="43.7900661" lon="12.0054923"><ele>730.5</ele><time>2026-04-11T13:58:44.287Z</time></trkpt><trkpt lat="43.7902108" lon="12.0051946"><ele>734.0</ele><time>2026-04-11T13:58:45.287Z</time></trkpt><trkpt lat="43.7903551" lon="12.0048944"><ele>734.0</ele><time>2026-04-11T13:58:46.287Z</time></trkpt><trkpt lat="43.7905038" lon="12.0045927"><ele>734.0</ele><time>2026-04-11T13:58:47.286Z</time></trkpt><trkpt lat="43.7906569" lon="12.0042969"><ele>737.0</ele><time>2026-04-11T13:58:48.287Z</time></trkpt><trkpt lat="43.7908184" lon="12.0040105"><ele>740.0</ele><time>2026-04-11T13:58:49.287Z</time></trkpt><trkpt lat="43.7909953" lon="12.0037387"><ele>760.0</ele><time>2026-04-11T13:58:50.288Z</time></trkpt><trkpt lat="43.7911764" lon="12.0034785"><ele>780.0</ele><time>2026-04-11T13:58:51.286Z</time></trkpt><trkpt lat="43.7913621" lon="12.0032229"><ele>788.0</ele><time>2026-04-11T13:58:52.286Z</time></trkpt><trkpt lat="43.7915538" lon="12.002977"><ele>796.0</ele><time>2026-04-11T13:58:53.287Z</time></trkpt><trkpt lat="43.7939855" lon="12.0000831"><ele>748.0</ele><time>2026-04-11T13:59:04.287Z</time></trkpt><trkpt lat="43.7941887" lon="11.9998238"><ele>700.0</ele><time>2026-04-11T13:59:05.287Z</time></trkpt><trkpt lat="43.7943941" lon="11.9995598"><ele>694.0</ele><time>2026-04-11T13:59:06.287Z</time></trkpt><trkpt lat="43.7945936" lon="11.9993041"><ele>688.0</ele><time>2026-04-11T13:59:07.287Z</time></trkpt><trkpt lat="43.7947914" lon="11.9990557"><ele>688.0</ele><time>2026-04-11T13:59:08.286Z</time></trkpt><trkpt lat="43.7949929" lon="11.9988026"><ele>688.0</ele><time>2026-04-11T13:59:09.287Z</time></trkpt><trkpt lat="43.7951919" lon="11.9985561"><ele>699.0</ele><time>2026-04-11T13:59:10.287Z</time></trkpt><trkpt lat="43.795393" lon="11.9983123"><ele>710.0</ele><time>2026-04-11T13:59:11.287Z</time></trkpt><trkpt lat="43.7955909" lon="11.9980637"><ele>710.0</ele><time>2026-04-11T13:59:12.287Z</time></trkpt><trkpt lat="43.7957882" lon="11.9978179"><ele>710.0</ele><time>2026-04-11T13:59:13.287Z</time></trkpt><trkpt lat="43.7959882" lon="11.9975746"><ele>712.5</ele><time>2026-04-11T13:59:14.288Z</time></trkpt><trkpt lat="43.796188" lon="11.9973357"><ele>715.0</ele><time>2026-04-11T13:59:15.287Z</time></trkpt><trkpt lat="43.7963848" lon="11.9970977"><ele>715.0</ele><time>2026-04-11T13:59:16.287Z</time></trkpt><trkpt lat="43.7965823" lon="11.9968501"><ele>715.0</ele><time>2026-04-11T13:59:17.287Z</time></trkpt><trkpt lat="43.7967782" lon="11.9965963"><ele>712.0</ele><time>2026-04-11T13:59:18.288Z</time></trkpt><trkpt lat="43.7969718" lon="11.9963347"><ele>709.0</ele><time>2026-04-11T13:59:19.286Z</time></trkpt><trkpt lat="43.7971587" lon="11.9960613"><ele>703.5</ele><time>2026-04-11T13:59:20.286Z</time></trkpt><trkpt lat="43.7973376" lon="11.9957732"><ele>698.0</ele><time>2026-04-11T13:59:21.287Z</time></trkpt><trkpt lat="43.7975059" lon="11.9954737"><ele>698.0</ele><time>2026-04-11T13:59:22.287Z</time></trkpt><trkpt lat="43.7976625" lon="11.9951676"><ele>698.0</ele><time>2026-04-11T13:59:23.287Z</time></trkpt><trkpt lat="43.7978069" lon="11.9948486"><ele>691.0</ele><time>2026-04-11T13:59:24.287Z</time></trkpt><trkpt lat="43.7979449" lon="11.9945214"><ele>684.0</ele><time>2026-04-11T13:59:25.286Z</time></trkpt><trkpt lat="43.7980654" lon="11.9941902"><ele>678.0</ele><time>2026-04-11T13:59:26.288Z</time></trkpt><trkpt lat="43.7981863" lon="11.9938494"><ele>672.0</ele><time>2026-04-11T13:59:27.286Z</time></trkpt><trkpt lat="43.7982886" lon="11.9935039"><ele>669.0</ele><time>2026-04-11T13:59:28.287Z</time></trkpt><trkpt lat="43.7983809" lon="11.993157"><ele>666.0</ele><time>2026-04-11T13:59:29.288Z</time></trkpt><trkpt lat="43.7984593" lon="11.9928079"><ele>674.5</ele><time>2026-04-11T13:59:30.287Z</time></trkpt><trkpt lat="43.7985242" lon="11.992451"><ele>683.0</ele><time>2026-04-11T13:59:31.287Z</time></trkpt><trkpt lat="43.7985797" lon="11.9920927"><ele>683.0</ele><time>2026-04-11T13:59:32.288Z</time></trkpt><trkpt lat="43.7986197" lon="11.9917284"><ele>683.0</ele><time>2026-04-11T13:59:33.287Z</time></trkpt><trkpt lat="43.7986523" lon="11.991361"><ele>674.0</ele><time>2026-04-11T13:59:34.287Z</time></trkpt><trkpt lat="43.7986754" lon="11.9909874"><ele>665.0</ele><time>2026-04-11T13:59:35.288Z</time></trkpt><trkpt lat="43.7986829" lon="11.990617"><ele>658.0</ele><time>2026-04-11T13:59:36.287Z</time></trkpt><trkpt lat="43.7986756" lon="11.9902422"><ele>651.0</ele><time>2026-04-11T13:59:37.287Z</time></trkpt><trkpt lat="43.7986619" lon="11.9898655"><ele>648.5</ele><time>2026-04-11T13:59:38.287Z</time></trkpt><trkpt lat="43.798639" lon="11.9894854"><ele>646.0</ele><time>2026-04-11T13:59:39.287Z</time></trkpt><trkpt lat="43.798615" lon="11.9890985"><ele>642.5</ele><time>2026-04-11T13:59:40.287Z</time></trkpt><trkpt lat="43.798584" lon="11.9887165"><ele>639.0</ele><time>2026-04-11T13:59:41.287Z</time></trkpt><trkpt lat="43.7985474" lon="11.9883321"><ele>634.5</ele><time>2026-04-11T13:59:42.286Z</time></trkpt><trkpt lat="43.7985042" lon="11.9879506"><ele>630.0</ele><time>2026-04-11T13:59:43.287Z</time></trkpt><trkpt lat="43.7984516" lon="11.9875716"><ele>631.5</ele><time>2026-04-11T13:59:44.287Z</time></trkpt><trkpt lat="43.7983933" lon="11.9871906"><ele>633.0</ele><time>2026-04-11T13:59:45.288Z</time></trkpt><trkpt lat="43.7983275" lon="11.9868097"><ele>633.0</ele><time>2026-04-11T13:59:46.286Z</time></trkpt><trkpt lat="43.7982548" lon="11.9864325"><ele>633.0</ele><time>2026-04-11T13:59:47.286Z</time></trkpt><trkpt lat="43.7981777" lon="11.9860562"><ele>629.5</ele><time>2026-04-11T13:59:48.286Z</time></trkpt><trkpt lat="43.7980957" lon="11.9856862"><ele>626.0</ele><time>2026-04-11T13:59:49.287Z</time></trkpt><trkpt lat="43.7980102" lon="11.9853147"><ele>628.5</ele><time>2026-04-11T13:59:50.286Z</time></trkpt><trkpt lat="43.7979174" lon="11.9849505"><ele>631.0</ele><time>2026-04-11T13:59:51.287Z</time></trkpt><trkpt lat="43.7978225" lon="11.9845873"><ele>631.0</ele><time>2026-04-11T13:59:52.287Z</time></trkpt><trkpt lat="43.7977282" lon="11.9842296"><ele>631.0</ele><time>2026-04-11T13:59:53.287Z</time></trkpt><trkpt lat="43.7976373" lon="11.983863"><ele>630.0</ele><time>2026-04-11T13:59:54.285Z</time></trkpt><trkpt lat="43.7975598" lon="11.9834869"><ele>629.0</ele><time>2026-04-11T13:59:55.286Z</time></trkpt><trkpt lat="43.7974986" lon="11.983107"><ele>622.5</ele><time>2026-04-11T13:59:56.287Z</time></trkpt><trkpt lat="43.7974605" lon="11.9827238"><ele>616.0</ele><time>2026-04-11T13:59:57.288Z</time></trkpt><trkpt lat="43.7974469" lon="11.9823404"><ele>615.5</ele><time>2026-04-11T13:59:58.287Z</time></trkpt><trkpt lat="43.7974521" lon="11.9819625"><ele>615.0</ele><time>2026-04-11T13:59:59.286Z</time></trkpt><trkpt lat="43.7974724" lon="11.9815908"><ele>618.5</ele><time>2026-04-11T14:00:00.287Z</time></trkpt><trkpt lat="43.7975222" lon="11.9812247"><ele>622.0</ele><time>2026-04-11T14:00:01.287Z</time></trkpt><trkpt lat="43.7975888" lon="11.9808675"><ele>629.5</ele><time>2026-04-11T14:00:02.287Z</time></trkpt><trkpt lat="43.7976733" lon="11.9805155"><ele>637.0</ele><time>2026-04-11T14:00:03.286Z</time></trkpt><trkpt lat="43.7977779" lon="11.9801714"><ele>629.5</ele><time>2026-04-11T14:00:04.287Z</time></trkpt><trkpt lat="43.7979014" lon="11.9798463"><ele>622.0</ele><time>2026-04-11T14:00:05.286Z</time></trkpt><trkpt lat="43.7980456" lon="11.9795383"><ele>622.0</ele><time>2026-04-11T14:00:06.286Z</time></trkpt><trkpt lat="43.7982096" lon="11.9792368"><ele>622.0</ele><time>2026-04-11T14:00:07.285Z</time></trkpt><trkpt lat="43.7983906" lon="11.9789481"><ele>621.5</ele><time>2026-04-11T14:00:08.286Z</time></trkpt><trkpt lat="43.7985905" lon="11.9786767"><ele>621.0</ele><time>2026-04-11T14:00:09.288Z</time></trkpt><trkpt lat="43.7987986" lon="11.9784306"><ele>611.5</ele><time>2026-04-11T14:00:10.288Z</time></trkpt><trkpt lat="43.799024" lon="11.9782061"><ele>602.0</ele><time>2026-04-11T14:00:11.287Z</time></trkpt><trkpt lat="43.7992629" lon="11.9780081"><ele>596.0</ele><time>2026-04-11T14:00:12.286Z</time></trkpt><trkpt lat="43.7995043" lon="11.9778343"><ele>590.0</ele><time>2026-04-11T14:00:13.288Z</time></trkpt><trkpt lat="43.7997677" lon="11.9776893"><ele>590.0</ele><time>2026-04-11T14:00:14.287Z</time></trkpt><trkpt lat="43.8000391" lon="11.9775745"><ele>590.0</ele><time>2026-04-11T14:00:15.287Z</time></trkpt><trkpt lat="43.8003222" lon="11.9774849"><ele>591.0</ele><time>2026-04-11T14:00:16.287Z</time></trkpt><trkpt lat="43.8006256" lon="11.9774267"><ele>592.0</ele><time>2026-04-11T14:00:17.286Z</time></trkpt><trkpt lat="43.8009298" lon="11.9773856"><ele>593.0</ele><time>2026-04-11T14:00:18.285Z</time></trkpt><trkpt lat="43.801244" lon="11.9773537"><ele>594.0</ele><time>2026-04-11T14:00:19.286Z</time></trkpt><trkpt lat="43.8015584" lon="11.9773119"><ele>591.0</ele><time>2026-04-11T14:00:20.287Z</time></trkpt><trkpt lat="43.8018734" lon="11.9772817"><ele>588.0</ele><time>2026-04-11T14:00:21.286Z</time></trkpt><trkpt lat="43.8021818" lon="11.9772496"><ele>588.0</ele><time>2026-04-11T14:00:22.286Z</time></trkpt><trkpt lat="43.8024754" lon="11.9772076"><ele>588.0</ele><time>2026-04-11T14:00:23.288Z</time></trkpt><trkpt lat="43.8027593" lon="11.977152"><ele>590.5</ele><time>2026-04-11T14:00:24.287Z</time></trkpt><trkpt lat="43.8030216" lon="11.977084"><ele>593.0</ele><time>2026-04-11T14:00:25.287Z</time></trkpt><trkpt lat="43.8032739" lon="11.9769894"><ele>589.5</ele><time>2026-04-11T14:00:26.287Z</time></trkpt><trkpt lat="43.8035191" lon="11.976861"><ele>586.0</ele><time>2026-04-11T14:00:27.285Z</time></trkpt><trkpt lat="43.8037627" lon="11.9767037"><ele>594.0</ele><time>2026-04-11T14:00:28.287Z</time></trkpt><trkpt lat="43.8039978" lon="11.9765239"><ele>602.0</ele><time>2026-04-11T14:00:29.286Z</time></trkpt><trkpt lat="43.8042197" lon="11.9763245"><ele>595.0</ele><time>2026-04-11T14:00:30.286Z</time></trkpt><trkpt lat="43.8044397" lon="11.9761046"><ele>588.0</ele><time>2026-04-11T14:00:31.287Z</time></trkpt><trkpt lat="43.8046462" lon="11.9758641"><ele>591.0</ele><time>2026-04-11T14:00:32.286Z</time></trkpt><trkpt lat="43.804842" lon="11.9756031"><ele>594.0</ele><time>2026-04-11T14:00:33.286Z</time></trkpt><trkpt lat="43.8050239" lon="11.97531"><ele>589.5</ele><time>2026-04-11T14:00:34.287Z</time></trkpt><trkpt lat="43.8051873" lon="11.9749958"><ele>585.0</ele><time>2026-04-11T14:00:35.288Z</time></trkpt><trkpt lat="43.8053389" lon="11.9746662"><ele>585.0</ele><time>2026-04-11T14:00:36.286Z</time></trkpt><trkpt lat="43.8054703" lon="11.9743144"><ele>585.0</ele><time>2026-04-11T14:00:37.287Z</time></trkpt><trkpt lat="43.8055832" lon="11.9739454"><ele>578.5</ele><time>2026-04-11T14:00:38.287Z</time></trkpt><trkpt lat="43.8056905" lon="11.9735562"><ele>572.0</ele><time>2026-04-11T14:00:39.288Z</time></trkpt><trkpt lat="43.8057874" lon="11.9731593"><ele>572.0</ele><time>2026-04-11T14:00:40.286Z</time></trkpt><trkpt lat="43.8058757" lon="11.972764"><ele>572.0</ele><time>2026-04-11T14:00:41.285Z</time></trkpt><trkpt lat="43.8059674" lon="11.9723709"><ele>576.0</ele><time>2026-04-11T14:00:42.286Z</time></trkpt><trkpt lat="43.8060611" lon="11.9719827"><ele>580.0</ele><time>2026-04-11T14:00:43.286Z</time></trkpt><trkpt lat="43.8061557" lon="11.9716117"><ele>580.0</ele><time>2026-04-11T14:00:44.287Z</time></trkpt><trkpt lat="43.8062625" lon="11.9712438"><ele>580.0</ele><time>2026-04-11T14:00:45.286Z</time></trkpt><trkpt lat="43.8063892" lon="11.9708852"><ele>574.5</ele><time>2026-04-11T14:00:46.287Z</time></trkpt><trkpt lat="43.8065312" lon="11.9705375"><ele>569.0</ele><time>2026-04-11T14:00:47.287Z</time></trkpt><trkpt lat="43.8066909" lon="11.9702006"><ele>581.5</ele><time>2026-04-11T14:00:48.287Z</time></trkpt><trkpt lat="43.8068695" lon="11.9698739"><ele>594.0</ele><time>2026-04-11T14:00:49.286Z</time></trkpt><trkpt lat="43.8070618" lon="11.9695651"><ele>594.0</ele><time>2026-04-11T14:00:50.286Z</time></trkpt><trkpt lat="43.8072682" lon="11.9692624"><ele>594.0</ele><time>2026-04-11T14:00:51.288Z</time></trkpt><trkpt lat="43.8074923" lon="11.9689933"><ele>596.5</ele><time>2026-04-11T14:00:52.288Z</time></trkpt><trkpt lat="43.8077271" lon="11.9687475"><ele>599.0</ele><time>2026-04-11T14:00:53.288Z</time></trkpt><trkpt lat="43.8079729" lon="11.9685235"><ele>584.0</ele><time>2026-04-11T14:00:54.288Z</time></trkpt><trkpt lat="43.8082278" lon="11.9683181"><ele>569.0</ele><time>2026-04-11T14:00:55.287Z</time></trkpt><trkpt lat="43.8084846" lon="11.9681462"><ele>572.5</ele><time>2026-04-11T14:00:56.286Z</time></trkpt><trkpt lat="43.8087554" lon="11.9679867"><ele>576.0</ele><time>2026-04-11T14:00:57.286Z</time></trkpt><trkpt lat="43.8090349" lon="11.9678512"><ele>576.0</ele><time>2026-04-11T14:00:58.287Z</time></trkpt><trkpt lat="43.8093226" lon="11.9677398"><ele>576.0</ele><time>2026-04-11T14:00:59.286Z</time></trkpt><trkpt lat="43.8096242" lon="11.9676561"><ele>577.0</ele><time>2026-04-11T14:01:00.287Z</time></trkpt><trkpt lat="43.809929" lon="11.9675955"><ele>578.0</ele><time>2026-04-11T14:01:01.286Z</time></trkpt><trkpt lat="43.81024" lon="11.9675621"><ele>578.0</ele><time>2026-04-11T14:01:02.285Z</time></trkpt><trkpt lat="43.8105517" lon="11.967551"><ele>578.0</ele><time>2026-04-11T14:01:03.288Z</time></trkpt><trkpt lat="43.810869" lon="11.9675492"><ele>585.0</ele><time>2026-04-11T14:01:04.288Z</time></trkpt><trkpt lat="43.811179" lon="11.9675487"><ele>592.0</ele><time>2026-04-11T14:01:05.287Z</time></trkpt><trkpt lat="43.8114855" lon="11.9675469"><ele>592.0</ele><time>2026-04-11T14:01:06.287Z</time></trkpt><trkpt lat="43.8117898" lon="11.9675435"><ele>592.0</ele><time>2026-04-11T14:01:07.286Z</time></trkpt><trkpt lat="43.8120859" lon="11.96754"><ele>579.5</ele><time>2026-04-11T14:01:08.286Z</time></trkpt><trkpt lat="43.8123738" lon="11.9675525"><ele>567.0</ele><time>2026-04-11T14:01:09.287Z</time></trkpt><trkpt lat="43.8126588" lon="11.9675419"><ele>558.5</ele><time>2026-04-11T14:01:10.286Z</time></trkpt><trkpt lat="43.812946" lon="11.9675113"><ele>550.0</ele><time>2026-04-11T14:01:11.286Z</time></trkpt><trkpt lat="43.8132224" lon="11.9674487"><ele>549.0</ele><time>2026-04-11T14:01:12.286Z</time></trkpt><trkpt lat="43.8134937" lon="11.9673626"><ele>548.0</ele><time>2026-04-11T14:01:13.287Z</time></trkpt><trkpt lat="43.8137562" lon="11.9672542"><ele>548.0</ele><time>2026-04-11T14:01:14.286Z</time></trkpt><trkpt lat="43.8140096" lon="11.9671298"><ele>548.0</ele><time>2026-04-11T14:01:15.285Z</time></trkpt><trkpt lat="43.8142386" lon="11.9669646"><ele>551.5</ele><time>2026-04-11T14:01:16.285Z</time></trkpt><trkpt lat="43.814467" lon="11.9667829"><ele>555.0</ele><time>2026-04-11T14:01:17.286Z</time></trkpt><trkpt lat="43.8146834" lon="11.9665781"><ele>555.0</ele><time>2026-04-11T14:01:18.286Z</time></trkpt><trkpt lat="43.8148975" lon="11.9663534"><ele>555.0</ele><time>2026-04-11T14:01:19.286Z</time></trkpt><trkpt lat="43.8150942" lon="11.9660995"><ele>580.0</ele><time>2026-04-11T14:01:20.286Z</time></trkpt><trkpt lat="43.8063892" lon="11.9708852"><ele>574.5</ele><time>2026-04-11T14:00:46.287Z</time></trkpt><trkpt lat="43.8065312" lon="11.9705375"><ele>569.0</ele><time>2026-04-11T14:00:47.287Z</time></trkpt><trkpt lat="43.8066909" lon="11.9702006"><ele>581.5</ele><time>2026-04-11T14:00:48.287Z</time></trkpt><trkpt lat="43.8068695" lon="11.9698739"><ele>594.0</ele><time>2026-04-11T14:00:49.286Z</time></trkpt><trkpt lat="43.8070618" lon="11.9695651"><ele>594.0</ele><time>2026-04-11T14:00:50.286Z</time></trkpt><trkpt lat="43.8072682" lon="11.9692624"><ele>594.0</ele><time>2026-04-11T14:00:51.288Z</time></trkpt><trkpt lat="43.8074923" lon="11.9689933"><ele>596.5</ele><time>2026-04-11T14:00:52.288Z</time></trkpt><trkpt lat="43.8077271" lon="11.9687475"><ele>599.0</ele><time>2026-04-11T14:00:53.288Z</time></trkpt><trkpt lat="43.8079729" lon="11.9685235"><ele>584.0</ele><time>2026-04-11T14:00:54.288Z</time></trkpt><trkpt lat="43.8082278" lon="11.9683181"><ele>569.0</ele><time>2026-04-11T14:00:55.287Z</time></trkpt><trkpt lat="43.8084846" lon="11.9681462"><ele>572.5</ele><time>2026-04-11T14:00:56.286Z</time></trkpt><trkpt lat="43.8087554" lon="11.9679867"><ele>576.0</ele><time>2026-04-11T14:00:57.286Z</time></trkpt><trkpt lat="43.8090349" lon="11.9678512"><ele>576.0</ele><time>2026-04-11T14:00:58.287Z</time></trkpt><trkpt lat="43.8093226" lon="11.9677398"><ele>576.0</ele><time>2026-04-11T14:00:59.286Z</time></trkpt><trkpt lat="43.8096242" lon="11.9676561"><ele>577.0</ele><time>2026-04-11T14:01:00.287Z</time></trkpt><trkpt lat="43.809929" lon="11.9675955"><ele>578.0</ele><time>2026-04-11T14:01:01.286Z</time></trkpt><trkpt lat="43.81024" lon="11.9675621"><ele>578.0</ele><time>2026-04-11T14:01:02.285Z</time></trkpt><trkpt lat="43.8105517" lon="11.967551"><ele>578.0</ele><time>2026-04-11T14:01:03.288Z</time></trkpt><trkpt lat="43.810869" lon="11.9675492"><ele>585.0</ele><time>2026-04-11T14:01:04.288Z</time></trkpt><trkpt lat="43.811179" lon="11.9675487"><ele>592.0</ele><time>2026-04-11T14:01:05.287Z</time></trkpt><trkpt lat="43.8114855" lon="11.9675469"><ele>592.0</ele><time>2026-04-11T14:01:06.287Z</time></trkpt><trkpt lat="43.8117898" lon="11.9675435"><ele>592.0</ele><time>2026-04-11T14:01:07.286Z</time></trkpt><trkpt lat="43.8120859" lon="11.96754"><ele>579.5</ele><time>2026-04-11T14:01:08.286Z</time></trkpt><trkpt lat="43.8123738" lon="11.9675525"><ele>567.0</ele><time>2026-04-11T14:01:09.287Z</time></trkpt><trkpt lat="43.8126588" lon="11.9675419"><ele>558.5</ele><time>2026-04-11T14:01:10.286Z</time></trkpt><trkpt lat="43.812946" lon="11.9675113"><ele>550.0</ele><time>2026-04-11T14:01:11.286Z</time></trkpt><trkpt lat="43.8132224" lon="11.9674487"><ele>549.0</ele><time>2026-04-11T14:01:12.286Z</time></trkpt><trkpt lat="43.8134937" lon="11.9673626"><ele>548.0</ele><time>2026-04-11T14:01:13.287Z</time></trkpt><trkpt lat="43.8137562" lon="11.9672542"><ele>548.0</ele><time>2026-04-11T14:01:14.286Z</time></trkpt><trkpt lat="43.8140096" lon="11.9671298"><ele>548.0</ele><time>2026-04-11T14:01:15.285Z</time></trkpt><trkpt lat="43.8142386" lon="11.9669646"><ele>551.5</ele><time>2026-04-11T14:01:16.285Z</time></trkpt><trkpt lat="43.814467" lon="11.9667829"><ele>555.0</ele><time>2026-04-11T14:01:17.286Z</time></trkpt><trkpt lat="43.8146834" lon="11.9665781"><ele>555.0</ele><time>2026-04-11T14:01:18.286Z</time></trkpt><trkpt lat="43.8148975" lon="11.9663534"><ele>555.0</ele><time>2026-04-11T14:01:19.286Z</time></trkpt><trkpt lat="43.8150942" lon="11.9660995"><ele>551.5</ele><time>2026-04-11T14:01:20.286Z</time></trkpt><trkpt lat="43.8152782" lon="11.9658288"><ele>548.0</ele><time>2026-04-11T14:01:21.286Z</time></trkpt><trkpt lat="43.8154457" lon="11.9655443"><ele>548.0</ele><time>2026-04-11T14:01:22.287Z</time></trkpt><trkpt lat="43.8156009" lon="11.9652473"><ele>548.0</ele><time>2026-04-11T14:01:23.285Z</time></trkpt><trkpt lat="43.8157465" lon="11.9649472"><ele>547.0</ele><time>2026-04-11T14:01:24.288Z</time></trkpt><trkpt lat="43.8158907" lon="11.9646351"><ele>546.0</ele><time>2026-04-11T14:01:25.286Z</time></trkpt><trkpt lat="43.8160368" lon="11.9643208"><ele>548.5</ele><time>2026-04-11T14:01:26.286Z</time></trkpt><trkpt lat="43.8161876" lon="11.9640268"><ele>551.0</ele><time>2026-04-11T14:01:27.287Z</time></trkpt><trkpt lat="43.8163435" lon="11.9637356"><ele>551.0</ele><time>2026-04-11T14:01:28.286Z</time></trkpt><trkpt lat="43.8165169" lon="11.9634608"><ele>551.0</ele><time>2026-04-11T14:01:29.286Z</time></trkpt><trkpt lat="43.8167029" lon="11.963202"><ele>552.0</ele><time>2026-04-11T14:01:30.287Z</time></trkpt><trkpt lat="43.8169124" lon="11.9629508"><ele>553.0</ele><time>2026-04-11T14:01:31.287Z</time></trkpt><trkpt lat="43.8171399" lon="11.9627041"><ele>543.5</ele><time>2026-04-11T14:01:32.285Z</time></trkpt><trkpt lat="43.8173805" lon="11.9624641"><ele>534.0</ele><time>2026-04-11T14:01:33.287Z</time></trkpt><trkpt lat="43.8176284" lon="11.9622153"><ele>540.0</ele><time>2026-04-11T14:01:34.286Z</time></trkpt><trkpt lat="43.8178799" lon="11.9619656"><ele>546.0</ele><time>2026-04-11T14:01:35.285Z</time></trkpt><trkpt lat="43.818138" lon="11.9617097"><ele>539.5</ele><time>2026-04-11T14:01:36.287Z</time></trkpt><trkpt lat="43.818399" lon="11.9614511"><ele>533.0</ele><time>2026-04-11T14:01:37.286Z</time></trkpt><trkpt lat="43.8186642" lon="11.9611868"><ele>532.5</ele><time>2026-04-11T14:01:38.285Z</time></trkpt><trkpt lat="43.8189326" lon="11.9609223"><ele>532.0</ele><time>2026-04-11T14:01:39.287Z</time></trkpt><trkpt lat="43.8191989" lon="11.9606605"><ele>537.5</ele><time>2026-04-11T14:01:40.287Z</time></trkpt><trkpt lat="43.8194649" lon="11.9603989"><ele>543.0</ele><time>2026-04-11T14:01:41.286Z</time></trkpt><trkpt lat="43.8197324" lon="11.9601328"><ele>536.0</ele><time>2026-04-11T14:01:42.287Z</time></trkpt><trkpt lat="43.8199913" lon="11.9598768"><ele>529.0</ele><time>2026-04-11T14:01:43.286Z</time></trkpt><trkpt lat="43.8202421" lon="11.959627"><ele>529.0</ele><time>2026-04-11T14:01:44.286Z</time></trkpt><trkpt lat="43.8204783" lon="11.9593915"><ele>529.0</ele><time>2026-04-11T14:01:45.287Z</time></trkpt><trkpt lat="43.8207014" lon="11.9591633"><ele>525.5</ele><time>2026-04-11T14:01:46.288Z</time></trkpt><trkpt lat="43.8209301" lon="11.9589549"><ele>522.0</ele><time>2026-04-11T14:01:47.286Z</time></trkpt><trkpt lat="43.8211593" lon="11.9587732"><ele>522.0</ele><time>2026-04-11T14:01:48.286Z</time></trkpt><trkpt lat="43.8213944" lon="11.958608"><ele>522.0</ele><time>2026-04-11T14:01:49.286Z</time></trkpt><trkpt lat="43.8216324" lon="11.958468"><ele>516.5</ele><time>2026-04-11T14:01:50.286Z</time></trkpt><trkpt lat="43.8218807" lon="11.9583697"><ele>511.0</ele><time>2026-04-11T14:01:51.288Z</time></trkpt><trkpt lat="43.8221303" lon="11.9582896"><ele>511.0</ele><time>2026-04-11T14:01:52.287Z</time></trkpt><trkpt lat="43.8223857" lon="11.9582397"><ele>511.0</ele><time>2026-04-11T14:01:53.287Z</time></trkpt><trkpt lat="43.8226433" lon="11.95822"><ele>509.0</ele><time>2026-04-11T14:01:54.286Z</time></trkpt><trkpt lat="43.8229046" lon="11.9582227"><ele>507.0</ele><time>2026-04-11T14:01:55.287Z</time></trkpt><trkpt lat="43.8231727" lon="11.9582561"><ele>507.0</ele><time>2026-04-11T14:01:56.287Z</time></trkpt><trkpt lat="43.8234432" lon="11.9583173"><ele>507.0</ele><time>2026-04-11T14:01:57.286Z</time></trkpt><trkpt lat="43.8237143" lon="11.9584099"><ele>508.0</ele><time>2026-04-11T14:01:58.287Z</time></trkpt><trkpt lat="43.8239836" lon="11.9585254"><ele>509.0</ele><time>2026-04-11T14:01:59.288Z</time></trkpt><trkpt lat="43.8242597" lon="11.9586507"><ele>507.5</ele><time>2026-04-11T14:02:00.287Z</time></trkpt><trkpt lat="43.8245349" lon="11.9587713"><ele>506.0</ele><time>2026-04-11T14:02:01.285Z</time></trkpt><trkpt lat="43.8248113" lon="11.9588971"><ele>506.0</ele><time>2026-04-11T14:02:02.286Z</time></trkpt><trkpt lat="43.8250838" lon="11.9590214"><ele>506.0</ele><time>2026-04-11T14:02:03.286Z</time></trkpt><trkpt lat="43.8253522" lon="11.9591438"><ele>514.0</ele><time>2026-04-11T14:02:04.287Z</time></trkpt><trkpt lat="43.8256157" lon="11.9592625"><ele>522.0</ele><time>2026-04-11T14:02:05.286Z</time></trkpt><trkpt lat="43.8258796" lon="11.9593806"><ele>516.5</ele><time>2026-04-11T14:02:06.286Z</time></trkpt><trkpt lat="43.8261454" lon="11.959499"><ele>511.0</ele><time>2026-04-11T14:02:07.287Z</time></trkpt><trkpt lat="43.826408" lon="11.9596149"><ele>511.0</ele><time>2026-04-11T14:02:08.287Z</time></trkpt><trkpt lat="43.8266649" lon="11.9597327"><ele>511.0</ele><time>2026-04-11T14:02:09.287Z</time></trkpt><trkpt lat="43.8269158" lon="11.9598512"><ele>507.0</ele><time>2026-04-11T14:02:10.287Z</time></trkpt><trkpt lat="43.8271581" lon="11.9599852"><ele>503.0</ele><time>2026-04-11T14:02:11.285Z</time></trkpt><trkpt lat="43.8274057" lon="11.9601228"><ele>514.0</ele><time>2026-04-11T14:02:12.286Z</time></trkpt><trkpt lat="43.8276475" lon="11.9602779"><ele>525.0</ele><time>2026-04-11T14:02:13.288Z</time></trkpt><trkpt lat="43.8278881" lon="11.9604461"><ele>525.0</ele><time>2026-04-11T14:02:14.286Z</time></trkpt><trkpt lat="43.8281367" lon="11.960629"><ele>525.0</ele><time>2026-04-11T14:02:15.287Z</time></trkpt><trkpt lat="43.8283793" lon="11.9608158"><ele>532.0</ele><time>2026-04-11T14:02:16.287Z</time></trkpt><trkpt lat="43.8286155" lon="11.9609999"><ele>539.0</ele><time>2026-04-11T14:02:17.286Z</time></trkpt><trkpt lat="43.8288629" lon="11.9611843"><ele>539.0</ele><time>2026-04-11T14:02:18.286Z</time></trkpt><trkpt lat="43.8291131" lon="11.9613715"><ele>539.0</ele><time>2026-04-11T14:02:19.287Z</time></trkpt><trkpt lat="43.8293606" lon="11.9615543"><ele>539.0</ele><time>2026-04-11T14:02:20.289Z</time></trkpt><trkpt lat="43.8288959" lon="11.9611914"><ele>596.0</ele><time>2026-04-11T14:02:36.043Z</time></trkpt><trkpt lat="43.8302434" lon="11.9618525"><ele>479.0</ele><time>2026-04-11T14:03:05.43Z</time></trkpt><trkpt lat="43.8435584" lon="11.9725218"><ele>480.5</ele><time>2026-04-11T14:03:16.286Z</time></trkpt><trkpt lat="43.8438039" lon="11.9726695"><ele>482.0</ele><time>2026-04-11T14:03:17.287Z</time></trkpt><trkpt lat="43.8440525" lon="11.9728469"><ele>481.5</ele><time>2026-04-11T14:03:18.287Z</time></trkpt><trkpt lat="43.8443101" lon="11.9730361"><ele>481.0</ele><time>2026-04-11T14:03:19.287Z</time></trkpt><trkpt lat="43.8445634" lon="11.973239"><ele>487.5</ele><time>2026-04-11T14:03:20.287Z</time></trkpt><trkpt lat="43.8448177" lon="11.9734444"><ele>494.0</ele><time>2026-04-11T14:03:21.288Z</time></trkpt><trkpt lat="43.8450727" lon="11.9736519"><ele>487.0</ele><time>2026-04-11T14:03:22.287Z</time></trkpt><trkpt lat="43.8453269" lon="11.9738588"><ele>480.0</ele><time>2026-04-11T14:03:23.286Z</time></trkpt><trkpt lat="43.8455815" lon="11.9740824"><ele>478.5</ele><time>2026-04-11T14:03:24.287Z</time></trkpt><trkpt lat="43.8458348" lon="11.9743115"><ele>477.0</ele><time>2026-04-11T14:03:25.286Z</time></trkpt><trkpt lat="43.8460908" lon="11.9745417"><ele>477.0</ele><time>2026-04-11T14:03:26.287Z</time></trkpt><trkpt lat="43.8463468" lon="11.9747691"><ele>477.0</ele><time>2026-04-11T14:03:27.287Z</time></trkpt><trkpt lat="43.8466025" lon="11.9749983"><ele>475.0</ele><time>2026-04-11T14:03:28.286Z</time></trkpt><trkpt lat="43.8468585" lon="11.9752254"><ele>473.0</ele><time>2026-04-11T14:03:29.287Z</time></trkpt><trkpt lat="43.8471137" lon="11.9754498"><ele>473.0</ele><time>2026-04-11T14:03:30.286Z</time></trkpt><trkpt lat="43.8473692" lon="11.9756712"><ele>473.0</ele><time>2026-04-11T14:03:31.287Z</time></trkpt><trkpt lat="43.847625" lon="11.9758954"><ele>473.5</ele><time>2026-04-11T14:03:32.287Z</time></trkpt><trkpt lat="43.8478841" lon="11.9761196"><ele>474.0</ele><time>2026-04-11T14:03:33.287Z</time></trkpt><trkpt lat="43.8481389" lon="11.9763446"><ele>474.0</ele><time>2026-04-11T14:03:34.287Z</time></trkpt><trkpt lat="43.8483863" lon="11.9765691"><ele>474.0</ele><time>2026-04-11T14:03:35.288Z</time></trkpt><trkpt lat="43.8486335" lon="11.9767916"><ele>475.0</ele><time>2026-04-11T14:03:36.286Z</time></trkpt><trkpt lat="43.848882" lon="11.9770106"><ele>476.0</ele><time>2026-04-11T14:03:37.286Z</time></trkpt><trkpt lat="43.8491257" lon="11.9772245"><ele>473.5</ele><time>2026-04-11T14:03:38.286Z</time></trkpt><trkpt lat="43.8493692" lon="11.9774366"><ele>471.0</ele><time>2026-04-11T14:03:39.286Z</time></trkpt><trkpt lat="43.849614" lon="11.9776463"><ele>478.0</ele><time>2026-04-11T14:03:40.286Z</time></trkpt><trkpt lat="43.8498578" lon="11.9778554"><ele>485.0</ele><time>2026-04-11T14:03:41.286Z</time></trkpt><trkpt lat="43.8501068" lon="11.9780534"><ele>486.0</ele><time>2026-04-11T14:03:42.287Z</time></trkpt><trkpt lat="43.8503622" lon="11.9782458"><ele>487.0</ele><time>2026-04-11T14:03:43.286Z</time></trkpt><trkpt lat="43.8506214" lon="11.9784277"><ele>487.0</ele><time>2026-04-11T14:03:44.286Z</time></trkpt><trkpt lat="43.8508849" lon="11.978601"><ele>487.0</ele><time>2026-04-11T14:03:45.287Z</time></trkpt><trkpt lat="43.8511543" lon="11.9787654"><ele>481.5</ele><time>2026-04-11T14:03:46.286Z</time></trkpt><trkpt lat="43.8514329" lon="11.9789204"><ele>476.0</ele><time>2026-04-11T14:03:47.288Z</time></trkpt><trkpt lat="43.8517179" lon="11.9790709"><ele>485.0</ele><time>2026-04-11T14:03:48.286Z</time></trkpt><trkpt lat="43.8520112" lon="11.9792076"><ele>494.0</ele><time>2026-04-11T14:03:49.287Z</time></trkpt><trkpt lat="43.8523086" lon="11.9793377"><ele>494.0</ele><time>2026-04-11T14:03:50.287Z</time></trkpt><trkpt lat="43.8526113" lon="11.9794628"><ele>494.0</ele><time>2026-04-11T14:03:51.287Z</time></trkpt><trkpt lat="43.8529177" lon="11.9795891"><ele>494.5</ele><time>2026-04-11T14:03:52.286Z</time></trkpt><trkpt lat="43.8532244" lon="11.9797137"><ele>495.0</ele><time>2026-04-11T14:03:53.286Z</time></trkpt><trkpt lat="43.8535317" lon="11.9798365"><ele>492.0</ele><time>2026-04-11T14:03:54.288Z</time></trkpt><trkpt lat="43.8538344" lon="11.9799531"><ele>489.0</ele><time>2026-04-11T14:03:55.287Z</time></trkpt><trkpt lat="43.8541377" lon="11.9800696"><ele>493.0</ele><time>2026-04-11T14:03:56.287Z</time></trkpt><trkpt lat="43.8544358" lon="11.9801841"><ele>497.0</ele><time>2026-04-11T14:03:57.287Z</time></trkpt><trkpt lat="43.8547285" lon="11.9802957"><ele>497.0</ele><time>2026-04-11T14:03:58.287Z</time></trkpt><trkpt lat="43.8550195" lon="11.9804112"><ele>497.0</ele><time>2026-04-11T14:03:59.288Z</time></trkpt><trkpt lat="43.8553072" lon="11.9805266"><ele>496.0</ele><time>2026-04-11T14:04:00.286Z</time></trkpt><trkpt lat="43.8555946" lon="11.9806428"><ele>495.0</ele><time>2026-04-11T14:04:01.287Z</time></trkpt><trkpt lat="43.8558835" lon="11.9807599"><ele>502.0</ele><time>2026-04-11T14:04:02.287Z</time></trkpt><trkpt lat="43.8561713" lon="11.980876"><ele>509.0</ele><time>2026-04-11T14:04:03.288Z</time></trkpt><trkpt lat="43.8564579" lon="11.9809937"><ele>509.0</ele><time>2026-04-11T14:04:04.286Z</time></trkpt><trkpt lat="43.8567461" lon="11.98111"><ele>509.0</ele><time>2026-04-11T14:04:05.286Z</time></trkpt><trkpt lat="43.8570337" lon="11.9812235"><ele>506.5</ele><time>2026-04-11T14:04:06.288Z</time></trkpt><trkpt lat="43.8573156" lon="11.9813348"><ele>504.0</ele><time>2026-04-11T14:04:07.287Z</time></trkpt><trkpt lat="43.8575983" lon="11.9814467"><ele>495.0</ele><time>2026-04-11T14:04:08.287Z</time></trkpt><trkpt lat="43.8578764" lon="11.9815552"><ele>486.0</ele><time>2026-04-11T14:04:09.287Z</time></trkpt><trkpt lat="43.8581534" lon="11.9816587"><ele>484.0</ele><time>2026-04-11T14:04:10.287Z</time></trkpt><trkpt lat="43.858426" lon="11.9817476"><ele>482.0</ele><time>2026-04-11T14:04:11.287Z</time></trkpt><trkpt lat="43.8587003" lon="11.9818129"><ele>482.0</ele><time>2026-04-11T14:04:12.287Z</time></trkpt><trkpt lat="43.8589715" lon="11.9818446"><ele>482.0</ele><time>2026-04-11T14:04:13.287Z</time></trkpt><trkpt lat="43.8592454" lon="11.9818554"><ele>477.0</ele><time>2026-04-11T14:04:14.286Z</time></trkpt><trkpt lat="43.8595213" lon="11.9818288"><ele>472.0</ele><time>2026-04-11T14:04:15.285Z</time></trkpt><trkpt lat="43.8597972" lon="11.9817732"><ele>472.0</ele><time>2026-04-11T14:04:16.287Z</time></trkpt><trkpt lat="43.8600733" lon="11.9816924"><ele>472.0</ele><time>2026-04-11T14:04:17.286Z</time></trkpt><trkpt lat="43.8603466" lon="11.981579"><ele>464.5</ele><time>2026-04-11T14:04:18.286Z</time></trkpt><trkpt lat="43.8606177" lon="11.9814379"><ele>457.0</ele><time>2026-04-11T14:04:19.287Z</time></trkpt><trkpt lat="43.8608806" lon="11.9812852"><ele>457.5</ele><time>2026-04-11T14:04:20.286Z</time></trkpt><trkpt lat="43.8611488" lon="11.981119"><ele>458.0</ele><time>2026-04-11T14:04:21.286Z</time></trkpt><trkpt lat="43.8614122" lon="11.9809531"><ele>457.0</ele><time>2026-04-11T14:04:22.287Z</time></trkpt><trkpt lat="43.8616703" lon="11.9807944"><ele>456.0</ele><time>2026-04-11T14:04:23.286Z</time></trkpt><trkpt lat="43.8619207" lon="11.9806388"><ele>454.5</ele><time>2026-04-11T14:04:24.286Z</time></trkpt><trkpt lat="43.8621833" lon="11.9805083"><ele>453.0</ele><time>2026-04-11T14:04:25.287Z</time></trkpt><trkpt lat="43.8624535" lon="11.9803992"><ele>454.0</ele><time>2026-04-11T14:04:26.285Z</time></trkpt><trkpt lat="43.8627335" lon="11.9803049"><ele>455.0</ele><time>2026-04-11T14:04:27.286Z</time></trkpt><trkpt lat="43.8630251" lon="11.9802228"><ele>455.0</ele><time>2026-04-11T14:04:28.288Z</time></trkpt><trkpt lat="43.8633211" lon="11.9801492"><ele>455.0</ele><time>2026-04-11T14:04:29.286Z</time></trkpt><trkpt lat="43.8636269" lon="11.9800812"><ele>455.5</ele><time>2026-04-11T14:04:30.287Z</time></trkpt><trkpt lat="43.8639329" lon="11.9800117"><ele>456.0</ele><time>2026-04-11T14:04:31.287Z</time></trkpt><trkpt lat="43.8642399" lon="11.9799418"><ele>454.0</ele><time>2026-04-11T14:04:32.287Z</time></trkpt><trkpt lat="43.8645442" lon="11.9798768"><ele>452.0</ele><time>2026-04-11T14:04:33.286Z</time></trkpt><trkpt lat="43.8648465" lon="11.9798086"><ele>453.0</ele><time>2026-04-11T14:04:34.286Z</time></trkpt><trkpt lat="43.8651451" lon="11.9797436"><ele>454.0</ele><time>2026-04-11T14:04:35.286Z</time></trkpt><trkpt lat="43.8654412" lon="11.9796815"><ele>454.0</ele><time>2026-04-11T14:04:36.287Z</time></trkpt><trkpt lat="43.8657355" lon="11.9796237"><ele>454.0</ele><time>2026-04-11T14:04:37.286Z</time></trkpt><trkpt lat="43.8660308" lon="11.9795805"><ele>454.0</ele><time>2026-04-11T14:04:38.286Z</time></trkpt><trkpt lat="43.8663217" lon="11.979549"><ele>454.0</ele><time>2026-04-11T14:04:39.286Z</time></trkpt><trkpt lat="43.8666081" lon="11.9795381"><ele>455.5</ele><time>2026-04-11T14:04:40.287Z</time></trkpt><trkpt lat="43.8668871" lon="11.9795596"><ele>457.0</ele><time>2026-04-11T14:04:41.288Z</time></trkpt><trkpt lat="43.8671678" lon="11.9796099"><ele>457.0</ele><time>2026-04-11T14:04:42.286Z</time></trkpt><trkpt lat="43.867448" lon="11.9796897"><ele>457.0</ele><time>2026-04-11T14:04:43.286Z</time></trkpt><trkpt lat="43.8677314" lon="11.9797885"><ele>458.0</ele><time>2026-04-11T14:04:44.287Z</time></trkpt><trkpt lat="43.868019" lon="11.9799012"><ele>459.0</ele><time>2026-04-11T14:04:45.287Z</time></trkpt><trkpt lat="43.8683082" lon="11.9800219"><ele>455.5</ele><time>2026-04-11T14:04:46.285Z</time></trkpt><trkpt lat="43.8685951" lon="11.9801451"><ele>452.0</ele><time>2026-04-11T14:04:47.287Z</time></trkpt><trkpt lat="43.8688767" lon="11.9802772"><ele>452.0</ele><time>2026-04-11T14:04:48.285Z</time></trkpt><trkpt lat="43.8691532" lon="11.980416"><ele>452.0</ele><time>2026-04-11T14:04:49.285Z</time></trkpt><trkpt lat="43.8694278" lon="11.9805784"><ele>453.0</ele><time>2026-04-11T14:04:50.285Z</time></trkpt><trkpt lat="43.8696902" lon="11.9807496"><ele>454.0</ele><time>2026-04-11T14:04:51.288Z</time></trkpt><trkpt lat="43.8699467" lon="11.9809365"><ele>455.0</ele><time>2026-04-11T14:04:52.286Z</time></trkpt><trkpt lat="43.8701971" lon="11.9811437"><ele>456.0</ele><time>2026-04-11T14:04:53.287Z</time></trkpt><trkpt lat="43.8704392" lon="11.9813573"><ele>456.0</ele><time>2026-04-11T14:04:54.287Z</time></trkpt><trkpt lat="43.8706719" lon="11.9815916"><ele>456.0</ele><time>2026-04-11T14:04:55.287Z</time></trkpt><trkpt lat="43.8708961" lon="11.9818367"><ele>455.5</ele><time>2026-04-11T14:04:56.287Z</time></trkpt><trkpt lat="43.8711047" lon="11.9820977"><ele>455.0</ele><time>2026-04-11T14:04:57.287Z</time></trkpt><trkpt lat="43.8713059" lon="11.9823775"><ele>451.0</ele><time>2026-04-11T14:04:58.286Z</time></trkpt><trkpt lat="43.8714924" lon="11.9826795"><ele>447.0</ele><time>2026-04-11T14:04:59.286Z</time></trkpt><trkpt lat="43.8716737" lon="11.982998"><ele>454.0</ele><time>2026-04-11T14:05:00.287Z</time></trkpt><trkpt lat="43.8718436" lon="11.983337"><ele>461.0</ele><time>2026-04-11T14:05:01.287Z</time></trkpt><trkpt lat="43.8720098" lon="11.9836927"><ele>461.0</ele><time>2026-04-11T14:05:02.285Z</time></trkpt><trkpt lat="43.8721713" lon="11.9840541"><ele>461.0</ele><time>2026-04-11T14:05:03.286Z</time></trkpt><trkpt lat="43.8723293" lon="11.9844185"><ele>457.0</ele><time>2026-04-11T14:05:04.286Z</time></trkpt><trkpt lat="43.8724907" lon="11.9847855"><ele>453.0</ele><time>2026-04-11T14:05:05.286Z</time></trkpt><trkpt lat="43.8726506" lon="11.985146"><ele>453.0</ele><time>2026-04-11T14:05:06.286Z</time></trkpt><trkpt lat="43.8728105" lon="11.9855063"><ele>453.0</ele><time>2026-04-11T14:05:07.287Z</time></trkpt><trkpt lat="43.8729736" lon="11.9858678"><ele>445.0</ele><time>2026-04-11T14:05:08.285Z</time></trkpt><trkpt lat="43.873138" lon="11.9862351"><ele>437.0</ele><time>2026-04-11T14:05:09.286Z</time></trkpt><trkpt lat="43.8733028" lon="11.986603"><ele>447.0</ele><time>2026-04-11T14:05:10.286Z</time></trkpt><trkpt lat="43.8734677" lon="11.9869654"><ele>457.0</ele><time>2026-04-11T14:05:11.287Z</time></trkpt><trkpt lat="43.8736275" lon="11.987334"><ele>453.0</ele><time>2026-04-11T14:05:12.285Z</time></trkpt><trkpt lat="43.8737852" lon="11.9876944"><ele>449.0</ele><time>2026-04-11T14:05:13.288Z</time></trkpt><trkpt lat="43.8739428" lon="11.9880552"><ele>442.5</ele><time>2026-04-11T14:05:14.287Z</time></trkpt><trkpt lat="43.874101" lon="11.9884117"><ele>436.0</ele><time>2026-04-11T14:05:15.287Z</time></trkpt><trkpt lat="43.8742558" lon="11.988772"><ele>439.5</ele><time>2026-04-11T14:05:16.286Z</time></trkpt><trkpt lat="43.8744137" lon="11.9891331"><ele>443.0</ele><time>2026-04-11T14:05:17.288Z</time></trkpt><trkpt lat="43.8745753" lon="11.9894896"><ele>443.0</ele><time>2026-04-11T14:05:18.287Z</time></trkpt><trkpt lat="43.8747387" lon="11.9898463"><ele>443.0</ele><time>2026-04-11T14:05:19.286Z</time></trkpt><trkpt lat="43.8749063" lon="11.9901975"><ele>435.5</ele><time>2026-04-11T14:05:20.287Z</time></trkpt><trkpt lat="43.8750814" lon="11.9905495"><ele>428.0</ele><time>2026-04-11T14:05:21.286Z</time></trkpt><trkpt lat="43.8752581" lon="11.9908994"><ele>428.0</ele><time>2026-04-11T14:05:22.286Z</time></trkpt><trkpt lat="43.8754364" lon="11.9912496"><ele>428.0</ele><time>2026-04-11T14:05:23.286Z</time></trkpt><trkpt lat="43.8756189" lon="11.9916002"><ele>433.5</ele><time>2026-04-11T14:05:24.287Z</time></trkpt><trkpt lat="43.8758054" lon="11.9919508"><ele>439.0</ele><time>2026-04-11T14:05:25.287Z</time></trkpt><trkpt lat="43.8759969" lon="11.992302"><ele>429.0</ele><time>2026-04-11T14:05:26.287Z</time></trkpt><trkpt lat="43.8761964" lon="11.992653"><ele>419.0</ele><time>2026-04-11T14:05:27.285Z</time></trkpt><trkpt lat="43.8763959" lon="11.9930012"><ele>423.5</ele><time>2026-04-11T14:05:28.287Z</time></trkpt><trkpt lat="43.8765993" lon="11.9933453"><ele>428.0</ele><time>2026-04-11T14:05:29.286Z</time></trkpt><trkpt lat="43.8768057" lon="11.9936895"><ele>428.0</ele><time>2026-04-11T14:05:30.287Z</time></trkpt><trkpt lat="43.8770124" lon="11.9940265"><ele>428.0</ele><time>2026-04-11T14:05:31.287Z</time></trkpt><trkpt lat="43.8772218" lon="11.9943524"><ele>429.5</ele><time>2026-04-11T14:05:32.286Z</time></trkpt><trkpt lat="43.8774314" lon="11.9946704"><ele>431.0</ele><time>2026-04-11T14:05:33.287Z</time></trkpt><trkpt lat="43.8776413" lon="11.994984"><ele>423.5</ele><time>2026-04-11T14:05:34.287Z</time></trkpt><trkpt lat="43.8778533" lon="11.9952954"><ele>416.0</ele><time>2026-04-11T14:05:35.286Z</time></trkpt><trkpt lat="43.8780642" lon="11.9956083"><ele>414.5</ele><time>2026-04-11T14:05:36.287Z</time></trkpt><trkpt lat="43.8782789" lon="11.9959186"><ele>413.0</ele><time>2026-04-11T14:05:37.287Z</time></trkpt><trkpt lat="43.8784975" lon="11.9962232"><ele>413.0</ele><time>2026-04-11T14:05:38.286Z</time></trkpt><trkpt lat="43.878721" lon="11.9965258"><ele>413.0</ele><time>2026-04-11T14:05:39.286Z</time></trkpt><trkpt lat="43.8789508" lon="11.9968234"><ele>408.0</ele><time>2026-04-11T14:05:40.286Z</time></trkpt><trkpt lat="43.8791837" lon="11.9971144"><ele>403.0</ele><time>2026-04-11T14:05:41.286Z</time></trkpt><trkpt lat="43.879418" lon="11.9974067"><ele>398.0</ele><time>2026-04-11T14:05:42.285Z</time></trkpt><trkpt lat="43.8796529" lon="11.9977013"><ele>393.0</ele><time>2026-04-11T14:05:43.286Z</time></trkpt><trkpt lat="43.8798874" lon="11.997999"><ele>391.0</ele><time>2026-04-11T14:05:44.288Z</time></trkpt><trkpt lat="43.8801178" lon="11.9982961"><ele>389.0</ele><time>2026-04-11T14:05:45.287Z</time></trkpt><trkpt lat="43.8803426" lon="11.9985966"><ele>386.5</ele><time>2026-04-11T14:05:46.287Z</time></trkpt><trkpt lat="43.8805583" lon="11.9989066"><ele>384.0</ele><time>2026-04-11T14:05:47.285Z</time></trkpt><trkpt lat="43.8807606" lon="11.999229"><ele>386.5</ele><time>2026-04-11T14:05:48.285Z</time></trkpt><trkpt lat="43.8809436" lon="11.9995633"><ele>389.0</ele><time>2026-04-11T14:05:49.286Z</time></trkpt><trkpt lat="43.8811086" lon="11.9999152"><ele>389.0</ele><time>2026-04-11T14:05:50.287Z</time></trkpt><trkpt lat="43.8812547" lon="12.0002919"><ele>389.0</ele><time>2026-04-11T14:05:51.286Z</time></trkpt><trkpt lat="43.8813816" lon="12.0006788"><ele>384.5</ele><time>2026-04-11T14:05:52.287Z</time></trkpt><trkpt lat="43.8814888" lon="12.0010808"><ele>380.0</ele><time>2026-04-11T14:05:53.287Z</time></trkpt><trkpt lat="43.8815794" lon="12.0014864"><ele>378.0</ele><time>2026-04-11T14:05:54.287Z</time></trkpt><trkpt lat="43.8816409" lon="12.0019039"><ele>376.0</ele><time>2026-04-11T14:05:55.286Z</time></trkpt><trkpt lat="43.8816929" lon="12.0023366"><ele>375.0</ele><time>2026-04-11T14:05:56.286Z</time></trkpt><trkpt lat="43.8817257" lon="12.0027818"><ele>374.0</ele><time>2026-04-11T14:05:57.286Z</time></trkpt><trkpt lat="43.8817407" lon="12.0032399"><ele>374.0</ele><time>2026-04-11T14:05:58.287Z</time></trkpt><trkpt lat="43.8817527" lon="12.0037077"><ele>374.0</ele><time>2026-04-11T14:05:59.287Z</time></trkpt><trkpt lat="43.881766" lon="12.0041732"><ele>377.5</ele><time>2026-04-11T14:06:00.286Z</time></trkpt><trkpt lat="43.8817791" lon="12.0046329"><ele>381.0</ele><time>2026-04-11T14:06:01.286Z</time></trkpt><trkpt lat="43.8817923" lon="12.0050904"><ele>380.5</ele><time>2026-04-11T14:06:02.285Z</time></trkpt><trkpt lat="43.8818018" lon="12.0055457"><ele>380.0</ele><time>2026-04-11T14:06:03.286Z</time></trkpt><trkpt lat="43.8818133" lon="12.0060031"><ele>380.0</ele><time>2026-04-11T14:06:04.285Z</time></trkpt><trkpt lat="43.8818252" lon="12.0064579"><ele>380.0</ele><time>2026-04-11T14:06:05.286Z</time></trkpt><trkpt lat="43.8818343" lon="12.006913"><ele>379.0</ele><time>2026-04-11T14:06:06.288Z</time></trkpt><trkpt lat="43.8818421" lon="12.0073667"><ele>378.0</ele><time>2026-04-11T14:06:07.286Z</time></trkpt><trkpt lat="43.8818537" lon="12.0078163"><ele>376.0</ele><time>2026-04-11T14:06:08.287Z</time></trkpt><trkpt lat="43.8818644" lon="12.0082643"><ele>374.0</ele><time>2026-04-11T14:06:09.286Z</time></trkpt><trkpt lat="43.8818751" lon="12.0087063"><ele>371.0</ele><time>2026-04-11T14:06:10.286Z</time></trkpt><trkpt lat="43.8818857" lon="12.0091461"><ele>368.0</ele><time>2026-04-11T14:06:11.286Z</time></trkpt><trkpt lat="43.8818965" lon="12.0095902"><ele>366.0</ele><time>2026-04-11T14:06:12.286Z</time></trkpt><trkpt lat="43.881907" lon="12.0100372"><ele>364.0</ele><time>2026-04-11T14:06:13.286Z</time></trkpt><trkpt lat="43.8819175" lon="12.0104894"><ele>363.5</ele><time>2026-04-11T14:06:14.286Z</time></trkpt><trkpt lat="43.8819326" lon="12.0109372"><ele>363.0</ele><time>2026-04-11T14:06:15.286Z</time></trkpt><trkpt lat="43.8819432" lon="12.0113844"><ele>363.0</ele><time>2026-04-11T14:06:16.286Z</time></trkpt><trkpt lat="43.8819545" lon="12.011826"><ele>363.0</ele><time>2026-04-11T14:06:17.286Z</time></trkpt><trkpt lat="43.8819698" lon="12.0122611"><ele>364.5</ele><time>2026-04-11T14:06:18.287Z</time></trkpt><trkpt lat="43.8819818" lon="12.0126953"><ele>366.0</ele><time>2026-04-11T14:06:19.286Z</time></trkpt><trkpt lat="43.8819941" lon="12.0131234"><ele>366.5</ele><time>2026-04-11T14:06:20.288Z</time></trkpt><trkpt lat="43.8820041" lon="12.013544"><ele>367.0</ele><time>2026-04-11T14:06:21.286Z</time></trkpt><trkpt lat="43.8820138" lon="12.0139527"><ele>367.0</ele><time>2026-04-11T14:06:22.286Z</time></trkpt><trkpt lat="43.8820221" lon="12.0143521"><ele>367.0</ele><time>2026-04-11T14:06:23.287Z</time></trkpt><trkpt lat="43.8820298" lon="12.0147441"><ele>364.0</ele><time>2026-04-11T14:06:24.288Z</time></trkpt><trkpt lat="43.8820391" lon="12.0151275"><ele>361.0</ele><time>2026-04-11T14:06:25.285Z</time></trkpt><trkpt lat="43.882052" lon="12.0155061"><ele>358.5</ele><time>2026-04-11T14:06:26.285Z</time></trkpt><trkpt lat="43.8820719" lon="12.0158847"><ele>356.0</ele><time>2026-04-11T14:06:27.286Z</time></trkpt><trkpt lat="43.8821045" lon="12.0162511"><ele>356.0</ele><time>2026-04-11T14:06:28.286Z</time></trkpt><trkpt lat="43.8821485" lon="12.0166118"><ele>356.0</ele><time>2026-04-11T14:06:29.287Z</time></trkpt><trkpt lat="43.8822096" lon="12.0169671"><ele>356.5</ele><time>2026-04-11T14:06:30.286Z</time></trkpt><trkpt lat="43.8822885" lon="12.0173131"><ele>357.0</ele><time>2026-04-11T14:06:31.286Z</time></trkpt><trkpt lat="43.8823829" lon="12.0176555"><ele>358.0</ele><time>2026-04-11T14:06:32.286Z</time></trkpt><trkpt lat="43.8824894" lon="12.0179891"><ele>359.0</ele><time>2026-04-11T14:06:33.287Z</time></trkpt><trkpt lat="43.8826148" lon="12.0183154"><ele>358.5</ele><time>2026-04-11T14:06:34.286Z</time></trkpt><trkpt lat="43.8827546" lon="12.0186296"><ele>358.0</ele><time>2026-04-11T14:06:35.286Z</time></trkpt><trkpt lat="43.8829036" lon="12.0189317"><ele>358.5</ele><time>2026-04-11T14:06:36.285Z</time></trkpt><trkpt lat="43.8830674" lon="12.0192178"><ele>359.0</ele><time>2026-04-11T14:06:37.285Z</time></trkpt><trkpt lat="43.8832459" lon="12.0194908"><ele>364.0</ele><time>2026-04-11T14:06:38.287Z</time></trkpt><trkpt lat="43.8834372" lon="12.0197417"><ele>369.0</ele><time>2026-04-11T14:06:39.286Z</time></trkpt><trkpt lat="43.8836399" lon="12.0199759"><ele>364.5</ele><time>2026-04-11T14:06:40.286Z</time></trkpt><trkpt lat="43.883851" lon="12.020189"><ele>360.0</ele><time>2026-04-11T14:06:41.285Z</time></trkpt><trkpt lat="43.8840651" lon="12.0203992"><ele>365.5</ele><time>2026-04-11T14:06:42.287Z</time></trkpt><trkpt lat="43.8842807" lon="12.0206051"><ele>371.0</ele><time>2026-04-11T14:06:43.286Z</time></trkpt><trkpt lat="43.8844932" lon="12.0208113"><ele>364.0</ele><time>2026-04-11T14:06:44.286Z</time></trkpt><trkpt lat="43.8847055" lon="12.0210222"><ele>357.0</ele><time>2026-04-11T14:06:45.286Z</time></trkpt><trkpt lat="43.8849187" lon="12.0212468"><ele>358.0</ele><time>2026-04-11T14:06:46.286Z</time></trkpt><trkpt lat="43.8851211" lon="12.0214833"><ele>359.0</ele><time>2026-04-11T14:06:47.287Z</time></trkpt><trkpt lat="43.8853112" lon="12.0217364"><ele>354.5</ele><time>2026-04-11T14:06:48.286Z</time></trkpt><trkpt lat="43.885494" lon="12.0220101"><ele>350.0</ele><time>2026-04-11T14:06:49.287Z</time></trkpt><trkpt lat="43.8856668" lon="12.0222929"><ele>349.5</ele><time>2026-04-11T14:06:50.286Z</time></trkpt><trkpt lat="43.8858295" lon="12.0225864"><ele>349.0</ele><time>2026-04-11T14:06:51.286Z</time></trkpt><trkpt lat="43.8859745" lon="12.0228934"><ele>351.5</ele><time>2026-04-11T14:06:52.286Z</time></trkpt><trkpt lat="43.8861073" lon="12.0232128"><ele>354.0</ele><time>2026-04-11T14:06:53.286Z</time></trkpt><trkpt lat="43.8862266" lon="12.0235425"><ele>354.0</ele><time>2026-04-11T14:06:54.285Z</time></trkpt><trkpt lat="43.8863293" lon="12.0238725"><ele>354.0</ele><time>2026-04-11T14:06:55.285Z</time></trkpt><trkpt lat="43.88641" lon="12.0242077"><ele>352.5</ele><time>2026-04-11T14:06:56.286Z</time></trkpt><trkpt lat="43.8864816" lon="12.024554"><ele>351.0</ele><time>2026-04-11T14:06:57.286Z</time></trkpt><trkpt lat="43.8865391" lon="12.0249073"><ele>349.0</ele><time>2026-04-11T14:06:58.287Z</time></trkpt><trkpt lat="43.8865805" lon="12.025263"><ele>347.0</ele><time>2026-04-11T14:06:59.288Z</time></trkpt><trkpt lat="43.8866167" lon="12.0256276"><ele>347.5</ele><time>2026-04-11T14:07:00.286Z</time></trkpt><trkpt lat="43.8866477" lon="12.0259939"><ele>348.0</ele><time>2026-04-11T14:07:01.286Z</time></trkpt><trkpt lat="43.8866756" lon="12.0263559"><ele>345.5</ele><time>2026-04-11T14:07:02.286Z</time></trkpt><trkpt lat="43.8867057" lon="12.0267232"><ele>343.0</ele><time>2026-04-11T14:07:03.286Z</time></trkpt><trkpt lat="43.8867329" lon="12.02709"><ele>357.5</ele><time>2026-04-11T14:07:04.287Z</time></trkpt><trkpt lat="43.8867616" lon="12.0274472"><ele>372.0</ele><time>2026-04-11T14:07:05.287Z</time></trkpt><trkpt lat="43.8867954" lon="12.0278021"><ele>377.5</ele><time>2026-04-11T14:07:06.285Z</time></trkpt><trkpt lat="43.8868385" lon="12.0281558"><ele>383.0</ele><time>2026-04-11T14:07:07.286Z</time></trkpt><trkpt lat="43.886885" lon="12.0285085"><ele>383.0</ele><time>2026-04-11T14:07:08.287Z</time></trkpt><trkpt lat="43.8869568" lon="12.028853"><ele>383.0</ele><time>2026-04-11T14:07:09.287Z</time></trkpt><trkpt lat="43.8870342" lon="12.029203"><ele>378.0</ele><time>2026-04-11T14:07:10.287Z</time></trkpt><trkpt lat="43.8871219" lon="12.0295499"><ele>373.0</ele><time>2026-04-11T14:07:11.287Z</time></trkpt><trkpt lat="43.8872162" lon="12.0298924"><ele>366.5</ele><time>2026-04-11T14:07:12.287Z</time></trkpt><trkpt lat="43.8873129" lon="12.030241"><ele>360.0</ele><time>2026-04-11T14:07:13.286Z</time></trkpt><trkpt lat="43.8874116" lon="12.0305889"><ele>365.5</ele><time>2026-04-11T14:07:14.287Z</time></trkpt><trkpt lat="43.8875182" lon="12.0309346"><ele>371.0</ele><time>2026-04-11T14:07:15.286Z</time></trkpt><trkpt lat="43.8876242" lon="12.0312867"><ele>365.5</ele><time>2026-04-11T14:07:16.288Z</time></trkpt><trkpt lat="43.8877277" lon="12.0316492"><ele>360.0</ele><time>2026-04-11T14:07:17.286Z</time></trkpt><trkpt lat="43.8878392" lon="12.0320226"><ele>360.0</ele><time>2026-04-11T14:07:18.287Z</time></trkpt><trkpt lat="43.8879588" lon="12.0324106"><ele>360.0</ele><time>2026-04-11T14:07:19.286Z</time></trkpt><trkpt lat="43.8880819" lon="12.0328083"><ele>356.0</ele><time>2026-04-11T14:07:20.286Z</time></trkpt><trkpt lat="43.8882034" lon="12.0332172"><ele>352.0</ele><time>2026-04-11T14:07:21.287Z</time></trkpt><trkpt lat="43.8883292" lon="12.0336403"><ele>349.5</ele><time>2026-04-11T14:07:22.285Z</time></trkpt><trkpt lat="43.8884568" lon="12.0340738"><ele>347.0</ele><time>2026-04-11T14:07:23.287Z</time></trkpt><trkpt lat="43.8885852" lon="12.0345225"><ele>348.5</ele><time>2026-04-11T14:07:24.287Z</time></trkpt><trkpt lat="43.8887182" lon="12.0349852"><ele>350.0</ele><time>2026-04-11T14:07:25.287Z</time></trkpt><trkpt lat="43.8888543" lon="12.0354536"><ele>347.0</ele><time>2026-04-11T14:07:26.286Z</time></trkpt><trkpt lat="43.8889929" lon="12.0359275"><ele>344.0</ele><time>2026-04-11T14:07:27.286Z</time></trkpt><trkpt lat="43.8891359" lon="12.0364065"><ele>350.5</ele><time>2026-04-11T14:07:28.287Z</time></trkpt><trkpt lat="43.8892756" lon="12.0368822"><ele>357.0</ele><time>2026-04-11T14:07:29.286Z</time></trkpt><trkpt lat="43.889415" lon="12.0373618"><ele>352.0</ele><time>2026-04-11T14:07:30.285Z</time></trkpt><trkpt lat="43.8895539" lon="12.0378455"><ele>347.0</ele><time>2026-04-11T14:07:31.286Z</time></trkpt><trkpt lat="43.8896926" lon="12.0383343"><ele>344.0</ele><time>2026-04-11T14:07:32.286Z</time></trkpt><trkpt lat="43.8898307" lon="12.0388225"><ele>341.0</ele><time>2026-04-11T14:07:33.287Z</time></trkpt><trkpt lat="43.8899682" lon="12.039309"><ele>345.0</ele><time>2026-04-11T14:07:34.287Z</time></trkpt><trkpt lat="43.8901055" lon="12.0397884"><ele>349.0</ele><time>2026-04-11T14:07:35.288Z</time></trkpt><trkpt lat="43.8902391" lon="12.0402684"><ele>349.0</ele><time>2026-04-11T14:07:36.285Z</time></trkpt><trkpt lat="43.890368" lon="12.0407235"><ele>349.0</ele><time>2026-04-11T14:07:37.287Z</time></trkpt><trkpt lat="43.8904875" lon="12.0411559"><ele>341.0</ele><time>2026-04-11T14:07:38.286Z</time></trkpt><trkpt lat="43.8906035" lon="12.0415785"><ele>333.0</ele><time>2026-04-11T14:07:39.286Z</time></trkpt><trkpt lat="43.890713" lon="12.0419893"><ele>332.5</ele><time>2026-04-11T14:07:40.286Z</time></trkpt><trkpt lat="43.8908181" lon="12.042393"><ele>332.0</ele><time>2026-04-11T14:07:41.286Z</time></trkpt><trkpt lat="43.8909147" lon="12.0427971"><ele>339.0</ele><time>2026-04-11T14:07:42.288Z</time></trkpt><trkpt lat="43.8909976" lon="12.0432104"><ele>346.0</ele><time>2026-04-11T14:07:43.286Z</time></trkpt><trkpt lat="43.891071" lon="12.0436254"><ele>346.0</ele><time>2026-04-11T14:07:44.287Z</time></trkpt><trkpt lat="43.8911314" lon="12.0440446"><ele>346.0</ele><time>2026-04-11T14:07:45.288Z</time></trkpt><trkpt lat="43.8911791" lon="12.0444651"><ele>338.0</ele><time>2026-04-11T14:07:46.287Z</time></trkpt><trkpt lat="43.8912086" lon="12.0448778"><ele>330.0</ele><time>2026-04-11T14:07:47.286Z</time></trkpt><trkpt lat="43.8912206" lon="12.04529"><ele>330.0</ele><time>2026-04-11T14:07:48.288Z</time></trkpt><trkpt lat="43.8912161" lon="12.0456945"><ele>330.0</ele><time>2026-04-11T14:07:49.286Z</time></trkpt><trkpt lat="43.8911915" lon="12.0461069"><ele>328.0</ele><time>2026-04-11T14:07:50.287Z</time></trkpt><trkpt lat="43.8911576" lon="12.0465216"><ele>326.0</ele><time>2026-04-11T14:07:51.286Z</time></trkpt><trkpt lat="43.8911073" lon="12.0469295"><ele>325.0</ele><time>2026-04-11T14:07:52.286Z</time></trkpt><trkpt lat="43.8910416" lon="12.0473411"><ele>324.0</ele><time>2026-04-11T14:07:53.286Z</time></trkpt><trkpt lat="43.8909662" lon="12.0477456"><ele>324.5</ele><time>2026-04-11T14:07:54.285Z</time></trkpt><trkpt lat="43.8908777" lon="12.0481406"><ele>325.0</ele><time>2026-04-11T14:07:55.287Z</time></trkpt><trkpt lat="43.8907768" lon="12.0485269"><ele>326.5</ele><time>2026-04-11T14:07:56.286Z</time></trkpt><trkpt lat="43.8906615" lon="12.0489086"><ele>328.0</ele><time>2026-04-11T14:07:57.286Z</time></trkpt><trkpt lat="43.890545" lon="12.0492875"><ele>331.0</ele><time>2026-04-11T14:07:58.287Z</time></trkpt><trkpt lat="43.8904289" lon="12.049667"><ele>334.0</ele><time>2026-04-11T14:07:59.286Z</time></trkpt><trkpt lat="43.8903067" lon="12.0500449"><ele>333.0</ele><time>2026-04-11T14:08:00.287Z</time></trkpt><trkpt lat="43.8901884" lon="12.0504286"><ele>332.0</ele><time>2026-04-11T14:08:01.285Z</time></trkpt><trkpt lat="43.8900664" lon="12.0508039"><ele>332.0</ele><time>2026-04-11T14:08:02.287Z</time></trkpt><trkpt lat="43.8899443" lon="12.0511694"><ele>332.0</ele><time>2026-04-11T14:08:03.287Z</time></trkpt><trkpt lat="43.8898307" lon="12.051545"><ele>330.5</ele><time>2026-04-11T14:08:04.286Z</time></trkpt><trkpt lat="43.8897227" lon="12.0519184"><ele>329.0</ele><time>2026-04-11T14:08:05.286Z</time></trkpt><trkpt lat="43.8896203" lon="12.052298"><ele>329.0</ele><time>2026-04-11T14:08:06.286Z</time></trkpt><trkpt lat="43.8895266" lon="12.0526842"><ele>329.0</ele><time>2026-04-11T14:08:07.286Z</time></trkpt><trkpt lat="43.8894388" lon="12.0530653"><ele>332.0</ele><time>2026-04-11T14:08:08.285Z</time></trkpt><trkpt lat="43.8893605" lon="12.0534552"><ele>335.0</ele><time>2026-04-11T14:08:09.287Z</time></trkpt><trkpt lat="43.8892883" lon="12.0538465"><ele>329.5</ele><time>2026-04-11T14:08:10.286Z</time></trkpt><trkpt lat="43.8892226" lon="12.0542439"><ele>324.0</ele><time>2026-04-11T14:08:11.285Z</time></trkpt><trkpt lat="43.8891703" lon="12.0546514"><ele>325.0</ele><time>2026-04-11T14:08:12.287Z</time></trkpt><trkpt lat="43.8891277" lon="12.0550653"><ele>326.0</ele><time>2026-04-11T14:08:13.285Z</time></trkpt><trkpt lat="43.8890988" lon="12.0554971"><ele>324.0</ele><time>2026-04-11T14:08:14.288Z</time></trkpt><trkpt lat="43.8890674" lon="12.0559321"><ele>322.0</ele><time>2026-04-11T14:08:15.285Z</time></trkpt><trkpt lat="43.8890381" lon="12.0563792"><ele>322.5</ele><time>2026-04-11T14:08:16.286Z</time></trkpt><trkpt lat="43.8890052" lon="12.0568323"><ele>323.0</ele><time>2026-04-11T14:08:17.286Z</time></trkpt><trkpt lat="43.8889808" lon="12.0572882"><ele>323.0</ele><time>2026-04-11T14:08:18.287Z</time></trkpt><trkpt lat="43.8889495" lon="12.0577477"><ele>323.0</ele><time>2026-04-11T14:08:19.286Z</time></trkpt><trkpt lat="43.8889159" lon="12.0582103"><ele>322.0</ele><time>2026-04-11T14:08:20.288Z</time></trkpt><trkpt lat="43.8888835" lon="12.0586819"><ele>321.0</ele><time>2026-04-11T14:08:21.286Z</time></trkpt><trkpt lat="43.8888564" lon="12.0591549"><ele>321.0</ele><time>2026-04-11T14:08:22.286Z</time></trkpt><trkpt lat="43.8888187" lon="12.0596341"><ele>321.0</ele><time>2026-04-11T14:08:23.288Z</time></trkpt><trkpt lat="43.8887777" lon="12.0601117"><ele>321.5</ele><time>2026-04-11T14:08:24.286Z</time></trkpt><trkpt lat="43.8887379" lon="12.06057"><ele>322.0</ele><time>2026-04-11T14:08:25.286Z</time></trkpt><trkpt lat="43.8887011" lon="12.0610222"><ele>323.5</ele><time>2026-04-11T14:08:26.286Z</time></trkpt><trkpt lat="43.8886697" lon="12.0614663"><ele>325.0</ele><time>2026-04-11T14:08:27.286Z</time></trkpt><trkpt lat="43.8886394" lon="12.0619062"><ele>328.5</ele><time>2026-04-11T14:08:28.286Z</time></trkpt><trkpt lat="43.8886145" lon="12.0623425"><ele>332.0</ele><time>2026-04-11T14:08:29.286Z</time></trkpt><trkpt lat="43.8885869" lon="12.0627743"><ele>334.5</ele><time>2026-04-11T14:08:30.286Z</time></trkpt><trkpt lat="43.8885605" lon="12.0632087"><ele>337.0</ele><time>2026-04-11T14:08:31.287Z</time></trkpt><trkpt lat="43.8885316" lon="12.0636343"><ele>336.5</ele><time>2026-04-11T14:08:32.285Z</time></trkpt><trkpt lat="43.8885061" lon="12.0640585"><ele>336.0</ele><time>2026-04-11T14:08:33.286Z</time></trkpt><trkpt lat="43.8884831" lon="12.0644861"><ele>336.0</ele><time>2026-04-11T14:08:34.288Z</time></trkpt><trkpt lat="43.8884634" lon="12.0649092"><ele>336.0</ele><time>2026-04-11T14:08:35.286Z</time></trkpt><trkpt lat="43.8884539" lon="12.0653287"><ele>337.0</ele><time>2026-04-11T14:08:36.286Z</time></trkpt><trkpt lat="43.8884409" lon="12.0657522"><ele>338.0</ele><time>2026-04-11T14:08:37.286Z</time></trkpt><trkpt lat="43.8884392" lon="12.0661759"><ele>338.5</ele><time>2026-04-11T14:08:38.286Z</time></trkpt><trkpt lat="43.8884424" lon="12.0665995"><ele>339.0</ele><time>2026-04-11T14:08:39.285Z</time></trkpt><trkpt lat="43.8884543" lon="12.0670278"><ele>338.0</ele><time>2026-04-11T14:08:40.285Z</time></trkpt><trkpt lat="43.8884684" lon="12.0674546"><ele>337.0</ele><time>2026-04-11T14:08:41.287Z</time></trkpt><trkpt lat="43.8884937" lon="12.0678804"><ele>334.0</ele><time>2026-04-11T14:08:42.286Z</time></trkpt><trkpt lat="43.888528" lon="12.0683088"><ele>331.0</ele><time>2026-04-11T14:08:43.287Z</time></trkpt><trkpt lat="43.8885682" lon="12.0687321"><ele>332.0</ele><time>2026-04-11T14:08:44.286Z</time></trkpt><trkpt lat="43.8886137" lon="12.069155"><ele>333.0</ele><time>2026-04-11T14:08:45.286Z</time></trkpt><trkpt lat="43.8886679" lon="12.0695807"><ele>330.0</ele><time>2026-04-11T14:08:46.287Z</time></trkpt><trkpt lat="43.8887232" lon="12.0699967"><ele>327.0</ele><time>2026-04-11T14:08:47.286Z</time></trkpt><trkpt lat="43.8887872" lon="12.0704054"><ele>324.0</ele><time>2026-04-11T14:08:48.285Z</time></trkpt><trkpt lat="43.8888622" lon="12.0708187"><ele>321.0</ele><time>2026-04-11T14:08:49.286Z</time></trkpt><trkpt lat="43.8889407" lon="12.0712308"><ele>320.0</ele><time>2026-04-11T14:08:50.286Z</time></trkpt><trkpt lat="43.889015" lon="12.0716372"><ele>319.0</ele><time>2026-04-11T14:08:51.285Z</time></trkpt><trkpt lat="43.8890991" lon="12.0720309"><ele>319.0</ele><time>2026-04-11T14:08:52.287Z</time></trkpt><trkpt lat="43.889191" lon="12.0724209"><ele>319.0</ele><time>2026-04-11T14:08:53.287Z</time></trkpt><trkpt lat="43.8892962" lon="12.0727897"><ele>321.5</ele><time>2026-04-11T14:08:54.287Z</time></trkpt><trkpt lat="43.8894136" lon="12.0731451"><ele>324.0</ele><time>2026-04-11T14:08:55.286Z</time></trkpt><trkpt lat="43.8895486" lon="12.0734843"><ele>324.0</ele><time>2026-04-11T14:08:56.286Z</time></trkpt><trkpt lat="43.8896977" lon="12.0738037"><ele>324.0</ele><time>2026-04-11T14:08:57.287Z</time></trkpt><trkpt lat="43.8898631" lon="12.0741056"><ele>325.5</ele><time>2026-04-11T14:08:58.286Z</time></trkpt><trkpt lat="43.890037" lon="12.074388"><ele>327.0</ele><time>2026-04-11T14:08:59.286Z</time></trkpt><trkpt lat="43.8902208" lon="12.0746532"><ele>331.5</ele><time>2026-04-11T14:09:00.287Z</time></trkpt><trkpt lat="43.8904164" lon="12.0749103"><ele>336.0</ele><time>2026-04-11T14:09:01.286Z</time></trkpt><trkpt lat="43.8906246" lon="12.0751582"><ele>336.0</ele><time>2026-04-11T14:09:02.286Z</time></trkpt><trkpt lat="43.89084" lon="12.0753951"><ele>336.0</ele><time>2026-04-11T14:09:03.287Z</time></trkpt><trkpt lat="43.8910605" lon="12.075627"><ele>352.5</ele><time>2026-04-11T14:09:04.286Z</time></trkpt><trkpt lat="43.8912842" lon="12.0758525"><ele>369.0</ele><time>2026-04-11T14:09:05.287Z</time></trkpt><trkpt lat="43.9002732" lon="12.1022749"><ele>333.0</ele><time>2026-04-11T14:10:29.286Z</time></trkpt><trkpt lat="43.9003404" lon="12.1027101"><ele>297.0</ele><time>2026-04-11T14:10:30.286Z</time></trkpt><trkpt lat="43.9004067" lon="12.1031381"><ele>300.5</ele><time>2026-04-11T14:10:31.286Z</time></trkpt><trkpt lat="43.9004712" lon="12.1035668"><ele>304.0</ele><time>2026-04-11T14:10:32.286Z</time></trkpt><trkpt lat="43.9005387" lon="12.1039877"><ele>301.0</ele><time>2026-04-11T14:10:33.286Z</time></trkpt><trkpt lat="43.9006043" lon="12.1043982"><ele>298.0</ele><time>2026-04-11T14:10:34.286Z</time></trkpt><trkpt lat="43.9006656" lon="12.1048097"><ele>292.0</ele><time>2026-04-11T14:10:35.286Z</time></trkpt><trkpt lat="43.90073" lon="12.1052093"><ele>286.0</ele><time>2026-04-11T14:10:36.286Z</time></trkpt><trkpt lat="43.9007946" lon="12.1056042"><ele>293.5</ele><time>2026-04-11T14:10:37.286Z</time></trkpt><trkpt lat="43.9008575" lon="12.1059939"><ele>301.0</ele><time>2026-04-11T14:10:38.285Z</time></trkpt><trkpt lat="43.900932" lon="12.1063822"><ele>299.0</ele><time>2026-04-11T14:10:39.285Z</time></trkpt><trkpt lat="43.9010213" lon="12.1067687"><ele>297.0</ele><time>2026-04-11T14:10:40.286Z</time></trkpt><trkpt lat="43.9011242" lon="12.1071503"><ele>290.5</ele><time>2026-04-11T14:10:41.286Z</time></trkpt><trkpt lat="43.9012412" lon="12.107525"><ele>284.0</ele><time>2026-04-11T14:10:42.286Z</time></trkpt><trkpt lat="43.9013655" lon="12.1078943"><ele>273.5</ele><time>2026-04-11T14:10:43.286Z</time></trkpt><trkpt lat="43.9015029" lon="12.1082618"><ele>263.0</ele><time>2026-04-11T14:10:44.285Z</time></trkpt><trkpt lat="43.9016483" lon="12.1086167"><ele>264.0</ele><time>2026-04-11T14:10:45.286Z</time></trkpt><trkpt lat="43.9018088" lon="12.1089696"><ele>265.0</ele><time>2026-04-11T14:10:46.286Z</time></trkpt><trkpt lat="43.901982" lon="12.1093101"><ele>272.5</ele><time>2026-04-11T14:10:47.286Z</time></trkpt><trkpt lat="43.9021691" lon="12.1096359"><ele>280.0</ele><time>2026-04-11T14:10:48.286Z</time></trkpt><trkpt lat="43.9023578" lon="12.1099498"><ele>283.0</ele><time>2026-04-11T14:10:49.286Z</time></trkpt><trkpt lat="43.9025531" lon="12.1102579"><ele>286.0</ele><time>2026-04-11T14:10:50.286Z</time></trkpt><trkpt lat="43.9027547" lon="12.1105563"><ele>275.0</ele><time>2026-04-11T14:10:51.286Z</time></trkpt><trkpt lat="43.904891" lon="12.1128072"><ele>269.0</ele><time>2026-04-11T14:10:59.287Z</time></trkpt><trkpt lat="43.9051638" lon="12.1131663"><ele>263.0</ele><time>2026-04-11T14:11:00.285Z</time></trkpt><trkpt lat="43.905419" lon="12.1134317"><ele>263.0</ele><time>2026-04-11T14:11:01.286Z</time></trkpt><trkpt lat="43.905676" lon="12.1137007"><ele>263.0</ele><time>2026-04-11T14:11:02.286Z</time></trkpt><trkpt lat="43.9059171" lon="12.1139682"><ele>261.0</ele><time>2026-04-11T14:11:03.287Z</time></trkpt><trkpt lat="43.9061489" lon="12.1142498"><ele>259.0</ele><time>2026-04-11T14:11:04.285Z</time></trkpt><trkpt lat="43.9063642" lon="12.1145476"><ele>259.0</ele><time>2026-04-11T14:11:05.285Z</time></trkpt><trkpt lat="43.9065727" lon="12.1148605"><ele>259.0</ele><time>2026-04-11T14:11:06.286Z</time></trkpt><trkpt lat="43.9067717" lon="12.1151934"><ele>259.0</ele><time>2026-04-11T14:11:07.285Z</time></trkpt><trkpt lat="43.9069627" lon="12.1155396"><ele>259.0</ele><time>2026-04-11T14:11:08.287Z</time></trkpt><trkpt lat="43.907145" lon="12.1158973"><ele>259.0</ele><time>2026-04-11T14:11:09.286Z</time></trkpt><trkpt lat="43.9073182" lon="12.1162554"><ele>259.0</ele><time>2026-04-11T14:11:10.286Z</time></trkpt><trkpt lat="43.9074913" lon="12.1166115"><ele>258.0</ele><time>2026-04-11T14:11:11.286Z</time></trkpt><trkpt lat="43.9076626" lon="12.1169618"><ele>257.0</ele><time>2026-04-11T14:11:12.286Z</time></trkpt><trkpt lat="43.9078282" lon="12.117308"><ele>253.0</ele><time>2026-04-11T14:11:13.286Z</time></trkpt><trkpt lat="43.9079945" lon="12.1176495"><ele>249.0</ele><time>2026-04-11T14:11:14.286Z</time></trkpt><trkpt lat="43.908162" lon="12.117992"><ele>248.5</ele><time>2026-04-11T14:11:15.286Z</time></trkpt><trkpt lat="43.9083346" lon="12.1183378"><ele>248.0</ele><time>2026-04-11T14:11:16.287Z</time></trkpt><trkpt lat="43.9085146" lon="12.1186883"><ele>254.5</ele><time>2026-04-11T14:11:17.286Z</time></trkpt><trkpt lat="43.9086923" lon="12.1190387"><ele>261.0</ele><time>2026-04-11T14:11:18.286Z</time></trkpt><trkpt lat="43.9088676" lon="12.1193917"><ele>261.0</ele><time>2026-04-11T14:11:19.286Z</time></trkpt><trkpt lat="43.9090394" lon="12.1197422"><ele>261.0</ele><time>2026-04-11T14:11:20.286Z</time></trkpt><trkpt lat="43.9092093" lon="12.1200876"><ele>259.0</ele><time>2026-04-11T14:11:21.285Z</time></trkpt><trkpt lat="43.9093796" lon="12.1204367"><ele>257.0</ele><time>2026-04-11T14:11:22.286Z</time></trkpt><trkpt lat="43.9095509" lon="12.1207849"><ele>257.0</ele><time>2026-04-11T14:11:23.286Z</time></trkpt><trkpt lat="43.9097213" lon="12.1211326"><ele>257.0</ele><time>2026-04-11T14:11:24.287Z</time></trkpt><trkpt lat="43.9098903" lon="12.1214801"><ele>256.5</ele><time>2026-04-11T14:11:25.286Z</time></trkpt><trkpt lat="43.9100557" lon="12.121823"><ele>256.0</ele><time>2026-04-11T14:11:26.286Z</time></trkpt><trkpt lat="43.9102192" lon="12.1221619"><ele>251.5</ele><time>2026-04-11T14:11:27.286Z</time></trkpt><trkpt lat="43.9103831" lon="12.1224957"><ele>247.0</ele><time>2026-04-11T14:11:28.286Z</time></trkpt><trkpt lat="43.9105472" lon="12.1228277"><ele>247.0</ele><time>2026-04-11T14:11:29.285Z</time></trkpt><trkpt lat="43.9107087" lon="12.1231573"><ele>247.0</ele><time>2026-04-11T14:11:30.285Z</time></trkpt><trkpt lat="43.910868" lon="12.1234853"><ele>246.5</ele><time>2026-04-11T14:11:31.286Z</time></trkpt><trkpt lat="43.9110237" lon="12.1238092"><ele>246.0</ele><time>2026-04-11T14:11:32.286Z</time></trkpt><trkpt lat="43.9111719" lon="12.124102"><ele>246.0</ele><time>2026-04-11T14:11:33.287Z</time></trkpt><trkpt lat="43.9113124" lon="12.1243964"><ele>246.0</ele><time>2026-04-11T14:11:34.285Z</time></trkpt><trkpt lat="43.9114543" lon="12.1246926"><ele>239.5</ele><time>2026-04-11T14:11:35.285Z</time></trkpt><trkpt lat="43.9115949" lon="12.1249905"><ele>233.0</ele><time>2026-04-11T14:11:36.286Z</time></trkpt><trkpt lat="43.9117349" lon="12.1253036"><ele>239.5</ele><time>2026-04-11T14:11:37.286Z</time></trkpt><trkpt lat="43.9118699" lon="12.1256376"><ele>246.0</ele><time>2026-04-11T14:11:38.285Z</time></trkpt><trkpt lat="43.9119971" lon="12.125978"><ele>246.0</ele><time>2026-04-11T14:11:39.286Z</time></trkpt><trkpt lat="43.9121147" lon="12.1263405"><ele>246.0</ele><time>2026-04-11T14:11:40.286Z</time></trkpt><trkpt lat="43.9122297" lon="12.12671"><ele>243.0</ele><time>2026-04-11T14:11:41.287Z</time></trkpt><trkpt lat="43.9123231" lon="12.127088"><ele>240.0</ele><time>2026-04-11T14:11:42.286Z</time></trkpt><trkpt lat="43.912405" lon="12.1274738"><ele>235.0</ele><time>2026-04-11T14:11:43.287Z</time></trkpt><trkpt lat="43.9124735" lon="12.127861"><ele>230.0</ele><time>2026-04-11T14:11:44.286Z</time></trkpt><trkpt lat="43.912536" lon="12.1282438"><ele>231.0</ele><time>2026-04-11T14:11:45.286Z</time></trkpt><trkpt lat="43.9125877" lon="12.1286281"><ele>232.0</ele><time>2026-04-11T14:11:46.287Z</time></trkpt><trkpt lat="43.912631" lon="12.1290306"><ele>221.5</ele><time>2026-04-11T14:11:47.286Z</time></trkpt><trkpt lat="43.9126588" lon="12.1294178"><ele>211.0</ele><time>2026-04-11T14:11:48.286Z</time></trkpt><trkpt lat="43.9126715" lon="12.1298"><ele>201.5</ele><time>2026-04-11T14:11:49.287Z</time></trkpt><trkpt lat="43.9126826" lon="12.1301832"><ele>192.0</ele><time>2026-04-11T14:11:50.285Z</time></trkpt><trkpt lat="43.9126761" lon="12.130564"><ele>190.0</ele><time>2026-04-11T14:11:51.286Z</time></trkpt><trkpt lat="43.9126595" lon="12.1309404"><ele>188.0</ele><time>2026-04-11T14:11:52.286Z</time></trkpt><trkpt lat="43.9126353" lon="12.1313137"><ele>189.5</ele><time>2026-04-11T14:11:53.287Z</time></trkpt><trkpt lat="43.9126081" lon="12.1316856"><ele>191.0</ele><time>2026-04-11T14:11:54.286Z</time></trkpt><trkpt lat="43.9125873" lon="12.132036"><ele>196.5</ele><time>2026-04-11T14:11:55.286Z</time></trkpt><trkpt lat="43.9125693" lon="12.1323909"><ele>202.0</ele><time>2026-04-11T14:11:56.286Z</time></trkpt><trkpt lat="43.912543" lon="12.1327315"><ele>202.0</ele><time>2026-04-11T14:11:57.286Z</time></trkpt><trkpt lat="43.9125223" lon="12.1330552"><ele>202.0</ele><time>2026-04-11T14:11:58.286Z</time></trkpt><trkpt lat="43.9125065" lon="12.1333688"><ele>201.33333333333331</ele><time>2026-04-11T14:11:59.285Z</time></trkpt><trkpt lat="43.912496" lon="12.1336662"><ele>200.66666666666669</ele><time>2026-04-11T14:12:00.286Z</time></trkpt><trkpt lat="43.9124923" lon="12.1339507"><ele>200.0</ele><time>2026-04-11T14:12:01.286Z</time></trkpt><trkpt lat="43.9124932" lon="12.1342341"><ele>200.0</ele><time>2026-04-11T14:12:02.285Z</time></trkpt><trkpt lat="43.9124991" lon="12.1345178"><ele>200.0</ele><time>2026-04-11T14:12:03.286Z</time></trkpt><trkpt lat="43.9125147" lon="12.1348018"><ele>200.0</ele><time>2026-04-11T14:12:04.287Z</time></trkpt><trkpt lat="43.9125323" lon="12.1350862"><ele>202.33333333333334</ele><time>2026-04-11T14:12:05.286Z</time></trkpt><trkpt lat="43.9125534" lon="12.1353674"><ele>204.66666666666669</ele><time>2026-04-11T14:12:06.286Z</time></trkpt><trkpt lat="43.9125778" lon="12.1356478"><ele>207.0</ele><time>2026-04-11T14:12:07.286Z</time></trkpt><trkpt lat="43.9138683" lon="12.1403514"><ele>201.66666666666666</ele><time>2026-04-11T14:12:26.286Z</time></trkpt><trkpt lat="43.9140118" lon="12.1405418"><ele>196.33333333333331</ele><time>2026-04-11T14:12:27.286Z</time></trkpt><trkpt lat="43.9141359" lon="12.1407464"><ele>191.0</ele><time>2026-04-11T14:12:28.286Z</time></trkpt><trkpt lat="43.9142569" lon="12.1409615"><ele>191.0</ele><time>2026-04-11T14:12:29.287Z</time></trkpt><trkpt lat="43.9143774" lon="12.1411668"><ele>191.0</ele><time>2026-04-11T14:12:30.287Z</time></trkpt><trkpt lat="43.9145047" lon="12.1413676"><ele>191.0</ele><time>2026-04-11T14:12:31.285Z</time></trkpt><trkpt lat="43.9146403" lon="12.1415719"><ele>190.66666666666666</ele><time>2026-04-11T14:12:32.286Z</time></trkpt><trkpt lat="43.9147829" lon="12.1417838"><ele>190.33333333333334</ele><time>2026-04-11T14:12:33.285Z</time></trkpt><trkpt lat="43.9149377" lon="12.1419966"><ele>190.0</ele><time>2026-04-11T14:12:34.285Z</time></trkpt><trkpt lat="43.9151018" lon="12.1422118"><ele>191.0</ele><time>2026-04-11T14:12:35.286Z</time></trkpt><trkpt lat="43.9152713" lon="12.1424144"><ele>192.0</ele><time>2026-04-11T14:12:36.286Z</time></trkpt><trkpt lat="43.9154399" lon="12.1426287"><ele>192.0</ele><time>2026-04-11T14:12:37.286Z</time></trkpt><trkpt lat="43.9156168" lon="12.1428249"><ele>192.0</ele><time>2026-04-11T14:12:38.286Z</time></trkpt><trkpt lat="43.9157908" lon="12.143035"><ele>201.0</ele><time>2026-04-11T14:12:39.286Z</time></trkpt><trkpt lat="43.9159696" lon="12.1432568"><ele>210.0</ele><time>2026-04-11T14:12:40.286Z</time></trkpt><trkpt lat="43.9161466" lon="12.1434779"><ele>210.0</ele><time>2026-04-11T14:12:41.286Z</time></trkpt><trkpt lat="43.916323" lon="12.1436999"><ele>210.0</ele><time>2026-04-11T14:12:42.285Z</time></trkpt><trkpt lat="43.9186405" lon="12.146594"><ele>193.5</ele><time>2026-04-11T14:12:53.286Z</time></trkpt><trkpt lat="43.9188577" lon="12.1468352"><ele>177.0</ele><time>2026-04-11T14:12:54.286Z</time></trkpt><trkpt lat="43.9190795" lon="12.1471108"><ele>177.5</ele><time>2026-04-11T14:12:55.286Z</time></trkpt><trkpt lat="43.9193063" lon="12.1473898"><ele>178.0</ele><time>2026-04-11T14:12:56.287Z</time></trkpt><trkpt lat="43.9195332" lon="12.1476729"><ele>178.0</ele><time>2026-04-11T14:12:57.286Z</time></trkpt><trkpt lat="43.9197537" lon="12.1479448"><ele>178.0</ele><time>2026-04-11T14:12:58.286Z</time></trkpt><trkpt lat="43.9199691" lon="12.1482132"><ele>177.5</ele><time>2026-04-11T14:12:59.287Z</time></trkpt><trkpt lat="43.9201933" lon="12.1484867"><ele>177.0</ele><time>2026-04-11T14:13:00.286Z</time></trkpt><trkpt lat="43.9204196" lon="12.148773"><ele>174.5</ele><time>2026-04-11T14:13:01.286Z</time></trkpt><trkpt lat="43.9206473" lon="12.1490806"><ele>172.0</ele><time>2026-04-11T14:13:02.285Z</time></trkpt><trkpt lat="43.9208686" lon="12.1494018"><ele>173.0</ele><time>2026-04-11T14:13:03.286Z</time></trkpt><trkpt lat="43.9210808" lon="12.1497399"><ele>174.0</ele><time>2026-04-11T14:13:04.287Z</time></trkpt><trkpt lat="43.9212878" lon="12.1500918"><ele>174.0</ele><time>2026-04-11T14:13:05.286Z</time></trkpt><trkpt lat="43.9214873" lon="12.1504561"><ele>174.0</ele><time>2026-04-11T14:13:06.286Z</time></trkpt><trkpt lat="43.9216724" lon="12.1508183"><ele>175.0</ele><time>2026-04-11T14:13:07.286Z</time></trkpt><trkpt lat="43.9218498" lon="12.1511928"><ele>176.0</ele><time>2026-04-11T14:13:08.285Z</time></trkpt><trkpt lat="43.9220118" lon="12.15157"><ele>174.5</ele><time>2026-04-11T14:13:09.287Z</time></trkpt><trkpt lat="43.9221667" lon="12.1519638"><ele>173.0</ele><time>2026-04-11T14:13:10.286Z</time></trkpt><trkpt lat="43.9223114" lon="12.1523746"><ele>173.0</ele><time>2026-04-11T14:13:11.286Z</time></trkpt><trkpt lat="43.9224422" lon="12.152809"><ele>173.0</ele><time>2026-04-11T14:13:12.286Z</time></trkpt><trkpt lat="43.9225596" lon="12.1532536"><ele>175.5</ele><time>2026-04-11T14:13:13.286Z</time></trkpt><trkpt lat="43.9226648" lon="12.1537054"><ele>178.0</ele><time>2026-04-11T14:13:14.285Z</time></trkpt><trkpt lat="43.9227601" lon="12.1541656"><ele>178.0</ele><time>2026-04-11T14:13:15.286Z</time></trkpt><trkpt lat="43.922828" lon="12.1546219"><ele>178.0</ele><time>2026-04-11T14:13:16.286Z</time></trkpt><trkpt lat="43.9228884" lon="12.1550798"><ele>175.0</ele><time>2026-04-11T14:13:17.286Z</time></trkpt><trkpt lat="43.9229399" lon="12.1555388"><ele>172.0</ele><time>2026-04-11T14:13:18.286Z</time></trkpt><trkpt lat="43.9229785" lon="12.1559961"><ele>172.0</ele><time>2026-04-11T14:13:19.285Z</time></trkpt><trkpt lat="43.9230159" lon="12.1564468"><ele>172.0</ele><time>2026-04-11T14:13:20.285Z</time></trkpt><trkpt lat="43.9230482" lon="12.1568927"><ele>172.5</ele><time>2026-04-11T14:13:21.286Z</time></trkpt><trkpt lat="43.9230849" lon="12.1573411"><ele>173.0</ele><time>2026-04-11T14:13:22.285Z</time></trkpt><trkpt lat="43.9231244" lon="12.1577857"><ele>176.5</ele><time>2026-04-11T14:13:23.285Z</time></trkpt><trkpt lat="43.9231609" lon="12.158232"><ele>180.0</ele><time>2026-04-11T14:13:24.286Z</time></trkpt><trkpt lat="43.9231986" lon="12.1586745"><ele>182.5</ele><time>2026-04-11T14:13:25.285Z</time></trkpt><trkpt lat="43.9232366" lon="12.1591144"><ele>185.0</ele><time>2026-04-11T14:13:26.286Z</time></trkpt><trkpt lat="43.9232745" lon="12.1595536"><ele>185.0</ele><time>2026-04-11T14:13:27.286Z</time></trkpt><trkpt lat="43.9233092" lon="12.1599924"><ele>185.0</ele><time>2026-04-11T14:13:28.286Z</time></trkpt><trkpt lat="43.9233462" lon="12.1604259"><ele>181.0</ele><time>2026-04-11T14:13:29.286Z</time></trkpt><trkpt lat="43.9233822" lon="12.1608606"><ele>177.0</ele><time>2026-04-11T14:13:30.285Z</time></trkpt><trkpt lat="43.9234185" lon="12.1612917"><ele>186.5</ele><time>2026-04-11T14:13:31.286Z</time></trkpt><trkpt lat="43.9234585" lon="12.1617282"><ele>196.0</ele><time>2026-04-11T14:13:32.285Z</time></trkpt><trkpt lat="43.9234994" lon="12.1621629"><ele>190.0</ele><time>2026-04-11T14:13:33.286Z</time></trkpt><trkpt lat="43.9235406" lon="12.1625894"><ele>184.0</ele><time>2026-04-11T14:13:34.286Z</time></trkpt><trkpt lat="43.9235797" lon="12.1630167"><ele>180.5</ele><time>2026-04-11T14:13:35.285Z</time></trkpt><trkpt lat="43.9236161" lon="12.1634354"><ele>177.0</ele><time>2026-04-11T14:13:36.286Z</time></trkpt><trkpt lat="43.9236479" lon="12.1638576"><ele>183.0</ele><time>2026-04-11T14:13:37.287Z</time></trkpt><trkpt lat="43.92368" lon="12.1642709"><ele>189.0</ele><time>2026-04-11T14:13:38.286Z</time></trkpt><trkpt lat="43.9237132" lon="12.164684"><ele>181.0</ele><time>2026-04-11T14:13:39.288Z</time></trkpt><trkpt lat="43.9238838" lon="12.1667515"><ele>181.0</ele><time>2026-04-11T14:13:44.286Z</time></trkpt><trkpt lat="43.9239239" lon="12.1671365"><ele>181.0</ele><time>2026-04-11T14:13:45.285Z</time></trkpt><trkpt lat="43.9239688" lon="12.1675627"><ele>179.5</ele><time>2026-04-11T14:13:46.286Z</time></trkpt><trkpt lat="43.9240221" lon="12.1679792"><ele>178.0</ele><time>2026-04-11T14:13:47.286Z</time></trkpt><trkpt lat="43.9240825" lon="12.1683921"><ele>177.0</ele><time>2026-04-11T14:13:48.286Z</time></trkpt><trkpt lat="43.9241651" lon="12.168802"><ele>176.0</ele><time>2026-04-11T14:13:49.286Z</time></trkpt><trkpt lat="43.9242675" lon="12.1692098"><ele>176.0</ele><time>2026-04-11T14:13:50.287Z</time></trkpt><trkpt lat="43.9243891" lon="12.1695956"><ele>176.0</ele><time>2026-04-11T14:13:51.286Z</time></trkpt><trkpt lat="43.9245247" lon="12.1699531"><ele>173.5</ele><time>2026-04-11T14:13:52.287Z</time></trkpt><trkpt lat="43.9246786" lon="12.1702937"><ele>171.0</ele><time>2026-04-11T14:13:53.286Z</time></trkpt><trkpt lat="43.9248541" lon="12.1706225"><ele>174.5</ele><time>2026-04-11T14:13:54.286Z</time></trkpt><trkpt lat="43.925046" lon="12.1709314"><ele>178.0</ele><time>2026-04-11T14:13:55.285Z</time></trkpt><trkpt lat="43.9252541" lon="12.1712239"><ele>174.5</ele><time>2026-04-11T14:13:56.286Z</time></trkpt><trkpt lat="43.9254729" lon="12.1714956"><ele>171.0</ele><time>2026-04-11T14:13:57.287Z</time></trkpt><trkpt lat="43.9257028" lon="12.1717425"><ele>174.5</ele><time>2026-04-11T14:13:58.286Z</time></trkpt><trkpt lat="43.9259426" lon="12.1719609"><ele>178.0</ele><time>2026-04-11T14:13:59.287Z</time></trkpt><trkpt lat="43.9261944" lon="12.1721554"><ele>178.0</ele><time>2026-04-11T14:14:00.286Z</time></trkpt><trkpt lat="43.9264567" lon="12.1723258"><ele>178.0</ele><time>2026-04-11T14:14:01.286Z</time></trkpt><trkpt lat="43.9267334" lon="12.172469"><ele>182.5</ele><time>2026-04-11T14:14:02.285Z</time></trkpt><trkpt lat="43.9270211" lon="12.1725967"><ele>187.0</ele><time>2026-04-11T14:14:03.285Z</time></trkpt><trkpt lat="43.9273145" lon="12.1727104"><ele>185.5</ele><time>2026-04-11T14:14:04.285Z</time></trkpt><trkpt lat="43.9276181" lon="12.1728089"><ele>184.0</ele><time>2026-04-11T14:14:05.286Z</time></trkpt><trkpt lat="43.9279281" lon="12.172899"><ele>184.0</ele><time>2026-04-11T14:14:06.285Z</time></trkpt><trkpt lat="43.9282413" lon="12.1729811"><ele>184.0</ele><time>2026-04-11T14:14:07.286Z</time></trkpt><trkpt lat="43.9285548" lon="12.1730602"><ele>186.5</ele><time>2026-04-11T14:14:08.286Z</time></trkpt><trkpt lat="43.9288627" lon="12.1731403"><ele>189.0</ele><time>2026-04-11T14:14:09.286Z</time></trkpt><trkpt lat="43.9291678" lon="12.1732194"><ele>183.0</ele><time>2026-04-11T14:14:10.286Z</time></trkpt><trkpt lat="43.9294738" lon="12.1733006"><ele>177.0</ele><time>2026-04-11T14:14:11.286Z</time></trkpt><trkpt lat="43.9297774" lon="12.1733826"><ele>169.5</ele><time>2026-04-11T14:14:12.286Z</time></trkpt><trkpt lat="43.9300808" lon="12.1734676"><ele>162.0</ele><time>2026-04-11T14:14:13.286Z</time></trkpt><trkpt lat="43.9303797" lon="12.1735584"><ele>162.0</ele><time>2026-04-11T14:14:14.285Z</time></trkpt><trkpt lat="43.9306717" lon="12.1736618"><ele>162.0</ele><time>2026-04-11T14:14:15.285Z</time></trkpt><trkpt lat="43.930958" lon="12.1737867"><ele>161.0</ele><time>2026-04-11T14:14:16.286Z</time></trkpt><trkpt lat="43.9312436" lon="12.1739175"><ele>160.0</ele><time>2026-04-11T14:14:17.286Z</time></trkpt><trkpt lat="43.9315158" lon="12.1740837"><ele>157.0</ele><time>2026-04-11T14:14:18.286Z</time></trkpt><trkpt lat="43.931779" lon="12.174275"><ele>154.0</ele><time>2026-04-11T14:14:19.286Z</time></trkpt><trkpt lat="43.9320344" lon="12.1744871"><ele>154.0</ele><time>2026-04-11T14:14:20.286Z</time></trkpt><trkpt lat="43.9322803" lon="12.1747273"><ele>154.0</ele><time>2026-04-11T14:14:21.285Z</time></trkpt><trkpt lat="43.932515" lon="12.1749971"><ele>160.5</ele><time>2026-04-11T14:14:22.285Z</time></trkpt><trkpt lat="43.9327403" lon="12.1752903"><ele>167.0</ele><time>2026-04-11T14:14:23.285Z</time></trkpt><trkpt lat="43.9329523" lon="12.1756084"><ele>177.0</ele><time>2026-04-11T14:14:24.286Z</time></trkpt><trkpt lat="43.9331549" lon="12.1759472"><ele>187.0</ele><time>2026-04-11T14:14:25.287Z</time></trkpt><trkpt lat="43.9333528" lon="12.1762947"><ele>187.5</ele><time>2026-04-11T14:14:26.286Z</time></trkpt><trkpt lat="43.9335464" lon="12.1766663"><ele>188.0</ele><time>2026-04-11T14:14:27.287Z</time></trkpt><trkpt lat="43.9337411" lon="12.1770436"><ele>190.5</ele><time>2026-04-11T14:14:28.286Z</time></trkpt><trkpt lat="43.933935" lon="12.1774213"><ele>193.0</ele><time>2026-04-11T14:14:29.286Z</time></trkpt><trkpt lat="43.9341331" lon="12.1778057"><ele>190.5</ele><time>2026-04-11T14:14:30.286Z</time></trkpt><trkpt lat="43.9343297" lon="12.1781935"><ele>188.0</ele><time>2026-04-11T14:14:31.286Z</time></trkpt><trkpt lat="43.9345238" lon="12.1785817"><ele>188.0</ele><time>2026-04-11T14:14:32.287Z</time></trkpt><trkpt lat="43.9347188" lon="12.1789756"><ele>188.0</ele><time>2026-04-11T14:14:33.287Z</time></trkpt><trkpt lat="43.934906" lon="12.1793621"><ele>190.5</ele><time>2026-04-11T14:14:34.285Z</time></trkpt><trkpt lat="43.9350865" lon="12.1797393"><ele>193.0</ele><time>2026-04-11T14:14:35.285Z</time></trkpt><trkpt lat="43.9352656" lon="12.1801117"><ele>193.0</ele><time>2026-04-11T14:14:36.286Z</time></trkpt><trkpt lat="43.9354465" lon="12.180476"><ele>193.0</ele><time>2026-04-11T14:14:37.287Z</time></trkpt><trkpt lat="43.9356217" lon="12.1808288"><ele>193.0</ele><time>2026-04-11T14:14:38.285Z</time></trkpt><trkpt lat="43.9358017" lon="12.1811765"><ele>193.0</ele><time>2026-04-11T14:14:39.285Z</time></trkpt><trkpt lat="43.935986" lon="12.1815164"><ele>193.0</ele><time>2026-04-11T14:14:40.287Z</time></trkpt><trkpt lat="43.9361773" lon="12.1818451"><ele>193.0</ele><time>2026-04-11T14:14:41.285Z</time></trkpt><trkpt lat="43.9363856" lon="12.1821663"><ele>195.5</ele><time>2026-04-11T14:14:42.286Z</time></trkpt><trkpt lat="43.9366004" lon="12.1824847"><ele>198.0</ele><time>2026-04-11T14:14:43.286Z</time></trkpt><trkpt lat="43.9368265" lon="12.1827945"><ele>195.0</ele><time>2026-04-11T14:14:44.286Z</time></trkpt><trkpt lat="43.9370648" lon="12.1830987"><ele>192.0</ele><time>2026-04-11T14:14:45.288Z</time></trkpt><trkpt lat="43.9373063" lon="12.1833846"><ele>187.5</ele><time>2026-04-11T14:14:46.287Z</time></trkpt><trkpt lat="43.9375539" lon="12.1836532"><ele>183.0</ele><time>2026-04-11T14:14:47.285Z</time></trkpt><trkpt lat="43.937808" lon="12.1839095"><ele>189.5</ele><time>2026-04-11T14:14:48.286Z</time></trkpt><trkpt lat="43.9380628" lon="12.1841476"><ele>196.0</ele><time>2026-04-11T14:14:49.286Z</time></trkpt><trkpt lat="43.9383251" lon="12.1843762"><ele>187.0</ele><time>2026-04-11T14:14:50.287Z</time></trkpt><trkpt lat="43.9385945" lon="12.1845893"><ele>178.0</ele><time>2026-04-11T14:14:51.286Z</time></trkpt><trkpt lat="43.9388631" lon="12.1847909"><ele>178.0</ele><time>2026-04-11T14:14:52.286Z</time></trkpt><trkpt lat="43.9391372" lon="12.1849767"><ele>178.0</ele><time>2026-04-11T14:14:53.287Z</time></trkpt><trkpt lat="43.939423" lon="12.185152"><ele>178.0</ele><time>2026-04-11T14:14:54.285Z</time></trkpt><trkpt lat="43.9397141" lon="12.1853094"><ele>178.0</ele><time>2026-04-11T14:14:55.286Z</time></trkpt><trkpt lat="43.9400097" lon="12.1854536"><ele>173.0</ele><time>2026-04-11T14:14:56.285Z</time></trkpt><trkpt lat="43.940308" lon="12.1855876"><ele>168.0</ele><time>2026-04-11T14:14:57.285Z</time></trkpt><trkpt lat="43.9406093" lon="12.1857186"><ele>171.0</ele><time>2026-04-11T14:14:58.286Z</time></trkpt><trkpt lat="43.9409155" lon="12.1858331"><ele>174.0</ele><time>2026-04-11T14:14:59.286Z</time></trkpt><trkpt lat="43.9412261" lon="12.185931"><ele>174.0</ele><time>2026-04-11T14:15:00.287Z</time></trkpt><trkpt lat="43.9415416" lon="12.1860277"><ele>174.0</ele><time>2026-04-11T14:15:01.286Z</time></trkpt><trkpt lat="43.9418625" lon="12.1861219"><ele>161.5</ele><time>2026-04-11T14:15:02.285Z</time></trkpt><trkpt lat="43.9421848" lon="12.1862177"><ele>149.0</ele><time>2026-04-11T14:15:03.285Z</time></trkpt><trkpt lat="43.9425091" lon="12.186315"><ele>152.5</ele><time>2026-04-11T14:15:04.287Z</time></trkpt><trkpt lat="43.9428345" lon="12.1864113"><ele>156.0</ele><time>2026-04-11T14:15:05.286Z</time></trkpt><trkpt lat="43.9431565" lon="12.1865089"><ele>148.0</ele><time>2026-04-11T14:15:06.285Z</time></trkpt><trkpt lat="43.9434769" lon="12.1866063"><ele>140.0</ele><time>2026-04-11T14:15:07.286Z</time></trkpt><trkpt lat="43.9437958" lon="12.1867016"><ele>140.0</ele><time>2026-04-11T14:15:08.285Z</time></trkpt><trkpt lat="43.9441127" lon="12.1867963"><ele>140.0</ele><time>2026-04-11T14:15:09.286Z</time></trkpt><trkpt lat="43.9444287" lon="12.1868931"><ele>140.0</ele><time>2026-04-11T14:15:10.286Z</time></trkpt><trkpt lat="43.944742" lon="12.1869848"><ele>140.0</ele><time>2026-04-11T14:15:11.285Z</time></trkpt><trkpt lat="43.9450559" lon="12.1870808"><ele>141.5</ele><time>2026-04-11T14:15:12.286Z</time></trkpt><trkpt lat="43.9453678" lon="12.1871738"><ele>143.0</ele><time>2026-04-11T14:15:13.286Z</time></trkpt><trkpt lat="43.9456764" lon="12.18728"><ele>145.0</ele><time>2026-04-11T14:15:14.286Z</time></trkpt><trkpt lat="43.945981" lon="12.1873961"><ele>147.0</ele><time>2026-04-11T14:15:15.285Z</time></trkpt><trkpt lat="43.9462824" lon="12.1875304"><ele>147.0</ele><time>2026-04-11T14:15:16.285Z</time></trkpt><trkpt lat="43.9465867" lon="12.187683"><ele>147.0</ele><time>2026-04-11T14:15:17.286Z</time></trkpt><trkpt lat="43.9468885" lon="12.1878479"><ele>161.0</ele><time>2026-04-11T14:15:18.285Z</time></trkpt><trkpt lat="43.9471838" lon="12.1880301"><ele>175.0</ele><time>2026-04-11T14:15:19.286Z</time></trkpt><trkpt lat="43.9474683" lon="12.1882263"><ele>185.0</ele><time>2026-04-11T14:15:20.286Z</time></trkpt><trkpt lat="43.9477427" lon="12.1884282"><ele>195.0</ele><time>2026-04-11T14:15:21.286Z</time></trkpt><trkpt lat="43.9480034" lon="12.1886334"><ele>195.0</ele><time>2026-04-11T14:15:22.285Z</time></trkpt><trkpt lat="43.9482481" lon="12.1888445"><ele>195.0</ele><time>2026-04-11T14:15:23.286Z</time></trkpt><trkpt lat="43.9484844" lon="12.1890628"><ele>195.0</ele><time>2026-04-11T14:15:24.286Z</time></trkpt><trkpt lat="43.9487121" lon="12.1892913"><ele>195.0</ele><time>2026-04-11T14:15:25.287Z</time></trkpt><trkpt lat="43.9489348" lon="12.189524"><ele>195.0</ele><time>2026-04-11T14:15:26.287Z</time></trkpt><trkpt lat="43.9491481" lon="12.1897678"><ele>195.0</ele><time>2026-04-11T14:15:27.286Z</time></trkpt><trkpt lat="43.9493613" lon="12.1900167"><ele>194.0</ele><time>2026-04-11T14:15:28.285Z</time></trkpt><trkpt lat="43.9495651" lon="12.1902748"><ele>193.0</ele><time>2026-04-11T14:15:29.286Z</time></trkpt><trkpt lat="43.9497617" lon="12.1905408"><ele>193.0</ele><time>2026-04-11T14:15:30.286Z</time></trkpt><trkpt lat="43.9499586" lon="12.1908171"><ele>193.0</ele><time>2026-04-11T14:15:31.285Z</time></trkpt><trkpt lat="43.9501537" lon="12.1911075"><ele>192.5</ele><time>2026-04-11T14:15:32.286Z</time></trkpt><trkpt lat="43.9503517" lon="12.1914119"><ele>192.0</ele><time>2026-04-11T14:15:33.286Z</time></trkpt><trkpt lat="43.9505575" lon="12.1917325"><ele>191.5</ele><time>2026-04-11T14:15:34.285Z</time></trkpt><trkpt lat="43.9507604" lon="12.192058"><ele>191.0</ele><time>2026-04-11T14:15:35.286Z</time></trkpt><trkpt lat="43.9509652" lon="12.1923868"><ele>189.0</ele><time>2026-04-11T14:15:36.285Z</time></trkpt><trkpt lat="43.9511726" lon="12.1927182"><ele>187.0</ele><time>2026-04-11T14:15:37.286Z</time></trkpt><trkpt lat="43.9513819" lon="12.1930523"><ele>188.0</ele><time>2026-04-11T14:15:38.288Z</time></trkpt><trkpt lat="43.9515841" lon="12.1933859"><ele>189.0</ele><time>2026-04-11T14:15:39.286Z</time></trkpt><trkpt lat="43.9517859" lon="12.1937163"><ele>187.0</ele><time>2026-04-11T14:15:40.286Z</time></trkpt><trkpt lat="43.9519821" lon="12.1940404"><ele>185.0</ele><time>2026-04-11T14:15:41.285Z</time></trkpt><trkpt lat="43.9521765" lon="12.1943551"><ele>185.0</ele><time>2026-04-11T14:15:42.286Z</time></trkpt><trkpt lat="43.9523659" lon="12.1946602"><ele>185.0</ele><time>2026-04-11T14:15:43.285Z</time></trkpt><trkpt lat="43.952545" lon="12.194944"><ele>176.5</ele><time>2026-04-11T14:15:44.286Z</time></trkpt><trkpt lat="43.9527141" lon="12.1952108"><ele>168.0</ele><time>2026-04-11T14:15:45.286Z</time></trkpt><trkpt lat="43.9528743" lon="12.1954683"><ele>170.5</ele><time>2026-04-11T14:15:46.285Z</time></trkpt><trkpt lat="43.9530333" lon="12.1957151"><ele>173.0</ele><time>2026-04-11T14:15:47.286Z</time></trkpt><trkpt lat="43.9531983" lon="12.1959596"><ele>173.0</ele><time>2026-04-11T14:15:48.285Z</time></trkpt><trkpt lat="43.9533649" lon="12.1961989"><ele>173.0</ele><time>2026-04-11T14:15:49.286Z</time></trkpt><trkpt lat="43.9535302" lon="12.1964471"><ele>175.0</ele><time>2026-04-11T14:15:50.287Z</time></trkpt><trkpt lat="43.953694" lon="12.1967061"><ele>177.0</ele><time>2026-04-11T14:15:51.285Z</time></trkpt><trkpt lat="43.9538561" lon="12.1969697"><ele>177.0</ele><time>2026-04-11T14:15:52.285Z</time></trkpt><trkpt lat="43.95402" lon="12.1972312"><ele>177.0</ele><time>2026-04-11T14:15:53.286Z</time></trkpt><trkpt lat="43.9541817" lon="12.1974943"><ele>176.0</ele><time>2026-04-11T14:15:54.286Z</time></trkpt><trkpt lat="43.95435" lon="12.1977553"><ele>175.0</ele><time>2026-04-11T14:15:55.286Z</time></trkpt><trkpt lat="43.9545259" lon="12.1980148"><ele>179.0</ele><time>2026-04-11T14:15:56.286Z</time></trkpt><trkpt lat="43.9547103" lon="12.1982584"><ele>183.0</ele><time>2026-04-11T14:15:57.285Z</time></trkpt><trkpt lat="43.9549088" lon="12.1984879"><ele>179.5</ele><time>2026-04-11T14:15:58.286Z</time></trkpt><trkpt lat="43.9551118" lon="12.1987072"><ele>176.0</ele><time>2026-04-11T14:15:59.286Z</time></trkpt><trkpt lat="43.9553214" lon="12.1989138"><ele>180.0</ele><time>2026-04-11T14:16:00.286Z</time></trkpt><trkpt lat="43.9555321" lon="12.1991124"><ele>184.0</ele><time>2026-04-11T14:16:01.287Z</time></trkpt><trkpt lat="43.9557498" lon="12.199303"><ele>173.0</ele><time>2026-04-11T14:16:02.287Z</time></trkpt><trkpt lat="43.9559941" lon="12.1994524"><ele>162.0</ele><time>2026-04-11T14:16:03.286Z</time></trkpt><trkpt lat="43.9562186" lon="12.1995839"><ele>162.0</ele><time>2026-04-11T14:16:04.286Z</time></trkpt><trkpt lat="43.9564605" lon="12.1997188"><ele>162.0</ele><time>2026-04-11T14:16:05.285Z</time></trkpt><trkpt lat="43.9567019" lon="12.1998365"><ele>164.5</ele><time>2026-04-11T14:16:06.29Z</time></trkpt><trkpt lat="43.9569495" lon="12.1999373"><ele>167.0</ele><time>2026-04-11T14:16:07.286Z</time></trkpt><trkpt lat="43.9572084" lon="12.2000179"><ele>167.0</ele><time>2026-04-11T14:16:08.286Z</time></trkpt><trkpt lat="43.9574744" lon="12.2000859"><ele>167.0</ele><time>2026-04-11T14:16:09.285Z</time></trkpt><trkpt lat="43.9577414" lon="12.200147"><ele>165.5</ele><time>2026-04-11T14:16:10.286Z</time></trkpt><trkpt lat="43.958017" lon="12.2002049"><ele>164.0</ele><time>2026-04-11T14:16:11.286Z</time></trkpt><trkpt lat="43.9582951" lon="12.2002683"><ele>162.0</ele><time>2026-04-11T14:16:12.285Z</time></trkpt><trkpt lat="43.9585742" lon="12.2003407"><ele>160.0</ele><time>2026-04-11T14:16:13.285Z</time></trkpt><trkpt lat="43.9588611" lon="12.2004263"><ele>160.0</ele><time>2026-04-11T14:16:14.286Z</time></trkpt><trkpt lat="43.9591546" lon="12.2005208"><ele>160.0</ele><time>2026-04-11T14:16:15.285Z</time></trkpt><trkpt lat="43.9594511" lon="12.2006132"><ele>159.0</ele><time>2026-04-11T14:16:16.286Z</time></trkpt><trkpt lat="43.9597466" lon="12.2006965"><ele>158.0</ele><time>2026-04-11T14:16:17.287Z</time></trkpt><trkpt lat="43.9600477" lon="12.2007886"><ele>158.0</ele><time>2026-04-11T14:16:18.286Z</time></trkpt><trkpt lat="43.9603415" lon="12.2008893"><ele>158.0</ele><time>2026-04-11T14:16:19.285Z</time></trkpt><trkpt lat="43.9606295" lon="12.2010069"><ele>157.0</ele><time>2026-04-11T14:16:20.285Z</time></trkpt><trkpt lat="43.9609132" lon="12.2011352"><ele>156.0</ele><time>2026-04-11T14:16:21.286Z</time></trkpt><trkpt lat="43.9611947" lon="12.2012717"><ele>156.0</ele><time>2026-04-11T14:16:22.286Z</time></trkpt><trkpt lat="43.9614708" lon="12.2014173"><ele>156.0</ele><time>2026-04-11T14:16:23.286Z</time></trkpt><trkpt lat="43.9617459" lon="12.2015522"><ele>153.5</ele><time>2026-04-11T14:16:24.286Z</time></trkpt><trkpt lat="43.9620206" lon="12.201703"><ele>151.0</ele><time>2026-04-11T14:16:25.286Z</time></trkpt><trkpt lat="43.9622936" lon="12.2018495"><ele>142.0</ele><time>2026-04-11T14:16:26.286Z</time></trkpt><trkpt lat="43.9625643" lon="12.202001"><ele>133.0</ele><time>2026-04-11T14:16:27.286Z</time></trkpt><trkpt lat="43.9628334" lon="12.2021475"><ele>133.0</ele><time>2026-04-11T14:16:28.285Z</time></trkpt><trkpt lat="43.9631004" lon="12.2022898"><ele>133.0</ele><time>2026-04-11T14:16:29.286Z</time></trkpt><trkpt lat="43.9633655" lon="12.202431"><ele>137.0</ele><time>2026-04-11T14:16:30.286Z</time></trkpt><trkpt lat="43.9636309" lon="12.2025625"><ele>141.0</ele><time>2026-04-11T14:16:31.286Z</time></trkpt><trkpt lat="43.9638968" lon="12.2026806"><ele>141.0</ele><time>2026-04-11T14:16:32.285Z</time></trkpt><trkpt lat="43.9641685" lon="12.2027769"><ele>141.0</ele><time>2026-04-11T14:16:33.285Z</time></trkpt><trkpt lat="43.9644388" lon="12.2028568"><ele>139.5</ele><time>2026-04-11T14:16:34.285Z</time></trkpt><trkpt lat="43.9647224" lon="12.2029142"><ele>138.0</ele><time>2026-04-11T14:16:35.286Z</time></trkpt><trkpt lat="43.9650124" lon="12.2029611"><ele>132.0</ele><time>2026-04-11T14:16:36.289Z</time></trkpt><trkpt lat="43.9652879" lon="12.2029917"><ele>126.0</ele><time>2026-04-11T14:16:37.287Z</time></trkpt><trkpt lat="43.965581" lon="12.2030003"><ele>127.0</ele><time>2026-04-11T14:16:38.286Z</time></trkpt><trkpt lat="43.965868" lon="12.202997"><ele>128.0</ele><time>2026-04-11T14:16:39.287Z</time></trkpt><trkpt lat="43.9661554" lon="12.2029972"><ele>128.0</ele><time>2026-04-11T14:16:40.286Z</time></trkpt><trkpt lat="43.9664346" lon="12.2030006"><ele>128.0</ele><time>2026-04-11T14:16:41.286Z</time></trkpt><trkpt lat="43.9667154" lon="12.2030043"><ele>128.0</ele><time>2026-04-11T14:16:42.286Z</time></trkpt><trkpt lat="43.9669965" lon="12.2030122"><ele>128.0</ele><time>2026-04-11T14:16:43.29Z</time></trkpt><trkpt lat="43.9672818" lon="12.2030189"><ele>126.5</ele><time>2026-04-11T14:16:44.289Z</time></trkpt><trkpt lat="43.967569" lon="12.2030253"><ele>125.0</ele><time>2026-04-11T14:16:45.287Z</time></trkpt><trkpt lat="43.9678482" lon="12.2030341"><ele>125.0</ele><time>2026-04-11T14:16:46.286Z</time></trkpt><trkpt lat="43.9681309" lon="12.2030358"><ele>125.0</ele><time>2026-04-11T14:16:47.286Z</time></trkpt><trkpt lat="43.9684127" lon="12.2030384"><ele>124.0</ele><time>2026-04-11T14:16:48.286Z</time></trkpt><trkpt lat="43.9686947" lon="12.2030443"><ele>123.0</ele><time>2026-04-11T14:16:49.286Z</time></trkpt><trkpt lat="43.9689762" lon="12.2030448"><ele>122.0</ele><time>2026-04-11T14:16:50.285Z</time></trkpt><trkpt lat="43.9692548" lon="12.2030459"><ele>121.0</ele><time>2026-04-11T14:16:51.286Z</time></trkpt><trkpt lat="43.9695339" lon="12.2030549"><ele>121.0</ele><time>2026-04-11T14:16:52.285Z</time></trkpt><trkpt lat="43.9698128" lon="12.2030641"><ele>121.0</ele><time>2026-04-11T14:16:53.285Z</time></trkpt><trkpt lat="43.9700954" lon="12.203082"><ele>121.5</ele><time>2026-04-11T14:16:54.286Z</time></trkpt><trkpt lat="43.9703746" lon="12.203106"><ele>122.0</ele><time>2026-04-11T14:16:55.286Z</time></trkpt><trkpt lat="43.9706523" lon="12.2031408"><ele>119.5</ele><time>2026-04-11T14:16:56.286Z</time></trkpt><trkpt lat="43.9709282" lon="12.2031806"><ele>117.0</ele><time>2026-04-11T14:16:57.285Z</time></trkpt><trkpt lat="43.9712152" lon="12.2032244"><ele>117.0</ele><time>2026-04-11T14:16:58.286Z</time></trkpt><trkpt lat="43.9715088" lon="12.2032655"><ele>117.0</ele><time>2026-04-11T14:16:59.286Z</time></trkpt><trkpt lat="43.9718037" lon="12.2033202"><ele>118.0</ele><time>2026-04-11T14:17:00.289Z</time></trkpt><trkpt lat="43.9720992" lon="12.2033798"><ele>119.0</ele><time>2026-04-11T14:17:01.29Z</time></trkpt><trkpt lat="43.9723926" lon="12.2034398"><ele>120.5</ele><time>2026-04-11T14:17:02.286Z</time></trkpt><trkpt lat="43.9726878" lon="12.203497"><ele>122.0</ele><time>2026-04-11T14:17:03.285Z</time></trkpt><trkpt lat="43.9729749" lon="12.2035508"><ele>122.0</ele><time>2026-04-11T14:17:04.286Z</time></trkpt><trkpt lat="43.9732463" lon="12.2036079"><ele>122.0</ele><time>2026-04-11T14:17:05.286Z</time></trkpt><trkpt lat="43.9735026" lon="12.2036627"><ele>123.0</ele><time>2026-04-11T14:17:06.286Z</time></trkpt><trkpt lat="43.9737528" lon="12.2037177"><ele>124.0</ele><time>2026-04-11T14:17:07.286Z</time></trkpt><trkpt lat="43.9740085" lon="12.2037686"><ele>119.0</ele><time>2026-04-11T14:17:08.286Z</time></trkpt><trkpt lat="43.9742687" lon="12.2038268"><ele>114.0</ele><time>2026-04-11T14:17:09.286Z</time></trkpt><trkpt lat="43.974539" lon="12.2038869"><ele>114.0</ele><time>2026-04-11T14:17:10.286Z</time></trkpt><trkpt lat="43.9748235" lon="12.2039544"><ele>114.0</ele><time>2026-04-11T14:17:11.286Z</time></trkpt><trkpt lat="43.9751177" lon="12.2040213"><ele>112.5</ele><time>2026-04-11T14:17:12.286Z</time></trkpt><trkpt lat="43.9754283" lon="12.2040854"><ele>111.0</ele><time>2026-04-11T14:17:13.286Z</time></trkpt><trkpt lat="43.9757444" lon="12.2041535"><ele>112.0</ele><time>2026-04-11T14:17:14.285Z</time></trkpt><trkpt lat="43.9760634" lon="12.2042223"><ele>113.0</ele><time>2026-04-11T14:17:15.287Z</time></trkpt><trkpt lat="43.9763826" lon="12.204298"><ele>113.5</ele><time>2026-04-11T14:17:16.286Z</time></trkpt><trkpt lat="43.976702" lon="12.2043698"><ele>114.0</ele><time>2026-04-11T14:17:17.286Z</time></trkpt><trkpt lat="43.9770217" lon="12.2044444"><ele>114.0</ele><time>2026-04-11T14:17:18.286Z</time></trkpt><trkpt lat="43.9773484" lon="12.204515"><ele>114.0</ele><time>2026-04-11T14:17:19.286Z</time></trkpt><trkpt lat="43.9776839" lon="12.204588"><ele>112.5</ele><time>2026-04-11T14:17:20.286Z</time></trkpt><trkpt lat="43.9780214" lon="12.2046585"><ele>111.0</ele><time>2026-04-11T14:17:21.286Z</time></trkpt><trkpt lat="43.9783686" lon="12.2047396"><ele>110.5</ele><time>2026-04-11T14:17:22.286Z</time></trkpt><trkpt lat="43.9787199" lon="12.2048121"><ele>110.0</ele><time>2026-04-11T14:17:23.285Z</time></trkpt><trkpt lat="43.9790697" lon="12.2048911"><ele>109.0</ele><time>2026-04-11T14:17:24.285Z</time></trkpt><trkpt lat="43.9794102" lon="12.204957"><ele>108.0</ele><time>2026-04-11T14:17:25.287Z</time></trkpt><trkpt lat="43.9797432" lon="12.2050341"><ele>109.0</ele><time>2026-04-11T14:17:26.286Z</time></trkpt><trkpt lat="43.9800695" lon="12.2051102"><ele>110.0</ele><time>2026-04-11T14:17:27.285Z</time></trkpt><trkpt lat="43.9803886" lon="12.205182"><ele>110.0</ele><time>2026-04-11T14:17:28.286Z</time></trkpt><trkpt lat="43.980703" lon="12.2052503"><ele>110.0</ele><time>2026-04-11T14:17:29.286Z</time></trkpt><trkpt lat="43.9810121" lon="12.2053153"><ele>109.5</ele><time>2026-04-11T14:17:30.286Z</time></trkpt><trkpt lat="43.9813218" lon="12.20537"><ele>109.0</ele><time>2026-04-11T14:17:31.285Z</time></trkpt><trkpt lat="43.9816339" lon="12.2054109"><ele>108.0</ele><time>2026-04-11T14:17:32.286Z</time></trkpt><trkpt lat="43.9819569" lon="12.2054377"><ele>107.0</ele><time>2026-04-11T14:17:33.287Z</time></trkpt><trkpt lat="43.9822877" lon="12.2054511"><ele>107.5</ele><time>2026-04-11T14:17:34.285Z</time></trkpt><trkpt lat="43.9826244" lon="12.2054471"><ele>108.0</ele><time>2026-04-11T14:17:35.286Z</time></trkpt><trkpt lat="43.9829682" lon="12.2054377"><ele>108.0</ele><time>2026-04-11T14:17:36.286Z</time></trkpt><trkpt lat="43.9833064" lon="12.2054275"><ele>108.0</ele><time>2026-04-11T14:17:37.286Z</time></trkpt><trkpt lat="43.9836347" lon="12.2054193"><ele>106.5</ele><time>2026-04-11T14:17:38.286Z</time></trkpt><trkpt lat="43.983954" lon="12.2054164"><ele>105.0</ele><time>2026-04-11T14:17:39.286Z</time></trkpt><trkpt lat="43.9842736" lon="12.2054143"><ele>104.5</ele><time>2026-04-11T14:17:40.286Z</time></trkpt><trkpt lat="43.9845902" lon="12.2054096"><ele>104.0</ele><time>2026-04-11T14:17:41.286Z</time></trkpt><trkpt lat="43.9849033" lon="12.2054006"><ele>105.0</ele><time>2026-04-11T14:17:42.285Z</time></trkpt><trkpt lat="43.9852064" lon="12.205389"><ele>106.0</ele><time>2026-04-11T14:17:43.286Z</time></trkpt><trkpt lat="43.985505" lon="12.2053767"><ele>106.0</ele><time>2026-04-11T14:17:44.286Z</time></trkpt><trkpt lat="43.9857976" lon="12.2053625"><ele>106.0</ele><time>2026-04-11T14:17:45.286Z</time></trkpt><trkpt lat="43.9860847" lon="12.2053498"><ele>106.5</ele><time>2026-04-11T14:17:46.285Z</time></trkpt><trkpt lat="43.9863617" lon="12.2053376"><ele>107.0</ele><time>2026-04-11T14:17:47.285Z</time></trkpt><trkpt lat="43.9866346" lon="12.2053285"><ele>106.0</ele><time>2026-04-11T14:17:48.286Z</time></trkpt><trkpt lat="43.9869015" lon="12.2053164"><ele>105.0</ele><time>2026-04-11T14:17:49.286Z</time></trkpt><trkpt lat="43.9871707" lon="12.2053054"><ele>105.0</ele><time>2026-04-11T14:17:50.285Z</time></trkpt><trkpt lat="43.9874352" lon="12.205289"><ele>105.0</ele><time>2026-04-11T14:17:51.286Z</time></trkpt><trkpt lat="43.9876954" lon="12.2052645"><ele>104.0</ele><time>2026-04-11T14:17:52.286Z</time></trkpt><trkpt lat="43.9879509" lon="12.2052376"><ele>103.0</ele><time>2026-04-11T14:17:53.286Z</time></trkpt><trkpt lat="43.9882037" lon="12.2052121"><ele>101.5</ele><time>2026-04-11T14:17:54.284Z</time></trkpt><trkpt lat="43.9884555" lon="12.2051809"><ele>100.0</ele><time>2026-04-11T14:17:55.287Z</time></trkpt><trkpt lat="43.9887016" lon="12.2051488"><ele>100.0</ele><time>2026-04-11T14:17:56.285Z</time></trkpt><trkpt lat="43.9889466" lon="12.2051079"><ele>100.0</ele><time>2026-04-11T14:17:57.287Z</time></trkpt><trkpt lat="43.9891915" lon="12.2050747"><ele>97.5</ele><time>2026-04-11T14:17:58.286Z</time></trkpt><trkpt lat="43.9894368" lon="12.2050343"><ele>95.0</ele><time>2026-04-11T14:17:59.286Z</time></trkpt><trkpt lat="43.989681" lon="12.2049982"><ele>95.0</ele><time>2026-04-11T14:18:00.285Z</time></trkpt><trkpt lat="43.9899261" lon="12.2049646"><ele>95.0</ele><time>2026-04-11T14:18:01.285Z</time></trkpt><trkpt lat="43.9901691" lon="12.2049301"><ele>96.0</ele><time>2026-04-11T14:18:02.285Z</time></trkpt><trkpt lat="43.9904137" lon="12.2048948"><ele>97.0</ele><time>2026-04-11T14:18:03.286Z</time></trkpt><trkpt lat="43.990653" lon="12.204858"><ele>97.0</ele><time>2026-04-11T14:18:04.286Z</time></trkpt><trkpt lat="43.9908962" lon="12.2048219"><ele>97.0</ele><time>2026-04-11T14:18:05.286Z</time></trkpt><trkpt lat="43.9911342" lon="12.2047887"><ele>97.0</ele><time>2026-04-11T14:18:06.286Z</time></trkpt><trkpt lat="43.9913779" lon="12.2047513"><ele>97.0</ele><time>2026-04-11T14:18:07.286Z</time></trkpt><trkpt lat="43.9916241" lon="12.2047115"><ele>97.5</ele><time>2026-04-11T14:18:08.285Z</time></trkpt><trkpt lat="43.9918669" lon="12.2046834"><ele>98.0</ele><time>2026-04-11T14:18:09.286Z</time></trkpt><trkpt lat="43.9921108" lon="12.2046485"><ele>98.0</ele><time>2026-04-11T14:18:10.286Z</time></trkpt><trkpt lat="43.9923504" lon="12.204611"><ele>98.0</ele><time>2026-04-11T14:18:11.286Z</time></trkpt><trkpt lat="43.9925924" lon="12.2045743"><ele>97.5</ele><time>2026-04-11T14:18:12.285Z</time></trkpt><trkpt lat="43.9928371" lon="12.2045392"><ele>97.0</ele><time>2026-04-11T14:18:13.286Z</time></trkpt><trkpt lat="43.9930847" lon="12.2045059"><ele>97.0</ele><time>2026-04-11T14:18:14.286Z</time></trkpt><trkpt lat="43.9933304" lon="12.2044703"><ele>97.0</ele><time>2026-04-11T14:18:15.286Z</time></trkpt><trkpt lat="43.993577" lon="12.2044341"><ele>96.5</ele><time>2026-04-11T14:18:16.286Z</time></trkpt><trkpt lat="43.9938184" lon="12.2043963"><ele>96.0</ele><time>2026-04-11T14:18:17.285Z</time></trkpt><trkpt lat="43.9940576" lon="12.2043589"><ele>95.5</ele><time>2026-04-11T14:18:18.286Z</time></trkpt><trkpt lat="43.9942945" lon="12.2043219"><ele>95.0</ele><time>2026-04-11T14:18:19.287Z</time></trkpt><trkpt lat="43.9945328" lon="12.2042878"><ele>95.0</ele><time>2026-04-11T14:18:20.286Z</time></trkpt><trkpt lat="43.9947667" lon="12.2042496"><ele>95.0</ele><time>2026-04-11T14:18:21.286Z</time></trkpt><trkpt lat="43.9950072" lon="12.204211"><ele>97.0</ele><time>2026-04-11T14:18:22.286Z</time></trkpt><trkpt lat="43.9952476" lon="12.2041806"><ele>99.0</ele><time>2026-04-11T14:18:23.286Z</time></trkpt><trkpt lat="43.9954857" lon="12.2041474"><ele>99.0</ele><time>2026-04-11T14:18:24.287Z</time></trkpt><trkpt lat="43.9957226" lon="12.204114"><ele>99.0</ele><time>2026-04-11T14:18:25.286Z</time></trkpt><trkpt lat="43.9959598" lon="12.2040774"><ele>100.0</ele><time>2026-04-11T14:18:26.287Z</time></trkpt><trkpt lat="43.9961949" lon="12.2040398"><ele>101.0</ele><time>2026-04-11T14:18:27.286Z</time></trkpt><trkpt lat="43.9964343" lon="12.2040064"><ele>99.0</ele><time>2026-04-11T14:18:28.285Z</time></trkpt><trkpt lat="43.9966788" lon="12.203968"><ele>97.0</ele><time>2026-04-11T14:18:29.287Z</time></trkpt><trkpt lat="43.9969239" lon="12.2039331"><ele>97.0</ele><time>2026-04-11T14:18:30.286Z</time></trkpt><trkpt lat="43.9971623" lon="12.2038966"><ele>97.0</ele><time>2026-04-11T14:18:31.285Z</time></trkpt><trkpt lat="43.9974034" lon="12.203866"><ele>96.5</ele><time>2026-04-11T14:18:32.286Z</time></trkpt><trkpt lat="43.9976418" lon="12.2038396"><ele>96.0</ele><time>2026-04-11T14:18:33.286Z</time></trkpt><trkpt lat="43.9978775" lon="12.2038191"><ele>96.0</ele><time>2026-04-11T14:18:34.286Z</time></trkpt><trkpt lat="43.9981237" lon="12.2037999"><ele>96.0</ele><time>2026-04-11T14:18:35.286Z</time></trkpt><trkpt lat="43.9983796" lon="12.2037804"><ele>97.0</ele><time>2026-04-11T14:18:36.286Z</time></trkpt><trkpt lat="43.9986432" lon="12.2037603"><ele>98.0</ele><time>2026-04-11T14:18:37.284Z</time></trkpt><trkpt lat="43.9989181" lon="12.2037305"><ele>96.0</ele><time>2026-04-11T14:18:38.286Z</time></trkpt><trkpt lat="43.9991999" lon="12.2037014"><ele>94.0</ele><time>2026-04-11T14:18:39.285Z</time></trkpt><trkpt lat="43.9994905" lon="12.203674"><ele>94.0</ele><time>2026-04-11T14:18:40.286Z</time></trkpt><trkpt lat="43.9997856" lon="12.2036551"><ele>94.0</ele><time>2026-04-11T14:18:41.286Z</time></trkpt><trkpt lat="44.000088" lon="12.2036324"><ele>94.0</ele><time>2026-04-11T14:18:42.287Z</time></trkpt><trkpt lat="44.0003922" lon="12.2036082"><ele>94.0</ele><time>2026-04-11T14:18:43.286Z</time></trkpt><trkpt lat="44.0007025" lon="12.2035901"><ele>93.0</ele><time>2026-04-11T14:18:44.286Z</time></trkpt><trkpt lat="44.0010154" lon="12.2035703"><ele>92.0</ele><time>2026-04-11T14:18:45.286Z</time></trkpt><trkpt lat="44.0013286" lon="12.2035552"><ele>92.0</ele><time>2026-04-11T14:18:46.286Z</time></trkpt><trkpt lat="44.0016412" lon="12.2035381"><ele>92.0</ele><time>2026-04-11T14:18:47.286Z</time></trkpt><trkpt lat="44.0019636" lon="12.2035147"><ele>91.0</ele><time>2026-04-11T14:18:48.286Z</time></trkpt><trkpt lat="44.0022873" lon="12.2034934"><ele>90.0</ele><time>2026-04-11T14:18:49.286Z</time></trkpt><trkpt lat="44.0026139" lon="12.2034744"><ele>90.0</ele><time>2026-04-11T14:18:50.286Z</time></trkpt><trkpt lat="44.0029447" lon="12.2034578"><ele>90.0</ele><time>2026-04-11T14:18:51.286Z</time></trkpt><trkpt lat="44.0032755" lon="12.2034409"><ele>89.0</ele><time>2026-04-11T14:18:52.287Z</time></trkpt><trkpt lat="44.0036022" lon="12.2034237"><ele>88.0</ele><time>2026-04-11T14:18:53.285Z</time></trkpt><trkpt lat="44.003932" lon="12.2034065"><ele>88.5</ele><time>2026-04-11T14:18:54.284Z</time></trkpt><trkpt lat="44.0042583" lon="12.2033926"><ele>89.0</ele><time>2026-04-11T14:18:55.285Z</time></trkpt><trkpt lat="44.0045847" lon="12.2033835"><ele>89.0</ele><time>2026-04-11T14:18:56.285Z</time></trkpt><trkpt lat="44.0049098" lon="12.203374"><ele>89.0</ele><time>2026-04-11T14:18:57.287Z</time></trkpt><trkpt lat="44.0052348" lon="12.2033578"><ele>88.5</ele><time>2026-04-11T14:18:58.286Z</time></trkpt><trkpt lat="44.0055566" lon="12.2033409"><ele>88.0</ele><time>2026-04-11T14:18:59.284Z</time></trkpt><trkpt lat="44.0058753" lon="12.2033202"><ele>88.0</ele><time>2026-04-11T14:19:00.286Z</time></trkpt><trkpt lat="44.0061909" lon="12.2032976"><ele>88.0</ele><time>2026-04-11T14:19:01.285Z</time></trkpt><trkpt lat="44.0065044" lon="12.2032803"><ele>88.5</ele><time>2026-04-11T14:19:02.286Z</time></trkpt><trkpt lat="44.0068214" lon="12.2032605"><ele>89.0</ele><time>2026-04-11T14:19:03.286Z</time></trkpt><trkpt lat="44.0071345" lon="12.2032449"><ele>89.0</ele><time>2026-04-11T14:19:04.286Z</time></trkpt><trkpt lat="44.0074439" lon="12.2032285"><ele>89.0</ele><time>2026-04-11T14:19:05.286Z</time></trkpt><trkpt lat="44.0077517" lon="12.2032085"><ele>89.5</ele><time>2026-04-11T14:19:06.286Z</time></trkpt><trkpt lat="44.0080568" lon="12.2031899"><ele>90.0</ele><time>2026-04-11T14:19:07.286Z</time></trkpt><trkpt lat="44.0083623" lon="12.2031748"><ele>88.5</ele><time>2026-04-11T14:19:08.287Z</time></trkpt><trkpt lat="44.0086671" lon="12.203159"><ele>87.0</ele><time>2026-04-11T14:19:09.286Z</time></trkpt><trkpt lat="44.0089714" lon="12.2031426"><ele>86.5</ele><time>2026-04-11T14:19:10.286Z</time></trkpt><trkpt lat="44.0092738" lon="12.2031244"><ele>86.0</ele><time>2026-04-11T14:19:11.285Z</time></trkpt><trkpt lat="44.0095779" lon="12.2031115"><ele>86.0</ele><time>2026-04-11T14:19:12.286Z</time></trkpt><trkpt lat="44.0098742" lon="12.2030902"><ele>86.0</ele><time>2026-04-11T14:19:13.285Z</time></trkpt><trkpt lat="44.0101736" lon="12.2030801"><ele>86.0</ele><time>2026-04-11T14:19:14.287Z</time></trkpt><trkpt lat="44.0104663" lon="12.2030787"><ele>86.0</ele><time>2026-04-11T14:19:15.286Z</time></trkpt><trkpt lat="44.0107631" lon="12.2030975"><ele>87.0</ele><time>2026-04-11T14:19:16.285Z</time></trkpt><trkpt lat="44.0110589" lon="12.2031283"><ele>88.0</ele><time>2026-04-11T14:19:17.286Z</time></trkpt><trkpt lat="44.0113495" lon="12.2031749"><ele>88.5</ele><time>2026-04-11T14:19:18.286Z</time></trkpt><trkpt lat="44.011635" lon="12.2032332"><ele>89.0</ele><time>2026-04-11T14:19:19.287Z</time></trkpt><trkpt lat="44.0119213" lon="12.2033108"><ele>88.0</ele><time>2026-04-11T14:19:20.285Z</time></trkpt><trkpt lat="44.0122112" lon="12.2034123"><ele>87.0</ele><time>2026-04-11T14:19:21.286Z</time></trkpt><trkpt lat="44.0125042" lon="12.2035277"><ele>86.5</ele><time>2026-04-11T14:19:22.285Z</time></trkpt><trkpt lat="44.0127956" lon="12.2036532"><ele>86.0</ele><time>2026-04-11T14:19:23.285Z</time></trkpt><trkpt lat="44.0130869" lon="12.2037744"><ele>86.5</ele><time>2026-04-11T14:19:24.287Z</time></trkpt><trkpt lat="44.0133746" lon="12.2038944"><ele>87.0</ele><time>2026-04-11T14:19:25.286Z</time></trkpt><trkpt lat="44.0136562" lon="12.2040119"><ele>87.0</ele><time>2026-04-11T14:19:26.287Z</time></trkpt><trkpt lat="44.0139326" lon="12.2041284"><ele>87.0</ele><time>2026-04-11T14:19:27.285Z</time></trkpt><trkpt lat="44.0142045" lon="12.2042423"><ele>86.5</ele><time>2026-04-11T14:19:28.285Z</time></trkpt><trkpt lat="44.0144775" lon="12.204357"><ele>86.0</ele><time>2026-04-11T14:19:29.285Z</time></trkpt><trkpt lat="44.0147457" lon="12.2044626"><ele>86.0</ele><time>2026-04-11T14:19:30.286Z</time></trkpt><trkpt lat="44.0150094" lon="12.2045613"><ele>86.0</ele><time>2026-04-11T14:19:31.286Z</time></trkpt><trkpt lat="44.0152793" lon="12.2046455"><ele>86.0</ele><time>2026-04-11T14:19:32.286Z</time></trkpt><trkpt lat="44.0155551" lon="12.2047119"><ele>86.0</ele><time>2026-04-11T14:19:33.285Z</time></trkpt><trkpt lat="44.0158342" lon="12.2047606"><ele>86.0</ele><time>2026-04-11T14:19:34.286Z</time></trkpt><trkpt lat="44.0161177" lon="12.2047936"><ele>86.0</ele><time>2026-04-11T14:19:35.286Z</time></trkpt><trkpt lat="44.016408" lon="12.2048114"><ele>85.0</ele><time>2026-04-11T14:19:36.286Z</time></trkpt><trkpt lat="44.0167003" lon="12.2048087"><ele>84.0</ele><time>2026-04-11T14:19:37.286Z</time></trkpt><trkpt lat="44.0169953" lon="12.2047911"><ele>84.0</ele><time>2026-04-11T14:19:38.285Z</time></trkpt><trkpt lat="44.0172927" lon="12.2047589"><ele>84.0</ele><time>2026-04-11T14:19:39.286Z</time></trkpt><trkpt lat="44.0175933" lon="12.2046968"><ele>83.5</ele><time>2026-04-11T14:19:40.286Z</time></trkpt><trkpt lat="44.0178982" lon="12.2046153"><ele>83.0</ele><time>2026-04-11T14:19:41.286Z</time></trkpt><trkpt lat="44.0182094" lon="12.2045118"><ele>85.0</ele><time>2026-04-11T14:19:42.286Z</time></trkpt><trkpt lat="44.0185273" lon="12.2043936"><ele>87.0</ele><time>2026-04-11T14:19:43.286Z</time></trkpt><trkpt lat="44.0188504" lon="12.204276"><ele>87.0</ele><time>2026-04-11T14:19:44.286Z</time></trkpt><trkpt lat="44.0191811" lon="12.2041564"><ele>87.0</ele><time>2026-04-11T14:19:45.285Z</time></trkpt><trkpt lat="44.0195194" lon="12.2040335"><ele>87.0</ele><time>2026-04-11T14:19:46.285Z</time></trkpt><trkpt lat="44.019865" lon="12.2039082"><ele>87.0</ele><time>2026-04-11T14:19:47.286Z</time></trkpt><trkpt lat="44.0202149" lon="12.2037838"><ele>87.0</ele><time>2026-04-11T14:19:48.287Z</time></trkpt><trkpt lat="44.0205584" lon="12.203659"><ele>87.0</ele><time>2026-04-11T14:19:49.287Z</time></trkpt><trkpt lat="44.0209038" lon="12.2035362"><ele>88.0</ele><time>2026-04-11T14:19:50.286Z</time></trkpt><trkpt lat="44.0212497" lon="12.2034156"><ele>89.0</ele><time>2026-04-11T14:19:51.285Z</time></trkpt><trkpt lat="44.0215981" lon="12.2032978"><ele>87.5</ele><time>2026-04-11T14:19:52.286Z</time></trkpt><trkpt lat="44.0219393" lon="12.2031574"><ele>86.0</ele><time>2026-04-11T14:19:53.285Z</time></trkpt><trkpt lat="44.0222881" lon="12.2030415"><ele>86.0</ele><time>2026-04-11T14:19:54.286Z</time></trkpt><trkpt lat="44.0226366" lon="12.2029267"><ele>86.0</ele><time>2026-04-11T14:19:55.286Z</time></trkpt><trkpt lat="44.0229756" lon="12.2028124"><ele>86.0</ele><time>2026-04-11T14:19:56.285Z</time></trkpt><trkpt lat="44.0233057" lon="12.2026952"><ele>86.0</ele><time>2026-04-11T14:19:57.285Z</time></trkpt><trkpt lat="44.0236295" lon="12.2025798"><ele>85.0</ele><time>2026-04-11T14:19:58.287Z</time></trkpt><trkpt lat="44.0239485" lon="12.202464"><ele>84.0</ele><time>2026-04-11T14:19:59.285Z</time></trkpt><trkpt lat="44.0242632" lon="12.2023475"><ele>82.0</ele><time>2026-04-11T14:20:00.286Z</time></trkpt><trkpt lat="44.0245733" lon="12.202224"><ele>80.0</ele><time>2026-04-11T14:20:01.287Z</time></trkpt><trkpt lat="44.0248797" lon="12.20209"><ele>80.0</ele><time>2026-04-11T14:20:02.286Z</time></trkpt><trkpt lat="44.0251822" lon="12.2019344"><ele>80.0</ele><time>2026-04-11T14:20:03.285Z</time></trkpt><trkpt lat="44.0254803" lon="12.2017604"><ele>80.0</ele><time>2026-04-11T14:20:04.286Z</time></trkpt><trkpt lat="44.0257747" lon="12.2015713"><ele>80.0</ele><time>2026-04-11T14:20:05.286Z</time></trkpt><trkpt lat="44.0260587" lon="12.20137"><ele>78.5</ele><time>2026-04-11T14:20:06.284Z</time></trkpt><trkpt lat="44.02634" lon="12.2011582"><ele>77.0</ele><time>2026-04-11T14:20:07.286Z</time></trkpt><trkpt lat="44.0266194" lon="12.2009333"><ele>77.0</ele><time>2026-04-11T14:20:08.286Z</time></trkpt><trkpt lat="44.0268923" lon="12.2006932"><ele>77.0</ele><time>2026-04-11T14:20:09.286Z</time></trkpt><trkpt lat="44.027157" lon="12.2004329"><ele>77.0</ele><time>2026-04-11T14:20:10.286Z</time></trkpt><trkpt lat="44.02742" lon="12.2001512"><ele>77.0</ele><time>2026-04-11T14:20:11.285Z</time></trkpt><trkpt lat="44.0276806" lon="12.1998652"><ele>76.0</ele><time>2026-04-11T14:20:12.285Z</time></trkpt><trkpt lat="44.0279327" lon="12.1995617"><ele>75.0</ele><time>2026-04-11T14:20:13.287Z</time></trkpt><trkpt lat="44.028197" lon="12.1992707"><ele>74.5</ele><time>2026-04-11T14:20:14.287Z</time></trkpt><trkpt lat="44.0284599" lon="12.1989784"><ele>74.0</ele><time>2026-04-11T14:20:15.286Z</time></trkpt><trkpt lat="44.0287264" lon="12.1986889"><ele>74.0</ele><time>2026-04-11T14:20:16.285Z</time></trkpt><trkpt lat="44.0289888" lon="12.1983961"><ele>74.0</ele><time>2026-04-11T14:20:17.286Z</time></trkpt><trkpt lat="44.0292534" lon="12.1981025"><ele>75.5</ele><time>2026-04-11T14:20:18.285Z</time></trkpt><trkpt lat="44.029518" lon="12.1978089"><ele>77.0</ele><time>2026-04-11T14:20:19.286Z</time></trkpt><trkpt lat="44.029784" lon="12.1975178"><ele>78.5</ele><time>2026-04-11T14:20:20.285Z</time></trkpt><trkpt lat="44.0300461" lon="12.197227"><ele>80.0</ele><time>2026-04-11T14:20:21.286Z</time></trkpt><trkpt lat="44.0303097" lon="12.1969385"><ele>80.0</ele><time>2026-04-11T14:20:22.287Z</time></trkpt><trkpt lat="44.0305741" lon="12.1966538"><ele>80.0</ele><time>2026-04-11T14:20:23.285Z</time></trkpt><trkpt lat="44.0308357" lon="12.1963653"><ele>83.5</ele><time>2026-04-11T14:20:24.285Z</time></trkpt><trkpt lat="44.0310905" lon="12.1960763"><ele>87.0</ele><time>2026-04-11T14:20:25.286Z</time></trkpt><trkpt lat="44.031347" lon="12.1957939"><ele>86.0</ele><time>2026-04-11T14:20:26.287Z</time></trkpt><trkpt lat="44.031606" lon="12.1955011"><ele>85.0</ele><time>2026-04-11T14:20:27.286Z</time></trkpt><trkpt lat="44.0318705" lon="12.1951949"><ele>85.0</ele><time>2026-04-11T14:20:28.286Z</time></trkpt><trkpt lat="44.0321399" lon="12.1948795"><ele>85.0</ele><time>2026-04-11T14:20:29.285Z</time></trkpt><trkpt lat="44.0324144" lon="12.1945618"><ele>79.0</ele><time>2026-04-11T14:20:30.286Z</time></trkpt><trkpt lat="44.0326942" lon="12.1942427"><ele>73.0</ele><time>2026-04-11T14:20:31.285Z</time></trkpt><trkpt lat="44.0329767" lon="12.1939269"><ele>73.0</ele><time>2026-04-11T14:20:32.286Z</time></trkpt><trkpt lat="44.0332588" lon="12.1936017"><ele>73.0</ele><time>2026-04-11T14:20:33.286Z</time></trkpt><trkpt lat="44.033547" lon="12.1932818"><ele>72.5</ele><time>2026-04-11T14:20:34.285Z</time></trkpt><trkpt lat="44.0338317" lon="12.1929652"><ele>72.0</ele><time>2026-04-11T14:20:35.286Z</time></trkpt><trkpt lat="44.034116" lon="12.192651"><ele>72.0</ele><time>2026-04-11T14:20:36.285Z</time></trkpt><trkpt lat="44.0343977" lon="12.192341"><ele>72.0</ele><time>2026-04-11T14:20:37.285Z</time></trkpt><trkpt lat="44.0346735" lon="12.1920369"><ele>71.5</ele><time>2026-04-11T14:20:38.286Z</time></trkpt><trkpt lat="44.0349475" lon="12.1917373"><ele>71.0</ele><time>2026-04-11T14:20:39.286Z</time></trkpt><trkpt lat="44.0352213" lon="12.1914462"><ele>71.0</ele><time>2026-04-11T14:20:40.285Z</time></trkpt><trkpt lat="44.0354958" lon="12.1911672"><ele>71.0</ele><time>2026-04-11T14:20:41.286Z</time></trkpt><trkpt lat="44.0357762" lon="12.190901"><ele>71.5</ele><time>2026-04-11T14:20:42.286Z</time></trkpt><trkpt lat="44.0360637" lon="12.1906524"><ele>72.0</ele><time>2026-04-11T14:20:43.287Z</time></trkpt><trkpt lat="44.0363599" lon="12.1904187"><ele>72.5</ele><time>2026-04-11T14:20:44.286Z</time></trkpt><trkpt lat="44.0366651" lon="12.1901957"><ele>73.0</ele><time>2026-04-11T14:20:45.286Z</time></trkpt><trkpt lat="44.0369766" lon="12.1899876"><ele>73.0</ele><time>2026-04-11T14:20:46.286Z</time></trkpt><trkpt lat="44.0372978" lon="12.1897948"><ele>73.0</ele><time>2026-04-11T14:20:47.285Z</time></trkpt><trkpt lat="44.0376265" lon="12.1896133"><ele>73.0</ele><time>2026-04-11T14:20:48.286Z</time></trkpt><trkpt lat="44.0379606" lon="12.1894369"><ele>73.0</ele><time>2026-04-11T14:20:49.285Z</time></trkpt><trkpt lat="44.0382934" lon="12.1892573"><ele>73.5</ele><time>2026-04-11T14:20:50.285Z</time></trkpt><trkpt lat="44.0386134" lon="12.1890734"><ele>74.0</ele><time>2026-04-11T14:20:51.286Z</time></trkpt><trkpt lat="44.0389386" lon="12.1888975"><ele>72.0</ele><time>2026-04-11T14:20:52.286Z</time></trkpt><trkpt lat="44.0392549" lon="12.188717"><ele>70.0</ele><time>2026-04-11T14:20:53.286Z</time></trkpt><trkpt lat="44.039571" lon="12.1885399"><ele>70.0</ele><time>2026-04-11T14:20:54.286Z</time></trkpt><trkpt lat="44.0398847" lon="12.188363"><ele>70.0</ele><time>2026-04-11T14:20:55.285Z</time></trkpt><trkpt lat="44.0401942" lon="12.1881858"><ele>69.0</ele><time>2026-04-11T14:20:56.286Z</time></trkpt><trkpt lat="44.0405041" lon="12.1880089"><ele>68.0</ele><time>2026-04-11T14:20:57.286Z</time></trkpt><trkpt lat="44.0408129" lon="12.1878344"><ele>68.0</ele><time>2026-04-11T14:20:58.285Z</time></trkpt><trkpt lat="44.0411244" lon="12.1876586"><ele>68.0</ele><time>2026-04-11T14:20:59.285Z</time></trkpt><trkpt lat="44.0414354" lon="12.1874822"><ele>70.5</ele><time>2026-04-11T14:21:00.287Z</time></trkpt><trkpt lat="44.0417432" lon="12.1873081"><ele>73.0</ele><time>2026-04-11T14:21:01.286Z</time></trkpt><trkpt lat="44.042052" lon="12.187124"><ele>73.0</ele><time>2026-04-11T14:21:02.286Z</time></trkpt><trkpt lat="44.0423587" lon="12.1869435"><ele>73.0</ele><time>2026-04-11T14:21:03.285Z</time></trkpt><trkpt lat="44.0426617" lon="12.1867682"><ele>72.5</ele><time>2026-04-11T14:21:04.284Z</time></trkpt><trkpt lat="44.0429603" lon="12.1865962"><ele>72.0</ele><time>2026-04-11T14:21:05.286Z</time></trkpt><trkpt lat="44.0432538" lon="12.18643"><ele>72.5</ele><time>2026-04-11T14:21:06.287Z</time></trkpt><trkpt lat="44.0435403" lon="12.1862672"><ele>73.0</ele><time>2026-04-11T14:21:07.285Z</time></trkpt><trkpt lat="44.0438294" lon="12.1861015"><ele>73.0</ele><time>2026-04-11T14:21:08.286Z</time></trkpt><trkpt lat="44.0441186" lon="12.1859406"><ele>73.0</ele><time>2026-04-11T14:21:09.286Z</time></trkpt><trkpt lat="44.0444081" lon="12.1857779"><ele>74.5</ele><time>2026-04-11T14:21:10.286Z</time></trkpt><trkpt lat="44.0446986" lon="12.1856142"><ele>76.0</ele><time>2026-04-11T14:21:11.286Z</time></trkpt><trkpt lat="44.0449937" lon="12.1854524"><ele>76.0</ele><time>2026-04-11T14:21:12.285Z</time></trkpt><trkpt lat="44.0452789" lon="12.1852868"><ele>76.0</ele><time>2026-04-11T14:21:13.286Z</time></trkpt><trkpt lat="44.0455807" lon="12.1851199"><ele>76.5</ele><time>2026-04-11T14:21:14.285Z</time></trkpt><trkpt lat="44.0458833" lon="12.1849492"><ele>77.0</ele><time>2026-04-11T14:21:15.285Z</time></trkpt><trkpt lat="44.0461814" lon="12.1847818"><ele>77.5</ele><time>2026-04-11T14:21:16.286Z</time></trkpt><trkpt lat="44.0464771" lon="12.1846175"><ele>78.0</ele><time>2026-04-11T14:21:17.286Z</time></trkpt><trkpt lat="44.0467641" lon="12.184455"><ele>80.0</ele><time>2026-04-11T14:21:18.287Z</time></trkpt><trkpt lat="44.047042" lon="12.1842962"><ele>82.0</ele><time>2026-04-11T14:21:19.285Z</time></trkpt><trkpt lat="44.0473236" lon="12.1841381"><ele>81.5</ele><time>2026-04-11T14:21:20.287Z</time></trkpt><trkpt lat="44.047602" lon="12.1839784"><ele>81.0</ele><time>2026-04-11T14:21:21.285Z</time></trkpt><trkpt lat="44.0478758" lon="12.1838236"><ele>81.0</ele><time>2026-04-11T14:21:22.286Z</time></trkpt><trkpt lat="44.0481417" lon="12.1836719"><ele>81.0</ele><time>2026-04-11T14:21:23.285Z</time></trkpt><trkpt lat="44.048404" lon="12.1835254"><ele>79.0</ele><time>2026-04-11T14:21:24.286Z</time></trkpt><trkpt lat="44.0486704" lon="12.1833872"><ele>77.0</ele><time>2026-04-11T14:21:25.286Z</time></trkpt><trkpt lat="44.0489266" lon="12.1832431"><ele>78.0</ele><time>2026-04-11T14:21:26.286Z</time></trkpt><trkpt lat="44.0491826" lon="12.1831088"><ele>79.0</ele><time>2026-04-11T14:21:27.285Z</time></trkpt><trkpt lat="44.0494391" lon="12.1829833"><ele>79.0</ele><time>2026-04-11T14:21:28.286Z</time></trkpt><trkpt lat="44.0496946" lon="12.1828761"><ele>79.0</ele><time>2026-04-11T14:21:29.286Z</time></trkpt><trkpt lat="44.0499563" lon="12.1827777"><ele>77.5</ele><time>2026-04-11T14:21:30.285Z</time></trkpt><trkpt lat="44.0502256" lon="12.1826868"><ele>76.0</ele><time>2026-04-11T14:21:31.287Z</time></trkpt><trkpt lat="44.0505062" lon="12.1826072"><ele>73.5</ele><time>2026-04-11T14:21:32.286Z</time></trkpt><trkpt lat="44.0507997" lon="12.1825297"><ele>71.0</ele><time>2026-04-11T14:21:33.285Z</time></trkpt><trkpt lat="44.0511035" lon="12.1824528"><ele>71.0</ele><time>2026-04-11T14:21:34.286Z</time></trkpt><trkpt lat="44.0514082" lon="12.1823747"><ele>71.0</ele><time>2026-04-11T14:21:35.285Z</time></trkpt><trkpt lat="44.0517128" lon="12.1823037"><ele>69.0</ele><time>2026-04-11T14:21:36.285Z</time></trkpt><trkpt lat="44.0520089" lon="12.1822347"><ele>67.0</ele><time>2026-04-11T14:21:37.285Z</time></trkpt><trkpt lat="44.0523159" lon="12.1821792"><ele>66.5</ele><time>2026-04-11T14:21:38.287Z</time></trkpt><trkpt lat="44.0526258" lon="12.1821423"><ele>66.0</ele><time>2026-04-11T14:21:39.286Z</time></trkpt><trkpt lat="44.0529429" lon="12.1821271"><ele>66.0</ele><time>2026-04-11T14:21:40.286Z</time></trkpt><trkpt lat="44.0532651" lon="12.1821321"><ele>66.0</ele><time>2026-04-11T14:21:41.286Z</time></trkpt><trkpt lat="44.0535929" lon="12.182141"><ele>66.5</ele><time>2026-04-11T14:21:42.286Z</time></trkpt><trkpt lat="44.0539291" lon="12.1821518"><ele>67.0</ele><time>2026-04-11T14:21:43.285Z</time></trkpt><trkpt lat="44.0542655" lon="12.1821587"><ele>67.0</ele><time>2026-04-11T14:21:44.286Z</time></trkpt><trkpt lat="44.0546045" lon="12.1821648"><ele>67.0</ele><time>2026-04-11T14:21:45.286Z</time></trkpt><trkpt lat="44.0549479" lon="12.1821778"><ele>69.0</ele><time>2026-04-11T14:21:46.285Z</time></trkpt><trkpt lat="44.0552945" lon="12.1821923"><ele>71.0</ele><time>2026-04-11T14:21:47.285Z</time></trkpt><trkpt lat="44.0556416" lon="12.1822078"><ele>75.5</ele><time>2026-04-11T14:21:48.286Z</time></trkpt><trkpt lat="44.0559914" lon="12.1822203"><ele>80.0</ele><time>2026-04-11T14:21:49.286Z</time></trkpt><trkpt lat="44.0563443" lon="12.1822342"><ele>83.5</ele><time>2026-04-11T14:21:50.285Z</time></trkpt><trkpt lat="44.0566967" lon="12.1822416"><ele>87.0</ele><time>2026-04-11T14:21:51.286Z</time></trkpt><trkpt lat="44.0570522" lon="12.1822471"><ele>87.0</ele><time>2026-04-11T14:21:52.286Z</time></trkpt><trkpt lat="44.0574062" lon="12.1822564"><ele>87.0</ele><time>2026-04-11T14:21:53.286Z</time></trkpt><trkpt lat="44.0577578" lon="12.1822625"><ele>88.0</ele><time>2026-04-11T14:21:54.285Z</time></trkpt><trkpt lat="44.0581101" lon="12.1822802"><ele>89.0</ele><time>2026-04-11T14:21:55.285Z</time></trkpt><trkpt lat="44.0584663" lon="12.1822844"><ele>89.0</ele><time>2026-04-11T14:21:56.286Z</time></trkpt><trkpt lat="44.0588235" lon="12.1822932"><ele>89.0</ele><time>2026-04-11T14:21:57.285Z</time></trkpt><trkpt lat="44.0591846" lon="12.1823001"><ele>89.0</ele><time>2026-04-11T14:21:58.286Z</time></trkpt><trkpt lat="44.0595462" lon="12.1823063"><ele>89.0</ele><time>2026-04-11T14:21:59.285Z</time></trkpt><trkpt lat="44.0598931" lon="12.182309"><ele>89.5</ele><time>2026-04-11T14:22:00.286Z</time></trkpt><trkpt lat="44.0602244" lon="12.1823228"><ele>90.0</ele><time>2026-04-11T14:22:01.286Z</time></trkpt><trkpt lat="44.0605409" lon="12.1823385"><ele>88.0</ele><time>2026-04-11T14:22:02.286Z</time></trkpt><trkpt lat="44.0608437" lon="12.1823703"><ele>86.0</ele><time>2026-04-11T14:22:03.285Z</time></trkpt><trkpt lat="44.0611369" lon="12.1824175"><ele>86.0</ele><time>2026-04-11T14:22:04.285Z</time></trkpt><trkpt lat="44.0614241" lon="12.1824938"><ele>86.0</ele><time>2026-04-11T14:22:05.285Z</time></trkpt><trkpt lat="44.0617085" lon="12.1826079"><ele>86.0</ele><time>2026-04-11T14:22:06.285Z</time></trkpt><trkpt lat="44.0619923" lon="12.1827408"><ele>86.0</ele><time>2026-04-11T14:22:07.285Z</time></trkpt><trkpt lat="44.0622732" lon="12.1828856"><ele>86.0</ele><time>2026-04-11T14:22:08.286Z</time></trkpt><trkpt lat="44.0625427" lon="12.1830367"><ele>86.0</ele><time>2026-04-11T14:22:09.286Z</time></trkpt><trkpt lat="44.0628142" lon="12.183182"><ele>86.0</ele><time>2026-04-11T14:22:10.286Z</time></trkpt><trkpt lat="44.0630838" lon="12.1833275"><ele>86.0</ele><time>2026-04-11T14:22:11.286Z</time></trkpt><trkpt lat="44.0633503" lon="12.1834728"><ele>86.5</ele><time>2026-04-11T14:22:12.286Z</time></trkpt><trkpt lat="44.0636113" lon="12.1836161"><ele>87.0</ele><time>2026-04-11T14:22:13.287Z</time></trkpt><trkpt lat="44.0638705" lon="12.1837567"><ele>87.5</ele><time>2026-04-11T14:22:14.285Z</time></trkpt><trkpt lat="44.0641315" lon="12.1839004"><ele>88.0</ele><time>2026-04-11T14:22:15.286Z</time></trkpt><trkpt lat="44.0643933" lon="12.1840376"><ele>86.5</ele><time>2026-04-11T14:22:16.286Z</time></trkpt><trkpt lat="44.0646592" lon="12.1841606"><ele>85.0</ele><time>2026-04-11T14:22:17.286Z</time></trkpt><trkpt lat="44.0649317" lon="12.1842703"><ele>83.5</ele><time>2026-04-11T14:22:18.285Z</time></trkpt><trkpt lat="44.065213" lon="12.1843712"><ele>82.0</ele><time>2026-04-11T14:22:19.286Z</time></trkpt><trkpt lat="44.0654952" lon="12.1844689"><ele>82.0</ele><time>2026-04-11T14:22:20.286Z</time></trkpt><trkpt lat="44.0657751" lon="12.1845712"><ele>82.0</ele><time>2026-04-11T14:22:21.286Z</time></trkpt><trkpt lat="44.0660513" lon="12.184679"><ele>80.0</ele><time>2026-04-11T14:22:22.285Z</time></trkpt><trkpt lat="44.0663223" lon="12.1847887"><ele>78.0</ele><time>2026-04-11T14:22:23.286Z</time></trkpt><trkpt lat="44.0665982" lon="12.1848932"><ele>80.5</ele><time>2026-04-11T14:22:24.287Z</time></trkpt><trkpt lat="44.0668758" lon="12.1850032"><ele>83.0</ele><time>2026-04-11T14:22:25.286Z</time></trkpt><trkpt lat="44.0671507" lon="12.1851185"><ele>83.0</ele><time>2026-04-11T14:22:26.286Z</time></trkpt><trkpt lat="44.067426" lon="12.1852426"><ele>83.0</ele><time>2026-04-11T14:22:27.284Z</time></trkpt><trkpt lat="44.0677019" lon="12.1853827"><ele>83.5</ele><time>2026-04-11T14:22:28.286Z</time></trkpt><trkpt lat="44.067977" lon="12.1855307"><ele>84.0</ele><time>2026-04-11T14:22:29.285Z</time></trkpt><trkpt lat="44.0682524" lon="12.1856871"><ele>84.5</ele><time>2026-04-11T14:22:30.286Z</time></trkpt><trkpt lat="44.0685272" lon="12.1858519"><ele>85.0</ele><time>2026-04-11T14:22:31.285Z</time></trkpt><trkpt lat="44.0688054" lon="12.1860165"><ele>85.0</ele><time>2026-04-11T14:22:32.285Z</time></trkpt><trkpt lat="44.0690834" lon="12.186179"><ele>85.0</ele><time>2026-04-11T14:22:33.287Z</time></trkpt><trkpt lat="44.0693653" lon="12.1863428"><ele>83.5</ele><time>2026-04-11T14:22:34.286Z</time></trkpt><trkpt lat="44.0696469" lon="12.1865097"><ele>82.0</ele><time>2026-04-11T14:22:35.285Z</time></trkpt><trkpt lat="44.0699276" lon="12.1866722"><ele>81.5</ele><time>2026-04-11T14:22:36.286Z</time></trkpt><trkpt lat="44.0702058" lon="12.1868361"><ele>81.0</ele><time>2026-04-11T14:22:37.286Z</time></trkpt><trkpt lat="44.0704828" lon="12.1870017"><ele>81.0</ele><time>2026-04-11T14:22:38.286Z</time></trkpt><trkpt lat="44.070761" lon="12.1871628"><ele>81.0</ele><time>2026-04-11T14:22:39.286Z</time></trkpt><trkpt lat="44.0710422" lon="12.1873251"><ele>80.5</ele><time>2026-04-11T14:22:40.285Z</time></trkpt><trkpt lat="44.0713221" lon="12.18749"><ele>80.0</ele><time>2026-04-11T14:22:41.285Z</time></trkpt><trkpt lat="44.0716014" lon="12.1876498"><ele>79.5</ele><time>2026-04-11T14:22:42.286Z</time></trkpt><trkpt lat="44.0718836" lon="12.1878107"><ele>79.0</ele><time>2026-04-11T14:22:43.285Z</time></trkpt><trkpt lat="44.0721669" lon="12.1879727"><ele>78.0</ele><time>2026-04-11T14:22:44.284Z</time></trkpt><trkpt lat="44.0724473" lon="12.1881368"><ele>77.0</ele><time>2026-04-11T14:22:45.286Z</time></trkpt><trkpt lat="44.0727278" lon="12.1883006"><ele>76.5</ele><time>2026-04-11T14:22:46.286Z</time></trkpt><trkpt lat="44.0730102" lon="12.1884681"><ele>76.0</ele><time>2026-04-11T14:22:47.287Z</time></trkpt><trkpt lat="44.0732923" lon="12.1886378"><ele>75.0</ele><time>2026-04-11T14:22:48.285Z</time></trkpt><trkpt lat="44.0735769" lon="12.1888061"><ele>74.0</ele><time>2026-04-11T14:22:49.285Z</time></trkpt><trkpt lat="44.0738629" lon="12.1889742"><ele>73.0</ele><time>2026-04-11T14:22:50.285Z</time></trkpt><trkpt lat="44.0741463" lon="12.189141"><ele>72.0</ele><time>2026-04-11T14:22:51.286Z</time></trkpt><trkpt lat="44.0744342" lon="12.1893101"><ele>72.0</ele><time>2026-04-11T14:22:52.287Z</time></trkpt><trkpt lat="44.0747235" lon="12.1894823"><ele>72.0</ele><time>2026-04-11T14:22:53.285Z</time></trkpt><trkpt lat="44.075018" lon="12.1896543"><ele>72.0</ele><time>2026-04-11T14:22:54.285Z</time></trkpt><trkpt lat="44.0753238" lon="12.1898343"><ele>72.0</ele><time>2026-04-11T14:22:55.285Z</time></trkpt><trkpt lat="44.075636" lon="12.190018"><ele>72.5</ele><time>2026-04-11T14:22:56.286Z</time></trkpt><trkpt lat="44.0759566" lon="12.1902065"><ele>73.0</ele><time>2026-04-11T14:22:57.285Z</time></trkpt><trkpt lat="44.0762799" lon="12.1904085"><ele>72.5</ele><time>2026-04-11T14:22:58.286Z</time></trkpt><trkpt lat="44.0766043" lon="12.1906171"><ele>72.0</ele><time>2026-04-11T14:22:59.284Z</time></trkpt><trkpt lat="44.0769296" lon="12.1908322"><ele>71.5</ele><time>2026-04-11T14:23:00.285Z</time></trkpt><trkpt lat="44.0772544" lon="12.1910551"><ele>71.0</ele><time>2026-04-11T14:23:01.285Z</time></trkpt><trkpt lat="44.0775631" lon="12.1912656"><ele>71.0</ele><time>2026-04-11T14:23:02.286Z</time></trkpt><trkpt lat="44.0778231" lon="12.1914459"><ele>71.0</ele><time>2026-04-11T14:23:03.287Z</time></trkpt><trkpt lat="44.0780648" lon="12.1916126"><ele>71.0</ele><time>2026-04-11T14:23:04.286Z</time></trkpt><trkpt lat="44.0782999" lon="12.1917714"><ele>71.0</ele><time>2026-04-11T14:23:05.285Z</time></trkpt><trkpt lat="44.0785299" lon="12.191928"><ele>71.0</ele><time>2026-04-11T14:23:06.287Z</time></trkpt><trkpt lat="44.0787555" lon="12.1920844"><ele>71.0</ele><time>2026-04-11T14:23:07.285Z</time></trkpt><trkpt lat="44.0789773" lon="12.192237"><ele>72.0</ele><time>2026-04-11T14:23:08.286Z</time></trkpt><trkpt lat="44.0791973" lon="12.192387"><ele>73.0</ele><time>2026-04-11T14:23:09.286Z</time></trkpt><trkpt lat="44.0794125" lon="12.192534"><ele>73.0</ele><time>2026-04-11T14:23:10.287Z</time></trkpt><trkpt lat="44.0796256" lon="12.1926809"><ele>73.0</ele><time>2026-04-11T14:23:11.285Z</time></trkpt><trkpt lat="44.0798368" lon="12.1928249"><ele>72.0</ele><time>2026-04-11T14:23:12.287Z</time></trkpt><trkpt lat="44.0800506" lon="12.192972"><ele>71.0</ele><time>2026-04-11T14:23:13.286Z</time></trkpt><trkpt lat="44.0802736" lon="12.1931216"><ele>70.0</ele><time>2026-04-11T14:23:14.286Z</time></trkpt><trkpt lat="44.0805058" lon="12.193274"><ele>69.0</ele><time>2026-04-11T14:23:15.286Z</time></trkpt><trkpt lat="44.080739" lon="12.1934312"><ele>68.0</ele><time>2026-04-11T14:23:16.286Z</time></trkpt><trkpt lat="44.0809736" lon="12.1935902"><ele>67.0</ele><time>2026-04-11T14:23:17.286Z</time></trkpt><trkpt lat="44.0811957" lon="12.1937452"><ele>67.0</ele><time>2026-04-11T14:23:18.286Z</time></trkpt><trkpt lat="44.0814074" lon="12.1938852"><ele>67.0</ele><time>2026-04-11T14:23:19.287Z</time></trkpt><trkpt lat="44.0816106" lon="12.1940238"><ele>67.0</ele><time>2026-04-11T14:23:20.285Z</time></trkpt><trkpt lat="44.0818086" lon="12.1941629"><ele>67.0</ele><time>2026-04-11T14:23:21.286Z</time></trkpt><trkpt lat="44.0820012" lon="12.1942984"><ele>67.0</ele><time>2026-04-11T14:23:22.286Z</time></trkpt><trkpt lat="44.0821956" lon="12.1944388"><ele>67.0</ele><time>2026-04-11T14:23:23.286Z</time></trkpt><trkpt lat="44.0823966" lon="12.1945806"><ele>67.0</ele><time>2026-04-11T14:23:24.285Z</time></trkpt><trkpt lat="44.0826023" lon="12.1947225"><ele>67.5</ele><time>2026-04-11T14:23:25.286Z</time></trkpt><trkpt lat="44.0828187" lon="12.1948701"><ele>68.0</ele><time>2026-04-11T14:23:26.287Z</time></trkpt><trkpt lat="44.0830448" lon="12.1950216"><ele>68.0</ele><time>2026-04-11T14:23:27.287Z</time></trkpt><trkpt lat="44.0832703" lon="12.1951784"><ele>68.0</ele><time>2026-04-11T14:23:28.285Z</time></trkpt><trkpt lat="44.0834966" lon="12.1953355"><ele>68.0</ele><time>2026-04-11T14:23:29.285Z</time></trkpt><trkpt lat="44.0837274" lon="12.1954957"><ele>68.0</ele><time>2026-04-11T14:23:30.286Z</time></trkpt><trkpt lat="44.083967" lon="12.1956616"><ele>68.0</ele><time>2026-04-11T14:23:31.285Z</time></trkpt><trkpt lat="44.0842133" lon="12.1958298"><ele>68.0</ele><time>2026-04-11T14:23:32.287Z</time></trkpt><trkpt lat="44.0844663" lon="12.1960024"><ele>68.0</ele><time>2026-04-11T14:23:33.286Z</time></trkpt><trkpt lat="44.084724" lon="12.1961804"><ele>68.0</ele><time>2026-04-11T14:23:34.287Z</time></trkpt><trkpt lat="44.0849845" lon="12.19636"><ele>66.5</ele><time>2026-04-11T14:23:35.286Z</time></trkpt><trkpt lat="44.0852448" lon="12.1965389"><ele>65.0</ele><time>2026-04-11T14:23:36.286Z</time></trkpt><trkpt lat="44.0855089" lon="12.1967203"><ele>64.5</ele><time>2026-04-11T14:23:37.285Z</time></trkpt><trkpt lat="44.0857756" lon="12.1969023"><ele>64.0</ele><time>2026-04-11T14:23:38.287Z</time></trkpt><trkpt lat="44.086041" lon="12.1970846"><ele>64.0</ele><time>2026-04-11T14:23:39.285Z</time></trkpt><trkpt lat="44.0863068" lon="12.1972655"><ele>64.0</ele><time>2026-04-11T14:23:40.285Z</time></trkpt><trkpt lat="44.0865783" lon="12.1974422"><ele>63.5</ele><time>2026-04-11T14:23:41.286Z</time></trkpt><trkpt lat="44.0868504" lon="12.1976221"><ele>63.0</ele><time>2026-04-11T14:23:42.286Z</time></trkpt><trkpt lat="44.0871209" lon="12.1977998"><ele>63.0</ele><time>2026-04-11T14:23:43.286Z</time></trkpt><trkpt lat="44.0873925" lon="12.1979721"><ele>63.0</ele><time>2026-04-11T14:23:44.286Z</time></trkpt><trkpt lat="44.0876647" lon="12.1981423"><ele>62.5</ele><time>2026-04-11T14:23:45.286Z</time></trkpt><trkpt lat="44.0879333" lon="12.198299"><ele>62.0</ele><time>2026-04-11T14:23:46.286Z</time></trkpt><trkpt lat="44.088213" lon="12.1984418"><ele>62.5</ele><time>2026-04-11T14:23:47.285Z</time></trkpt><trkpt lat="44.0885015" lon="12.198577"><ele>63.0</ele><time>2026-04-11T14:23:48.286Z</time></trkpt><trkpt lat="44.0887954" lon="12.1986922"><ele>63.0</ele><time>2026-04-11T14:23:49.286Z</time></trkpt><trkpt lat="44.0890949" lon="12.1987988"><ele>63.0</ele><time>2026-04-11T14:23:50.285Z</time></trkpt><trkpt lat="44.0893948" lon="12.1988861"><ele>63.0</ele><time>2026-04-11T14:23:51.286Z</time></trkpt><trkpt lat="44.0896966" lon="12.1989542"><ele>63.0</ele><time>2026-04-11T14:23:52.286Z</time></trkpt><trkpt lat="44.090004" lon="12.1990109"><ele>59.0</ele><time>2026-04-11T14:23:53.286Z</time></trkpt><trkpt lat="44.0903087" lon="12.1990507"><ele>55.0</ele><time>2026-04-11T14:23:54.286Z</time></trkpt><trkpt lat="44.0906149" lon="12.1990739"><ele>52.5</ele><time>2026-04-11T14:23:55.286Z</time></trkpt><trkpt lat="44.0909191" lon="12.1990815"><ele>50.0</ele><time>2026-04-11T14:23:56.286Z</time></trkpt><trkpt lat="44.0912218" lon="12.1990806"><ele>50.0</ele><time>2026-04-11T14:23:57.286Z</time></trkpt><trkpt lat="44.0915215" lon="12.1990665"><ele>50.0</ele><time>2026-04-11T14:23:58.286Z</time></trkpt><trkpt lat="44.0918233" lon="12.1990414"><ele>53.0</ele><time>2026-04-11T14:23:59.284Z</time></trkpt><trkpt lat="44.0921257" lon="12.1990099"><ele>56.0</ele><time>2026-04-11T14:24:00.284Z</time></trkpt><trkpt lat="44.0924271" lon="12.1989786"><ele>58.0</ele><time>2026-04-11T14:24:01.284Z</time></trkpt><trkpt lat="44.0927257" lon="12.1989454"><ele>60.0</ele><time>2026-04-11T14:24:02.287Z</time></trkpt><trkpt lat="44.0930369" lon="12.198917"><ele>60.0</ele><time>2026-04-11T14:24:03.285Z</time></trkpt><trkpt lat="44.0933531" lon="12.1988879"><ele>60.0</ele><time>2026-04-11T14:24:04.284Z</time></trkpt><trkpt lat="44.0936661" lon="12.1988614"><ele>60.0</ele><time>2026-04-11T14:24:05.286Z</time></trkpt><trkpt lat="44.0939776" lon="12.1988312"><ele>60.0</ele><time>2026-04-11T14:24:06.287Z</time></trkpt><trkpt lat="44.094282" lon="12.1988021"><ele>59.5</ele><time>2026-04-11T14:24:07.285Z</time></trkpt><trkpt lat="44.0945862" lon="12.1987711"><ele>59.0</ele><time>2026-04-11T14:24:08.286Z</time></trkpt><trkpt lat="44.0948921" lon="12.198743"><ele>58.5</ele><time>2026-04-11T14:24:09.287Z</time></trkpt><trkpt lat="44.0951901" lon="12.1987182"><ele>58.0</ele><time>2026-04-11T14:24:10.284Z</time></trkpt><trkpt lat="44.0954894" lon="12.1986882"><ele>57.5</ele><time>2026-04-11T14:24:11.286Z</time></trkpt><trkpt lat="44.0957874" lon="12.1986578"><ele>57.0</ele><time>2026-04-11T14:24:12.285Z</time></trkpt><trkpt lat="44.0960833" lon="12.1986317"><ele>57.0</ele><time>2026-04-11T14:24:13.285Z</time></trkpt><trkpt lat="44.0963795" lon="12.1986052"><ele>57.0</ele><time>2026-04-11T14:24:14.287Z</time></trkpt><trkpt lat="44.0966731" lon="12.1985835"><ele>58.0</ele><time>2026-04-11T14:24:15.286Z</time></trkpt><trkpt lat="44.0969658" lon="12.1985685"><ele>59.0</ele><time>2026-04-11T14:24:16.286Z</time></trkpt><trkpt lat="44.0972548" lon="12.198568"><ele>59.5</ele><time>2026-04-11T14:24:17.286Z</time></trkpt><trkpt lat="44.0975441" lon="12.1985786"><ele>60.0</ele><time>2026-04-11T14:24:18.286Z</time></trkpt><trkpt lat="44.0978365" lon="12.1986066"><ele>60.0</ele><time>2026-04-11T14:24:19.286Z</time></trkpt><trkpt lat="44.0981306" lon="12.1986387"><ele>60.0</ele><time>2026-04-11T14:24:20.285Z</time></trkpt><trkpt lat="44.0984283" lon="12.198674"><ele>59.0</ele><time>2026-04-11T14:24:21.285Z</time></trkpt><trkpt lat="44.0987258" lon="12.1987092"><ele>58.0</ele><time>2026-04-11T14:24:22.286Z</time></trkpt><trkpt lat="44.0990277" lon="12.1987352"><ele>59.0</ele><time>2026-04-11T14:24:23.286Z</time></trkpt><trkpt lat="44.0993278" lon="12.1987623"><ele>60.0</ele><time>2026-04-11T14:24:24.285Z</time></trkpt><trkpt lat="44.0996291" lon="12.1987934"><ele>59.5</ele><time>2026-04-11T14:24:25.284Z</time></trkpt><trkpt lat="44.0999292" lon="12.1988294"><ele>59.0</ele><time>2026-04-11T14:24:26.285Z</time></trkpt><trkpt lat="44.1002302" lon="12.1988727"><ele>59.0</ele><time>2026-04-11T14:24:27.286Z</time></trkpt><trkpt lat="44.1005339" lon="12.1989325"><ele>59.0</ele><time>2026-04-11T14:24:28.286Z</time></trkpt><trkpt lat="44.100832" lon="12.1990029"><ele>59.0</ele><time>2026-04-11T14:24:29.286Z</time></trkpt><trkpt lat="44.10113" lon="12.199088"><ele>59.0</ele><time>2026-04-11T14:24:30.286Z</time></trkpt><trkpt lat="44.1014269" lon="12.1991691"><ele>58.5</ele><time>2026-04-11T14:24:31.286Z</time></trkpt><trkpt lat="44.1017111" lon="12.1992449"><ele>58.0</ele><time>2026-04-11T14:24:32.287Z</time></trkpt><trkpt lat="44.1019955" lon="12.199328"><ele>58.0</ele><time>2026-04-11T14:24:33.286Z</time></trkpt><trkpt lat="44.1022845" lon="12.1994106"><ele>58.0</ele><time>2026-04-11T14:24:34.286Z</time></trkpt><trkpt lat="44.1025715" lon="12.1994911"><ele>58.5</ele><time>2026-04-11T14:24:35.286Z</time></trkpt><trkpt lat="44.1028576" lon="12.1995675"><ele>59.0</ele><time>2026-04-11T14:24:36.285Z</time></trkpt><trkpt lat="44.1031469" lon="12.1996532"><ele>58.5</ele><time>2026-04-11T14:24:37.285Z</time></trkpt><trkpt lat="44.1034374" lon="12.1997411"><ele>58.0</ele><time>2026-04-11T14:24:38.287Z</time></trkpt><trkpt lat="44.1037191" lon="12.1998388"><ele>58.0</ele><time>2026-04-11T14:24:39.286Z</time></trkpt><trkpt lat="44.1039999" lon="12.1999496"><ele>58.0</ele><time>2026-04-11T14:24:40.286Z</time></trkpt><trkpt lat="44.1042842" lon="12.2000804"><ele>56.5</ele><time>2026-04-11T14:24:41.286Z</time></trkpt><trkpt lat="44.1045635" lon="12.2002158"><ele>55.0</ele><time>2026-04-11T14:24:42.285Z</time></trkpt><trkpt lat="44.1048393" lon="12.2003715"><ele>53.5</ele><time>2026-04-11T14:24:43.286Z</time></trkpt><trkpt lat="44.1051088" lon="12.2005347"><ele>52.0</ele><time>2026-04-11T14:24:44.286Z</time></trkpt><trkpt lat="44.1053779" lon="12.2007129"><ele>51.5</ele><time>2026-04-11T14:24:45.286Z</time></trkpt><trkpt lat="44.105639" lon="12.2008983"><ele>51.0</ele><time>2026-04-11T14:24:46.286Z</time></trkpt><trkpt lat="44.1058951" lon="12.2010835"><ele>53.5</ele><time>2026-04-11T14:24:47.286Z</time></trkpt><trkpt lat="44.1061478" lon="12.2012642"><ele>56.0</ele><time>2026-04-11T14:24:48.285Z</time></trkpt><trkpt lat="44.1063986" lon="12.2014436"><ele>56.5</ele><time>2026-04-11T14:24:49.285Z</time></trkpt><trkpt lat="44.1066479" lon="12.2016195"><ele>57.0</ele><time>2026-04-11T14:24:50.285Z</time></trkpt><trkpt lat="44.1068928" lon="12.2017965"><ele>57.0</ele><time>2026-04-11T14:24:51.287Z</time></trkpt><trkpt lat="44.1071404" lon="12.2019734"><ele>57.0</ele><time>2026-04-11T14:24:52.285Z</time></trkpt><trkpt lat="44.1073915" lon="12.2021498"><ele>56.5</ele><time>2026-04-11T14:24:53.285Z</time></trkpt><trkpt lat="44.1076447" lon="12.2023286"><ele>56.0</ele><time>2026-04-11T14:24:54.285Z</time></trkpt><trkpt lat="44.1078998" lon="12.202499"><ele>55.5</ele><time>2026-04-11T14:24:55.286Z</time></trkpt><trkpt lat="44.1081561" lon="12.2026643"><ele>55.0</ele><time>2026-04-11T14:24:56.287Z</time></trkpt><trkpt lat="44.1084253" lon="12.2028242"><ele>55.0</ele><time>2026-04-11T14:24:57.285Z</time></trkpt><trkpt lat="44.1086957" lon="12.2029871"><ele>55.0</ele><time>2026-04-11T14:24:58.285Z</time></trkpt><trkpt lat="44.1089708" lon="12.2031533"><ele>55.0</ele><time>2026-04-11T14:24:59.286Z</time></trkpt><trkpt lat="44.109246" lon="12.2033154"><ele>55.0</ele><time>2026-04-11T14:25:00.284Z</time></trkpt><trkpt lat="44.1095276" lon="12.2034832"><ele>55.0</ele><time>2026-04-11T14:25:01.284Z</time></trkpt><trkpt lat="44.1098155" lon="12.2036484"><ele>55.0</ele><time>2026-04-11T14:25:02.286Z</time></trkpt><trkpt lat="44.1101057" lon="12.2038205"><ele>55.0</ele><time>2026-04-11T14:25:03.287Z</time></trkpt><trkpt lat="44.1103872" lon="12.2039834"><ele>55.0</ele><time>2026-04-11T14:25:04.285Z</time></trkpt><trkpt lat="44.1106659" lon="12.2041512"><ele>54.5</ele><time>2026-04-11T14:25:05.287Z</time></trkpt><trkpt lat="44.1109372" lon="12.204316"><ele>54.0</ele><time>2026-04-11T14:25:06.286Z</time></trkpt><trkpt lat="44.1112064" lon="12.2044796"><ele>54.0</ele><time>2026-04-11T14:25:07.287Z</time></trkpt><trkpt lat="44.1114688" lon="12.2046408"><ele>54.0</ele><time>2026-04-11T14:25:08.286Z</time></trkpt><trkpt lat="44.111739" lon="12.2048049"><ele>54.0</ele><time>2026-04-11T14:25:09.285Z</time></trkpt><trkpt lat="44.1120157" lon="12.2049714"><ele>54.0</ele><time>2026-04-11T14:25:10.286Z</time></trkpt><trkpt lat="44.1122974" lon="12.2051442"><ele>54.0</ele><time>2026-04-11T14:25:11.285Z</time></trkpt><trkpt lat="44.112577" lon="12.2053182"><ele>54.0</ele><time>2026-04-11T14:25:12.287Z</time></trkpt><trkpt lat="44.1128567" lon="12.2054909"><ele>53.0</ele><time>2026-04-11T14:25:13.286Z</time></trkpt><trkpt lat="44.1131366" lon="12.2056629"><ele>52.0</ele><time>2026-04-11T14:25:14.286Z</time></trkpt><trkpt lat="44.1134141" lon="12.2058345"><ele>52.0</ele><time>2026-04-11T14:25:15.285Z</time></trkpt><trkpt lat="44.113692" lon="12.2060082"><ele>52.0</ele><time>2026-04-11T14:25:16.286Z</time></trkpt><trkpt lat="44.1139665" lon="12.2061852"><ele>51.5</ele><time>2026-04-11T14:25:17.287Z</time></trkpt><trkpt lat="44.1142365" lon="12.2063583"><ele>51.0</ele><time>2026-04-11T14:25:18.286Z</time></trkpt><trkpt lat="44.1145021" lon="12.2065354"><ele>51.0</ele><time>2026-04-11T14:25:19.286Z</time></trkpt><trkpt lat="44.1147633" lon="12.2067182"><ele>51.0</ele><time>2026-04-11T14:25:20.286Z</time></trkpt><trkpt lat="44.1150222" lon="12.2069096"><ele>50.0</ele><time>2026-04-11T14:25:21.285Z</time></trkpt><trkpt lat="44.1152797" lon="12.2071064"><ele>49.0</ele><time>2026-04-11T14:25:22.286Z</time></trkpt><trkpt lat="44.1155403" lon="12.2073142"><ele>49.5</ele><time>2026-04-11T14:25:23.286Z</time></trkpt><trkpt lat="44.1158082" lon="12.2075279"><ele>50.0</ele><time>2026-04-11T14:25:24.286Z</time></trkpt><trkpt lat="44.1160816" lon="12.2077466"><ele>50.0</ele><time>2026-04-11T14:25:25.286Z</time></trkpt><trkpt lat="44.1163636" lon="12.2079645"><ele>50.0</ele><time>2026-04-11T14:25:26.286Z</time></trkpt><trkpt lat="44.116648" lon="12.2081764"><ele>49.5</ele><time>2026-04-11T14:25:27.285Z</time></trkpt><trkpt lat="44.1169298" lon="12.2083753"><ele>49.0</ele><time>2026-04-11T14:25:28.287Z</time></trkpt><trkpt lat="44.1172123" lon="12.2085597"><ele>48.5</ele><time>2026-04-11T14:25:29.285Z</time></trkpt><trkpt lat="44.1174923" lon="12.2087237"><ele>48.0</ele><time>2026-04-11T14:25:30.286Z</time></trkpt><trkpt lat="44.1177737" lon="12.2088657"><ele>48.0</ele><time>2026-04-11T14:25:31.286Z</time></trkpt><trkpt lat="44.1180496" lon="12.2089898"><ele>48.0</ele><time>2026-04-11T14:25:32.285Z</time></trkpt><trkpt lat="44.1183159" lon="12.2090935"><ele>46.0</ele><time>2026-04-11T14:25:33.286Z</time></trkpt><trkpt lat="44.1185817" lon="12.2091791"><ele>44.0</ele><time>2026-04-11T14:25:34.286Z</time></trkpt><trkpt lat="44.1188428" lon="12.2092386"><ele>45.0</ele><time>2026-04-11T14:25:35.286Z</time></trkpt><trkpt lat="44.1191029" lon="12.2092906"><ele>46.0</ele><time>2026-04-11T14:25:36.284Z</time></trkpt><trkpt lat="44.1193618" lon="12.209321"><ele>46.0</ele><time>2026-04-11T14:25:37.285Z</time></trkpt><trkpt lat="44.1196187" lon="12.2093362"><ele>46.0</ele><time>2026-04-11T14:25:38.287Z</time></trkpt><trkpt lat="44.1198779" lon="12.2093395"><ele>48.0</ele><time>2026-04-11T14:25:39.286Z</time></trkpt><trkpt lat="44.1201279" lon="12.2093329"><ele>50.0</ele><time>2026-04-11T14:25:40.286Z</time></trkpt><trkpt lat="44.1203555" lon="12.2092867"><ele>50.0</ele><time>2026-04-11T14:25:41.287Z</time></trkpt><trkpt lat="44.1205854" lon="12.209244"><ele>50.0</ele><time>2026-04-11T14:25:42.286Z</time></trkpt><trkpt lat="44.1208073" lon="12.2091982"><ele>49.66666666666667</ele><time>2026-04-11T14:25:43.284Z</time></trkpt><trkpt lat="44.121025" lon="12.2091495"><ele>49.33333333333333</ele><time>2026-04-11T14:25:44.287Z</time></trkpt><trkpt lat="44.1212268" lon="12.2090819"><ele>49.0</ele><time>2026-04-11T14:25:45.286Z</time></trkpt><trkpt lat="44.1214188" lon="12.2090135"><ele>49.0</ele><time>2026-04-11T14:25:46.285Z</time></trkpt><trkpt lat="44.1215998" lon="12.2089388"><ele>49.0</ele><time>2026-04-11T14:25:47.287Z</time></trkpt><trkpt lat="44.1217709" lon="12.208867"><ele>49.0</ele><time>2026-04-11T14:25:48.286Z</time></trkpt><trkpt lat="44.1219298" lon="12.2088037"><ele>49.0</ele><time>2026-04-11T14:25:49.286Z</time></trkpt><trkpt lat="44.1220857" lon="12.208756"><ele>49.0</ele><time>2026-04-11T14:25:50.285Z</time></trkpt><trkpt lat="44.1222474" lon="12.2087213"><ele>49.0</ele><time>2026-04-11T14:25:51.284Z</time></trkpt><trkpt lat="44.1224035" lon="12.2087209"><ele>48.33333333333333</ele><time>2026-04-11T14:25:52.286Z</time></trkpt><trkpt lat="44.122551" lon="12.2087447"><ele>47.666666666666664</ele><time>2026-04-11T14:25:53.284Z</time></trkpt><trkpt lat="44.1226951" lon="12.2088258"><ele>47.0</ele><time>2026-04-11T14:25:54.286Z</time></trkpt><trkpt lat="44.1228275" lon="12.2089168"><ele>47.0</ele><time>2026-04-11T14:25:55.285Z</time></trkpt><trkpt lat="44.1229434" lon="12.2090356"><ele>47.0</ele><time>2026-04-11T14:25:56.286Z</time></trkpt><trkpt lat="44.123047" lon="12.2091831"><ele>47.0</ele><time>2026-04-11T14:25:57.287Z</time></trkpt><trkpt lat="44.1231267" lon="12.2093509"><ele>47.0</ele><time>2026-04-11T14:25:58.286Z</time></trkpt><trkpt lat="44.1232023" lon="12.2095381"><ele>46.33333333333333</ele><time>2026-04-11T14:25:59.284Z</time></trkpt><trkpt lat="44.1232752" lon="12.2097344"><ele>45.666666666666664</ele><time>2026-04-11T14:26:00.286Z</time></trkpt><trkpt lat="44.1233493" lon="12.209918"><ele>45.0</ele><time>2026-04-11T14:26:01.286Z</time></trkpt><trkpt lat="44.1234215" lon="12.210091"><ele>45.2</ele><time>2026-04-11T14:26:02.285Z</time></trkpt><trkpt lat="44.1234721" lon="12.2102448"><ele>45.4</ele><time>2026-04-11T14:26:03.286Z</time></trkpt><trkpt lat="44.1234988" lon="12.2103911"><ele>45.599999999999994</ele><time>2026-04-11T14:26:04.286Z</time></trkpt><trkpt lat="44.1234889" lon="12.2105305"><ele>45.8</ele><time>2026-04-11T14:26:05.286Z</time></trkpt><trkpt lat="44.1234746" lon="12.2106575"><ele>46.0</ele><time>2026-04-11T14:26:06.287Z</time></trkpt><trkpt lat="44.1234836" lon="12.2107733"><ele>46.0</ele><time>2026-04-11T14:26:07.286Z</time></trkpt><trkpt lat="44.123525" lon="12.2108749"><ele>46.0</ele><time>2026-04-11T14:26:08.286Z</time></trkpt><trkpt lat="44.1235956" lon="12.2109514"><ele>46.0</ele><time>2026-04-11T14:26:09.287Z</time></trkpt><trkpt lat="44.1236914" lon="12.2110007"><ele>46.0</ele><time>2026-04-11T14:26:10.286Z</time></trkpt><trkpt lat="44.1238006" lon="12.2110327"><ele>46.0</ele><time>2026-04-11T14:26:11.286Z</time></trkpt><trkpt lat="44.123902" lon="12.2110835"><ele>46.0</ele><time>2026-04-11T14:26:12.287Z</time></trkpt><trkpt lat="44.1239948" lon="12.211161"><ele>46.0</ele><time>2026-04-11T14:26:13.287Z</time></trkpt><trkpt lat="44.1240758" lon="12.2112582"><ele>46.0</ele><time>2026-04-11T14:26:14.287Z</time></trkpt><trkpt lat="44.1241482" lon="12.2113648"><ele>46.0</ele><time>2026-04-11T14:26:15.286Z</time></trkpt><trkpt lat="44.1242125" lon="12.2114634"><ele>46.0</ele><time>2026-04-11T14:26:16.286Z</time></trkpt><trkpt lat="44.1242654" lon="12.2115516"><ele>46.199999999999996</ele><time>2026-04-11T14:26:17.286Z</time></trkpt><trkpt lat="44.1243085" lon="12.2116211"><ele>46.4</ele><time>2026-04-11T14:26:18.286Z</time></trkpt><trkpt lat="44.1243645" lon="12.2117242"><ele>46.6</ele><time>2026-04-11T14:26:20.285Z</time></trkpt><trkpt lat="44.124501" lon="12.2117636"><ele>46.8</ele><time>2026-04-11T14:34:58.286Z</time></trkpt><trkpt lat="44.1246135" lon="12.2118198"><ele>47.0</ele><time>2026-04-11T14:34:59.287Z</time></trkpt><trkpt lat="44.1247258" lon="12.2118799"><ele>47.0</ele><time>2026-04-11T14:35:00.286Z</time></trkpt><trkpt lat="44.1248569" lon="12.2119469"><ele>47.0</ele><time>2026-04-11T14:35:01.285Z</time></trkpt><trkpt lat="44.1249963" lon="12.2120195"><ele>47.0</ele><time>2026-04-11T14:35:02.284Z</time></trkpt><trkpt lat="44.1251432" lon="12.2120982"><ele>47.0</ele><time>2026-04-11T14:35:03.286Z</time></trkpt><trkpt lat="44.1252865" lon="12.2121713"><ele>47.0</ele><time>2026-04-11T14:35:04.288Z</time></trkpt><trkpt lat="44.1254225" lon="12.2122404"><ele>47.0</ele><time>2026-04-11T14:35:05.288Z</time></trkpt><trkpt lat="44.1255464" lon="12.2122998"><ele>47.0</ele><time>2026-04-11T14:35:06.288Z</time></trkpt><trkpt lat="44.1256572" lon="12.2123509"><ele>47.0</ele><time>2026-04-11T14:35:07.288Z</time></trkpt><trkpt lat="44.1257585" lon="12.2123904"><ele>47.400000000000006</ele><time>2026-04-11T14:35:08.286Z</time></trkpt><trkpt lat="44.1258588" lon="12.2124241"><ele>47.800000000000004</ele><time>2026-04-11T14:35:09.287Z</time></trkpt><trkpt lat="44.1259599" lon="12.2124585"><ele>48.2</ele><time>2026-04-11T14:35:10.285Z</time></trkpt><trkpt lat="44.1260582" lon="12.2124962"><ele>48.6</ele><time>2026-04-11T14:35:11.286Z</time></trkpt><trkpt lat="44.1261427" lon="12.2125299"><ele>49.0</ele><time>2026-04-11T14:35:12.285Z</time></trkpt><trkpt lat="44.1262192" lon="12.2125621"><ele>49.0</ele><time>2026-04-11T14:35:13.285Z</time></trkpt><trkpt lat="44.1262904" lon="12.2126025"><ele>49.0</ele><time>2026-04-11T14:35:14.284Z</time></trkpt><trkpt lat="44.1263635" lon="12.2126636"><ele>49.0</ele><time>2026-04-11T14:35:15.285Z</time></trkpt><trkpt lat="44.1264409" lon="12.2127449"><ele>49.0</ele><time>2026-04-11T14:35:16.285Z</time></trkpt><trkpt lat="44.1265314" lon="12.2128005"><ele>49.0</ele><time>2026-04-11T14:35:17.285Z</time></trkpt><trkpt lat="44.1266384" lon="12.2128121"><ele>48.0</ele><time>2026-04-11T14:35:18.286Z</time></trkpt><trkpt lat="44.1267569" lon="12.2128022"><ele>47.0</ele><time>2026-04-11T14:35:19.285Z</time></trkpt><trkpt lat="44.1268749" lon="12.2128062"><ele>46.0</ele><time>2026-04-11T14:35:20.285Z</time></trkpt><trkpt lat="44.1270043" lon="12.2128564"><ele>45.0</ele><time>2026-04-11T14:35:21.286Z</time></trkpt><trkpt lat="44.1271483" lon="12.212915"><ele>45.0</ele><time>2026-04-11T14:35:22.285Z</time></trkpt><trkpt lat="44.127296" lon="12.2129655"><ele>45.0</ele><time>2026-04-11T14:35:23.285Z</time></trkpt><trkpt lat="44.127448" lon="12.2130204"><ele>45.0</ele><time>2026-04-11T14:35:24.285Z</time></trkpt><trkpt lat="44.1276102" lon="12.2130843"><ele>44.333333333333336</ele><time>2026-04-11T14:35:25.286Z</time></trkpt><trkpt lat="44.1277761" lon="12.2131503"><ele>43.66666666666667</ele><time>2026-04-11T14:35:26.285Z</time></trkpt><trkpt lat="44.1279406" lon="12.2132172"><ele>43.0</ele><time>2026-04-11T14:35:27.286Z</time></trkpt><trkpt lat="44.1281044" lon="12.2132757"><ele>43.0</ele><time>2026-04-11T14:35:28.286Z</time></trkpt><trkpt lat="44.1282673" lon="12.2133371"><ele>43.0</ele><time>2026-04-11T14:35:29.285Z</time></trkpt><trkpt lat="44.1284344" lon="12.213402"><ele>43.0</ele><time>2026-04-11T14:35:30.286Z</time></trkpt><trkpt lat="44.1286016" lon="12.21347"><ele>43.0</ele><time>2026-04-11T14:35:31.284Z</time></trkpt><trkpt lat="44.1287697" lon="12.2135401"><ele>43.0</ele><time>2026-04-11T14:35:32.284Z</time></trkpt><trkpt lat="44.1289375" lon="12.2136053"><ele>43.0</ele><time>2026-04-11T14:35:33.285Z</time></trkpt><trkpt lat="44.1291186" lon="12.2136703"><ele>43.0</ele><time>2026-04-11T14:35:34.284Z</time></trkpt><trkpt lat="44.1293151" lon="12.213729"><ele>43.0</ele><time>2026-04-11T14:35:35.286Z</time></trkpt><trkpt lat="44.1295268" lon="12.2137959"><ele>43.0</ele><time>2026-04-11T14:35:36.285Z</time></trkpt><trkpt lat="44.1297541" lon="12.2138807"><ele>42.0</ele><time>2026-04-11T14:35:37.285Z</time></trkpt><trkpt lat="44.1299851" lon="12.2139812"><ele>41.0</ele><time>2026-04-11T14:35:38.285Z</time></trkpt><trkpt lat="44.1302044" lon="12.2140757"><ele>41.0</ele><time>2026-04-11T14:35:39.285Z</time></trkpt><trkpt lat="44.1304217" lon="12.214165"><ele>41.0</ele><time>2026-04-11T14:35:40.286Z</time></trkpt><trkpt lat="44.1306357" lon="12.2142455"><ele>41.0</ele><time>2026-04-11T14:35:41.286Z</time></trkpt><trkpt lat="44.1308461" lon="12.214325"><ele>41.0</ele><time>2026-04-11T14:35:42.286Z</time></trkpt><trkpt lat="44.1310505" lon="12.2144031"><ele>41.0</ele><time>2026-04-11T14:35:43.285Z</time></trkpt><trkpt lat="44.1312539" lon="12.2144801"><ele>41.0</ele><time>2026-04-11T14:35:44.286Z</time></trkpt><trkpt lat="44.1314544" lon="12.214557"><ele>41.0</ele><time>2026-04-11T14:35:45.286Z</time></trkpt><trkpt lat="44.131651" lon="12.2146312"><ele>41.0</ele><time>2026-04-11T14:35:46.285Z</time></trkpt><trkpt lat="44.1318489" lon="12.2147108"><ele>41.0</ele><time>2026-04-11T14:35:47.284Z</time></trkpt><trkpt lat="44.1320479" lon="12.2147924"><ele>41.0</ele><time>2026-04-11T14:35:48.286Z</time></trkpt><trkpt lat="44.1322443" lon="12.214875"><ele>41.0</ele><time>2026-04-11T14:35:49.285Z</time></trkpt><trkpt lat="44.132442" lon="12.2149479"><ele>41.0</ele><time>2026-04-11T14:35:50.286Z</time></trkpt><trkpt lat="44.1326408" lon="12.2150243"><ele>41.0</ele><time>2026-04-11T14:35:51.285Z</time></trkpt><trkpt lat="44.1328346" lon="12.2150924"><ele>41.0</ele><time>2026-04-11T14:35:52.286Z</time></trkpt><trkpt lat="44.1330192" lon="12.2151616"><ele>41.0</ele><time>2026-04-11T14:35:53.286Z</time></trkpt><trkpt lat="44.1331922" lon="12.2152248"><ele>41.0</ele><time>2026-04-11T14:35:54.287Z</time></trkpt><trkpt lat="44.133353" lon="12.2152864"><ele>41.0</ele><time>2026-04-11T14:35:55.285Z</time></trkpt><trkpt lat="44.1335073" lon="12.2153426"><ele>41.0</ele><time>2026-04-11T14:35:56.285Z</time></trkpt><trkpt lat="44.1336494" lon="12.2153948"><ele>41.0</ele><time>2026-04-11T14:35:57.285Z</time></trkpt><trkpt lat="44.1337765" lon="12.2154465"><ele>41.0</ele><time>2026-04-11T14:35:58.285Z</time></trkpt><trkpt lat="44.1338865" lon="12.2155042"><ele>41.0</ele><time>2026-04-11T14:35:59.286Z</time></trkpt><trkpt lat="44.1339834" lon="12.215572"><ele>41.0</ele><time>2026-04-11T14:36:00.285Z</time></trkpt><trkpt lat="44.1340826" lon="12.2156397"><ele>40.5</ele><time>2026-04-11T14:36:01.285Z</time></trkpt><trkpt lat="44.1342025" lon="12.2156832"><ele>40.0</ele><time>2026-04-11T14:36:02.286Z</time></trkpt><trkpt lat="44.1343295" lon="12.2157064"><ele>39.5</ele><time>2026-04-11T14:36:03.285Z</time></trkpt><trkpt lat="44.1344643" lon="12.2157233"><ele>39.0</ele><time>2026-04-11T14:36:04.285Z</time></trkpt><trkpt lat="44.1345928" lon="12.2157522"><ele>39.0</ele><time>2026-04-11T14:36:05.285Z</time></trkpt><trkpt lat="44.1347189" lon="12.2157939"><ele>39.0</ele><time>2026-04-11T14:36:06.284Z</time></trkpt><trkpt lat="44.1348407" lon="12.21584"><ele>39.0</ele><time>2026-04-11T14:36:07.286Z</time></trkpt><trkpt lat="44.134961" lon="12.2158832"><ele>39.0</ele><time>2026-04-11T14:36:08.285Z</time></trkpt><trkpt lat="44.1350728" lon="12.2159315"><ele>38.75</ele><time>2026-04-11T14:36:09.285Z</time></trkpt><trkpt lat="44.1351943" lon="12.2159794"><ele>38.5</ele><time>2026-04-11T14:36:10.286Z</time></trkpt><trkpt lat="44.1353187" lon="12.2160271"><ele>38.25</ele><time>2026-04-11T14:36:11.284Z</time></trkpt><trkpt lat="44.1354513" lon="12.2160812"><ele>38.0</ele><time>2026-04-11T14:36:12.285Z</time></trkpt><trkpt lat="44.1355917" lon="12.2161296"><ele>37.666666666666664</ele><time>2026-04-11T14:36:13.286Z</time></trkpt><trkpt lat="44.1357615" lon="12.2161775"><ele>37.333333333333336</ele><time>2026-04-11T14:36:14.285Z</time></trkpt><trkpt lat="44.1359631" lon="12.2162501"><ele>37.0</ele><time>2026-04-11T14:36:15.285Z</time></trkpt><trkpt lat="44.1361742" lon="12.2163414"><ele>37.0</ele><time>2026-04-11T14:36:16.285Z</time></trkpt><trkpt lat="44.1363939" lon="12.2164391"><ele>37.0</ele><time>2026-04-11T14:36:17.285Z</time></trkpt><trkpt lat="44.1366139" lon="12.2165279"><ele>36.5</ele><time>2026-04-11T14:36:18.285Z</time></trkpt><trkpt lat="44.1368331" lon="12.2166138"><ele>36.0</ele><time>2026-04-11T14:36:19.285Z</time></trkpt><trkpt lat="44.1370482" lon="12.216693"><ele>36.0</ele><time>2026-04-11T14:36:20.285Z</time></trkpt><trkpt lat="44.1372648" lon="12.216777"><ele>36.0</ele><time>2026-04-11T14:36:21.285Z</time></trkpt><trkpt lat="44.1374789" lon="12.2168565"><ele>36.0</ele><time>2026-04-11T14:36:22.286Z</time></trkpt><trkpt lat="44.1376937" lon="12.2169392"><ele>35.666666666666664</ele><time>2026-04-11T14:36:23.285Z</time></trkpt><trkpt lat="44.1379071" lon="12.2170236"><ele>35.33333333333333</ele><time>2026-04-11T14:36:24.284Z</time></trkpt><trkpt lat="44.1381209" lon="12.217102"><ele>35.0</ele><time>2026-04-11T14:36:25.286Z</time></trkpt><trkpt lat="44.1383335" lon="12.2171838"><ele>35.0</ele><time>2026-04-11T14:36:26.284Z</time></trkpt><trkpt lat="44.1385452" lon="12.2172661"><ele>35.0</ele><time>2026-04-11T14:36:27.286Z</time></trkpt><trkpt lat="44.1387493" lon="12.2173486"><ele>35.0</ele><time>2026-04-11T14:36:28.286Z</time></trkpt><trkpt lat="44.1389549" lon="12.2174279"><ele>35.33333333333333</ele><time>2026-04-11T14:36:29.285Z</time></trkpt><trkpt lat="44.1391592" lon="12.2175036"><ele>35.666666666666664</ele><time>2026-04-11T14:36:30.285Z</time></trkpt><trkpt lat="44.1393674" lon="12.2175828"><ele>36.0</ele><time>2026-04-11T14:36:31.285Z</time></trkpt><trkpt lat="44.1395697" lon="12.2176627"><ele>36.0</ele><time>2026-04-11T14:36:32.286Z</time></trkpt><trkpt lat="44.1397699" lon="12.2177423"><ele>36.0</ele><time>2026-04-11T14:36:33.286Z</time></trkpt><trkpt lat="44.1399707" lon="12.2178188"><ele>36.0</ele><time>2026-04-11T14:36:34.286Z</time></trkpt><trkpt lat="44.140172" lon="12.2178972"><ele>36.0</ele><time>2026-04-11T14:36:35.285Z</time></trkpt><trkpt lat="44.1403706" lon="12.2179742"><ele>36.0</ele><time>2026-04-11T14:36:36.285Z</time></trkpt><trkpt lat="44.1405658" lon="12.2180506"><ele>36.0</ele><time>2026-04-11T14:36:37.284Z</time></trkpt><trkpt lat="44.1407597" lon="12.218126"><ele>36.333333333333336</ele><time>2026-04-11T14:36:38.286Z</time></trkpt><trkpt lat="44.1409514" lon="12.2182011"><ele>36.66666666666667</ele><time>2026-04-11T14:36:39.285Z</time></trkpt><trkpt lat="44.1411412" lon="12.2182756"><ele>37.0</ele><time>2026-04-11T14:36:40.285Z</time></trkpt><trkpt lat="44.1413346" lon="12.218345"><ele>37.0</ele><time>2026-04-11T14:36:41.285Z</time></trkpt><trkpt lat="44.141527" lon="12.2184177"><ele>37.0</ele><time>2026-04-11T14:36:42.286Z</time></trkpt><trkpt lat="44.1417132" lon="12.2184865"><ele>37.0</ele><time>2026-04-11T14:36:43.286Z</time></trkpt><trkpt lat="44.1419058" lon="12.2185523"><ele>36.333333333333336</ele><time>2026-04-11T14:36:44.285Z</time></trkpt><trkpt lat="44.1420979" lon="12.218611"><ele>35.666666666666664</ele><time>2026-04-11T14:36:45.284Z</time></trkpt><trkpt lat="44.1422894" lon="12.2186646"><ele>35.0</ele><time>2026-04-11T14:36:46.286Z</time></trkpt><trkpt lat="44.1424808" lon="12.2187113"><ele>35.0</ele><time>2026-04-11T14:36:47.284Z</time></trkpt><trkpt lat="44.1426673" lon="12.2187544"><ele>35.0</ele><time>2026-04-11T14:36:48.285Z</time></trkpt><trkpt lat="44.1428485" lon="12.2187809"><ele>35.0</ele><time>2026-04-11T14:36:49.285Z</time></trkpt><trkpt lat="44.14303" lon="12.2188148"><ele>35.0</ele><time>2026-04-11T14:36:50.285Z</time></trkpt><trkpt lat="44.1432083" lon="12.2188449"><ele>35.0</ele><time>2026-04-11T14:36:51.286Z</time></trkpt><trkpt lat="44.1433822" lon="12.2188786"><ele>35.0</ele><time>2026-04-11T14:36:52.286Z</time></trkpt><trkpt lat="44.143548" lon="12.218906"><ele>35.5</ele><time>2026-04-11T14:36:53.286Z</time></trkpt><trkpt lat="44.1436934" lon="12.218928"><ele>36.0</ele><time>2026-04-11T14:36:54.286Z</time></trkpt><trkpt lat="44.1438396" lon="12.2189517"><ele>36.5</ele><time>2026-04-11T14:36:55.285Z</time></trkpt><trkpt lat="44.1439708" lon="12.2189747"><ele>37.0</ele><time>2026-04-11T14:36:56.287Z</time></trkpt><trkpt lat="44.144096" lon="12.2189987"><ele>37.0</ele><time>2026-04-11T14:36:57.285Z</time></trkpt><trkpt lat="44.144208" lon="12.219019"><ele>37.0</ele><time>2026-04-11T14:36:58.285Z</time></trkpt><trkpt lat="44.1443078" lon="12.219039"><ele>37.0</ele><time>2026-04-11T14:36:59.286Z</time></trkpt><trkpt lat="44.1444064" lon="12.2190577"><ele>37.0</ele><time>2026-04-11T14:37:00.284Z</time></trkpt><trkpt lat="44.1444944" lon="12.2190757"><ele>37.0</ele><time>2026-04-11T14:37:01.286Z</time></trkpt><trkpt lat="44.1445798" lon="12.2190946"><ele>37.0</ele><time>2026-04-11T14:37:02.285Z</time></trkpt><trkpt lat="44.1446584" lon="12.2191161"><ele>37.0</ele><time>2026-04-11T14:37:03.287Z</time></trkpt><trkpt lat="44.144731" lon="12.2191363"><ele>37.0</ele><time>2026-04-11T14:37:04.285Z</time></trkpt><trkpt lat="44.1448421" lon="12.2191708"><ele>37.0</ele><time>2026-04-11T14:37:06.286Z</time></trkpt><trkpt lat="44.1449606" lon="12.2192106"><ele>37.0</ele><time>2026-04-11T14:37:08.285Z</time></trkpt><trkpt lat="44.1450166" lon="12.2192537"><ele>36.833333333333336</ele><time>2026-04-11T14:37:09.285Z</time></trkpt><trkpt lat="44.1450675" lon="12.2193084"><ele>36.66666666666667</ele><time>2026-04-11T14:37:10.284Z</time></trkpt><trkpt lat="44.1451273" lon="12.2193619"><ele>36.5</ele><time>2026-04-11T14:37:11.285Z</time></trkpt><trkpt lat="44.1451975" lon="12.2193961"><ele>36.333333333333336</ele><time>2026-04-11T14:37:12.285Z</time></trkpt><trkpt lat="44.1452796" lon="12.219393"><ele>36.166666666666664</ele><time>2026-04-11T14:37:13.286Z</time></trkpt><trkpt lat="44.1453593" lon="12.2193521"><ele>36.0</ele><time>2026-04-11T14:37:14.286Z</time></trkpt><trkpt lat="44.1454367" lon="12.2192984"><ele>36.0</ele><time>2026-04-11T14:37:15.286Z</time></trkpt><trkpt lat="44.1455211" lon="12.2192506"><ele>36.0</ele><time>2026-04-11T14:37:16.285Z</time></trkpt><trkpt lat="44.1456112" lon="12.2192081"><ele>36.0</ele><time>2026-04-11T14:37:17.284Z</time></trkpt><trkpt lat="44.1457073" lon="12.219177"><ele>36.0</ele><time>2026-04-11T14:37:18.285Z</time></trkpt><trkpt lat="44.1458149" lon="12.2191334"><ele>36.0</ele><time>2026-04-11T14:37:19.284Z</time></trkpt><trkpt lat="44.145933" lon="12.2190825"><ele>35.75</ele><time>2026-04-11T14:37:20.286Z</time></trkpt><trkpt lat="44.1460682" lon="12.2190259"><ele>35.5</ele><time>2026-04-11T14:37:21.284Z</time></trkpt><trkpt lat="44.1462127" lon="12.2189755"><ele>35.25</ele><time>2026-04-11T14:37:22.284Z</time></trkpt><trkpt lat="44.1463654" lon="12.2189279"><ele>35.0</ele><time>2026-04-11T14:37:23.285Z</time></trkpt><trkpt lat="44.1465208" lon="12.2188764"><ele>34.666666666666664</ele><time>2026-04-11T14:37:24.285Z</time></trkpt><trkpt lat="44.146675" lon="12.2188172"><ele>34.333333333333336</ele><time>2026-04-11T14:37:25.286Z</time></trkpt><trkpt lat="44.1468335" lon="12.2187585"><ele>34.0</ele><time>2026-04-11T14:37:26.285Z</time></trkpt><trkpt lat="44.1469923" lon="12.2187079"><ele>34.0</ele><time>2026-04-11T14:37:27.285Z</time></trkpt><trkpt lat="44.1471536" lon="12.2186503"><ele>34.0</ele><time>2026-04-11T14:37:28.284Z</time></trkpt><trkpt lat="44.1473163" lon="12.2185909"><ele>34.0</ele><time>2026-04-11T14:37:29.286Z</time></trkpt><trkpt lat="44.1474806" lon="12.2185329"><ele>34.66666666666667</ele><time>2026-04-11T14:37:30.286Z</time></trkpt><trkpt lat="44.1476425" lon="12.2184745"><ele>35.333333333333336</ele><time>2026-04-11T14:37:31.284Z</time></trkpt><trkpt lat="44.1478045" lon="12.2184162"><ele>36.0</ele><time>2026-04-11T14:37:32.286Z</time></trkpt><trkpt lat="44.1479667" lon="12.2183579"><ele>36.0</ele><time>2026-04-11T14:37:33.286Z</time></trkpt><trkpt lat="44.1481312" lon="12.2183005"><ele>36.0</ele><time>2026-04-11T14:37:34.286Z</time></trkpt><trkpt lat="44.1482927" lon="12.2182451"><ele>36.0</ele><time>2026-04-11T14:37:35.285Z</time></trkpt><trkpt lat="44.1484517" lon="12.2181909"><ele>35.0</ele><time>2026-04-11T14:37:36.285Z</time></trkpt><trkpt lat="44.1486097" lon="12.2181354"><ele>34.0</ele><time>2026-04-11T14:37:37.285Z</time></trkpt><trkpt lat="44.1487644" lon="12.2180836"><ele>33.0</ele><time>2026-04-11T14:37:38.286Z</time></trkpt><trkpt lat="44.1489217" lon="12.2180318"><ele>33.0</ele><time>2026-04-11T14:37:39.286Z</time></trkpt><trkpt lat="44.1490749" lon="12.2179809"><ele>33.0</ele><time>2026-04-11T14:37:40.286Z</time></trkpt><trkpt lat="44.1492261" lon="12.2179281"><ele>33.0</ele><time>2026-04-11T14:37:41.284Z</time></trkpt><trkpt lat="44.1493757" lon="12.2178766"><ele>33.0</ele><time>2026-04-11T14:37:42.285Z</time></trkpt><trkpt lat="44.149524" lon="12.2178232"><ele>33.0</ele><time>2026-04-11T14:37:43.285Z</time></trkpt><trkpt lat="44.1496722" lon="12.2177713"><ele>33.0</ele><time>2026-04-11T14:37:44.284Z</time></trkpt><trkpt lat="44.1498181" lon="12.2177229"><ele>33.75</ele><time>2026-04-11T14:37:45.285Z</time></trkpt><trkpt lat="44.1499719" lon="12.2176668"><ele>34.5</ele><time>2026-04-11T14:37:46.287Z</time></trkpt><trkpt lat="44.1501094" lon="12.2176233"><ele>35.25</ele><time>2026-04-11T14:37:47.284Z</time></trkpt><trkpt lat="44.150242" lon="12.2175952"><ele>36.0</ele><time>2026-04-11T14:37:48.285Z</time></trkpt><trkpt lat="44.1503703" lon="12.2175788"><ele>36.0</ele><time>2026-04-11T14:37:49.285Z</time></trkpt><trkpt lat="44.150499" lon="12.2175737"><ele>36.0</ele><time>2026-04-11T14:37:50.286Z</time></trkpt><trkpt lat="44.1506274" lon="12.2175687"><ele>36.0</ele><time>2026-04-11T14:37:51.285Z</time></trkpt><trkpt lat="44.1507567" lon="12.2175747"><ele>36.0</ele><time>2026-04-11T14:37:52.285Z</time></trkpt><trkpt lat="44.1508964" lon="12.217594"><ele>36.333333333333336</ele><time>2026-04-11T14:37:53.285Z</time></trkpt><trkpt lat="44.1510379" lon="12.2176174"><ele>36.66666666666667</ele><time>2026-04-11T14:37:54.285Z</time></trkpt><trkpt lat="44.1511997" lon="12.2176455"><ele>37.0</ele><time>2026-04-11T14:37:55.285Z</time></trkpt><trkpt lat="44.1513799" lon="12.2176823"><ele>37.333333333333336</ele><time>2026-04-11T14:37:56.285Z</time></trkpt><trkpt lat="44.1515784" lon="12.2177247"><ele>37.666666666666664</ele><time>2026-04-11T14:37:57.287Z</time></trkpt><trkpt lat="44.1517749" lon="12.2177743"><ele>38.0</ele><time>2026-04-11T14:37:58.285Z</time></trkpt><trkpt lat="44.1519574" lon="12.2178284"><ele>38.0</ele><time>2026-04-11T14:37:59.286Z</time></trkpt><trkpt lat="44.1521274" lon="12.2178727"><ele>38.0</ele><time>2026-04-11T14:38:00.284Z</time></trkpt><trkpt lat="44.1522849" lon="12.217911"><ele>38.0</ele><time>2026-04-11T14:38:01.285Z</time></trkpt><trkpt lat="44.1524402" lon="12.2179508"><ele>37.33333333333333</ele><time>2026-04-11T14:38:02.284Z</time></trkpt><trkpt lat="44.1525887" lon="12.2179838"><ele>36.666666666666664</ele><time>2026-04-11T14:38:03.287Z</time></trkpt><trkpt lat="44.1527383" lon="12.2180186"><ele>36.0</ele><time>2026-04-11T14:38:04.285Z</time></trkpt><trkpt lat="44.1528905" lon="12.2180568"><ele>36.0</ele><time>2026-04-11T14:38:05.286Z</time></trkpt><trkpt lat="44.1530382" lon="12.2180949"><ele>36.0</ele><time>2026-04-11T14:38:06.285Z</time></trkpt><trkpt lat="44.1531828" lon="12.2181268"><ele>36.0</ele><time>2026-04-11T14:38:07.285Z</time></trkpt><trkpt lat="44.153323" lon="12.2181571"><ele>36.0</ele><time>2026-04-11T14:38:08.285Z</time></trkpt><trkpt lat="44.1534583" lon="12.2181824"><ele>36.0</ele><time>2026-04-11T14:38:09.285Z</time></trkpt><trkpt lat="44.1535935" lon="12.2182128"><ele>36.0</ele><time>2026-04-11T14:38:10.285Z</time></trkpt><trkpt lat="44.1537353" lon="12.2182433"><ele>36.0</ele><time>2026-04-11T14:38:11.286Z</time></trkpt><trkpt lat="44.1538787" lon="12.2182741"><ele>36.0</ele><time>2026-04-11T14:38:12.285Z</time></trkpt><trkpt lat="44.1540231" lon="12.2183046"><ele>35.5</ele><time>2026-04-11T14:38:13.285Z</time></trkpt><trkpt lat="44.1541637" lon="12.2183178"><ele>35.0</ele><time>2026-04-11T14:38:14.286Z</time></trkpt><trkpt lat="44.154307" lon="12.2183196"><ele>34.5</ele><time>2026-04-11T14:38:15.286Z</time></trkpt><trkpt lat="44.1544532" lon="12.2183069"><ele>34.0</ele><time>2026-04-11T14:38:16.285Z</time></trkpt><trkpt lat="44.1545998" lon="12.2182833"><ele>34.0</ele><time>2026-04-11T14:38:17.286Z</time></trkpt><trkpt lat="44.1547414" lon="12.2182429"><ele>34.0</ele><time>2026-04-11T14:38:18.285Z</time></trkpt><trkpt lat="44.1548851" lon="12.218195"><ele>34.0</ele><time>2026-04-11T14:38:19.285Z</time></trkpt><trkpt lat="44.15502" lon="12.2181171"><ele>34.0</ele><time>2026-04-11T14:38:20.285Z</time></trkpt><trkpt lat="44.1551533" lon="12.218029"><ele>34.25</ele><time>2026-04-11T14:38:21.286Z</time></trkpt><trkpt lat="44.1552823" lon="12.2179319"><ele>34.5</ele><time>2026-04-11T14:38:22.285Z</time></trkpt><trkpt lat="44.1554155" lon="12.2178331"><ele>34.75</ele><time>2026-04-11T14:38:23.286Z</time></trkpt><trkpt lat="44.1555468" lon="12.2177302"><ele>35.0</ele><time>2026-04-11T14:38:24.286Z</time></trkpt><trkpt lat="44.155679" lon="12.2176297"><ele>34.75</ele><time>2026-04-11T14:38:25.285Z</time></trkpt><trkpt lat="44.1558092" lon="12.2175296"><ele>34.5</ele><time>2026-04-11T14:38:26.285Z</time></trkpt><trkpt lat="44.1559361" lon="12.2174319"><ele>34.25</ele><time>2026-04-11T14:38:27.286Z</time></trkpt><trkpt lat="44.1560647" lon="12.2173425"><ele>34.0</ele><time>2026-04-11T14:38:28.285Z</time></trkpt><trkpt lat="44.1561887" lon="12.2172603"><ele>34.0</ele><time>2026-04-11T14:38:29.285Z</time></trkpt><trkpt lat="44.1563114" lon="12.2171939"><ele>34.0</ele><time>2026-04-11T14:38:30.287Z</time></trkpt><trkpt lat="44.1564365" lon="12.2171465"><ele>34.0</ele><time>2026-04-11T14:38:31.285Z</time></trkpt><trkpt lat="44.1565615" lon="12.2171152"><ele>34.0</ele><time>2026-04-11T14:38:32.284Z</time></trkpt><trkpt lat="44.1566891" lon="12.2171084"><ele>34.0</ele><time>2026-04-11T14:38:33.284Z</time></trkpt><trkpt lat="44.1568201" lon="12.2171217"><ele>34.0</ele><time>2026-04-11T14:38:34.286Z</time></trkpt><trkpt lat="44.156958" lon="12.2171532"><ele>34.0</ele><time>2026-04-11T14:38:35.285Z</time></trkpt><trkpt lat="44.1570889" lon="12.2172003"><ele>34.0</ele><time>2026-04-11T14:38:36.286Z</time></trkpt><trkpt lat="44.1572079" lon="12.2172572"><ele>34.0</ele><time>2026-04-11T14:38:37.285Z</time></trkpt><trkpt lat="44.1573165" lon="12.2173137"><ele>34.0</ele><time>2026-04-11T14:38:38.285Z</time></trkpt><trkpt lat="44.1574201" lon="12.2173696"><ele>34.0</ele><time>2026-04-11T14:38:39.284Z</time></trkpt><trkpt lat="44.1575114" lon="12.2174222"><ele>34.0</ele><time>2026-04-11T14:38:40.284Z</time></trkpt><trkpt lat="44.157601" lon="12.2174717"><ele>34.0</ele><time>2026-04-11T14:38:41.284Z</time></trkpt><trkpt lat="44.1576843" lon="12.2175193"><ele>34.4</ele><time>2026-04-11T14:38:42.286Z</time></trkpt><trkpt lat="44.1577578" lon="12.2175859"><ele>34.8</ele><time>2026-04-11T14:38:43.285Z</time></trkpt><trkpt lat="44.1578084" lon="12.2176798"><ele>35.2</ele><time>2026-04-11T14:38:44.285Z</time></trkpt><trkpt lat="44.1578342" lon="12.2177944"><ele>35.6</ele><time>2026-04-11T14:38:45.285Z</time></trkpt><trkpt lat="44.1578233" lon="12.2179224"><ele>36.0</ele><time>2026-04-11T14:38:46.286Z</time></trkpt><trkpt lat="44.1577842" lon="12.2180644"><ele>35.25</ele><time>2026-04-11T14:38:47.284Z</time></trkpt><trkpt lat="44.157727" lon="12.2182162"><ele>34.5</ele><time>2026-04-11T14:38:48.286Z</time></trkpt><trkpt lat="44.1576642" lon="12.2183771"><ele>33.75</ele><time>2026-04-11T14:38:49.286Z</time></trkpt><trkpt lat="44.1575942" lon="12.2185404"><ele>33.0</ele><time>2026-04-11T14:38:50.286Z</time></trkpt><trkpt lat="44.1575233" lon="12.2187172"><ele>33.0</ele><time>2026-04-11T14:38:51.285Z</time></trkpt><trkpt lat="44.1574503" lon="12.2189015"><ele>33.0</ele><time>2026-04-11T14:38:52.285Z</time></trkpt><trkpt lat="44.1573719" lon="12.2190892"><ele>33.0</ele><time>2026-04-11T14:38:53.284Z</time></trkpt><trkpt lat="44.1572974" lon="12.2192747"><ele>32.666666666666664</ele><time>2026-04-11T14:38:54.285Z</time></trkpt><trkpt lat="44.1572204" lon="12.2194619"><ele>32.33333333333333</ele><time>2026-04-11T14:38:55.285Z</time></trkpt><trkpt lat="44.1571386" lon="12.219647"><ele>32.0</ele><time>2026-04-11T14:38:56.284Z</time></trkpt><trkpt lat="44.1570518" lon="12.219828"><ele>32.0</ele><time>2026-04-11T14:38:57.285Z</time></trkpt><trkpt lat="44.1569606" lon="12.2200023"><ele>32.0</ele><time>2026-04-11T14:38:58.285Z</time></trkpt><trkpt lat="44.1568608" lon="12.2201771"><ele>32.0</ele><time>2026-04-11T14:38:59.285Z</time></trkpt><trkpt lat="44.1567622" lon="12.2203555"><ele>32.0</ele><time>2026-04-11T14:39:00.285Z</time></trkpt><trkpt lat="44.1566577" lon="12.2205437"><ele>32.0</ele><time>2026-04-11T14:39:01.285Z</time></trkpt><trkpt lat="44.1565507" lon="12.2207402"><ele>32.0</ele><time>2026-04-11T14:39:02.284Z</time></trkpt><trkpt lat="44.1564391" lon="12.2209614"><ele>32.33333333333333</ele><time>2026-04-11T14:39:03.285Z</time></trkpt><trkpt lat="44.1563196" lon="12.2211984"><ele>32.666666666666664</ele><time>2026-04-11T14:39:04.286Z</time></trkpt><trkpt lat="44.1561899" lon="12.2214627"><ele>33.0</ele><time>2026-04-11T14:39:05.285Z</time></trkpt><trkpt lat="44.1560501" lon="12.2217488"><ele>33.0</ele><time>2026-04-11T14:39:06.285Z</time></trkpt><trkpt lat="44.1559" lon="12.2220587"><ele>33.0</ele><time>2026-04-11T14:39:07.285Z</time></trkpt><trkpt lat="44.1557443" lon="12.2223911"><ele>32.0</ele><time>2026-04-11T14:39:08.285Z</time></trkpt><trkpt lat="44.1555882" lon="12.2227322"><ele>31.0</ele><time>2026-04-11T14:39:09.285Z</time></trkpt><trkpt lat="44.1554371" lon="12.2230794"><ele>31.0</ele><time>2026-04-11T14:39:10.285Z</time></trkpt><trkpt lat="44.1552837" lon="12.2234482"><ele>31.0</ele><time>2026-04-11T14:39:11.284Z</time></trkpt><trkpt lat="44.15513" lon="12.2238123"><ele>31.5</ele><time>2026-04-11T14:39:12.285Z</time></trkpt><trkpt lat="44.1549754" lon="12.2241711"><ele>32.0</ele><time>2026-04-11T14:39:13.285Z</time></trkpt><trkpt lat="44.1548258" lon="12.2245334"><ele>31.0</ele><time>2026-04-11T14:39:14.286Z</time></trkpt><trkpt lat="44.1546751" lon="12.2249005"><ele>30.0</ele><time>2026-04-11T14:39:15.284Z</time></trkpt><trkpt lat="44.1545247" lon="12.2252678"><ele>30.0</ele><time>2026-04-11T14:39:16.285Z</time></trkpt><trkpt lat="44.1543711" lon="12.2256358"><ele>30.0</ele><time>2026-04-11T14:39:17.286Z</time></trkpt><trkpt lat="44.1542195" lon="12.2260033"><ele>30.0</ele><time>2026-04-11T14:39:18.285Z</time></trkpt><trkpt lat="44.1540681" lon="12.2263718"><ele>30.0</ele><time>2026-04-11T14:39:19.285Z</time></trkpt><trkpt lat="44.1539148" lon="12.2267422"><ele>28.5</ele><time>2026-04-11T14:39:20.286Z</time></trkpt><trkpt lat="44.1537625" lon="12.2271132"><ele>27.0</ele><time>2026-04-11T14:39:21.285Z</time></trkpt><trkpt lat="44.1536096" lon="12.2274815"><ele>26.5</ele><time>2026-04-11T14:39:22.286Z</time></trkpt><trkpt lat="44.1534504" lon="12.2278541"><ele>26.0</ele><time>2026-04-11T14:39:23.285Z</time></trkpt><trkpt lat="44.1532982" lon="12.228222"><ele>25.5</ele><time>2026-04-11T14:39:24.286Z</time></trkpt><trkpt lat="44.1531416" lon="12.2285816"><ele>25.0</ele><time>2026-04-11T14:39:25.286Z</time></trkpt><trkpt lat="44.1529829" lon="12.2289458"><ele>24.5</ele><time>2026-04-11T14:39:26.286Z</time></trkpt><trkpt lat="44.152823" lon="12.2293081"><ele>24.0</ele><time>2026-04-11T14:39:27.284Z</time></trkpt><trkpt lat="44.1526681" lon="12.2296692"><ele>24.0</ele><time>2026-04-11T14:39:28.285Z</time></trkpt><trkpt lat="44.1525143" lon="12.2300269"><ele>24.0</ele><time>2026-04-11T14:39:29.286Z</time></trkpt><trkpt lat="44.1523627" lon="12.2303918"><ele>25.0</ele><time>2026-04-11T14:39:30.286Z</time></trkpt><trkpt lat="44.1522201" lon="12.2307569"><ele>26.0</ele><time>2026-04-11T14:39:31.285Z</time></trkpt><trkpt lat="44.1520831" lon="12.2311186"><ele>26.0</ele><time>2026-04-11T14:39:32.285Z</time></trkpt><trkpt lat="44.1519555" lon="12.2314799"><ele>26.0</ele><time>2026-04-11T14:39:33.284Z</time></trkpt><trkpt lat="44.1518339" lon="12.2318401"><ele>26.0</ele><time>2026-04-11T14:39:34.285Z</time></trkpt><trkpt lat="44.1517223" lon="12.2321929"><ele>26.0</ele><time>2026-04-11T14:39:35.286Z</time></trkpt><trkpt lat="44.1516234" lon="12.2325376"><ele>25.5</ele><time>2026-04-11T14:39:36.285Z</time></trkpt><trkpt lat="44.1515331" lon="12.2328793"><ele>25.0</ele><time>2026-04-11T14:39:37.285Z</time></trkpt><trkpt lat="44.1514513" lon="12.2332115"><ele>26.0</ele><time>2026-04-11T14:39:38.285Z</time></trkpt><trkpt lat="44.1513761" lon="12.2335437"><ele>27.0</ele><time>2026-04-11T14:39:39.285Z</time></trkpt><trkpt lat="44.1513" lon="12.2338823"><ele>25.5</ele><time>2026-04-11T14:39:40.286Z</time></trkpt><trkpt lat="44.1512245" lon="12.2342221"><ele>24.0</ele><time>2026-04-11T14:39:41.284Z</time></trkpt><trkpt lat="44.151145" lon="12.2345633"><ele>23.5</ele><time>2026-04-11T14:39:42.285Z</time></trkpt><trkpt lat="44.1510663" lon="12.2348992"><ele>23.0</ele><time>2026-04-11T14:39:43.284Z</time></trkpt><trkpt lat="44.1509873" lon="12.2352295"><ele>23.0</ele><time>2026-04-11T14:39:44.284Z</time></trkpt><trkpt lat="44.1509062" lon="12.2355593"><ele>23.0</ele><time>2026-04-11T14:39:45.286Z</time></trkpt><trkpt lat="44.150823" lon="12.2358828"><ele>24.5</ele><time>2026-04-11T14:39:46.285Z</time></trkpt><trkpt lat="44.1507327" lon="12.2361998"><ele>26.0</ele><time>2026-04-11T14:39:47.284Z</time></trkpt><trkpt lat="44.1506349" lon="12.2365099"><ele>27.0</ele><time>2026-04-11T14:39:48.285Z</time></trkpt><trkpt lat="44.1505348" lon="12.2368066"><ele>28.0</ele><time>2026-04-11T14:39:49.285Z</time></trkpt><trkpt lat="44.1504314" lon="12.2370856"><ele>28.666666666666668</ele><time>2026-04-11T14:39:50.284Z</time></trkpt><trkpt lat="44.1503208" lon="12.2373546"><ele>29.333333333333336</ele><time>2026-04-11T14:39:51.286Z</time></trkpt><trkpt lat="44.1502053" lon="12.2376147"><ele>30.0</ele><time>2026-04-11T14:39:52.284Z</time></trkpt><trkpt lat="44.1500952" lon="12.2378704"><ele>30.0</ele><time>2026-04-11T14:39:53.285Z</time></trkpt><trkpt lat="44.1499791" lon="12.2381309"><ele>30.0</ele><time>2026-04-11T14:39:54.285Z</time></trkpt><trkpt lat="44.1498623" lon="12.2383955"><ele>30.0</ele><time>2026-04-11T14:39:55.285Z</time></trkpt><trkpt lat="44.149751" lon="12.2386523"><ele>30.666666666666664</ele><time>2026-04-11T14:39:56.285Z</time></trkpt><trkpt lat="44.1496383" lon="12.2389023"><ele>31.333333333333332</ele><time>2026-04-11T14:39:57.285Z</time></trkpt><trkpt lat="44.1495342" lon="12.2391468"><ele>32.0</ele><time>2026-04-11T14:39:58.285Z</time></trkpt><trkpt lat="44.1494296" lon="12.2393865"><ele>32.0</ele><time>2026-04-11T14:39:59.285Z</time></trkpt><trkpt lat="44.1493268" lon="12.2396275"><ele>32.0</ele><time>2026-04-11T14:40:00.286Z</time></trkpt><trkpt lat="44.1434005" lon="12.257758"><ele>31.5</ele><time>2026-04-11T14:41:04.285Z</time></trkpt><trkpt lat="44.14336" lon="12.2580989"><ele>31.0</ele><time>2026-04-11T14:41:05.286Z</time></trkpt><trkpt lat="44.1433261" lon="12.2584363"><ele>32.0</ele><time>2026-04-11T14:41:06.285Z</time></trkpt><trkpt lat="44.1432903" lon="12.2587695"><ele>33.0</ele><time>2026-04-11T14:41:07.285Z</time></trkpt><trkpt lat="44.1432549" lon="12.2591044"><ele>33.5</ele><time>2026-04-11T14:41:08.285Z</time></trkpt><trkpt lat="44.1432173" lon="12.2594357"><ele>34.0</ele><time>2026-04-11T14:41:09.285Z</time></trkpt><trkpt lat="44.1431839" lon="12.2597627"><ele>32.5</ele><time>2026-04-11T14:41:10.285Z</time></trkpt><trkpt lat="44.1431522" lon="12.2600904"><ele>31.0</ele><time>2026-04-11T14:41:11.285Z</time></trkpt><trkpt lat="44.1431207" lon="12.2604211"><ele>30.0</ele><time>2026-04-11T14:41:12.285Z</time></trkpt><trkpt lat="44.1430805" lon="12.260753"><ele>29.0</ele><time>2026-04-11T14:41:13.285Z</time></trkpt><trkpt lat="44.1430331" lon="12.2610818"><ele>29.0</ele><time>2026-04-11T14:41:14.286Z</time></trkpt><trkpt lat="44.1429788" lon="12.2614062"><ele>29.0</ele><time>2026-04-11T14:41:15.285Z</time></trkpt><trkpt lat="44.1429084" lon="12.2617278"><ele>28.5</ele><time>2026-04-11T14:41:16.284Z</time></trkpt><trkpt lat="44.1428258" lon="12.2620494"><ele>28.0</ele><time>2026-04-11T14:41:17.286Z</time></trkpt><trkpt lat="44.1427277" lon="12.2623714"><ele>28.0</ele><time>2026-04-11T14:41:18.285Z</time></trkpt><trkpt lat="44.1426137" lon="12.2626861"><ele>28.0</ele><time>2026-04-11T14:41:19.285Z</time></trkpt><trkpt lat="44.1424883" lon="12.2629881"><ele>27.5</ele><time>2026-04-11T14:41:20.284Z</time></trkpt><trkpt lat="44.1423513" lon="12.2632771"><ele>27.0</ele><time>2026-04-11T14:41:21.284Z</time></trkpt><trkpt lat="44.1422018" lon="12.2635532"><ele>27.0</ele><time>2026-04-11T14:41:22.284Z</time></trkpt><trkpt lat="44.1420416" lon="12.2638213"><ele>27.0</ele><time>2026-04-11T14:41:23.285Z</time></trkpt><trkpt lat="44.1418727" lon="12.2640843"><ele>27.5</ele><time>2026-04-11T14:41:24.285Z</time></trkpt><trkpt lat="44.1417006" lon="12.2643383"><ele>28.0</ele><time>2026-04-11T14:41:25.285Z</time></trkpt><trkpt lat="44.1415262" lon="12.2645887"><ele>27.5</ele><time>2026-04-11T14:41:26.285Z</time></trkpt><trkpt lat="44.1413501" lon="12.2648388"><ele>27.0</ele><time>2026-04-11T14:41:27.285Z</time></trkpt><trkpt lat="44.1411729" lon="12.2650878"><ele>27.0</ele><time>2026-04-11T14:41:28.286Z</time></trkpt><trkpt lat="44.1409982" lon="12.2653411"><ele>27.0</ele><time>2026-04-11T14:41:29.285Z</time></trkpt><trkpt lat="44.1408246" lon="12.2655944"><ele>28.0</ele><time>2026-04-11T14:41:30.285Z</time></trkpt><trkpt lat="44.1406569" lon="12.2658485"><ele>29.0</ele><time>2026-04-11T14:41:31.285Z</time></trkpt><trkpt lat="44.1404884" lon="12.2661065"><ele>29.0</ele><time>2026-04-11T14:41:32.285Z</time></trkpt><trkpt lat="44.140328" lon="12.2663684"><ele>29.0</ele><time>2026-04-11T14:41:33.285Z</time></trkpt><trkpt lat="44.1401772" lon="12.2666379"><ele>28.5</ele><time>2026-04-11T14:41:34.285Z</time></trkpt><trkpt lat="44.1400354" lon="12.2669203"><ele>28.0</ele><time>2026-04-11T14:41:35.285Z</time></trkpt><trkpt lat="44.1398988" lon="12.2672112"><ele>29.0</ele><time>2026-04-11T14:41:36.284Z</time></trkpt><trkpt lat="44.1397674" lon="12.2675079"><ele>30.0</ele><time>2026-04-11T14:41:37.285Z</time></trkpt><trkpt lat="44.1396394" lon="12.2678124"><ele>28.5</ele><time>2026-04-11T14:41:38.285Z</time></trkpt><trkpt lat="44.1395167" lon="12.2681187"><ele>27.0</ele><time>2026-04-11T14:41:39.285Z</time></trkpt><trkpt lat="44.1393992" lon="12.2684227"><ele>27.0</ele><time>2026-04-11T14:41:40.284Z</time></trkpt><trkpt lat="44.1392836" lon="12.2687237"><ele>27.0</ele><time>2026-04-11T14:41:41.285Z</time></trkpt><trkpt lat="44.13917" lon="12.269024"><ele>27.0</ele><time>2026-04-11T14:41:42.285Z</time></trkpt><trkpt lat="44.1390516" lon="12.2693346"><ele>27.0</ele><time>2026-04-11T14:41:43.284Z</time></trkpt><trkpt lat="44.1389309" lon="12.2696638"><ele>26.5</ele><time>2026-04-11T14:41:44.285Z</time></trkpt><trkpt lat="44.1388056" lon="12.2700156"><ele>26.0</ele><time>2026-04-11T14:41:45.285Z</time></trkpt><trkpt lat="44.1386769" lon="12.2703771"><ele>27.0</ele><time>2026-04-11T14:41:46.285Z</time></trkpt><trkpt lat="44.1385407" lon="12.2707491"><ele>28.0</ele><time>2026-04-11T14:41:47.284Z</time></trkpt><trkpt lat="44.1384017" lon="12.2711241"><ele>28.0</ele><time>2026-04-11T14:41:48.285Z</time></trkpt><trkpt lat="44.1382589" lon="12.2714942"><ele>28.0</ele><time>2026-04-11T14:41:49.284Z</time></trkpt><trkpt lat="44.1381196" lon="12.2718533"><ele>28.0</ele><time>2026-04-11T14:41:50.284Z</time></trkpt><trkpt lat="44.1379825" lon="12.2722007"><ele>28.0</ele><time>2026-04-11T14:41:51.285Z</time></trkpt><trkpt lat="44.1378473" lon="12.2725368"><ele>28.0</ele><time>2026-04-11T14:41:52.286Z</time></trkpt><trkpt lat="44.1377204" lon="12.2728626"><ele>28.0</ele><time>2026-04-11T14:41:53.286Z</time></trkpt><trkpt lat="44.1375955" lon="12.2731821"><ele>28.0</ele><time>2026-04-11T14:41:54.286Z</time></trkpt><trkpt lat="44.1374774" lon="12.2734971"><ele>28.0</ele><time>2026-04-11T14:41:55.284Z</time></trkpt><trkpt lat="44.1373559" lon="12.2738157"><ele>27.5</ele><time>2026-04-11T14:41:56.285Z</time></trkpt><trkpt lat="44.1372353" lon="12.2741417"><ele>27.0</ele><time>2026-04-11T14:41:57.285Z</time></trkpt><trkpt lat="44.1371148" lon="12.2744637"><ele>26.5</ele><time>2026-04-11T14:41:58.285Z</time></trkpt><trkpt lat="44.1369958" lon="12.2747789"><ele>26.0</ele><time>2026-04-11T14:41:59.286Z</time></trkpt><trkpt lat="44.1368814" lon="12.275082"><ele>26.0</ele><time>2026-04-11T14:42:00.285Z</time></trkpt><trkpt lat="44.1367724" lon="12.2753685"><ele>26.0</ele><time>2026-04-11T14:42:01.285Z</time></trkpt><trkpt lat="44.1366715" lon="12.2756414"><ele>26.0</ele><time>2026-04-11T14:42:02.284Z</time></trkpt><trkpt lat="44.1365746" lon="12.2759213"><ele>26.0</ele><time>2026-04-11T14:42:03.284Z</time></trkpt><trkpt lat="44.1364849" lon="12.2762002"><ele>26.0</ele><time>2026-04-11T14:42:04.284Z</time></trkpt><trkpt lat="44.1364008" lon="12.2764722"><ele>26.0</ele><time>2026-04-11T14:42:05.284Z</time></trkpt><trkpt lat="44.1363192" lon="12.2767403"><ele>26.0</ele><time>2026-04-11T14:42:06.285Z</time></trkpt><trkpt lat="44.1362418" lon="12.2770091"><ele>26.0</ele><time>2026-04-11T14:42:07.285Z</time></trkpt><trkpt lat="44.1361707" lon="12.2772712"><ele>26.0</ele><time>2026-04-11T14:42:08.286Z</time></trkpt><trkpt lat="44.1361035" lon="12.2775319"><ele>26.0</ele><time>2026-04-11T14:42:09.285Z</time></trkpt><trkpt lat="44.1360418" lon="12.2777914"><ele>26.0</ele><time>2026-04-11T14:42:10.285Z</time></trkpt><trkpt lat="44.1359914" lon="12.2780526"><ele>26.0</ele><time>2026-04-11T14:42:11.284Z</time></trkpt><trkpt lat="44.1359371" lon="12.2783131"><ele>26.0</ele><time>2026-04-11T14:42:12.284Z</time></trkpt><trkpt lat="44.1358862" lon="12.2785714"><ele>26.0</ele><time>2026-04-11T14:42:13.285Z</time></trkpt><trkpt lat="44.1358388" lon="12.2788297"><ele>26.0</ele><time>2026-04-11T14:42:14.284Z</time></trkpt><trkpt lat="44.1357876" lon="12.2790969"><ele>26.0</ele><time>2026-04-11T14:42:15.285Z</time></trkpt><trkpt lat="44.1357321" lon="12.2793659"><ele>26.0</ele><time>2026-04-11T14:42:16.286Z</time></trkpt><trkpt lat="44.1356838" lon="12.2796159"><ele>26.333333333333332</ele><time>2026-04-11T14:42:17.284Z</time></trkpt><trkpt lat="44.1356426" lon="12.2798486"><ele>26.666666666666664</ele><time>2026-04-11T14:42:18.284Z</time></trkpt><trkpt lat="44.1355975" lon="12.2800797"><ele>27.0</ele><time>2026-04-11T14:42:19.284Z</time></trkpt><trkpt lat="44.1355563" lon="12.2802793"><ele>27.0</ele><time>2026-04-11T14:42:20.285Z</time></trkpt><trkpt lat="44.1355006" lon="12.280466"><ele>27.0</ele><time>2026-04-11T14:42:21.286Z</time></trkpt><trkpt lat="44.135423" lon="12.2806362"><ele>27.0</ele><time>2026-04-11T14:42:22.285Z</time></trkpt><trkpt lat="44.1353301" lon="12.2807879"><ele>27.0</ele><time>2026-04-11T14:42:23.285Z</time></trkpt><trkpt lat="44.1352021" lon="12.2808976"><ele>27.0</ele><time>2026-04-11T14:42:24.285Z</time></trkpt><trkpt lat="44.1350737" lon="12.2809747"><ele>27.0</ele><time>2026-04-11T14:42:25.285Z</time></trkpt><trkpt lat="44.1349493" lon="12.2810233"><ele>27.0</ele><time>2026-04-11T14:42:26.285Z</time></trkpt><trkpt lat="44.1348534" lon="12.2810893"><ele>27.0</ele><time>2026-04-11T14:42:27.285Z</time></trkpt><trkpt lat="44.1347727" lon="12.281182"><ele>27.0</ele><time>2026-04-11T14:42:28.285Z</time></trkpt><trkpt lat="44.1347165" lon="12.2813118"><ele>27.000000000000004</ele><time>2026-04-11T14:42:29.286Z</time></trkpt><trkpt lat="44.134692" lon="12.2814599"><ele>27.000000000000004</ele><time>2026-04-11T14:42:30.287Z</time></trkpt><trkpt lat="44.1347025" lon="12.2816081"><ele>27.0</ele><time>2026-04-11T14:42:31.286Z</time></trkpt><trkpt lat="44.1347502" lon="12.2817488"><ele>27.0</ele><time>2026-04-11T14:42:32.286Z</time></trkpt><trkpt lat="44.1348216" lon="12.2818788"><ele>26.666666666666664</ele><time>2026-04-11T14:42:33.285Z</time></trkpt><trkpt lat="44.1349497" lon="12.2819871"><ele>26.333333333333332</ele><time>2026-04-11T14:42:34.285Z</time></trkpt><trkpt lat="44.1350969" lon="12.2820899"><ele>26.0</ele><time>2026-04-11T14:42:35.284Z</time></trkpt><trkpt lat="44.1352526" lon="12.2821911"><ele>25.666666666666664</ele><time>2026-04-11T14:42:36.285Z</time></trkpt><trkpt lat="44.1354235" lon="12.2823056"><ele>25.333333333333336</ele><time>2026-04-11T14:42:37.286Z</time></trkpt><trkpt lat="44.1356187" lon="12.2824417"><ele>25.0</ele><time>2026-04-11T14:42:38.286Z</time></trkpt><trkpt lat="44.135817" lon="12.2825819"><ele>25.0</ele><time>2026-04-11T14:42:39.284Z</time></trkpt><trkpt lat="44.1360277" lon="12.2827343"><ele>25.0</ele><time>2026-04-11T14:42:40.285Z</time></trkpt><trkpt lat="44.1362531" lon="12.2828937"><ele>25.0</ele><time>2026-04-11T14:42:41.285Z</time></trkpt><trkpt lat="44.1364762" lon="12.2830454"><ele>25.0</ele><time>2026-04-11T14:42:42.285Z</time></trkpt><trkpt lat="44.1366985" lon="12.2831985"><ele>25.0</ele><time>2026-04-11T14:42:43.286Z</time></trkpt><trkpt lat="44.1369168" lon="12.2833441"><ele>25.0</ele><time>2026-04-11T14:42:44.284Z</time></trkpt><trkpt lat="44.1371225" lon="12.2834843"><ele>25.0</ele><time>2026-04-11T14:42:45.285Z</time></trkpt><trkpt lat="44.1373223" lon="12.2836153"><ele>25.0</ele><time>2026-04-11T14:42:46.286Z</time></trkpt><trkpt lat="44.1375257" lon="12.2837335"><ele>25.0</ele><time>2026-04-11T14:42:47.284Z</time></trkpt><trkpt lat="44.1377332" lon="12.2838358"><ele>25.0</ele><time>2026-04-11T14:42:48.284Z</time></trkpt><trkpt lat="44.1379517" lon="12.283913"><ele>25.0</ele><time>2026-04-11T14:42:49.285Z</time></trkpt><trkpt lat="44.1381703" lon="12.283964"><ele>25.0</ele><time>2026-04-11T14:42:50.285Z</time></trkpt><trkpt lat="44.1383958" lon="12.2840081"><ele>25.0</ele><time>2026-04-11T14:42:51.285Z</time></trkpt><trkpt lat="44.1386246" lon="12.284041"><ele>25.0</ele><time>2026-04-11T14:42:52.285Z</time></trkpt><trkpt lat="44.1388497" lon="12.2840456"><ele>25.0</ele><time>2026-04-11T14:42:53.285Z</time></trkpt><trkpt lat="44.139056" lon="12.2840433"><ele>25.0</ele><time>2026-04-11T14:42:54.285Z</time></trkpt><trkpt lat="44.1392519" lon="12.2840349"><ele>25.0</ele><time>2026-04-11T14:42:55.285Z</time></trkpt><trkpt lat="44.1394392" lon="12.284014"><ele>25.0</ele><time>2026-04-11T14:42:56.285Z</time></trkpt><trkpt lat="44.1396114" lon="12.2839933"><ele>25.0</ele><time>2026-04-11T14:42:57.284Z</time></trkpt><trkpt lat="44.1397678" lon="12.2839783"><ele>25.0</ele><time>2026-04-11T14:42:58.286Z</time></trkpt><trkpt lat="44.139902" lon="12.2839625"><ele>25.0</ele><time>2026-04-11T14:42:59.285Z</time></trkpt><trkpt lat="44.1400167" lon="12.2839524"><ele>25.0</ele><time>2026-04-11T14:43:00.284Z</time></trkpt><trkpt lat="44.1401109" lon="12.283962"><ele>25.0</ele><time>2026-04-11T14:43:01.285Z</time></trkpt><trkpt lat="44.1402019" lon="12.2840125"><ele>25.0</ele><time>2026-04-11T14:43:02.285Z</time></trkpt><trkpt lat="44.1402979" lon="12.2841036"><ele>25.0</ele><time>2026-04-11T14:43:03.285Z</time></trkpt><trkpt lat="44.1403834" lon="12.2841964"><ele>25.0</ele><time>2026-04-11T14:43:04.285Z</time></trkpt><trkpt lat="44.1404571" lon="12.2842873"><ele>25.0</ele><time>2026-04-11T14:43:05.285Z</time></trkpt><trkpt lat="44.1405148" lon="12.2844033"><ele>25.0</ele><time>2026-04-11T14:43:06.285Z</time></trkpt><trkpt lat="44.1405511" lon="12.2845658"><ele>25.0</ele><time>2026-04-11T14:43:07.284Z</time></trkpt><trkpt lat="44.1405674" lon="12.2847574"><ele>24.666666666666668</ele><time>2026-04-11T14:43:08.284Z</time></trkpt><trkpt lat="44.1405755" lon="12.2849721"><ele>24.333333333333336</ele><time>2026-04-11T14:43:09.285Z</time></trkpt><trkpt lat="44.1405798" lon="12.2852152"><ele>24.0</ele><time>2026-04-11T14:43:10.285Z</time></trkpt><trkpt lat="44.1405963" lon="12.2854663"><ele>24.666666666666664</ele><time>2026-04-11T14:43:11.285Z</time></trkpt><trkpt lat="44.1406027" lon="12.2857515"><ele>25.333333333333332</ele><time>2026-04-11T14:43:12.285Z</time></trkpt><trkpt lat="44.1406083" lon="12.2860327"><ele>26.0</ele><time>2026-04-11T14:43:13.285Z</time></trkpt><trkpt lat="44.140611" lon="12.2862972"><ele>26.0</ele><time>2026-04-11T14:43:14.285Z</time></trkpt><trkpt lat="44.1406171" lon="12.2865461"><ele>26.0</ele><time>2026-04-11T14:43:15.284Z</time></trkpt><trkpt lat="44.1406182" lon="12.2867775"><ele>26.0</ele><time>2026-04-11T14:43:16.285Z</time></trkpt><trkpt lat="44.1406221" lon="12.2870102"><ele>26.0</ele><time>2026-04-11T14:43:17.286Z</time></trkpt><trkpt lat="44.1406231" lon="12.2872365"><ele>26.0</ele><time>2026-04-11T14:43:18.285Z</time></trkpt><trkpt lat="44.1406221" lon="12.2874615"><ele>26.0</ele><time>2026-04-11T14:43:19.284Z</time></trkpt><trkpt lat="44.1406165" lon="12.2876809"><ele>26.0</ele><time>2026-04-11T14:43:20.286Z</time></trkpt><trkpt lat="44.1406018" lon="12.2878968"><ele>26.0</ele><time>2026-04-11T14:43:21.285Z</time></trkpt><trkpt lat="44.1405926" lon="12.2881097"><ele>26.0</ele><time>2026-04-11T14:43:22.286Z</time></trkpt><trkpt lat="44.1405781" lon="12.2883169"><ele>26.0</ele><time>2026-04-11T14:43:23.285Z</time></trkpt><trkpt lat="44.1405673" lon="12.2885177"><ele>26.0</ele><time>2026-04-11T14:43:24.285Z</time></trkpt><trkpt lat="44.1405584" lon="12.288713"><ele>26.0</ele><time>2026-04-11T14:43:25.285Z</time></trkpt><trkpt lat="44.1405513" lon="12.2889081"><ele>26.0</ele><time>2026-04-11T14:43:26.285Z</time></trkpt><trkpt lat="44.1405401" lon="12.2891027"><ele>26.0</ele><time>2026-04-11T14:43:27.284Z</time></trkpt><trkpt lat="44.1405321" lon="12.2892897"><ele>26.0</ele><time>2026-04-11T14:43:28.286Z</time></trkpt><trkpt lat="44.1405223" lon="12.2894725"><ele>26.0</ele><time>2026-04-11T14:43:29.284Z</time></trkpt><trkpt lat="44.1405148" lon="12.2896642"><ele>26.0</ele><time>2026-04-11T14:43:30.285Z</time></trkpt><trkpt lat="44.1405052" lon="12.2898665"><ele>25.333333333333332</ele><time>2026-04-11T14:43:31.285Z</time></trkpt><trkpt lat="44.1405002" lon="12.2900792"><ele>24.666666666666664</ele><time>2026-04-11T14:43:32.285Z</time></trkpt><trkpt lat="44.1404926" lon="12.2902958"><ele>24.0</ele><time>2026-04-11T14:43:33.285Z</time></trkpt><trkpt lat="44.1404841" lon="12.2905193"><ele>24.0</ele><time>2026-04-11T14:43:34.285Z</time></trkpt><trkpt lat="44.1404764" lon="12.2907459"><ele>24.0</ele><time>2026-04-11T14:43:35.285Z</time></trkpt><trkpt lat="44.1404675" lon="12.29097"><ele>24.0</ele><time>2026-04-11T14:43:36.286Z</time></trkpt><trkpt lat="44.1404578" lon="12.2911944"><ele>24.0</ele><time>2026-04-11T14:43:37.284Z</time></trkpt><trkpt lat="44.140453" lon="12.2914135"><ele>24.0</ele><time>2026-04-11T14:43:38.286Z</time></trkpt><trkpt lat="44.1404522" lon="12.291628"><ele>24.0</ele><time>2026-04-11T14:43:39.284Z</time></trkpt><trkpt lat="44.1404583" lon="12.2918329"><ele>24.25</ele><time>2026-04-11T14:43:40.285Z</time></trkpt><trkpt lat="44.1404656" lon="12.2920349"><ele>24.5</ele><time>2026-04-11T14:43:41.285Z</time></trkpt><trkpt lat="44.1404718" lon="12.2922325"><ele>24.75</ele><time>2026-04-11T14:43:42.285Z</time></trkpt><trkpt lat="44.1404884" lon="12.2924245"><ele>25.0</ele><time>2026-04-11T14:43:43.285Z</time></trkpt><trkpt lat="44.1405084" lon="12.2926116"><ele>25.25</ele><time>2026-04-11T14:43:44.285Z</time></trkpt><trkpt lat="44.1405395" lon="12.2927982"><ele>25.5</ele><time>2026-04-11T14:43:45.285Z</time></trkpt><trkpt lat="44.140577" lon="12.2929753"><ele>25.75</ele><time>2026-04-11T14:43:46.285Z</time></trkpt><trkpt lat="44.1406173" lon="12.2931594"><ele>26.0</ele><time>2026-04-11T14:43:47.285Z</time></trkpt><trkpt lat="44.1406604" lon="12.2933347"><ele>25.8</ele><time>2026-04-11T14:43:48.284Z</time></trkpt><trkpt lat="44.1407035" lon="12.2934897"><ele>25.6</ele><time>2026-04-11T14:43:49.285Z</time></trkpt><trkpt lat="44.1407463" lon="12.2936292"><ele>25.4</ele><time>2026-04-11T14:43:50.286Z</time></trkpt><trkpt lat="44.1407836" lon="12.2937504"><ele>25.2</ele><time>2026-04-11T14:43:51.285Z</time></trkpt><trkpt lat="44.1407838" lon="12.2938788"><ele>25.0</ele><time>2026-04-11T14:43:52.286Z</time></trkpt><trkpt lat="44.1407571" lon="12.2940169"><ele>24.75</ele><time>2026-04-11T14:43:53.285Z</time></trkpt><trkpt lat="44.1407103" lon="12.2941677"><ele>24.5</ele><time>2026-04-11T14:43:54.285Z</time></trkpt><trkpt lat="44.1406512" lon="12.29434"><ele>24.25</ele><time>2026-04-11T14:43:55.285Z</time></trkpt><trkpt lat="44.1405985" lon="12.2945215"><ele>24.0</ele><time>2026-04-11T14:43:56.285Z</time></trkpt><trkpt lat="44.1405592" lon="12.294709"><ele>24.0</ele><time>2026-04-11T14:43:57.285Z</time></trkpt><trkpt lat="44.1405426" lon="12.2949129"><ele>24.0</ele><time>2026-04-11T14:43:58.285Z</time></trkpt><trkpt lat="44.1405396" lon="12.2951381"><ele>24.0</ele><time>2026-04-11T14:43:59.285Z</time></trkpt><trkpt lat="44.1405451" lon="12.2953782"><ele>24.333333333333336</ele><time>2026-04-11T14:44:00.285Z</time></trkpt><trkpt lat="44.1405482" lon="12.2956168"><ele>24.666666666666668</ele><time>2026-04-11T14:44:01.285Z</time></trkpt><trkpt lat="44.1405584" lon="12.2958551"><ele>25.0</ele><time>2026-04-11T14:44:02.285Z</time></trkpt><trkpt lat="44.1405703" lon="12.2960932"><ele>25.0</ele><time>2026-04-11T14:44:03.285Z</time></trkpt><trkpt lat="44.1405898" lon="12.2963389"><ele>25.0</ele><time>2026-04-11T14:44:04.286Z</time></trkpt><trkpt lat="44.1406176" lon="12.2965855"><ele>25.0</ele><time>2026-04-11T14:44:05.285Z</time></trkpt><trkpt lat="44.1406501" lon="12.2968247"><ele>25.0</ele><time>2026-04-11T14:44:06.285Z</time></trkpt><trkpt lat="44.1406929" lon="12.2970712"><ele>25.0</ele><time>2026-04-11T14:44:07.285Z</time></trkpt><trkpt lat="44.1407393" lon="12.2973137"><ele>25.0</ele><time>2026-04-11T14:44:08.286Z</time></trkpt><trkpt lat="44.1407934" lon="12.2975495"><ele>25.0</ele><time>2026-04-11T14:44:09.284Z</time></trkpt><trkpt lat="44.1408492" lon="12.2977877"><ele>25.0</ele><time>2026-04-11T14:44:10.285Z</time></trkpt><trkpt lat="44.1409063" lon="12.2980232"><ele>25.0</ele><time>2026-04-11T14:44:11.285Z</time></trkpt><trkpt lat="44.1409556" lon="12.2982555"><ele>24.666666666666668</ele><time>2026-04-11T14:44:12.285Z</time></trkpt><trkpt lat="44.1410001" lon="12.298477"><ele>24.333333333333336</ele><time>2026-04-11T14:44:13.284Z</time></trkpt><trkpt lat="44.1410381" lon="12.2987001"><ele>24.0</ele><time>2026-04-11T14:44:14.285Z</time></trkpt><trkpt lat="44.1410644" lon="12.2989297"><ele>23.666666666666668</ele><time>2026-04-11T14:44:15.284Z</time></trkpt><trkpt lat="44.1410838" lon="12.2991661"><ele>23.333333333333336</ele><time>2026-04-11T14:44:16.284Z</time></trkpt><trkpt lat="44.1411" lon="12.299408"><ele>23.0</ele><time>2026-04-11T14:44:17.284Z</time></trkpt><trkpt lat="44.1411123" lon="12.299647"><ele>22.666666666666668</ele><time>2026-04-11T14:44:18.284Z</time></trkpt><trkpt lat="44.1411259" lon="12.2998817"><ele>22.333333333333332</ele><time>2026-04-11T14:44:19.285Z</time></trkpt><trkpt lat="44.1411364" lon="12.3001133"><ele>22.0</ele><time>2026-04-11T14:44:20.285Z</time></trkpt><trkpt lat="44.1411469" lon="12.3003275"><ele>22.0</ele><time>2026-04-11T14:44:21.284Z</time></trkpt><trkpt lat="44.1411692" lon="12.3005344"><ele>22.0</ele><time>2026-04-11T14:44:22.285Z</time></trkpt><trkpt lat="44.1412102" lon="12.3007403"><ele>22.0</ele><time>2026-04-11T14:44:23.285Z</time></trkpt><trkpt lat="44.141274" lon="12.3009341"><ele>21.666666666666664</ele><time>2026-04-11T14:44:24.285Z</time></trkpt><trkpt lat="44.1413574" lon="12.3011202"><ele>21.333333333333332</ele><time>2026-04-11T14:44:25.285Z</time></trkpt><trkpt lat="44.141442" lon="12.301301"><ele>21.0</ele><time>2026-04-11T14:44:26.285Z</time></trkpt><trkpt lat="44.1415255" lon="12.3014704"><ele>21.25</ele><time>2026-04-11T14:44:27.284Z</time></trkpt><trkpt lat="44.141609" lon="12.3016272"><ele>21.5</ele><time>2026-04-11T14:44:28.284Z</time></trkpt><trkpt lat="44.1416848" lon="12.3017868"><ele>21.75</ele><time>2026-04-11T14:44:29.286Z</time></trkpt><trkpt lat="44.1417489" lon="12.3019402"><ele>22.0</ele><time>2026-04-11T14:44:30.285Z</time></trkpt><trkpt lat="44.1418022" lon="12.3020952"><ele>22.5</ele><time>2026-04-11T14:44:31.284Z</time></trkpt><trkpt lat="44.1418366" lon="12.3022578"><ele>23.0</ele><time>2026-04-11T14:44:32.285Z</time></trkpt><trkpt lat="44.141858" lon="12.3024255"><ele>23.5</ele><time>2026-04-11T14:44:33.285Z</time></trkpt><trkpt lat="44.141871" lon="12.302602"><ele>24.0</ele><time>2026-04-11T14:44:34.285Z</time></trkpt><trkpt lat="44.141875" lon="12.3027838"><ele>24.0</ele><time>2026-04-11T14:44:35.285Z</time></trkpt><trkpt lat="44.1418825" lon="12.3029711"><ele>24.0</ele><time>2026-04-11T14:44:36.285Z</time></trkpt><trkpt lat="44.1418848" lon="12.3031614"><ele>24.0</ele><time>2026-04-11T14:44:37.284Z</time></trkpt><trkpt lat="44.1418891" lon="12.3033553"><ele>24.0</ele><time>2026-04-11T14:44:38.284Z</time></trkpt><trkpt lat="44.1418928" lon="12.3035461"><ele>24.0</ele><time>2026-04-11T14:44:39.285Z</time></trkpt><trkpt lat="44.1418959" lon="12.3037442"><ele>24.0</ele><time>2026-04-11T14:44:40.284Z</time></trkpt><trkpt lat="44.1419012" lon="12.3039364"><ele>24.0</ele><time>2026-04-11T14:44:41.284Z</time></trkpt><trkpt lat="44.1419064" lon="12.3041196"><ele>24.0</ele><time>2026-04-11T14:44:42.286Z</time></trkpt><trkpt lat="44.14191" lon="12.3043027"><ele>23.75</ele><time>2026-04-11T14:44:43.285Z</time></trkpt><trkpt lat="44.1419157" lon="12.3044811"><ele>23.5</ele><time>2026-04-11T14:44:44.286Z</time></trkpt><trkpt lat="44.1419224" lon="12.3046552"><ele>23.25</ele><time>2026-04-11T14:44:45.284Z</time></trkpt><trkpt lat="44.1419308" lon="12.3048306"><ele>23.0</ele><time>2026-04-11T14:44:46.285Z</time></trkpt><trkpt lat="44.1419415" lon="12.3050063"><ele>23.0</ele><time>2026-04-11T14:44:47.285Z</time></trkpt><trkpt lat="44.1419508" lon="12.3051875"><ele>23.0</ele><time>2026-04-11T14:44:48.285Z</time></trkpt><trkpt lat="44.141959" lon="12.3053635"><ele>23.0</ele><time>2026-04-11T14:44:49.284Z</time></trkpt><trkpt lat="44.1419586" lon="12.3055325"><ele>23.0</ele><time>2026-04-11T14:44:50.285Z</time></trkpt><trkpt lat="44.1419462" lon="12.3056971"><ele>22.75</ele><time>2026-04-11T14:44:51.285Z</time></trkpt><trkpt lat="44.1419278" lon="12.3058769"><ele>22.5</ele><time>2026-04-11T14:44:52.284Z</time></trkpt><trkpt lat="44.1419127" lon="12.3060545"><ele>22.25</ele><time>2026-04-11T14:44:53.285Z</time></trkpt><trkpt lat="44.1418961" lon="12.3062291"><ele>22.0</ele><time>2026-04-11T14:44:54.284Z</time></trkpt><trkpt lat="44.141899" lon="12.3063988"><ele>22.0</ele><time>2026-04-11T14:44:55.283Z</time></trkpt><trkpt lat="44.1419107" lon="12.3065714"><ele>22.0</ele><time>2026-04-11T14:44:56.284Z</time></trkpt><trkpt lat="44.1419329" lon="12.3067517"><ele>22.0</ele><time>2026-04-11T14:44:57.284Z</time></trkpt><trkpt lat="44.1419586" lon="12.3069394"><ele>22.0</ele><time>2026-04-11T14:44:58.283Z</time></trkpt><trkpt lat="44.1419806" lon="12.3071282"><ele>22.0</ele><time>2026-04-11T14:44:59.285Z</time></trkpt><trkpt lat="44.141993" lon="12.3073182"><ele>22.0</ele><time>2026-04-11T14:45:00.286Z</time></trkpt><trkpt lat="44.1419927" lon="12.3075042"><ele>22.0</ele><time>2026-04-11T14:45:01.286Z</time></trkpt><trkpt lat="44.1419738" lon="12.3076923"><ele>22.0</ele><time>2026-04-11T14:45:02.285Z</time></trkpt><trkpt lat="44.1419484" lon="12.3078688"><ele>22.0</ele><time>2026-04-11T14:45:03.286Z</time></trkpt><trkpt lat="44.1419213" lon="12.3080499"><ele>22.0</ele><time>2026-04-11T14:45:04.285Z</time></trkpt><trkpt lat="44.1418993" lon="12.3082365"><ele>22.0</ele><time>2026-04-11T14:45:05.285Z</time></trkpt><trkpt lat="44.1418858" lon="12.3084302"><ele>22.0</ele><time>2026-04-11T14:45:06.286Z</time></trkpt><trkpt lat="44.1418774" lon="12.3086305"><ele>22.0</ele><time>2026-04-11T14:45:07.285Z</time></trkpt><trkpt lat="44.1418763" lon="12.3088382"><ele>22.0</ele><time>2026-04-11T14:45:08.286Z</time></trkpt><trkpt lat="44.1418769" lon="12.3090335"><ele>22.0</ele><time>2026-04-11T14:45:09.285Z</time></trkpt><trkpt lat="44.1418808" lon="12.3092222"><ele>22.0</ele><time>2026-04-11T14:45:10.285Z</time></trkpt><trkpt lat="44.141915" lon="12.3093975"><ele>22.0</ele><time>2026-04-11T14:45:11.284Z</time></trkpt><trkpt lat="44.1419649" lon="12.3095766"><ele>22.0</ele><time>2026-04-11T14:45:12.285Z</time></trkpt><trkpt lat="44.142039" lon="12.309751"><ele>22.0</ele><time>2026-04-11T14:45:13.283Z</time></trkpt><trkpt lat="44.1421258" lon="12.3099066"><ele>22.0</ele><time>2026-04-11T14:45:14.286Z</time></trkpt><trkpt lat="44.1422122" lon="12.3100493"><ele>22.0</ele><time>2026-04-11T14:45:15.284Z</time></trkpt><trkpt lat="44.1422969" lon="12.3101807"><ele>22.0</ele><time>2026-04-11T14:45:16.285Z</time></trkpt><trkpt lat="44.1423748" lon="12.3102985"><ele>22.0</ele><time>2026-04-11T14:45:17.285Z</time></trkpt><trkpt lat="44.1424364" lon="12.3104009"><ele>22.0</ele><time>2026-04-11T14:45:18.285Z</time></trkpt><trkpt lat="44.1424842" lon="12.310492"><ele>22.0</ele><time>2026-04-11T14:45:19.284Z</time></trkpt><trkpt lat="44.1425091" lon="12.3106005"><ele>22.0</ele><time>2026-04-11T14:45:20.285Z</time></trkpt><trkpt lat="44.1425258" lon="12.3107104"><ele>22.0</ele><time>2026-04-11T14:45:21.285Z</time></trkpt><trkpt lat="44.142534" lon="12.310816"><ele>22.0</ele><time>2026-04-11T14:45:22.286Z</time></trkpt><trkpt lat="44.1425553" lon="12.3109148"><ele>22.0</ele><time>2026-04-11T14:45:23.284Z</time></trkpt><trkpt lat="44.1425988" lon="12.3110076"><ele>22.0</ele><time>2026-04-11T14:45:24.285Z</time></trkpt><trkpt lat="44.1426639" lon="12.3110776"><ele>22.0</ele><time>2026-04-11T14:45:25.285Z</time></trkpt><trkpt lat="44.1427407" lon="12.3111132"><ele>22.0</ele><time>2026-04-11T14:45:26.285Z</time></trkpt><trkpt lat="44.1428207" lon="12.311144"><ele>22.0</ele><time>2026-04-11T14:45:27.285Z</time></trkpt><trkpt lat="44.1428945" lon="12.3111953"><ele>22.0</ele><time>2026-04-11T14:45:28.285Z</time></trkpt><trkpt lat="44.1429598" lon="12.3112786"><ele>22.0</ele><time>2026-04-11T14:45:29.285Z</time></trkpt><trkpt lat="44.1430209" lon="12.3113852"><ele>22.0</ele><time>2026-04-11T14:45:30.283Z</time></trkpt><trkpt lat="44.1430776" lon="12.3114891"><ele>22.0</ele><time>2026-04-11T14:45:31.285Z</time></trkpt><trkpt lat="44.1431419" lon="12.3115898"><ele>22.0</ele><time>2026-04-11T14:45:32.285Z</time></trkpt><trkpt lat="44.1431971" lon="12.3116985"><ele>22.0</ele><time>2026-04-11T14:45:33.285Z</time></trkpt><trkpt lat="44.1432533" lon="12.3118073"><ele>22.0</ele><time>2026-04-11T14:45:34.285Z</time></trkpt><trkpt lat="44.1433092" lon="12.311921"><ele>22.0</ele><time>2026-04-11T14:45:35.284Z</time></trkpt><trkpt lat="44.1433661" lon="12.3120372"><ele>22.0</ele><time>2026-04-11T14:45:36.283Z</time></trkpt><trkpt lat="44.1434203" lon="12.3121723"><ele>21.75</ele><time>2026-04-11T14:45:37.285Z</time></trkpt><trkpt lat="44.1434769" lon="12.3123249"><ele>21.5</ele><time>2026-04-11T14:45:38.285Z</time></trkpt><trkpt lat="44.1435342" lon="12.3125132"><ele>21.25</ele><time>2026-04-11T14:45:39.285Z</time></trkpt><trkpt lat="44.143592" lon="12.3127194"><ele>21.0</ele><time>2026-04-11T14:45:40.285Z</time></trkpt><trkpt lat="44.1436539" lon="12.312952"><ele>21.333333333333332</ele><time>2026-04-11T14:45:41.284Z</time></trkpt><trkpt lat="44.143718" lon="12.3132124"><ele>21.666666666666664</ele><time>2026-04-11T14:45:42.284Z</time></trkpt><trkpt lat="44.1437768" lon="12.3134875"><ele>22.0</ele><time>2026-04-11T14:45:43.285Z</time></trkpt><trkpt lat="44.143832" lon="12.3137536"><ele>21.333333333333332</ele><time>2026-04-11T14:45:44.285Z</time></trkpt><trkpt lat="44.1438832" lon="12.313998"><ele>20.666666666666668</ele><time>2026-04-11T14:45:45.284Z</time></trkpt><trkpt lat="44.1439372" lon="12.3142361"><ele>20.0</ele><time>2026-04-11T14:45:46.285Z</time></trkpt><trkpt lat="44.1439928" lon="12.3144644"><ele>20.333333333333336</ele><time>2026-04-11T14:45:47.285Z</time></trkpt><trkpt lat="44.1440484" lon="12.314688"><ele>20.666666666666668</ele><time>2026-04-11T14:45:48.285Z</time></trkpt><trkpt lat="44.144103" lon="12.3148972"><ele>21.0</ele><time>2026-04-11T14:45:49.285Z</time></trkpt><trkpt lat="44.1441537" lon="12.3151093"><ele>21.0</ele><time>2026-04-11T14:45:50.284Z</time></trkpt><trkpt lat="44.144203" lon="12.315323"><ele>21.0</ele><time>2026-04-11T14:45:51.285Z</time></trkpt><trkpt lat="44.1442512" lon="12.3155366"><ele>21.0</ele><time>2026-04-11T14:45:52.285Z</time></trkpt><trkpt lat="44.1442977" lon="12.315747"><ele>20.666666666666668</ele><time>2026-04-11T14:45:53.284Z</time></trkpt><trkpt lat="44.1443439" lon="12.3159527"><ele>20.333333333333336</ele><time>2026-04-11T14:45:54.285Z</time></trkpt><trkpt lat="44.1443897" lon="12.3161576"><ele>20.0</ele><time>2026-04-11T14:45:55.284Z</time></trkpt><trkpt lat="44.1444396" lon="12.3163636"><ele>19.666666666666668</ele><time>2026-04-11T14:45:56.286Z</time></trkpt><trkpt lat="44.1444926" lon="12.3165639"><ele>19.333333333333332</ele><time>2026-04-11T14:45:57.285Z</time></trkpt><trkpt lat="44.1445486" lon="12.3167646"><ele>19.0</ele><time>2026-04-11T14:45:58.285Z</time></trkpt><trkpt lat="44.1446017" lon="12.3169637"><ele>19.0</ele><time>2026-04-11T14:45:59.284Z</time></trkpt><trkpt lat="44.1446661" lon="12.3171668"><ele>19.0</ele><time>2026-04-11T14:46:00.285Z</time></trkpt><trkpt lat="44.144744" lon="12.317388"><ele>19.0</ele><time>2026-04-11T14:46:01.286Z</time></trkpt><trkpt lat="44.1448269" lon="12.3176392"><ele>19.333333333333332</ele><time>2026-04-11T14:46:02.285Z</time></trkpt><trkpt lat="44.1449183" lon="12.3179175"><ele>19.666666666666668</ele><time>2026-04-11T14:46:03.284Z</time></trkpt><trkpt lat="44.145007" lon="12.3181927"><ele>20.0</ele><time>2026-04-11T14:46:04.285Z</time></trkpt><trkpt lat="44.1451019" lon="12.3184702"><ele>20.0</ele><time>2026-04-11T14:46:05.286Z</time></trkpt><trkpt lat="44.1452033" lon="12.3187482"><ele>20.0</ele><time>2026-04-11T14:46:06.284Z</time></trkpt><trkpt lat="44.1453074" lon="12.3190075"><ele>20.0</ele><time>2026-04-11T14:46:07.285Z</time></trkpt><trkpt lat="44.1454015" lon="12.3192528"><ele>20.0</ele><time>2026-04-11T14:46:08.285Z</time></trkpt><trkpt lat="44.145482" lon="12.3194949"><ele>20.0</ele><time>2026-04-11T14:46:09.284Z</time></trkpt><trkpt lat="44.1455436" lon="12.3197465"><ele>20.0</ele><time>2026-04-11T14:46:10.285Z</time></trkpt><trkpt lat="44.1455903" lon="12.3200063"><ele>19.666666666666668</ele><time>2026-04-11T14:46:11.286Z</time></trkpt><trkpt lat="44.1456154" lon="12.3202703"><ele>19.333333333333332</ele><time>2026-04-11T14:46:12.284Z</time></trkpt><trkpt lat="44.1456286" lon="12.3205344"><ele>19.0</ele><time>2026-04-11T14:46:13.284Z</time></trkpt><trkpt lat="44.1456411" lon="12.3207995"><ele>19.0</ele><time>2026-04-11T14:46:14.285Z</time></trkpt><trkpt lat="44.145655" lon="12.3210638"><ele>19.0</ele><time>2026-04-11T14:46:15.285Z</time></trkpt><trkpt lat="44.145668" lon="12.3213204"><ele>19.0</ele><time>2026-04-11T14:46:16.284Z</time></trkpt><trkpt lat="44.1456825" lon="12.3215557"><ele>19.0</ele><time>2026-04-11T14:46:17.285Z</time></trkpt><trkpt lat="44.1456952" lon="12.3217818"><ele>19.0</ele><time>2026-04-11T14:46:18.285Z</time></trkpt><trkpt lat="44.1457077" lon="12.3219995"><ele>19.0</ele><time>2026-04-11T14:46:19.286Z</time></trkpt><trkpt lat="44.1457244" lon="12.322228"><ele>18.666666666666664</ele><time>2026-04-11T14:46:20.285Z</time></trkpt><trkpt lat="44.1457405" lon="12.3224734"><ele>18.333333333333332</ele><time>2026-04-11T14:46:21.285Z</time></trkpt><trkpt lat="44.1457657" lon="12.3227448"><ele>18.0</ele><time>2026-04-11T14:46:22.285Z</time></trkpt><trkpt lat="44.1457945" lon="12.3230365"><ele>17.5</ele><time>2026-04-11T14:46:23.285Z</time></trkpt><trkpt lat="44.1458141" lon="12.3233534"><ele>17.0</ele><time>2026-04-11T14:46:24.285Z</time></trkpt><trkpt lat="44.1458252" lon="12.3236854"><ele>17.5</ele><time>2026-04-11T14:46:25.285Z</time></trkpt><trkpt lat="44.1458385" lon="12.3240122"><ele>18.0</ele><time>2026-04-11T14:46:26.285Z</time></trkpt><trkpt lat="44.1458588" lon="12.3243361"><ele>18.0</ele><time>2026-04-11T14:46:27.286Z</time></trkpt><trkpt lat="44.1458836" lon="12.3246489"><ele>18.0</ele><time>2026-04-11T14:46:28.284Z</time></trkpt><trkpt lat="44.1459263" lon="12.3249391"><ele>18.0</ele><time>2026-04-11T14:46:29.285Z</time></trkpt><trkpt lat="44.1459771" lon="12.3252156"><ele>18.0</ele><time>2026-04-11T14:46:30.285Z</time></trkpt><trkpt lat="44.1460242" lon="12.3254788"><ele>18.0</ele><time>2026-04-11T14:46:31.284Z</time></trkpt><trkpt lat="44.1460552" lon="12.3257399"><ele>18.0</ele><time>2026-04-11T14:46:32.285Z</time></trkpt><trkpt lat="44.1460571" lon="12.3260065"><ele>18.0</ele><time>2026-04-11T14:46:33.284Z</time></trkpt><trkpt lat="44.1460311" lon="12.3262639"><ele>18.0</ele><time>2026-04-11T14:46:34.284Z</time></trkpt><trkpt lat="44.1459726" lon="12.3265126"><ele>18.0</ele><time>2026-04-11T14:46:35.285Z</time></trkpt><trkpt lat="44.1458889" lon="12.3267507"><ele>17.666666666666668</ele><time>2026-04-11T14:46:36.285Z</time></trkpt><trkpt lat="44.1457951" lon="12.3269763"><ele>17.333333333333336</ele><time>2026-04-11T14:46:37.284Z</time></trkpt><trkpt lat="44.145705" lon="12.3272073"><ele>17.0</ele><time>2026-04-11T14:46:38.284Z</time></trkpt><trkpt lat="44.1456407" lon="12.3274569"><ele>17.0</ele><time>2026-04-11T14:46:39.285Z</time></trkpt><trkpt lat="44.1455995" lon="12.3277282"><ele>17.0</ele><time>2026-04-11T14:46:40.284Z</time></trkpt><trkpt lat="44.145588" lon="12.328002"><ele>17.0</ele><time>2026-04-11T14:46:41.284Z</time></trkpt><trkpt lat="44.1456096" lon="12.3282763"><ele>17.0</ele><time>2026-04-11T14:46:42.284Z</time></trkpt><trkpt lat="44.14566" lon="12.3285504"><ele>17.0</ele><time>2026-04-11T14:46:43.284Z</time></trkpt><trkpt lat="44.1457278" lon="12.3288288"><ele>17.0</ele><time>2026-04-11T14:46:44.284Z</time></trkpt><trkpt lat="44.1457946" lon="12.3291078"><ele>17.333333333333336</ele><time>2026-04-11T14:46:45.284Z</time></trkpt><trkpt lat="44.145863" lon="12.329389"><ele>17.666666666666668</ele><time>2026-04-11T14:46:46.285Z</time></trkpt><trkpt lat="44.145934" lon="12.3296737"><ele>18.0</ele><time>2026-04-11T14:46:47.285Z</time></trkpt><trkpt lat="44.1460059" lon="12.3299547"><ele>18.0</ele><time>2026-04-11T14:46:48.286Z</time></trkpt><trkpt lat="44.1460778" lon="12.3302356"><ele>18.0</ele><time>2026-04-11T14:46:49.285Z</time></trkpt><trkpt lat="44.1461448" lon="12.3305231"><ele>18.0</ele><time>2026-04-11T14:46:50.285Z</time></trkpt><trkpt lat="44.1462107" lon="12.3308122"><ele>17.666666666666668</ele><time>2026-04-11T14:46:51.285Z</time></trkpt><trkpt lat="44.1462693" lon="12.3311042"><ele>17.333333333333336</ele><time>2026-04-11T14:46:52.285Z</time></trkpt><trkpt lat="44.146319" lon="12.3314068"><ele>17.0</ele><time>2026-04-11T14:46:53.285Z</time></trkpt><trkpt lat="44.1463557" lon="12.331712"><ele>16.666666666666668</ele><time>2026-04-11T14:46:54.285Z</time></trkpt><trkpt lat="44.1463864" lon="12.3320153"><ele>16.333333333333332</ele><time>2026-04-11T14:46:55.286Z</time></trkpt><trkpt lat="44.1464196" lon="12.3323141"><ele>16.0</ele><time>2026-04-11T14:46:56.285Z</time></trkpt><trkpt lat="44.1464517" lon="12.3326033"><ele>16.0</ele><time>2026-04-11T14:46:57.286Z</time></trkpt><trkpt lat="44.1464776" lon="12.3328916"><ele>16.0</ele><time>2026-04-11T14:46:58.286Z</time></trkpt><trkpt lat="44.1464943" lon="12.3331661"><ele>16.0</ele><time>2026-04-11T14:46:59.284Z</time></trkpt><trkpt lat="44.1465082" lon="12.3334262"><ele>16.0</ele><time>2026-04-11T14:47:00.286Z</time></trkpt><trkpt lat="44.1465254" lon="12.3336689"><ele>16.0</ele><time>2026-04-11T14:47:01.285Z</time></trkpt><trkpt lat="44.1465674" lon="12.3339124"><ele>16.0</ele><time>2026-04-11T14:47:02.285Z</time></trkpt><trkpt lat="44.1466307" lon="12.3341563"><ele>16.0</ele><time>2026-04-11T14:47:03.285Z</time></trkpt><trkpt lat="44.1467096" lon="12.3343975"><ele>16.0</ele><time>2026-04-11T14:47:04.284Z</time></trkpt><trkpt lat="44.1467903" lon="12.334623"><ele>16.0</ele><time>2026-04-11T14:47:05.286Z</time></trkpt><trkpt lat="44.146865" lon="12.3348303"><ele>16.0</ele><time>2026-04-11T14:47:06.284Z</time></trkpt><trkpt lat="44.1469246" lon="12.3350185"><ele>16.0</ele><time>2026-04-11T14:47:07.283Z</time></trkpt><trkpt lat="44.1469693" lon="12.335178"><ele>16.0</ele><time>2026-04-11T14:47:08.285Z</time></trkpt><trkpt lat="44.1469918" lon="12.3353238"><ele>16.0</ele><time>2026-04-11T14:47:09.285Z</time></trkpt><trkpt lat="44.1469922" lon="12.335476"><ele>16.0</ele><time>2026-04-11T14:47:10.284Z</time></trkpt><trkpt lat="44.1469825" lon="12.3356057"><ele>16.0</ele><time>2026-04-11T14:47:11.285Z</time></trkpt><trkpt lat="44.1469767" lon="12.3357397"><ele>16.0</ele><time>2026-04-11T14:47:12.285Z</time></trkpt><trkpt lat="44.1470086" lon="12.3358719"><ele>16.0</ele><time>2026-04-11T14:47:13.285Z</time></trkpt><trkpt lat="44.147101" lon="12.3360003"><ele>16.0</ele><time>2026-04-11T14:47:14.285Z</time></trkpt><trkpt lat="44.1471818" lon="12.3361335"><ele>16.0</ele><time>2026-04-11T14:47:15.285Z</time></trkpt><trkpt lat="44.1472634" lon="12.3362978"><ele>16.0</ele><time>2026-04-11T14:47:16.284Z</time></trkpt><trkpt lat="44.1473503" lon="12.3364567"><ele>16.0</ele><time>2026-04-11T14:47:17.285Z</time></trkpt><trkpt lat="44.1474568" lon="12.3366101"><ele>16.0</ele><time>2026-04-11T14:47:18.285Z</time></trkpt><trkpt lat="44.1475917" lon="12.3367544"><ele>16.0</ele><time>2026-04-11T14:47:19.285Z</time></trkpt><trkpt lat="44.1477477" lon="12.3368862"><ele>16.0</ele><time>2026-04-11T14:47:20.284Z</time></trkpt><trkpt lat="44.1479098" lon="12.3370127"><ele>16.0</ele><time>2026-04-11T14:47:21.285Z</time></trkpt><trkpt lat="44.1480731" lon="12.3371368"><ele>16.0</ele><time>2026-04-11T14:47:22.283Z</time></trkpt><trkpt lat="44.1482282" lon="12.3372685"><ele>16.0</ele><time>2026-04-11T14:47:23.285Z</time></trkpt><trkpt lat="44.148374" lon="12.3374077"><ele>16.0</ele><time>2026-04-11T14:47:24.285Z</time></trkpt><trkpt lat="44.1485112" lon="12.3375519"><ele>16.0</ele><time>2026-04-11T14:47:25.285Z</time></trkpt><trkpt lat="44.1486422" lon="12.3377053"><ele>16.0</ele><time>2026-04-11T14:47:26.283Z</time></trkpt><trkpt lat="44.1487672" lon="12.3378626"><ele>16.0</ele><time>2026-04-11T14:47:27.284Z</time></trkpt><trkpt lat="44.1488861" lon="12.3380218"><ele>16.0</ele><time>2026-04-11T14:47:28.283Z</time></trkpt><trkpt lat="44.1489895" lon="12.3381936"><ele>16.0</ele><time>2026-04-11T14:47:29.285Z</time></trkpt><trkpt lat="44.1490695" lon="12.3383913"><ele>16.0</ele><time>2026-04-11T14:47:30.284Z</time></trkpt><trkpt lat="44.1491216" lon="12.3386068"><ele>16.0</ele><time>2026-04-11T14:47:31.284Z</time></trkpt><trkpt lat="44.1491604" lon="12.3388423"><ele>16.0</ele><time>2026-04-11T14:47:32.285Z</time></trkpt><trkpt lat="44.149192" lon="12.3390909"><ele>16.0</ele><time>2026-04-11T14:47:33.284Z</time></trkpt><trkpt lat="44.1492247" lon="12.3393425"><ele>16.0</ele><time>2026-04-11T14:47:34.284Z</time></trkpt><trkpt lat="44.1492603" lon="12.3395967"><ele>16.0</ele><time>2026-04-11T14:47:35.285Z</time></trkpt><trkpt lat="44.1493005" lon="12.3398498"><ele>16.0</ele><time>2026-04-11T14:47:36.285Z</time></trkpt><trkpt lat="44.1493501" lon="12.3400937"><ele>16.333333333333332</ele><time>2026-04-11T14:47:37.285Z</time></trkpt><trkpt lat="44.1494026" lon="12.3403435"><ele>16.666666666666668</ele><time>2026-04-11T14:47:38.285Z</time></trkpt><trkpt lat="44.1494595" lon="12.3405888"><ele>17.0</ele><time>2026-04-11T14:47:39.284Z</time></trkpt><trkpt lat="44.1495166" lon="12.3408221"><ele>16.0</ele><time>2026-04-11T14:47:40.284Z</time></trkpt><trkpt lat="44.1495764" lon="12.3410437"><ele>15.0</ele><time>2026-04-11T14:47:41.286Z</time></trkpt><trkpt lat="44.1496469" lon="12.3412591"><ele>14.0</ele><time>2026-04-11T14:47:42.284Z</time></trkpt><trkpt lat="44.1497413" lon="12.3414604"><ele>14.0</ele><time>2026-04-11T14:47:43.284Z</time></trkpt><trkpt lat="44.1498563" lon="12.3416494"><ele>14.0</ele><time>2026-04-11T14:47:44.285Z</time></trkpt><trkpt lat="44.149987" lon="12.341827"><ele>14.0</ele><time>2026-04-11T14:47:45.285Z</time></trkpt><trkpt lat="44.1501313" lon="12.3419942"><ele>14.0</ele><time>2026-04-11T14:47:46.285Z</time></trkpt><trkpt lat="44.1502837" lon="12.3421487"><ele>14.0</ele><time>2026-04-11T14:47:47.284Z</time></trkpt><trkpt lat="44.1504416" lon="12.3422902"><ele>14.0</ele><time>2026-04-11T14:47:48.285Z</time></trkpt><trkpt lat="44.1505985" lon="12.3424297"><ele>14.666666666666668</ele><time>2026-04-11T14:47:49.286Z</time></trkpt><trkpt lat="44.1507471" lon="12.3425751"><ele>15.333333333333332</ele><time>2026-04-11T14:47:50.285Z</time></trkpt><trkpt lat="44.1508905" lon="12.3427284"><ele>16.0</ele><time>2026-04-11T14:47:51.285Z</time></trkpt><trkpt lat="44.1510245" lon="12.3428881"><ele>16.0</ele><time>2026-04-11T14:47:52.283Z</time></trkpt><trkpt lat="44.1511412" lon="12.3430567"><ele>16.0</ele><time>2026-04-11T14:47:53.286Z</time></trkpt><trkpt lat="44.1512396" lon="12.3432282"><ele>16.0</ele><time>2026-04-11T14:47:54.286Z</time></trkpt><trkpt lat="44.1513285" lon="12.343402"><ele>16.0</ele><time>2026-04-11T14:47:55.284Z</time></trkpt><trkpt lat="44.1514125" lon="12.3435773"><ele>16.0</ele><time>2026-04-11T14:47:56.285Z</time></trkpt><trkpt lat="44.1514925" lon="12.3437525"><ele>16.0</ele><time>2026-04-11T14:47:57.284Z</time></trkpt><trkpt lat="44.1515626" lon="12.3439197"><ele>16.0</ele><time>2026-04-11T14:47:58.284Z</time></trkpt><trkpt lat="44.1516302" lon="12.3440869"><ele>15.5</ele><time>2026-04-11T14:47:59.284Z</time></trkpt><trkpt lat="44.1516855" lon="12.3442538"><ele>15.0</ele><time>2026-04-11T14:48:00.283Z</time></trkpt><trkpt lat="44.151735" lon="12.344418"><ele>14.5</ele><time>2026-04-11T14:48:01.285Z</time></trkpt><trkpt lat="44.1517775" lon="12.3445867"><ele>14.0</ele><time>2026-04-11T14:48:02.285Z</time></trkpt><trkpt lat="44.151816" lon="12.3447589"><ele>14.0</ele><time>2026-04-11T14:48:03.283Z</time></trkpt><trkpt lat="44.1518493" lon="12.3449362"><ele>14.0</ele><time>2026-04-11T14:48:04.285Z</time></trkpt><trkpt lat="44.1518809" lon="12.3451145"><ele>14.0</ele><time>2026-04-11T14:48:05.284Z</time></trkpt><trkpt lat="44.1519104" lon="12.3452904"><ele>14.0</ele><time>2026-04-11T14:48:06.285Z</time></trkpt><trkpt lat="44.1519421" lon="12.3454718"><ele>13.666666666666668</ele><time>2026-04-11T14:48:07.284Z</time></trkpt><trkpt lat="44.1519772" lon="12.345664"><ele>13.333333333333332</ele><time>2026-04-11T14:48:08.284Z</time></trkpt><trkpt lat="44.1520185" lon="12.3458533"><ele>13.0</ele><time>2026-04-11T14:48:09.284Z</time></trkpt><trkpt lat="44.1520684" lon="12.3460738"><ele>13.0</ele><time>2026-04-11T14:48:10.285Z</time></trkpt><trkpt lat="44.1521223" lon="12.3463241"><ele>13.0</ele><time>2026-04-11T14:48:11.286Z</time></trkpt><trkpt lat="44.1521805" lon="12.3466047"><ele>13.0</ele><time>2026-04-11T14:48:12.283Z</time></trkpt><trkpt lat="44.1522428" lon="12.3468977"><ele>13.0</ele><time>2026-04-11T14:48:13.284Z</time></trkpt><trkpt lat="44.1523085" lon="12.3471882"><ele>13.0</ele><time>2026-04-11T14:48:14.286Z</time></trkpt><trkpt lat="44.1523759" lon="12.3474764"><ele>13.0</ele><time>2026-04-11T14:48:15.286Z</time></trkpt><trkpt lat="44.1524432" lon="12.3477606"><ele>12.666666666666666</ele><time>2026-04-11T14:48:16.285Z</time></trkpt><trkpt lat="44.1525128" lon="12.3480471"><ele>12.333333333333332</ele><time>2026-04-11T14:48:17.285Z</time></trkpt><trkpt lat="44.1525864" lon="12.3483285"><ele>12.0</ele><time>2026-04-11T14:48:18.285Z</time></trkpt><trkpt lat="44.1526602" lon="12.3486101"><ele>12.0</ele><time>2026-04-11T14:48:19.284Z</time></trkpt><trkpt lat="44.1527388" lon="12.3488913"><ele>12.0</ele><time>2026-04-11T14:48:20.284Z</time></trkpt><trkpt lat="44.1528203" lon="12.3491733"><ele>12.0</ele><time>2026-04-11T14:48:21.285Z</time></trkpt><trkpt lat="44.1529075" lon="12.3494472"><ele>12.0</ele><time>2026-04-11T14:48:22.283Z</time></trkpt><trkpt lat="44.1529994" lon="12.3497178"><ele>12.0</ele><time>2026-04-11T14:48:23.284Z</time></trkpt><trkpt lat="44.1530918" lon="12.3499897"><ele>12.0</ele><time>2026-04-11T14:48:24.286Z</time></trkpt><trkpt lat="44.1531834" lon="12.350254"><ele>12.0</ele><time>2026-04-11T14:48:25.284Z</time></trkpt><trkpt lat="44.1532802" lon="12.3505171"><ele>12.0</ele><time>2026-04-11T14:48:26.285Z</time></trkpt><trkpt lat="44.1533762" lon="12.3507769"><ele>12.0</ele><time>2026-04-11T14:48:27.284Z</time></trkpt><trkpt lat="44.1534805" lon="12.3510309"><ele>12.0</ele><time>2026-04-11T14:48:28.285Z</time></trkpt><trkpt lat="44.1535838" lon="12.3512757"><ele>12.0</ele><time>2026-04-11T14:48:29.285Z</time></trkpt><trkpt lat="44.1536879" lon="12.3514972"><ele>12.0</ele><time>2026-04-11T14:48:30.283Z</time></trkpt><trkpt lat="44.1537861" lon="12.3517172"><ele>11.666666666666666</ele><time>2026-04-11T14:48:31.285Z</time></trkpt><trkpt lat="44.1538757" lon="12.3519449"><ele>11.333333333333332</ele><time>2026-04-11T14:48:32.284Z</time></trkpt><trkpt lat="44.1539313" lon="12.3521895"><ele>11.0</ele><time>2026-04-11T14:48:33.286Z</time></trkpt><trkpt lat="44.1539541" lon="12.3524494"><ele>11.0</ele><time>2026-04-11T14:48:34.285Z</time></trkpt><trkpt lat="44.1539578" lon="12.3527115"><ele>11.0</ele><time>2026-04-11T14:48:35.285Z</time></trkpt><trkpt lat="44.1539605" lon="12.3529858"><ele>11.0</ele><time>2026-04-11T14:48:36.285Z</time></trkpt><trkpt lat="44.1539691" lon="12.3532795"><ele>11.0</ele><time>2026-04-11T14:48:37.285Z</time></trkpt><trkpt lat="44.1539814" lon="12.3535762"><ele>11.0</ele><time>2026-04-11T14:48:38.285Z</time></trkpt><trkpt lat="44.1539981" lon="12.3538742"><ele>11.0</ele><time>2026-04-11T14:48:39.285Z</time></trkpt><trkpt lat="44.1540213" lon="12.3541762"><ele>11.0</ele><time>2026-04-11T14:48:40.283Z</time></trkpt><trkpt lat="44.1540501" lon="12.3544647"><ele>11.0</ele><time>2026-04-11T14:48:41.285Z</time></trkpt><trkpt lat="44.1540759" lon="12.3547604"><ele>11.0</ele><time>2026-04-11T14:48:42.284Z</time></trkpt><trkpt lat="44.1541032" lon="12.3550516"><ele>10.666666666666666</ele><time>2026-04-11T14:48:43.286Z</time></trkpt><trkpt lat="44.154133" lon="12.355347"><ele>10.333333333333334</ele><time>2026-04-11T14:48:44.285Z</time></trkpt><trkpt lat="44.1541626" lon="12.3556356"><ele>10.0</ele><time>2026-04-11T14:48:45.286Z</time></trkpt><trkpt lat="44.1541856" lon="12.3559258"><ele>10.0</ele><time>2026-04-11T14:48:46.285Z</time></trkpt><trkpt lat="44.1541983" lon="12.3562185"><ele>10.0</ele><time>2026-04-11T14:48:47.283Z</time></trkpt><trkpt lat="44.1542044" lon="12.3565158"><ele>10.0</ele><time>2026-04-11T14:48:48.285Z</time></trkpt><trkpt lat="44.1542069" lon="12.3568083"><ele>10.0</ele><time>2026-04-11T14:48:49.284Z</time></trkpt><trkpt lat="44.15421" lon="12.357105"><ele>10.0</ele><time>2026-04-11T14:48:50.286Z</time></trkpt><trkpt lat="44.1542162" lon="12.3573987"><ele>10.0</ele><time>2026-04-11T14:48:51.285Z</time></trkpt><trkpt lat="44.154225" lon="12.3576935"><ele>10.0</ele><time>2026-04-11T14:48:52.284Z</time></trkpt><trkpt lat="44.1542381" lon="12.3579876"><ele>10.0</ele><time>2026-04-11T14:48:53.285Z</time></trkpt><trkpt lat="44.1542509" lon="12.3582808"><ele>10.0</ele><time>2026-04-11T14:48:54.285Z</time></trkpt><trkpt lat="44.1542604" lon="12.358571"><ele>10.666666666666668</ele><time>2026-04-11T14:48:55.286Z</time></trkpt><trkpt lat="44.1542751" lon="12.3588569"><ele>11.333333333333334</ele><time>2026-04-11T14:48:56.285Z</time></trkpt><trkpt lat="44.1542919" lon="12.3591413"><ele>12.0</ele><time>2026-04-11T14:48:57.285Z</time></trkpt><trkpt lat="44.1543145" lon="12.359423"><ele>11.333333333333334</ele><time>2026-04-11T14:48:58.285Z</time></trkpt><trkpt lat="44.1543371" lon="12.3597024"><ele>10.666666666666668</ele><time>2026-04-11T14:48:59.284Z</time></trkpt><trkpt lat="44.1543593" lon="12.3599877"><ele>10.0</ele><time>2026-04-11T14:49:00.285Z</time></trkpt><trkpt lat="44.1543809" lon="12.3602757"><ele>10.0</ele><time>2026-04-11T14:49:01.284Z</time></trkpt><trkpt lat="44.1544012" lon="12.3605681"><ele>10.0</ele><time>2026-04-11T14:49:02.285Z</time></trkpt><trkpt lat="44.1544199" lon="12.3608608"><ele>10.0</ele><time>2026-04-11T14:49:03.285Z</time></trkpt><trkpt lat="44.1544429" lon="12.3611517"><ele>10.666666666666668</ele><time>2026-04-11T14:49:04.284Z</time></trkpt><trkpt lat="44.1544643" lon="12.3614356"><ele>11.333333333333334</ele><time>2026-04-11T14:49:05.283Z</time></trkpt><trkpt lat="44.1544776" lon="12.3617227"><ele>12.0</ele><time>2026-04-11T14:49:06.285Z</time></trkpt><trkpt lat="44.1544845" lon="12.3620094"><ele>11.666666666666666</ele><time>2026-04-11T14:49:07.286Z</time></trkpt><trkpt lat="44.1544845" lon="12.3622929"><ele>11.333333333333332</ele><time>2026-04-11T14:49:08.284Z</time></trkpt><trkpt lat="44.1544947" lon="12.3625829"><ele>11.0</ele><time>2026-04-11T14:49:09.283Z</time></trkpt><trkpt lat="44.1545212" lon="12.3628648"><ele>10.333333333333332</ele><time>2026-04-11T14:49:10.285Z</time></trkpt><trkpt lat="44.1545609" lon="12.3631504"><ele>9.666666666666666</ele><time>2026-04-11T14:49:11.285Z</time></trkpt><trkpt lat="44.1546093" lon="12.3634293"><ele>9.0</ele><time>2026-04-11T14:49:12.284Z</time></trkpt><trkpt lat="44.1546583" lon="12.3637103"><ele>9.0</ele><time>2026-04-11T14:49:13.284Z</time></trkpt><trkpt lat="44.1546927" lon="12.3639905"><ele>9.0</ele><time>2026-04-11T14:49:14.283Z</time></trkpt><trkpt lat="44.1546975" lon="12.3642811"><ele>9.0</ele><time>2026-04-11T14:49:15.285Z</time></trkpt><trkpt lat="44.1546848" lon="12.3645728"><ele>9.333333333333334</ele><time>2026-04-11T14:49:16.285Z</time></trkpt><trkpt lat="44.15467" lon="12.3648666"><ele>9.666666666666668</ele><time>2026-04-11T14:49:17.286Z</time></trkpt><trkpt lat="44.1546602" lon="12.3651541"><ele>10.0</ele><time>2026-04-11T14:49:18.285Z</time></trkpt><trkpt lat="44.1546657" lon="12.3654475"><ele>10.666666666666668</ele><time>2026-04-11T14:49:19.285Z</time></trkpt><trkpt lat="44.1546866" lon="12.3657399"><ele>11.333333333333334</ele><time>2026-04-11T14:49:20.284Z</time></trkpt><trkpt lat="44.1547185" lon="12.3660379"><ele>12.0</ele><time>2026-04-11T14:49:21.284Z</time></trkpt><trkpt lat="44.1547402" lon="12.366345"><ele>12.0</ele><time>2026-04-11T14:49:22.285Z</time></trkpt><trkpt lat="44.1547567" lon="12.3666555"><ele>12.0</ele><time>2026-04-11T14:49:23.285Z</time></trkpt><trkpt lat="44.1547698" lon="12.3669664"><ele>12.0</ele><time>2026-04-11T14:49:24.285Z</time></trkpt><trkpt lat="44.1547835" lon="12.3672755"><ele>12.0</ele><time>2026-04-11T14:49:25.285Z</time></trkpt><trkpt lat="44.1547944" lon="12.3675853"><ele>12.0</ele><time>2026-04-11T14:49:26.285Z</time></trkpt><trkpt lat="44.1548089" lon="12.3678858"><ele>12.0</ele><time>2026-04-11T14:49:27.284Z</time></trkpt><trkpt lat="44.1548236" lon="12.3681906"><ele>11.666666666666666</ele><time>2026-04-11T14:49:28.284Z</time></trkpt><trkpt lat="44.154838" lon="12.3685"><ele>11.333333333333332</ele><time>2026-04-11T14:49:29.284Z</time></trkpt><trkpt lat="44.1548505" lon="12.3688113"><ele>11.0</ele><time>2026-04-11T14:49:30.284Z</time></trkpt><trkpt lat="44.1548639" lon="12.369121"><ele>9.666666666666666</ele><time>2026-04-11T14:49:31.283Z</time></trkpt><trkpt lat="44.1548742" lon="12.3694265"><ele>8.333333333333334</ele><time>2026-04-11T14:49:32.284Z</time></trkpt><trkpt lat="44.1548836" lon="12.3697387"><ele>7.0</ele><time>2026-04-11T14:49:33.285Z</time></trkpt><trkpt lat="44.1548919" lon="12.3700434"><ele>7.0</ele><time>2026-04-11T14:49:34.285Z</time></trkpt><trkpt lat="44.1549006" lon="12.3703478"><ele>7.0</ele><time>2026-04-11T14:49:35.285Z</time></trkpt><trkpt lat="44.1549116" lon="12.3706517"><ele>7.0</ele><time>2026-04-11T14:49:36.284Z</time></trkpt><trkpt lat="44.1549249" lon="12.3709567"><ele>7.333333333333334</ele><time>2026-04-11T14:49:37.286Z</time></trkpt><trkpt lat="44.1549494" lon="12.3712615"><ele>7.666666666666666</ele><time>2026-04-11T14:49:38.284Z</time></trkpt><trkpt lat="44.1549839" lon="12.3715591"><ele>8.0</ele><time>2026-04-11T14:49:39.285Z</time></trkpt><trkpt lat="44.1550287" lon="12.3718509"><ele>8.333333333333332</ele><time>2026-04-11T14:49:40.284Z</time></trkpt><trkpt lat="44.1550725" lon="12.3721433"><ele>8.666666666666666</ele><time>2026-04-11T14:49:41.284Z</time></trkpt><trkpt lat="44.155109" lon="12.3724359"><ele>9.0</ele><time>2026-04-11T14:49:42.286Z</time></trkpt><trkpt lat="44.1551365" lon="12.3727317"><ele>9.0</ele><time>2026-04-11T14:49:43.284Z</time></trkpt><trkpt lat="44.1551566" lon="12.3730221"><ele>9.0</ele><time>2026-04-11T14:49:44.284Z</time></trkpt><trkpt lat="44.155166" lon="12.3733193"><ele>9.0</ele><time>2026-04-11T14:49:45.283Z</time></trkpt><trkpt lat="44.1551696" lon="12.3736141"><ele>8.666666666666666</ele><time>2026-04-11T14:49:46.284Z</time></trkpt><trkpt lat="44.1551656" lon="12.3739051"><ele>8.333333333333332</ele><time>2026-04-11T14:49:47.284Z</time></trkpt><trkpt lat="44.155162" lon="12.3741967"><ele>8.0</ele><time>2026-04-11T14:49:48.285Z</time></trkpt><trkpt lat="44.1551552" lon="12.3744868"><ele>8.0</ele><time>2026-04-11T14:49:49.283Z</time></trkpt><trkpt lat="44.1551453" lon="12.3747726"><ele>8.0</ele><time>2026-04-11T14:49:50.284Z</time></trkpt><trkpt lat="44.1551315" lon="12.3750601"><ele>8.0</ele><time>2026-04-11T14:49:51.284Z</time></trkpt><trkpt lat="44.1551255" lon="12.3753473"><ele>8.0</ele><time>2026-04-11T14:49:52.285Z</time></trkpt><trkpt lat="44.1551434" lon="12.3756369"><ele>8.0</ele><time>2026-04-11T14:49:53.285Z</time></trkpt><trkpt lat="44.1551712" lon="12.375918"><ele>8.0</ele><time>2026-04-11T14:49:54.284Z</time></trkpt><trkpt lat="44.1552119" lon="12.3761865"><ele>7.666666666666666</ele><time>2026-04-11T14:49:55.285Z</time></trkpt><trkpt lat="44.1552467" lon="12.376467"><ele>7.333333333333334</ele><time>2026-04-11T14:49:56.283Z</time></trkpt><trkpt lat="44.1552707" lon="12.3767471"><ele>7.0</ele><time>2026-04-11T14:49:57.284Z</time></trkpt><trkpt lat="44.1552915" lon="12.3770309"><ele>7.0</ele><time>2026-04-11T14:49:58.284Z</time></trkpt><trkpt lat="44.1553071" lon="12.3773167"><ele>7.0</ele><time>2026-04-11T14:49:59.284Z</time></trkpt><trkpt lat="44.1553186" lon="12.3776059"><ele>7.0</ele><time>2026-04-11T14:50:00.285Z</time></trkpt><trkpt lat="44.1553304" lon="12.3778931"><ele>7.0</ele><time>2026-04-11T14:50:01.285Z</time></trkpt><trkpt lat="44.155344" lon="12.3781844"><ele>7.0</ele><time>2026-04-11T14:50:02.285Z</time></trkpt><trkpt lat="44.1553589" lon="12.3784695"><ele>7.0</ele><time>2026-04-11T14:50:03.285Z</time></trkpt><trkpt lat="44.155374" lon="12.378753"><ele>7.333333333333334</ele><time>2026-04-11T14:50:04.285Z</time></trkpt><trkpt lat="44.1553889" lon="12.3790378"><ele>7.666666666666666</ele><time>2026-04-11T14:50:05.284Z</time></trkpt><trkpt lat="44.155402" lon="12.3793188"><ele>8.0</ele><time>2026-04-11T14:50:06.284Z</time></trkpt><trkpt lat="44.155416" lon="12.3796024"><ele>8.0</ele><time>2026-04-11T14:50:07.284Z</time></trkpt><trkpt lat="44.1554297" lon="12.3798841"><ele>8.0</ele><time>2026-04-11T14:50:08.285Z</time></trkpt><trkpt lat="44.155443" lon="12.3801671"><ele>8.0</ele><time>2026-04-11T14:50:09.285Z</time></trkpt><trkpt lat="44.1554588" lon="12.3804487"><ele>8.0</ele><time>2026-04-11T14:50:10.284Z</time></trkpt><trkpt lat="44.1554745" lon="12.3807272"><ele>8.0</ele><time>2026-04-11T14:50:11.284Z</time></trkpt><trkpt lat="44.1554891" lon="12.3810083"><ele>8.0</ele><time>2026-04-11T14:50:12.285Z</time></trkpt><trkpt lat="44.1555006" lon="12.3812861"><ele>8.333333333333332</ele><time>2026-04-11T14:50:13.284Z</time></trkpt><trkpt lat="44.1555131" lon="12.3815604"><ele>8.666666666666666</ele><time>2026-04-11T14:50:14.284Z</time></trkpt><trkpt lat="44.1555242" lon="12.3818235"><ele>9.0</ele><time>2026-04-11T14:50:15.283Z</time></trkpt><trkpt lat="44.1555345" lon="12.3820702"><ele>9.0</ele><time>2026-04-11T14:50:16.285Z</time></trkpt><trkpt lat="44.1555459" lon="12.3823104"><ele>9.0</ele><time>2026-04-11T14:50:17.285Z</time></trkpt><trkpt lat="44.1555599" lon="12.3825463"><ele>9.0</ele><time>2026-04-11T14:50:18.284Z</time></trkpt><trkpt lat="44.1555709" lon="12.3827684"><ele>9.0</ele><time>2026-04-11T14:50:19.284Z</time></trkpt><trkpt lat="44.1555818" lon="12.3829786"><ele>9.0</ele><time>2026-04-11T14:50:20.285Z</time></trkpt><trkpt lat="44.155595" lon="12.3831709"><ele>9.0</ele><time>2026-04-11T14:50:21.285Z</time></trkpt><trkpt lat="44.1556078" lon="12.3833501"><ele>9.0</ele><time>2026-04-11T14:50:22.285Z</time></trkpt><trkpt lat="44.1556129" lon="12.3835033"><ele>9.0</ele><time>2026-04-11T14:50:23.285Z</time></trkpt><trkpt lat="44.1556208" lon="12.3836431"><ele>9.0</ele><time>2026-04-11T14:50:24.285Z</time></trkpt><trkpt lat="44.155623" lon="12.3837549"><ele>9.0</ele><time>2026-04-11T14:50:25.285Z</time></trkpt><trkpt lat="44.1556274" lon="12.3838506"><ele>9.0</ele><time>2026-04-11T14:50:26.284Z</time></trkpt><trkpt lat="44.1556297" lon="12.383953"><ele>9.0</ele><time>2026-04-11T14:50:29.284Z</time></trkpt><trkpt lat="44.1556" lon="12.384078"><ele>9.0</ele><time>2026-04-11T14:50:33.285Z</time></trkpt><trkpt lat="44.1555749" lon="12.3842065"><ele>9.0</ele><time>2026-04-11T14:50:35.285Z</time></trkpt><trkpt lat="44.155673" lon="12.3842584"><ele>9.0</ele><time>2026-04-11T14:50:37.284Z</time></trkpt><trkpt lat="44.1557647" lon="12.3842271"><ele>9.0</ele><time>2026-04-11T14:50:38.285Z</time></trkpt><trkpt lat="44.1558693" lon="12.3842092"><ele>9.0</ele><time>2026-04-11T14:50:39.285Z</time></trkpt><trkpt lat="44.1559828" lon="12.3842019"><ele>9.0</ele><time>2026-04-11T14:50:40.285Z</time></trkpt><trkpt lat="44.1561222" lon="12.3841812"><ele>9.0</ele><time>2026-04-11T14:50:41.284Z</time></trkpt><trkpt lat="44.1562559" lon="12.384156"><ele>9.0</ele><time>2026-04-11T14:50:42.284Z</time></trkpt><trkpt lat="44.1563931" lon="12.3841255"><ele>9.0</ele><time>2026-04-11T14:50:43.285Z</time></trkpt><trkpt lat="44.1565306" lon="12.3840791"><ele>9.0</ele><time>2026-04-11T14:50:44.285Z</time></trkpt><trkpt lat="44.1566685" lon="12.3840233"><ele>9.0</ele><time>2026-04-11T14:50:45.285Z</time></trkpt><trkpt lat="44.1568123" lon="12.3839647"><ele>9.0</ele><time>2026-04-11T14:50:46.285Z</time></trkpt><trkpt lat="44.1569519" lon="12.3839012"><ele>9.0</ele><time>2026-04-11T14:50:47.284Z</time></trkpt><trkpt lat="44.1571032" lon="12.3838351"><ele>8.666666666666666</ele><time>2026-04-11T14:50:48.285Z</time></trkpt><trkpt lat="44.1572575" lon="12.3837664"><ele>8.333333333333332</ele><time>2026-04-11T14:50:49.285Z</time></trkpt><trkpt lat="44.1574097" lon="12.3837015"><ele>8.0</ele><time>2026-04-11T14:50:50.284Z</time></trkpt><trkpt lat="44.1575629" lon="12.3836344"><ele>7.666666666666666</ele><time>2026-04-11T14:50:51.285Z</time></trkpt><trkpt lat="44.1577218" lon="12.3835737"><ele>7.333333333333334</ele><time>2026-04-11T14:50:52.285Z</time></trkpt><trkpt lat="44.1578828" lon="12.3835188"><ele>7.0</ele><time>2026-04-11T14:50:53.286Z</time></trkpt><trkpt lat="44.1580457" lon="12.383469"><ele>7.0</ele><time>2026-04-11T14:50:54.284Z</time></trkpt><trkpt lat="44.1582123" lon="12.3834287"><ele>7.0</ele><time>2026-04-11T14:50:55.285Z</time></trkpt><trkpt lat="44.1583848" lon="12.383398"><ele>7.0</ele><time>2026-04-11T14:50:56.284Z</time></trkpt><trkpt lat="44.1585554" lon="12.3833764"><ele>7.0</ele><time>2026-04-11T14:50:57.284Z</time></trkpt><trkpt lat="44.1587283" lon="12.3833576"><ele>7.0</ele><time>2026-04-11T14:50:58.285Z</time></trkpt><trkpt lat="44.1589023" lon="12.3833511"><ele>7.0</ele><time>2026-04-11T14:50:59.284Z</time></trkpt><trkpt lat="44.1590754" lon="12.383339"><ele>7.333333333333334</ele><time>2026-04-11T14:51:00.285Z</time></trkpt><trkpt lat="44.1592468" lon="12.3833273"><ele>7.666666666666666</ele><time>2026-04-11T14:51:01.285Z</time></trkpt><trkpt lat="44.1594178" lon="12.3833173"><ele>8.0</ele><time>2026-04-11T14:51:02.283Z</time></trkpt><trkpt lat="44.1595947" lon="12.3833019"><ele>8.0</ele><time>2026-04-11T14:51:03.285Z</time></trkpt><trkpt lat="44.1597773" lon="12.3832837"><ele>8.0</ele><time>2026-04-11T14:51:04.285Z</time></trkpt><trkpt lat="44.1599627" lon="12.3832588"><ele>8.0</ele><time>2026-04-11T14:51:05.285Z</time></trkpt><trkpt lat="44.1601486" lon="12.3832307"><ele>7.333333333333333</ele><time>2026-04-11T14:51:06.283Z</time></trkpt><trkpt lat="44.1603367" lon="12.3831994"><ele>6.666666666666666</ele><time>2026-04-11T14:51:07.283Z</time></trkpt><trkpt lat="44.160526" lon="12.3831704"><ele>6.0</ele><time>2026-04-11T14:51:08.285Z</time></trkpt><trkpt lat="44.1607149" lon="12.3831392"><ele>6.0</ele><time>2026-04-11T14:51:09.283Z</time></trkpt><trkpt lat="44.1608996" lon="12.3831089"><ele>6.0</ele><time>2026-04-11T14:51:10.284Z</time></trkpt><trkpt lat="44.1610804" lon="12.3830808"><ele>6.0</ele><time>2026-04-11T14:51:11.284Z</time></trkpt><trkpt lat="44.161261" lon="12.3830539"><ele>6.0</ele><time>2026-04-11T14:51:12.284Z</time></trkpt><trkpt lat="44.1614292" lon="12.3830308"><ele>6.0</ele><time>2026-04-11T14:51:13.284Z</time></trkpt><trkpt lat="44.1615932" lon="12.3830103"><ele>6.0</ele><time>2026-04-11T14:51:14.284Z</time></trkpt><trkpt lat="44.1617421" lon="12.3829927"><ele>6.5</ele><time>2026-04-11T14:51:15.283Z</time></trkpt><trkpt lat="44.1618815" lon="12.3829767"><ele>7.0</ele><time>2026-04-11T14:51:16.285Z</time></trkpt><trkpt lat="44.1620149" lon="12.3829544"><ele>7.5</ele><time>2026-04-11T14:51:17.284Z</time></trkpt><trkpt lat="44.1621318" lon="12.3829349"><ele>8.0</ele><time>2026-04-11T14:51:18.285Z</time></trkpt><trkpt lat="44.1622362" lon="12.382917"><ele>8.0</ele><time>2026-04-11T14:51:19.284Z</time></trkpt><trkpt lat="44.1623239" lon="12.3829007"><ele>8.0</ele><time>2026-04-11T14:51:20.285Z</time></trkpt><trkpt lat="44.1623927" lon="12.3828922"><ele>8.0</ele><time>2026-04-11T14:51:21.284Z</time></trkpt><trkpt lat="44.1624753" lon="12.3829533"><ele>8.0</ele><time>2026-04-11T14:51:23.286Z</time></trkpt><trkpt lat="44.1624791" lon="12.3831405"><ele>8.0</ele><time>2026-04-11T14:51:25.284Z</time></trkpt><trkpt lat="44.1624782" lon="12.3832836"><ele>7.75</ele><time>2026-04-11T14:51:26.283Z</time></trkpt><trkpt lat="44.1624844" lon="12.3834464"><ele>7.5</ele><time>2026-04-11T14:51:27.283Z</time></trkpt><trkpt lat="44.1624997" lon="12.3836206"><ele>7.25</ele><time>2026-04-11T14:51:28.285Z</time></trkpt><trkpt lat="44.162512" lon="12.3838092"><ele>7.0</ele><time>2026-04-11T14:51:29.285Z</time></trkpt><trkpt lat="44.1625265" lon="12.3840097"><ele>6.666666666666667</ele><time>2026-04-11T14:51:30.285Z</time></trkpt><trkpt lat="44.1625405" lon="12.3842137"><ele>6.333333333333334</ele><time>2026-04-11T14:51:31.285Z</time></trkpt><trkpt lat="44.1625535" lon="12.3844218"><ele>6.0</ele><time>2026-04-11T14:51:32.285Z</time></trkpt><trkpt lat="44.1625695" lon="12.3846414"><ele>5.666666666666667</ele><time>2026-04-11T14:51:33.285Z</time></trkpt><trkpt lat="44.1625841" lon="12.3848689"><ele>5.333333333333334</ele><time>2026-04-11T14:51:34.284Z</time></trkpt><trkpt lat="44.1625998" lon="12.3851007"><ele>5.0</ele><time>2026-04-11T14:51:35.285Z</time></trkpt><trkpt lat="44.1626185" lon="12.3853339"><ele>5.0</ele><time>2026-04-11T14:51:36.284Z</time></trkpt><trkpt lat="44.1626371" lon="12.3855705"><ele>5.0</ele><time>2026-04-11T14:51:37.286Z</time></trkpt><trkpt lat="44.1626475" lon="12.3858036"><ele>5.0</ele><time>2026-04-11T14:51:38.284Z</time></trkpt><trkpt lat="44.1626646" lon="12.3860319"><ele>5.0</ele><time>2026-04-11T14:51:39.285Z</time></trkpt><trkpt lat="44.162681" lon="12.3862595"><ele>5.0</ele><time>2026-04-11T14:51:40.286Z</time></trkpt><trkpt lat="44.162699" lon="12.3864841"><ele>5.0</ele><time>2026-04-11T14:51:41.284Z</time></trkpt><trkpt lat="44.1627145" lon="12.3867143"><ele>5.0</ele><time>2026-04-11T14:51:42.284Z</time></trkpt><trkpt lat="44.162733" lon="12.3869386"><ele>5.0</ele><time>2026-04-11T14:51:43.284Z</time></trkpt><trkpt lat="44.1627596" lon="12.3871512"><ele>5.0</ele><time>2026-04-11T14:51:44.286Z</time></trkpt><trkpt lat="44.1628099" lon="12.3873422"><ele>5.333333333333334</ele><time>2026-04-11T14:51:45.285Z</time></trkpt><trkpt lat="44.1628841" lon="12.3875284"><ele>5.666666666666667</ele><time>2026-04-11T14:51:46.285Z</time></trkpt><trkpt lat="44.1629752" lon="12.3877196"><ele>6.0</ele><time>2026-04-11T14:51:47.286Z</time></trkpt><trkpt lat="44.1630777" lon="12.3879104"><ele>5.333333333333333</ele><time>2026-04-11T14:51:48.284Z</time></trkpt><trkpt lat="44.1631856" lon="12.3881028"><ele>4.666666666666666</ele><time>2026-04-11T14:51:49.285Z</time></trkpt><trkpt lat="44.1632918" lon="12.3883017"><ele>4.0</ele><time>2026-04-11T14:51:50.284Z</time></trkpt><trkpt lat="44.1633927" lon="12.3884946"><ele>4.0</ele><time>2026-04-11T14:51:51.284Z</time></trkpt><trkpt lat="44.1634795" lon="12.3886945"><ele>4.0</ele><time>2026-04-11T14:51:52.285Z</time></trkpt><trkpt lat="44.1635479" lon="12.3889027"><ele>4.0</ele><time>2026-04-11T14:51:53.286Z</time></trkpt><trkpt lat="44.1636023" lon="12.389125"><ele>4.0</ele><time>2026-04-11T14:51:54.285Z</time></trkpt><trkpt lat="44.1636413" lon="12.3893478"><ele>4.0</ele><time>2026-04-11T14:51:55.285Z</time></trkpt><trkpt lat="44.1636741" lon="12.3895603"><ele>4.0</ele><time>2026-04-11T14:51:56.286Z</time></trkpt><trkpt lat="44.1637071" lon="12.3897564"><ele>4.25</ele><time>2026-04-11T14:51:57.285Z</time></trkpt><trkpt lat="44.1637457" lon="12.3899392"><ele>4.5</ele><time>2026-04-11T14:51:58.283Z</time></trkpt><trkpt lat="44.1637913" lon="12.3900913"><ele>4.75</ele><time>2026-04-11T14:51:59.284Z</time></trkpt><trkpt lat="44.1638525" lon="12.390228"><ele>5.0</ele><time>2026-04-11T14:52:00.283Z</time></trkpt><trkpt lat="44.1639399" lon="12.3903466"><ele>4.666666666666667</ele><time>2026-04-11T14:52:01.285Z</time></trkpt><trkpt lat="44.1640574" lon="12.3904612"><ele>4.333333333333333</ele><time>2026-04-11T14:52:02.284Z</time></trkpt><trkpt lat="44.1641987" lon="12.3905777"><ele>4.0</ele><time>2026-04-11T14:52:03.286Z</time></trkpt><trkpt lat="44.1643541" lon="12.3906914"><ele>3.6666666666666665</ele><time>2026-04-11T14:52:04.285Z</time></trkpt><trkpt lat="44.1645095" lon="12.390804"><ele>3.333333333333333</ele><time>2026-04-11T14:52:05.284Z</time></trkpt><trkpt lat="44.1646615" lon="12.3909102"><ele>3.0</ele><time>2026-04-11T14:52:06.286Z</time></trkpt><trkpt lat="44.1648159" lon="12.3910203"><ele>2.75</ele><time>2026-04-11T14:52:07.284Z</time></trkpt><trkpt lat="44.1649606" lon="12.3911177"><ele>2.5</ele><time>2026-04-11T14:52:08.284Z</time></trkpt><trkpt lat="44.1650902" lon="12.39121"><ele>2.25</ele><time>2026-04-11T14:52:09.284Z</time></trkpt><trkpt lat="44.1652022" lon="12.3913131"><ele>2.0</ele><time>2026-04-11T14:52:10.285Z</time></trkpt><trkpt lat="44.1652857" lon="12.3914342"><ele>2.4000000000000004</ele><time>2026-04-11T14:52:11.285Z</time></trkpt><trkpt lat="44.1653456" lon="12.3915824"><ele>2.8000000000000003</ele><time>2026-04-11T14:52:12.283Z</time></trkpt><trkpt lat="44.1653786" lon="12.3917259"><ele>3.2</ele><time>2026-04-11T14:52:13.285Z</time></trkpt><trkpt lat="44.1653963" lon="12.3918564"><ele>3.6</ele><time>2026-04-11T14:52:14.285Z</time></trkpt><trkpt lat="44.1653921" lon="12.3919786"><ele>4.0</ele><time>2026-04-11T14:52:15.285Z</time></trkpt><trkpt lat="44.1653663" lon="12.3921053"><ele>4.2</ele><time>2026-04-11T14:52:16.283Z</time></trkpt><trkpt lat="44.165336" lon="12.3922306"><ele>4.4</ele><time>2026-04-11T14:52:17.285Z</time></trkpt><trkpt lat="44.1653317" lon="12.3923586"><ele>4.6</ele><time>2026-04-11T14:52:18.284Z</time></trkpt><trkpt lat="44.1653599" lon="12.3924809"><ele>4.8</ele><time>2026-04-11T14:52:19.285Z</time></trkpt><trkpt lat="44.1654173" lon="12.3925757"><ele>5.0</ele><time>2026-04-11T14:52:20.285Z</time></trkpt><trkpt lat="44.1655013" lon="12.3926377"><ele>5.0</ele><time>2026-04-11T14:52:21.285Z</time></trkpt><trkpt lat="44.1655956" lon="12.3926798"><ele>5.0</ele><time>2026-04-11T14:52:22.285Z</time></trkpt><trkpt lat="44.1657029" lon="12.3927125"><ele>5.0</ele><time>2026-04-11T14:52:23.285Z</time></trkpt><trkpt lat="44.1658098" lon="12.3927912"><ele>5.0</ele><time>2026-04-11T14:52:24.283Z</time></trkpt><trkpt lat="44.1659148" lon="12.392896"><ele>4.5</ele><time>2026-04-11T14:52:25.284Z</time></trkpt><trkpt lat="44.166007" lon="12.393035"><ele>4.0</ele><time>2026-04-11T14:52:26.285Z</time></trkpt><trkpt lat="44.1661097" lon="12.3931883"><ele>3.5</ele><time>2026-04-11T14:52:27.285Z</time></trkpt><trkpt lat="44.1662312" lon="12.3933379"><ele>3.0</ele><time>2026-04-11T14:52:28.284Z</time></trkpt><trkpt lat="44.1663757" lon="12.3934835"><ele>3.333333333333333</ele><time>2026-04-11T14:52:29.284Z</time></trkpt><trkpt lat="44.1665305" lon="12.3936143"><ele>3.6666666666666665</ele><time>2026-04-11T14:52:30.285Z</time></trkpt><trkpt lat="44.1666871" lon="12.3937243"><ele>4.0</ele><time>2026-04-11T14:52:31.284Z</time></trkpt><trkpt lat="44.1668322" lon="12.3938274"><ele>3.6666666666666665</ele><time>2026-04-11T14:52:32.285Z</time></trkpt><trkpt lat="44.1669655" lon="12.3939342"><ele>3.333333333333333</ele><time>2026-04-11T14:52:33.284Z</time></trkpt><trkpt lat="44.1670855" lon="12.3940585"><ele>3.0</ele><time>2026-04-11T14:52:34.283Z</time></trkpt><trkpt lat="44.1671912" lon="12.3942076"><ele>3.0</ele><time>2026-04-11T14:52:35.285Z</time></trkpt><trkpt lat="44.1672828" lon="12.3943814"><ele>3.0</ele><time>2026-04-11T14:52:36.284Z</time></trkpt><trkpt lat="44.167378" lon="12.3945592"><ele>3.0</ele><time>2026-04-11T14:52:37.284Z</time></trkpt><trkpt lat="44.1674857" lon="12.3947254"><ele>3.333333333333333</ele><time>2026-04-11T14:52:38.285Z</time></trkpt><trkpt lat="44.167613" lon="12.3948952"><ele>3.6666666666666665</ele><time>2026-04-11T14:52:39.285Z</time></trkpt><trkpt lat="44.1677565" lon="12.3950609"><ele>4.0</ele><time>2026-04-11T14:52:40.284Z</time></trkpt><trkpt lat="44.1679136" lon="12.3952209"><ele>4.0</ele><time>2026-04-11T14:52:41.284Z</time></trkpt><trkpt lat="44.1680742" lon="12.3953768"><ele>4.0</ele><time>2026-04-11T14:52:42.285Z</time></trkpt><trkpt lat="44.1682454" lon="12.3955367"><ele>4.0</ele><time>2026-04-11T14:52:43.285Z</time></trkpt><trkpt lat="44.1684254" lon="12.3957024"><ele>3.333333333333333</ele><time>2026-04-11T14:52:44.285Z</time></trkpt><trkpt lat="44.1686059" lon="12.3958673"><ele>2.6666666666666665</ele><time>2026-04-11T14:52:45.284Z</time></trkpt><trkpt lat="44.1687929" lon="12.3960335"><ele>2.0</ele><time>2026-04-11T14:52:46.284Z</time></trkpt><trkpt lat="44.1689777" lon="12.3962007"><ele>1.6666666666666665</ele><time>2026-04-11T14:52:47.285Z</time></trkpt><trkpt lat="44.1691606" lon="12.3963652"><ele>1.3333333333333333</ele><time>2026-04-11T14:52:48.285Z</time></trkpt><trkpt lat="44.1693426" lon="12.3965319"><ele>1.0</ele><time>2026-04-11T14:52:49.285Z</time></trkpt><trkpt lat="44.1695242" lon="12.3966963"><ele>1.0</ele><time>2026-04-11T14:52:50.284Z</time></trkpt><trkpt lat="44.1697017" lon="12.3968656"><ele>1.0</ele><time>2026-04-11T14:52:51.284Z</time></trkpt><trkpt lat="44.1698696" lon="12.3970385"><ele>1.0</ele><time>2026-04-11T14:52:52.285Z</time></trkpt><trkpt lat="44.1700229" lon="12.397208"><ele>0.6666666666666666</ele><time>2026-04-11T14:52:53.285Z</time></trkpt><trkpt lat="44.1701698" lon="12.3973795"><ele>0.3333333333333333</ele><time>2026-04-11T14:52:54.285Z</time></trkpt><trkpt lat="44.1703081" lon="12.3975517"><ele>0.0</ele><time>2026-04-11T14:52:55.285Z</time></trkpt><trkpt lat="44.1704367" lon="12.3977173"><ele>0.0</ele><time>2026-04-11T14:52:56.285Z</time></trkpt><trkpt lat="44.1705611" lon="12.3978819"><ele>0.0</ele><time>2026-04-11T14:52:57.284Z</time></trkpt><trkpt lat="44.1706784" lon="12.3980463"><ele>0.0</ele><time>2026-04-11T14:52:58.285Z</time></trkpt><trkpt lat="44.1707886" lon="12.3982109"><ele>0.6666666666666666</ele><time>2026-04-11T14:52:59.284Z</time></trkpt><trkpt lat="44.1708936" lon="12.3983807"><ele>1.3333333333333333</ele><time>2026-04-11T14:53:00.284Z</time></trkpt><trkpt lat="44.1709878" lon="12.3985444"><ele>2.0</ele><time>2026-04-11T14:53:01.285Z</time></trkpt><trkpt lat="44.171074" lon="12.3987021"><ele>1.6</ele><time>2026-04-11T14:53:02.284Z</time></trkpt><trkpt lat="44.1711524" lon="12.3988402"><ele>1.2000000000000002</ele><time>2026-04-11T14:53:03.284Z</time></trkpt><trkpt lat="44.1712188" lon="12.3989616"><ele>0.8</ele><time>2026-04-11T14:53:04.285Z</time></trkpt><trkpt lat="44.1712756" lon="12.3990718"><ele>0.4</ele><time>2026-04-11T14:53:05.285Z</time></trkpt><trkpt lat="44.1713308" lon="12.3991701"><ele>0.0</ele><time>2026-04-11T14:53:06.286Z</time></trkpt><trkpt lat="44.171383" lon="12.3992444"><ele>0.0</ele><time>2026-04-11T14:53:07.283Z</time></trkpt><trkpt lat="44.1714441" lon="12.3992883"><ele>0.0</ele><time>2026-04-11T14:53:08.286Z</time></trkpt><trkpt lat="44.171559" lon="12.3992482"><ele>0.0</ele><time>2026-04-11T14:53:10.284Z</time></trkpt><trkpt lat="44.1716234" lon="12.3991905"><ele>0.0</ele><time>2026-04-11T14:53:11.285Z</time></trkpt><trkpt lat="44.1716984" lon="12.3991488"><ele>0.0</ele><time>2026-04-11T14:53:12.285Z</time></trkpt><trkpt lat="44.1717788" lon="12.3991315"><ele>0.0</ele><time>2026-04-11T14:53:13.284Z</time></trkpt><trkpt lat="44.1718709" lon="12.3991492"><ele>0.4</ele><time>2026-04-11T14:53:14.285Z</time></trkpt><trkpt lat="44.1719616" lon="12.3991889"><ele>0.8</ele><time>2026-04-11T14:53:15.284Z</time></trkpt><trkpt lat="44.1720537" lon="12.3992386"><ele>1.2000000000000002</ele><time>2026-04-11T14:53:16.284Z</time></trkpt><trkpt lat="44.1721492" lon="12.399293"><ele>1.6</ele><time>2026-04-11T14:53:17.285Z</time></trkpt><trkpt lat="44.1722516" lon="12.3993533"><ele>2.0</ele><time>2026-04-11T14:53:18.285Z</time></trkpt><trkpt lat="44.1723563" lon="12.3994062"><ele>1.75</ele><time>2026-04-11T14:53:19.285Z</time></trkpt><trkpt lat="44.1724667" lon="12.3994433"><ele>1.5</ele><time>2026-04-11T14:53:20.284Z</time></trkpt><trkpt lat="44.1725828" lon="12.3994529"><ele>1.25</ele><time>2026-04-11T14:53:21.285Z</time></trkpt><trkpt lat="44.1727016" lon="12.3994304"><ele>1.0</ele><time>2026-04-11T14:53:22.285Z</time></trkpt><trkpt lat="44.1728154" lon="12.3993983"><ele>1.0</ele><time>2026-04-11T14:53:23.285Z</time></trkpt><trkpt lat="44.1729349" lon="12.3993651"><ele>1.0</ele><time>2026-04-11T14:53:24.284Z</time></trkpt><trkpt lat="44.1730621" lon="12.399321"><ele>1.0</ele><time>2026-04-11T14:53:25.285Z</time></trkpt><trkpt lat="44.1731975" lon="12.3992655"><ele>1.0</ele><time>2026-04-11T14:53:26.284Z</time></trkpt><trkpt lat="44.1733534" lon="12.3991785"><ele>1.0</ele><time>2026-04-11T14:53:27.285Z</time></trkpt><trkpt lat="44.1735255" lon="12.3990603"><ele>1.0</ele><time>2026-04-11T14:53:28.284Z</time></trkpt><trkpt lat="44.1737059" lon="12.3989277"><ele>1.0</ele><time>2026-04-11T14:53:29.285Z</time></trkpt><trkpt lat="44.1738999" lon="12.3987804"><ele>1.3333333333333333</ele><time>2026-04-11T14:53:30.284Z</time></trkpt><trkpt lat="44.1741022" lon="12.3986208"><ele>1.6666666666666665</ele><time>2026-04-11T14:53:31.284Z</time></trkpt><trkpt lat="44.1742876" lon="12.3984723"><ele>2.0</ele><time>2026-04-11T14:53:32.283Z</time></trkpt><trkpt lat="44.1744579" lon="12.3983322"><ele>2.0</ele><time>2026-04-11T14:53:33.284Z</time></trkpt><trkpt lat="44.1746149" lon="12.398203"><ele>2.0</ele><time>2026-04-11T14:53:34.285Z</time></trkpt><trkpt lat="44.1747682" lon="12.3980879"><ele>2.0</ele><time>2026-04-11T14:53:35.284Z</time></trkpt><trkpt lat="44.1749207" lon="12.3980063"><ele>1.3333333333333333</ele><time>2026-04-11T14:53:36.284Z</time></trkpt><trkpt lat="44.1750867" lon="12.397981"><ele>0.6666666666666666</ele><time>2026-04-11T14:53:37.283Z</time></trkpt><trkpt lat="44.1752618" lon="12.3979934"><ele>0.0</ele><time>2026-04-11T14:53:38.285Z</time></trkpt><trkpt lat="44.1754471" lon="12.3980289"><ele>0.0</ele><time>2026-04-11T14:53:39.283Z</time></trkpt><trkpt lat="44.1756413" lon="12.3980738"><ele>0.0</ele><time>2026-04-11T14:53:40.285Z</time></trkpt><trkpt lat="44.1758331" lon="12.3981253"><ele>0.0</ele><time>2026-04-11T14:53:41.285Z</time></trkpt><trkpt lat="44.1760295" lon="12.3981841"><ele>0.0</ele><time>2026-04-11T14:53:42.284Z</time></trkpt><trkpt lat="44.176217" lon="12.3982501"><ele>0.0</ele><time>2026-04-11T14:53:43.285Z</time></trkpt><trkpt lat="44.1764014" lon="12.3983353"><ele>0.0</ele><time>2026-04-11T14:53:44.283Z</time></trkpt><trkpt lat="44.1765734" lon="12.3984523"><ele>0.0</ele><time>2026-04-11T14:53:45.285Z</time></trkpt><trkpt lat="44.1767379" lon="12.3986066"><ele>0.0</ele><time>2026-04-11T14:53:46.285Z</time></trkpt><trkpt lat="44.1768959" lon="12.3987948"><ele>0.0</ele><time>2026-04-11T14:53:47.284Z</time></trkpt><trkpt lat="44.1770505" lon="12.3989883"><ele>0.0</ele><time>2026-04-11T14:53:48.284Z</time></trkpt><trkpt lat="44.1772027" lon="12.3991838"><ele>0.0</ele><time>2026-04-11T14:53:49.284Z</time></trkpt><trkpt lat="44.1773567" lon="12.3993789"><ele>0.0</ele><time>2026-04-11T14:53:50.284Z</time></trkpt><trkpt lat="44.1775136" lon="12.3995779"><ele>0.0</ele><time>2026-04-11T14:53:51.284Z</time></trkpt><trkpt lat="44.1776686" lon="12.3997633"><ele>0.0</ele><time>2026-04-11T14:53:52.285Z</time></trkpt><trkpt lat="44.1778213" lon="12.3999332"><ele>0.0</ele><time>2026-04-11T14:53:53.285Z</time></trkpt><trkpt lat="44.1779837" lon="12.4001007"><ele>0.0</ele><time>2026-04-11T14:53:54.284Z</time></trkpt><trkpt lat="44.1781638" lon="12.4002592"><ele>0.0</ele><time>2026-04-11T14:53:55.284Z</time></trkpt><trkpt lat="44.1783513" lon="12.4004201"><ele>0.0</ele><time>2026-04-11T14:53:56.284Z</time></trkpt><trkpt lat="44.1785432" lon="12.4005805"><ele>0.0</ele><time>2026-04-11T14:53:57.285Z</time></trkpt><trkpt lat="44.1787356" lon="12.4007456"><ele>0.0</ele><time>2026-04-11T14:53:58.284Z</time></trkpt><trkpt lat="44.1789236" lon="12.4009082"><ele>0.0</ele><time>2026-04-11T14:53:59.283Z</time></trkpt><trkpt lat="44.1791092" lon="12.4010657"><ele>0.0</ele><time>2026-04-11T14:54:00.284Z</time></trkpt><trkpt lat="44.1792939" lon="12.4012261"><ele>0.0</ele><time>2026-04-11T14:54:01.284Z</time></trkpt><trkpt lat="44.1794754" lon="12.4013833"><ele>0.0</ele><time>2026-04-11T14:54:02.284Z</time></trkpt><trkpt lat="44.1796556" lon="12.4015383"><ele>0.0</ele><time>2026-04-11T14:54:03.284Z</time></trkpt><trkpt lat="44.179824" lon="12.4016834"><ele>0.0</ele><time>2026-04-11T14:54:04.283Z</time></trkpt><trkpt lat="44.179989" lon="12.4018282"><ele>0.0</ele><time>2026-04-11T14:54:05.285Z</time></trkpt><trkpt lat="44.1801588" lon="12.4019507"><ele>0.0</ele><time>2026-04-11T14:54:06.285Z</time></trkpt><trkpt lat="44.1803381" lon="12.4020445"><ele>0.0</ele><time>2026-04-11T14:54:07.285Z</time></trkpt><trkpt lat="44.1805255" lon="12.4021205"><ele>0.0</ele><time>2026-04-11T14:54:08.283Z</time></trkpt><trkpt lat="44.1807201" lon="12.4021857"><ele>0.3333333333333333</ele><time>2026-04-11T14:54:09.286Z</time></trkpt><trkpt lat="44.1809172" lon="12.4022581"><ele>0.6666666666666666</ele><time>2026-04-11T14:54:10.284Z</time></trkpt><trkpt lat="44.1811145" lon="12.4023241"><ele>1.0</ele><time>2026-04-11T14:54:11.284Z</time></trkpt><trkpt lat="44.1813224" lon="12.4023962"><ele>0.6666666666666666</ele><time>2026-04-11T14:54:12.285Z</time></trkpt><trkpt lat="44.1815211" lon="12.402466"><ele>0.3333333333333333</ele><time>2026-04-11T14:54:13.285Z</time></trkpt><trkpt lat="44.1817183" lon="12.402528"><ele>0.0</ele><time>2026-04-11T14:54:14.285Z</time></trkpt><trkpt lat="44.181913" lon="12.4025883"><ele>0.0</ele><time>2026-04-11T14:54:15.283Z</time></trkpt><trkpt lat="44.182101" lon="12.402666"><ele>0.0</ele><time>2026-04-11T14:54:16.284Z</time></trkpt><trkpt lat="44.1822889" lon="12.402714"><ele>0.0</ele><time>2026-04-11T14:54:17.285Z</time></trkpt><trkpt lat="44.1824829" lon="12.4027657"><ele>0.0</ele><time>2026-04-11T14:54:18.285Z</time></trkpt><trkpt lat="44.1826839" lon="12.4028156"><ele>0.0</ele><time>2026-04-11T14:54:19.284Z</time></trkpt><trkpt lat="44.1828897" lon="12.4028743"><ele>0.0</ele><time>2026-04-11T14:54:20.284Z</time></trkpt><trkpt lat="44.1830964" lon="12.4029262"><ele>-0.3333333333333333</ele><time>2026-04-11T14:54:21.283Z</time></trkpt><trkpt lat="44.1833063" lon="12.4029797"><ele>-0.6666666666666666</ele><time>2026-04-11T14:54:22.283Z</time></trkpt><trkpt lat="44.183515" lon="12.403035"><ele>-1.0</ele><time>2026-04-11T14:54:23.284Z</time></trkpt><trkpt lat="44.1837269" lon="12.4030928"><ele>-1.3333333333333333</ele><time>2026-04-11T14:54:24.284Z</time></trkpt><trkpt lat="44.183938" lon="12.4031458"><ele>-1.6666666666666665</ele><time>2026-04-11T14:54:25.284Z</time></trkpt><trkpt lat="44.1841512" lon="12.4032003"><ele>-2.0</ele><time>2026-04-11T14:54:26.284Z</time></trkpt><trkpt lat="44.1843627" lon="12.4032573"><ele>-1.6666666666666665</ele><time>2026-04-11T14:54:27.284Z</time></trkpt><trkpt lat="44.1845744" lon="12.4033134"><ele>-1.3333333333333333</ele><time>2026-04-11T14:54:28.286Z</time></trkpt><trkpt lat="44.1847803" lon="12.403369"><ele>-1.0</ele><time>2026-04-11T14:54:29.284Z</time></trkpt><trkpt lat="44.1849877" lon="12.4034203"><ele>-1.0</ele><time>2026-04-11T14:54:30.283Z</time></trkpt><trkpt lat="44.1851989" lon="12.403478"><ele>-1.0</ele><time>2026-04-11T14:54:31.283Z</time></trkpt><trkpt lat="44.1854061" lon="12.4035321"><ele>-1.0</ele><time>2026-04-11T14:54:32.284Z</time></trkpt><trkpt lat="44.1856135" lon="12.4035823"><ele>-1.0</ele><time>2026-04-11T14:54:33.284Z</time></trkpt><trkpt lat="44.1858191" lon="12.4036333"><ele>-1.0</ele><time>2026-04-11T14:54:34.285Z</time></trkpt><trkpt lat="44.1860252" lon="12.4036893"><ele>-1.0</ele><time>2026-04-11T14:54:35.285Z</time></trkpt><trkpt lat="44.1862308" lon="12.4037448"><ele>-1.0</ele><time>2026-04-11T14:54:36.284Z</time></trkpt><trkpt lat="44.1864356" lon="12.4038011"><ele>-1.0</ele><time>2026-04-11T14:54:37.284Z</time></trkpt><trkpt lat="44.1866396" lon="12.4038591"><ele>-1.0</ele><time>2026-04-11T14:54:38.283Z</time></trkpt><trkpt lat="44.1868251" lon="12.4039107"><ele>-1.0</ele><time>2026-04-11T14:54:39.284Z</time></trkpt><trkpt lat="44.1870071" lon="12.4039666"><ele>-1.0</ele><time>2026-04-11T14:54:40.285Z</time></trkpt><trkpt lat="44.1871735" lon="12.4040112"><ele>-1.0</ele><time>2026-04-11T14:54:41.285Z</time></trkpt><trkpt lat="44.1873322" lon="12.4040549"><ele>-1.0</ele><time>2026-04-11T14:54:42.285Z</time></trkpt><trkpt lat="44.1874784" lon="12.4040998"><ele>-1.0</ele><time>2026-04-11T14:54:43.286Z</time></trkpt><trkpt lat="44.1876095" lon="12.4041364"><ele>-1.0</ele><time>2026-04-11T14:54:44.285Z</time></trkpt><trkpt lat="44.1877223" lon="12.4041674"><ele>-1.0</ele><time>2026-04-11T14:54:45.285Z</time></trkpt><trkpt lat="44.1878282" lon="12.4041893"><ele>-1.0</ele><time>2026-04-11T14:54:46.284Z</time></trkpt><trkpt lat="44.1879067" lon="12.4041541"><ele>-1.0</ele><time>2026-04-11T14:54:47.284Z</time></trkpt><trkpt lat="44.1879885" lon="12.404076"><ele>-1.0</ele><time>2026-04-11T14:54:48.285Z</time></trkpt><trkpt lat="44.18807" lon="12.403964"><ele>-1.0</ele><time>2026-04-11T14:54:49.284Z</time></trkpt><trkpt lat="44.1881537" lon="12.4038372"><ele>-1.0</ele><time>2026-04-11T14:54:50.285Z</time></trkpt><trkpt lat="44.1882348" lon="12.4037136"><ele>-0.4</ele><time>2026-04-11T14:54:51.284Z</time></trkpt><trkpt lat="44.1882939" lon="12.4036098"><ele>0.19999999999999996</ele><time>2026-04-11T14:54:52.285Z</time></trkpt><trkpt lat="44.1883612" lon="12.4035355"><ele>0.8000000000000002</ele><time>2026-04-11T14:54:53.283Z</time></trkpt><trkpt lat="44.1884331" lon="12.4034923"><ele>1.4000000000000001</ele><time>2026-04-11T14:54:54.286Z</time></trkpt><trkpt lat="44.1885126" lon="12.403496"><ele>2.0</ele><time>2026-04-11T14:54:55.284Z</time></trkpt><trkpt lat="44.1886336" lon="12.4035418"><ele>2.0</ele><time>2026-04-11T14:54:56.284Z</time></trkpt><trkpt lat="44.1887402" lon="12.4035801"><ele>2.0</ele><time>2026-04-11T14:54:57.285Z</time></trkpt><trkpt lat="44.1888707" lon="12.4036206"><ele>2.0</ele><time>2026-04-11T14:54:58.286Z</time></trkpt><trkpt lat="44.1890075" lon="12.4036664"><ele>2.0</ele><time>2026-04-11T14:54:59.285Z</time></trkpt><trkpt lat="44.1891298" lon="12.4037068"><ele>2.0</ele><time>2026-04-11T14:55:00.283Z</time></trkpt><trkpt lat="44.1892244" lon="12.4037526"><ele>2.0</ele><time>2026-04-11T14:55:01.286Z</time></trkpt><trkpt lat="44.1893098" lon="12.4038316"><ele>2.0</ele><time>2026-04-11T14:55:02.284Z</time></trkpt><trkpt lat="44.1893919" lon="12.403922"><ele>2.0</ele><time>2026-04-11T14:55:03.285Z</time></trkpt><trkpt lat="44.189452" lon="12.4040015"><ele>2.0</ele><time>2026-04-11T14:55:04.286Z</time></trkpt><trkpt lat="44.1895129" lon="12.40415"><ele>1.9999999999999998</ele><time>2026-04-11T14:55:06.284Z</time></trkpt><trkpt lat="44.1895335" lon="12.4042831"><ele>2.0</ele><time>2026-04-11T14:55:08.284Z</time></trkpt><trkpt lat="44.1895658" lon="12.4043691"><ele>2.0</ele><time>2026-04-11T14:55:11.285Z</time></trkpt><trkpt lat="44.1896325" lon="12.4044531"><ele>2.0</ele><time>2026-04-11T14:55:14.286Z</time></trkpt><trkpt lat="44.1896939" lon="12.4044775"><ele>1.9999999999999998</ele><time>2026-04-11T14:55:16.285Z</time></trkpt><trkpt lat="44.1897827" lon="12.4044556"><ele>2.0</ele><time>2026-04-11T14:55:19.284Z</time></trkpt><trkpt lat="44.189845" lon="12.4044176"><ele>1.9999999999999998</ele><time>2026-04-11T14:55:22.284Z</time></trkpt><trkpt lat="44.1899268" lon="12.4044194"><ele>2.0</ele><time>2026-04-11T14:55:26.284Z</time></trkpt><trkpt lat="44.1899918" lon="12.4044946"><ele>2.0</ele><time>2026-04-11T14:55:30.285Z</time></trkpt><trkpt lat="44.1900507" lon="12.4045663"><ele>2.0</ele><time>2026-04-11T14:55:33.284Z</time></trkpt><trkpt lat="44.1901345" lon="12.4046555"><ele>1.9999999999999998</ele><time>2026-04-11T14:55:35.286Z</time></trkpt><trkpt lat="44.1901592" lon="12.4047834"><ele>2.0</ele><time>2026-04-11T14:55:37.285Z</time></trkpt><trkpt lat="44.1900916" lon="12.4049058"><ele>2.333333333333333</ele><time>2026-04-11T14:55:39.285Z</time></trkpt><trkpt lat="44.1900071" lon="12.4049615"><ele>2.6666666666666665</ele><time>2026-04-11T14:55:41.286Z</time></trkpt><trkpt lat="44.1899302" lon="12.4049967"><ele>3.0</ele><time>2026-04-11T14:55:43.286Z</time></trkpt><trkpt lat="44.189912" lon="12.4050845"><ele>3.333333333333333</ele><time>2026-04-11T14:55:45.283Z</time></trkpt><trkpt lat="44.1899936" lon="12.4051094"><ele>3.6666666666666665</ele><time>2026-04-11T14:55:48.284Z</time></trkpt><trkpt lat="44.1900532" lon="12.4050263"><ele>4.0</ele><time>2026-04-11T14:55:49.283Z</time></trkpt><trkpt lat="44.1901428" lon="12.4049268"><ele>4.0</ele><time>2026-04-11T14:55:50.284Z</time></trkpt><trkpt lat="44.1902626" lon="12.404813"><ele>4.0</ele><time>2026-04-11T14:55:51.284Z</time></trkpt><trkpt lat="44.1903903" lon="12.4046809"><ele>4.0</ele><time>2026-04-11T14:55:52.284Z</time></trkpt><trkpt lat="44.1905225" lon="12.4045396"><ele>3.6666666666666665</ele><time>2026-04-11T14:55:53.284Z</time></trkpt><trkpt lat="44.190663" lon="12.4043934"><ele>3.333333333333333</ele><time>2026-04-11T14:55:54.285Z</time></trkpt><trkpt lat="44.1907901" lon="12.4042359"><ele>3.0</ele><time>2026-04-11T14:55:55.285Z</time></trkpt><trkpt lat="44.1909298" lon="12.4040825"><ele>3.0</ele><time>2026-04-11T14:55:56.284Z</time></trkpt><trkpt lat="44.1910684" lon="12.4039331"><ele>3.0</ele><time>2026-04-11T14:55:57.285Z</time></trkpt><trkpt lat="44.1912052" lon="12.4037851"><ele>3.0</ele><time>2026-04-11T14:55:58.284Z</time></trkpt><trkpt lat="44.1913375" lon="12.4036395"><ele>2.3333333333333335</ele><time>2026-04-11T14:55:59.285Z</time></trkpt><trkpt lat="44.1914776" lon="12.4034902"><ele>1.6666666666666665</ele><time>2026-04-11T14:56:00.285Z</time></trkpt><trkpt lat="44.1916044" lon="12.403349"><ele>1.0</ele><time>2026-04-11T14:56:01.285Z</time></trkpt><trkpt lat="44.191735" lon="12.4032075"><ele>1.0</ele><time>2026-04-11T14:56:02.285Z</time></trkpt><trkpt lat="44.1918634" lon="12.4030636"><ele>1.0</ele><time>2026-04-11T14:56:03.285Z</time></trkpt><trkpt lat="44.192003" lon="12.4029122"><ele>1.0</ele><time>2026-04-11T14:56:04.284Z</time></trkpt><trkpt lat="44.1921375" lon="12.4027662"><ele>1.0</ele><time>2026-04-11T14:56:05.285Z</time></trkpt><trkpt lat="44.1922713" lon="12.4026281"><ele>1.0</ele><time>2026-04-11T14:56:06.283Z</time></trkpt><trkpt lat="44.1923953" lon="12.40249"><ele>1.0</ele><time>2026-04-11T14:56:07.285Z</time></trkpt><trkpt lat="44.192512" lon="12.4023605"><ele>1.0</ele><time>2026-04-11T14:56:08.283Z</time></trkpt><trkpt lat="44.1926149" lon="12.4022436"><ele>1.0</ele><time>2026-04-11T14:56:09.284Z</time></trkpt><trkpt lat="44.192715" lon="12.4021394"><ele>1.0</ele><time>2026-04-11T14:56:10.285Z</time></trkpt><trkpt lat="44.1928078" lon="12.402044"><ele>1.0</ele><time>2026-04-11T14:56:11.284Z</time></trkpt><trkpt lat="44.1928914" lon="12.4019555"><ele>1.0</ele><time>2026-04-11T14:56:12.285Z</time></trkpt><trkpt lat="44.1929678" lon="12.4018789"><ele>0.9999999999999999</ele><time>2026-04-11T14:56:13.284Z</time></trkpt><trkpt lat="44.1930313" lon="12.401815"><ele>1.0</ele><time>2026-04-11T14:56:14.284Z</time></trkpt><trkpt lat="44.1930842" lon="12.4017574"><ele>1.0</ele><time>2026-04-11T14:56:15.285Z</time></trkpt><trkpt lat="44.1931368" lon="12.4017009"><ele>0.9999999999999999</ele><time>2026-04-11T14:56:16.286Z</time></trkpt><trkpt lat="44.1931889" lon="12.4016429"><ele>1.0</ele><time>2026-04-11T14:56:17.284Z</time></trkpt><trkpt lat="44.1932405" lon="12.4015902"><ele>1.0</ele><time>2026-04-11T14:56:18.285Z</time></trkpt><trkpt lat="44.1933394" lon="12.401493"><ele>1.0</ele><time>2026-04-11T14:56:20.285Z</time></trkpt><trkpt lat="44.1934527" lon="12.4013783"><ele>1.0</ele><time>2026-04-11T14:56:22.284Z</time></trkpt><trkpt lat="44.1935222" lon="12.4013069"><ele>1.0</ele><time>2026-04-11T14:56:23.283Z</time></trkpt><trkpt lat="44.19358" lon="12.4012454"><ele>1.0</ele><time>2026-04-11T14:56:24.284Z</time></trkpt><trkpt lat="44.1936552" lon="12.4011664"><ele>1.0</ele><time>2026-04-11T14:56:26.283Z</time></trkpt><trkpt lat="44.1937314" lon="12.4010938"><ele>1.0</ele><time>2026-04-11T14:56:28.285Z</time></trkpt><trkpt lat="44.1938" lon="12.4010114"><ele>1.0</ele><time>2026-04-11T14:56:30.284Z</time></trkpt><trkpt lat="44.1938757" lon="12.4009603"><ele>1.0</ele><time>2026-04-11T14:56:33.285Z</time></trkpt><trkpt lat="44.1939655" lon="12.4010143"><ele>1.0</ele><time>2026-04-11T14:56:35.284Z</time></trkpt><trkpt lat="44.1940269" lon="12.4011425"><ele>1.0</ele><time>2026-04-11T14:56:36.286Z</time></trkpt><trkpt lat="44.1940941" lon="12.4012692"><ele>1.75</ele><time>2026-04-11T14:56:37.285Z</time></trkpt><trkpt lat="44.1941646" lon="12.40142"><ele>2.5</ele><time>2026-04-11T14:56:38.283Z</time></trkpt><trkpt lat="44.194237" lon="12.4015719"><ele>3.25</ele><time>2026-04-11T14:56:39.283Z</time></trkpt><trkpt lat="44.1943055" lon="12.4017251"><ele>4.0</ele><time>2026-04-11T14:56:40.284Z</time></trkpt><trkpt lat="44.1943702" lon="12.4018648"><ele>4.0</ele><time>2026-04-11T14:56:41.285Z</time></trkpt><trkpt lat="44.1944391" lon="12.4019968"><ele>4.0</ele><time>2026-04-11T14:56:42.283Z</time></trkpt><trkpt lat="44.1945021" lon="12.4021113"><ele>4.0</ele><time>2026-04-11T14:56:43.283Z</time></trkpt><trkpt lat="44.1945617" lon="12.4022332"><ele>4.0</ele><time>2026-04-11T14:56:44.284Z</time></trkpt><trkpt lat="44.1946175" lon="12.4023501"><ele>4.0</ele><time>2026-04-11T14:56:45.285Z</time></trkpt><trkpt lat="44.1946636" lon="12.4024563"><ele>4.0</ele><time>2026-04-11T14:56:46.285Z</time></trkpt><trkpt lat="44.194703" lon="12.4025484"><ele>3.9999999999999996</ele><time>2026-04-11T14:56:47.285Z</time></trkpt><trkpt lat="44.1947361" lon="12.4026401"><ele>4.0</ele><time>2026-04-11T14:56:48.283Z</time></trkpt><trkpt lat="44.1947609" lon="12.4027342"><ele>4.0</ele><time>2026-04-11T14:56:49.284Z</time></trkpt><trkpt lat="44.1947699" lon="12.4028272"><ele>3.9999999999999996</ele><time>2026-04-11T14:56:50.284Z</time></trkpt><trkpt lat="44.1947725" lon="12.4029251"><ele>4.0</ele><time>2026-04-11T14:56:51.284Z</time></trkpt><trkpt lat="44.1947705" lon="12.403033"><ele>4.0</ele><time>2026-04-11T14:56:52.284Z</time></trkpt><trkpt lat="44.1947816" lon="12.4031287"><ele>4.142857142857142</ele><time>2026-04-11T14:56:53.284Z</time></trkpt><trkpt lat="44.1948094" lon="12.4032177"><ele>4.285714285714286</ele><time>2026-04-11T14:56:54.284Z</time></trkpt><trkpt lat="44.194844" lon="12.4032986"><ele>4.428571428571429</ele><time>2026-04-11T14:56:55.285Z</time></trkpt><trkpt lat="44.1948831" lon="12.4033765"><ele>4.571428571428571</ele><time>2026-04-11T14:56:56.284Z</time></trkpt><trkpt lat="44.1949343" lon="12.4034371"><ele>4.714285714285714</ele><time>2026-04-11T14:56:57.284Z</time></trkpt><trkpt lat="44.1949918" lon="12.403489"><ele>4.857142857142857</ele><time>2026-04-11T14:56:58.284Z</time></trkpt><trkpt lat="44.1950884" lon="12.4035334"><ele>5.0</ele><time>2026-04-11T14:57:00.284Z</time></trkpt><trkpt lat="44.1951702" lon="12.4035858"><ele>5.2</ele><time>2026-04-11T14:57:02.285Z</time></trkpt><trkpt lat="44.1952211" lon="12.4036694"><ele>5.4</ele><time>2026-04-11T14:57:04.286Z</time></trkpt><trkpt lat="44.1952916" lon="12.4037983"><ele>5.6</ele><time>2026-04-11T14:57:06.284Z</time></trkpt><trkpt lat="44.195329" lon="12.4038752"><ele>5.8</ele><time>2026-04-11T14:57:07.285Z</time></trkpt><trkpt lat="44.1953966" lon="12.4040056"><ele>6.0</ele><time>2026-04-11T14:57:09.286Z</time></trkpt><trkpt lat="44.1954495" lon="12.4041132"><ele>6.0</ele><time>2026-04-11T14:57:11.284Z</time></trkpt><trkpt lat="44.1954881" lon="12.4041959"><ele>6.0</ele><time>2026-04-11T14:57:13.285Z</time></trkpt><trkpt lat="44.1955248" lon="12.4042696"><ele>6.0</ele><time>2026-04-11T14:57:21.284Z</time></trkpt><trkpt lat="44.1955664" lon="12.4043639"><ele>6.0</ele><time>2026-04-11T14:57:23.283Z</time></trkpt><trkpt lat="44.195626" lon="12.4044847"><ele>6.0</ele><time>2026-04-11T14:57:25.285Z</time></trkpt><trkpt lat="44.1957144" lon="12.4045929"><ele>6.0</ele><time>2026-04-11T14:57:27.284Z</time></trkpt><trkpt lat="44.1958127" lon="12.4046678"><ele>6.0</ele><time>2026-04-11T14:57:29.284Z</time></trkpt><trkpt lat="44.1958766" lon="12.4046347"><ele>6.0</ele><time>2026-04-11T14:57:30.284Z</time></trkpt><trkpt lat="44.1959703" lon="12.404581"><ele>6.0</ele><time>2026-04-11T14:57:31.286Z</time></trkpt><trkpt lat="44.1960516" lon="12.4045171"><ele>6.0</ele><time>2026-04-11T14:57:32.285Z</time></trkpt><trkpt lat="44.1961494" lon="12.4044273"><ele>6.0</ele><time>2026-04-11T14:57:33.285Z</time></trkpt><trkpt lat="44.1962605" lon="12.4043341"><ele>6.0</ele><time>2026-04-11T14:57:34.284Z</time></trkpt><trkpt lat="44.1963933" lon="12.4042431"><ele>6.0</ele><time>2026-04-11T14:57:35.284Z</time></trkpt><trkpt lat="44.1965032" lon="12.4041573"><ele>6.0</ele><time>2026-04-11T14:57:36.285Z</time></trkpt><trkpt lat="44.1966224" lon="12.40407"><ele>6.0</ele><time>2026-04-11T14:57:37.284Z</time></trkpt><trkpt lat="44.1967145" lon="12.4040015"><ele>5.6</ele><time>2026-04-11T14:57:38.285Z</time></trkpt><trkpt lat="44.1968067" lon="12.4039404"><ele>5.199999999999999</ele><time>2026-04-11T14:57:39.285Z</time></trkpt><trkpt lat="44.1969199" lon="12.4038873"><ele>4.800000000000001</ele><time>2026-04-11T14:57:40.285Z</time></trkpt><trkpt lat="44.1970108" lon="12.4038534"><ele>4.4</ele><time>2026-04-11T14:57:41.285Z</time></trkpt><trkpt lat="44.1971019" lon="12.4038254"><ele>4.0</ele><time>2026-04-11T14:57:42.284Z</time></trkpt><trkpt lat="44.1971821" lon="12.4038232"><ele>4.0</ele><time>2026-04-11T14:57:43.284Z</time></trkpt><trkpt lat="44.1972526" lon="12.4038408"><ele>4.0</ele><time>2026-04-11T14:57:44.284Z</time></trkpt><trkpt lat="44.1973258" lon="12.4038597"><ele>4.0</ele><time>2026-04-11T14:57:45.283Z</time></trkpt><trkpt lat="44.1974436" lon="12.4039155"><ele>4.0</ele><time>2026-04-11T14:57:47.284Z</time></trkpt><trkpt lat="44.1975178" lon="12.4040495"><ele>4.0</ele><time>2026-04-11T14:57:49.284Z</time></trkpt><trkpt lat="44.1975418" lon="12.4041782"><ele>4.0</ele><time>2026-04-11T14:57:51.285Z</time></trkpt><trkpt lat="44.1974726" lon="12.40428"><ele>4.0</ele><time>2026-04-11T14:57:53.284Z</time></trkpt><trkpt lat="44.1973656" lon="12.404359"><ele>4.0</ele><time>2026-04-11T14:57:55.284Z</time></trkpt><trkpt lat="44.1972897" lon="12.4044115"><ele>4.0</ele><time>2026-04-11T14:57:57.284Z</time></trkpt><trkpt lat="44.1972396" lon="12.4043516"><ele>4.0</ele><time>2026-04-11T14:58:26.284Z</time></trkpt><trkpt lat="44.1972014" lon="12.4042376"><ele>4.0</ele><time>2026-04-11T14:58:29.285Z</time></trkpt><trkpt lat="44.1975236" lon="12.4041951"><ele>4.0</ele><time>2026-04-11T14:59:25.149Z</time></trkpt><trkpt lat="44.1965575" lon="12.4049263"><ele>2.0</ele><time>2026-04-11T15:01:30.414Z</time></trkpt><trkpt lat="44.1975184" lon="12.4042004"><ele>3.0</ele><time>2026-04-11T15:01:44.997Z</time></trkpt><trkpt lat="44.1971362" lon="12.4043457"><ele>4.0</ele><time>2026-04-11T15:03:26.333Z</time></trkpt><trkpt lat="44.1972445" lon="12.4043968"><ele>4.0</ele><time>2026-04-11T15:03:35.283Z</time></trkpt><trkpt lat="44.1972203" lon="12.4044837"><ele>4.0</ele><time>2026-04-11T15:03:48.284Z</time></trkpt></trkseg></trk></gpx>